<?xml version='1.0' encoding='UTF-8'?><gpx version="1.1" creator="JPX - https://github.com/jenetics/jpx" xmlns="http://www.topografix.com/GPX/1/1"><trk><trkseg><trkpt lat="43.766576814961816" lon="11.216816842257671"><ele>47.0</ele><time>2026-04-18T09:57:19.001Z</time></trkpt><trkpt lat="43.76662194103486" lon="11.21687965973374"><ele>47.0</ele><time>2026-04-18T09:57:24.001Z</time></trkpt><trkpt lat="43.7665731228059" lon="11.216983712049569"><ele>47.0</ele><time>2026-04-18T09:57:27Z</time></trkpt><trkpt lat="43.76654959045546" lon="11.217100186416639"><ele>47.0</ele><time>2026-04-18T09:57:29Z</time></trkpt><trkpt lat="43.7664996172885" lon="11.217203863601782"><ele>47.0</ele><time>2026-04-18T09:57:31Z</time></trkpt><trkpt lat="43.766455626033135" lon="11.217312915463992"><ele>47.0</ele><time>2026-04-18T09:57:33Z</time></trkpt><trkpt lat="43.76640011679647" lon="11.21742315256422"><ele>47.0</ele><time>2026-04-18T09:57:35Z</time></trkpt><trkpt lat="43.766372013463766" lon="11.217545047630729"><ele>47.0</ele><time>2026-04-18T09:57:37Z</time></trkpt><trkpt lat="43.76628383130286" lon="11.217492489029224"><ele>47.0</ele><time>2026-04-18T09:57:41Z</time></trkpt><trkpt lat="43.76620720845075" lon="11.217466505074201"><ele>47.0</ele><time>2026-04-18T09:57:43Z</time></trkpt><trkpt lat="43.76612786352817" lon="11.217400650498115"><ele>47.0</ele><time>2026-04-18T09:57:45Z</time></trkpt><trkpt lat="43.76607707119494" lon="11.2173071501094"><ele>47.0</ele><time>2026-04-18T09:57:47Z</time></trkpt><trkpt lat="43.76606726191087" lon="11.217169194112907"><ele>47.0</ele><time>2026-04-18T09:57:49Z</time></trkpt><trkpt lat="43.76610467099232" lon="11.217040318205642"><ele>47.0</ele><time>2026-04-18T09:57:51Z</time></trkpt><trkpt lat="43.76613707577193" lon="11.216921072829217"><ele>47.0</ele><time>2026-04-18T09:57:53Z</time></trkpt><trkpt lat="43.76617826941805" lon="11.216794370215734"><ele>47.0</ele><time>2026-04-18T09:57:55Z</time></trkpt><trkpt lat="43.76622691500014" lon="11.216657606853868"><ele>47.0</ele><time>2026-04-18T09:57:57Z</time></trkpt><trkpt lat="43.7662976947732" lon="11.216612677766609"><ele>47.0</ele><time>2026-04-18T09:57:58Z</time></trkpt><trkpt lat="43.76634851751337" lon="11.216483549928661"><ele>47.0</ele><time>2026-04-18T09:58:00Z</time></trkpt><trkpt lat="43.76640201739456" lon="11.216348940775939"><ele>47.0</ele><time>2026-04-18T09:58:02Z</time></trkpt><trkpt lat="43.76646007217534" lon="11.216218350271067"><ele>47.0</ele><time>2026-04-18T09:58:04Z</time></trkpt><trkpt lat="43.76651357855758" lon="11.21607750744684"><ele>47.0</ele><time>2026-04-18T09:58:06Z</time></trkpt><trkpt lat="43.76656008115154" lon="11.215935424720008"><ele>47.0</ele><time>2026-04-18T09:58:08Z</time></trkpt><trkpt lat="43.76661579599483" lon="11.215811873330555"><ele>47.0</ele><time>2026-04-18T09:58:10Z</time></trkpt><trkpt lat="43.766667637216074" lon="11.21568403358678"><ele>47.0</ele><time>2026-04-18T09:58:12Z</time></trkpt><trkpt lat="43.766719039702274" lon="11.21556308171523"><ele>47.0</ele><time>2026-04-18T09:58:14Z</time></trkpt><trkpt lat="43.766769197782594" lon="11.215450030186108"><ele>47.0</ele><time>2026-04-18T09:58:16Z</time></trkpt><trkpt lat="43.7668013722294" lon="11.215336129717018"><ele>46.8</ele><time>2026-04-18T09:58:18Z</time></trkpt><trkpt lat="43.76683576985095" lon="11.215249135358292"><ele>46.6</ele><time>2026-04-18T09:58:20Z</time></trkpt><trkpt lat="43.76680222663279" lon="11.21513022956195"><ele>46.4</ele><time>2026-04-18T09:58:22Z</time></trkpt><trkpt lat="43.76672990348317" lon="11.215040860240142"><ele>46.199999999999996</ele><time>2026-04-18T09:58:24Z</time></trkpt><trkpt lat="43.76670260651364" lon="11.214899293811639"><ele>46.0</ele><time>2026-04-18T09:58:26Z</time></trkpt><trkpt lat="43.76666141533409" lon="11.214753119009101"><ele>45.4</ele><time>2026-04-18T09:58:28Z</time></trkpt><trkpt lat="43.766626759463286" lon="11.214595563882437"><ele>44.8</ele><time>2026-04-18T09:58:30Z</time></trkpt><trkpt lat="43.76658194652871" lon="11.21444226308531"><ele>44.199999999999996</ele><time>2026-04-18T09:58:32Z</time></trkpt><trkpt lat="43.76653464902878" lon="11.214276257810932"><ele>43.599999999999994</ele><time>2026-04-18T09:58:34Z</time></trkpt><trkpt lat="43.76651507425098" lon="11.214192379523421"><ele>43.0</ele><time>2026-04-18T09:58:35Z</time></trkpt><trkpt lat="43.76649635244018" lon="11.21410829348185"><ele>43.25</ele><time>2026-04-18T09:58:36Z</time></trkpt><trkpt lat="43.766485747400324" lon="11.213943129402466"><ele>43.5</ele><time>2026-04-18T09:58:38Z</time></trkpt><trkpt lat="43.76647053513002" lon="11.213776967834317"><ele>43.75</ele><time>2026-04-18T09:58:40Z</time></trkpt><trkpt lat="43.76643887355376" lon="11.213623732382205"><ele>44.0</ele><time>2026-04-18T09:58:42Z</time></trkpt><trkpt lat="43.766403997237255" lon="11.213480307933743"><ele>44.0</ele><time>2026-04-18T09:58:44Z</time></trkpt><trkpt lat="43.76637172229035" lon="11.213346639973818"><ele>44.0</ele><time>2026-04-18T09:58:46Z</time></trkpt><trkpt lat="43.76631935122307" lon="11.21322949596072"><ele>44.0</ele><time>2026-04-18T09:58:48Z</time></trkpt><trkpt lat="43.766271062071006" lon="11.213116570827866"><ele>44.0</ele><time>2026-04-18T09:58:50Z</time></trkpt><trkpt lat="43.76625090028056" lon="11.213031693406954"><ele>44.0</ele><time>2026-04-18T09:58:52Z</time></trkpt><trkpt lat="43.76621419231895" lon="11.212946484076719"><ele>44.0</ele><time>2026-04-18T09:58:54Z</time></trkpt><trkpt lat="43.766273811547826" lon="11.212808245013678"><ele>44.0</ele><time>2026-04-18T09:58:56Z</time></trkpt><trkpt lat="43.76632129700518" lon="11.212690208835507"><ele>44.0</ele><time>2026-04-18T09:58:58Z</time></trkpt><trkpt lat="43.76636320812426" lon="11.212568204218721"><ele>44.0</ele><time>2026-04-18T09:59:00Z</time></trkpt><trkpt lat="43.76640409063901" lon="11.212431523459088"><ele>44.0</ele><time>2026-04-18T09:59:02Z</time></trkpt><trkpt lat="43.76644557518904" lon="11.212295696580496"><ele>44.0</ele><time>2026-04-18T09:59:04Z</time></trkpt><trkpt lat="43.76648708752512" lon="11.212159052592305"><ele>43.800000000000004</ele><time>2026-04-18T09:59:06Z</time></trkpt><trkpt lat="43.76652999752072" lon="11.212016559682253"><ele>43.6</ele><time>2026-04-18T09:59:08Z</time></trkpt><trkpt lat="43.76656969861358" lon="11.211874079736361"><ele>43.4</ele><time>2026-04-18T09:59:10Z</time></trkpt><trkpt lat="43.766613679907024" lon="11.211731315626924"><ele>43.2</ele><time>2026-04-18T09:59:12Z</time></trkpt><trkpt lat="43.766656553844165" lon="11.211586637418879"><ele>43.0</ele><time>2026-04-18T09:59:14Z</time></trkpt><trkpt lat="43.76670990206381" lon="11.211455733455372"><ele>43.0</ele><time>2026-04-18T09:59:16Z</time></trkpt><trkpt lat="43.766751911484754" lon="11.211320604814786"><ele>43.0</ele><time>2026-04-18T09:59:18Z</time></trkpt><trkpt lat="43.76679401899167" lon="11.211196733543268"><ele>43.0</ele><time>2026-04-18T09:59:20Z</time></trkpt><trkpt lat="43.76682629599894" lon="11.2110726647018"><ele>43.0</ele><time>2026-04-18T09:59:22Z</time></trkpt><trkpt lat="43.76687831909636" lon="11.210981722602996"><ele>43.0</ele><time>2026-04-18T09:59:23.999Z</time></trkpt><trkpt lat="43.766905614317615" lon="11.21086781355751"><ele>43.0</ele><time>2026-04-18T09:59:25.999Z</time></trkpt><trkpt lat="43.76693357376308" lon="11.210789103180536"><ele>43.0</ele><time>2026-04-18T09:59:27.999Z</time></trkpt><trkpt lat="43.766971539222006" lon="11.21071765312066"><ele>43.0</ele><time>2026-04-18T10:00:22Z</time></trkpt><trkpt lat="43.76698671572347" lon="11.2106320504236"><ele>43.0</ele><time>2026-04-18T10:00:25Z</time></trkpt><trkpt lat="43.76703761644105" lon="11.210521683273036"><ele>43.0</ele><time>2026-04-18T10:00:28Z</time></trkpt><trkpt lat="43.767078761655014" lon="11.210407217250594"><ele>43.0</ele><time>2026-04-18T10:00:30Z</time></trkpt><trkpt lat="43.767108883278205" lon="11.210304266330638"><ele>43.0</ele><time>2026-04-18T10:00:31Z</time></trkpt><trkpt lat="43.76714467135405" lon="11.210161564028299"><ele>43.0</ele><time>2026-04-18T10:00:33Z</time></trkpt><trkpt lat="43.767179974914605" lon="11.210023761843576"><ele>43.0</ele><time>2026-04-18T10:00:35Z</time></trkpt><trkpt lat="43.76723394380112" lon="11.209901809150294"><ele>43.0</ele><time>2026-04-18T10:00:37Z</time></trkpt><trkpt lat="43.76727068658112" lon="11.209765158838392"><ele>43.0</ele><time>2026-04-18T10:00:39Z</time></trkpt><trkpt lat="43.76731632926551" lon="11.209641667486641"><ele>43.0</ele><time>2026-04-18T10:00:41Z</time></trkpt><trkpt lat="43.767368210391545" lon="11.209574029843202"><ele>43.0</ele><time>2026-04-18T10:00:43Z</time></trkpt><trkpt lat="43.76743091558951" lon="11.209558379740024"><ele>43.0</ele><time>2026-04-18T10:00:45Z</time></trkpt><trkpt lat="43.767534393216756" lon="11.209558786767973"><ele>43.0</ele><time>2026-04-18T10:00:48Z</time></trkpt><trkpt lat="43.7676238315314" lon="11.209560947468065"><ele>43.0</ele><time>2026-04-18T10:00:50Z</time></trkpt><trkpt lat="43.767686785453805" lon="11.209597611871036"><ele>43.0</ele><time>2026-04-18T10:00:53Z</time></trkpt><trkpt lat="43.767748868845324" lon="11.209302332816085"><ele>43.0</ele><time>2026-04-18T10:01:52.999Z</time></trkpt><trkpt lat="43.767725643100626" lon="11.209179984798075"><ele>43.0</ele><time>2026-04-18T10:01:54.999Z</time></trkpt><trkpt lat="43.767669219520855" lon="11.209068258231602"><ele>43.0</ele><time>2026-04-18T10:01:56.999Z</time></trkpt><trkpt lat="43.767658649558314" lon="11.208907291446721"><ele>43.0</ele><time>2026-04-18T10:01:58.999Z</time></trkpt><trkpt lat="43.76767328070939" lon="11.208772997940862"><ele>43.0</ele><time>2026-04-18T10:02:00.999Z</time></trkpt><trkpt lat="43.76768776947884" lon="11.208610990011282"><ele>42.75</ele><time>2026-04-18T10:02:02.999Z</time></trkpt><trkpt lat="43.76768449830837" lon="11.20845680628236"><ele>42.5</ele><time>2026-04-18T10:02:04.999Z</time></trkpt><trkpt lat="43.767725616781526" lon="11.208300538038927"><ele>42.25</ele><time>2026-04-18T10:02:06.999Z</time></trkpt><trkpt lat="43.767739300601825" lon="11.20814585275694"><ele>42.0</ele><time>2026-04-18T10:02:08.999Z</time></trkpt><trkpt lat="43.7677571510768" lon="11.207986388460437"><ele>42.2</ele><time>2026-04-18T10:02:10.999Z</time></trkpt><trkpt lat="43.76778111389498" lon="11.20784155593233"><ele>42.400000000000006</ele><time>2026-04-18T10:02:12.999Z</time></trkpt><trkpt lat="43.76780675585973" lon="11.207692584701842"><ele>42.599999999999994</ele><time>2026-04-18T10:02:14.999Z</time></trkpt><trkpt lat="43.7678374641425" lon="11.207565801178733"><ele>42.8</ele><time>2026-04-18T10:02:16.999Z</time></trkpt><trkpt lat="43.76788468943753" lon="11.20743321288772"><ele>43.0</ele><time>2026-04-18T10:02:18.999Z</time></trkpt><trkpt lat="43.76792961240738" lon="11.207303420703301"><ele>43.0</ele><time>2026-04-18T10:02:21Z</time></trkpt><trkpt lat="43.767976742903286" lon="11.207170773509992"><ele>43.0</ele><time>2026-04-18T10:02:23Z</time></trkpt><trkpt lat="43.76802209026856" lon="11.207036725172612"><ele>43.0</ele><time>2026-04-18T10:02:25Z</time></trkpt><trkpt lat="43.76807325183018" lon="11.206896380643585"><ele>43.0</ele><time>2026-04-18T10:02:27Z</time></trkpt><trkpt lat="43.76812060684625" lon="11.206764891099255"><ele>43.0</ele><time>2026-04-18T10:02:29Z</time></trkpt><trkpt lat="43.76816925704366" lon="11.206622368949619"><ele>42.5</ele><time>2026-04-18T10:02:31Z</time></trkpt><trkpt lat="43.76822234982959" lon="11.20647858010162"><ele>42.0</ele><time>2026-04-18T10:02:33Z</time></trkpt><trkpt lat="43.768263033106564" lon="11.206329549407842"><ele>41.5</ele><time>2026-04-18T10:02:35Z</time></trkpt><trkpt lat="43.76831475899088" lon="11.206179429267241"><ele>41.0</ele><time>2026-04-18T10:02:37Z</time></trkpt><trkpt lat="43.7683682031385" lon="11.206036487293183"><ele>41.0</ele><time>2026-04-18T10:02:39Z</time></trkpt><trkpt lat="43.76842346697276" lon="11.205902808369045"><ele>41.0</ele><time>2026-04-18T10:02:41Z</time></trkpt><trkpt lat="43.76846536926968" lon="11.205754809536703"><ele>41.0</ele><time>2026-04-18T10:02:43Z</time></trkpt><trkpt lat="43.76855315037615" lon="11.205682300434674"><ele>41.0</ele><time>2026-04-18T10:02:45Z</time></trkpt><trkpt lat="43.768659849234794" lon="11.205738916253146"><ele>41.0</ele><time>2026-04-18T10:02:47Z</time></trkpt><trkpt lat="43.76875716131585" lon="11.205797304616855"><ele>41.25</ele><time>2026-04-18T10:02:49Z</time></trkpt><trkpt lat="43.76886573669351" lon="11.205832361962333"><ele>41.5</ele><time>2026-04-18T10:02:51Z</time></trkpt><trkpt lat="43.7689734832213" lon="11.205873894057993"><ele>41.75</ele><time>2026-04-18T10:02:53Z</time></trkpt><trkpt lat="43.769081419869224" lon="11.205934265713532"><ele>42.0</ele><time>2026-04-18T10:02:55Z</time></trkpt><trkpt lat="43.769190600470615" lon="11.205983859369713"><ele>42.0</ele><time>2026-04-18T10:02:57Z</time></trkpt><trkpt lat="43.76928976239486" lon="11.206037440592004"><ele>42.0</ele><time>2026-04-18T10:02:59Z</time></trkpt><trkpt lat="43.76939358446544" lon="11.206043074452063"><ele>42.0</ele><time>2026-04-18T10:03:01Z</time></trkpt><trkpt lat="43.76949494032116" lon="11.20605078697809"><ele>42.0</ele><time>2026-04-18T10:03:03Z</time></trkpt><trkpt lat="43.76958079958396" lon="11.206074655709108"><ele>42.0</ele><time>2026-04-18T10:03:05Z</time></trkpt><trkpt lat="43.7696853012357" lon="11.206086169665125"><ele>42.0</ele><time>2026-04-18T10:03:07Z</time></trkpt><trkpt lat="43.76975712621052" lon="11.20608932221586"><ele>42.0</ele><time>2026-04-18T10:03:09Z</time></trkpt><trkpt lat="43.769827882397685" lon="11.206080996639736"><ele>42.0</ele><time>2026-04-18T10:03:13Z</time></trkpt><trkpt lat="43.76991238162969" lon="11.206117552187859"><ele>42.0</ele><time>2026-04-18T10:03:17Z</time></trkpt><trkpt lat="43.76997076411743" lon="11.20593122486346"><ele>42.0</ele><time>2026-04-18T10:03:20Z</time></trkpt><trkpt lat="43.76995212229334" lon="11.205788271287172"><ele>42.0</ele><time>2026-04-18T10:03:22Z</time></trkpt><trkpt lat="43.769944496789705" lon="11.205647006817467"><ele>42.0</ele><time>2026-04-18T10:03:24Z</time></trkpt><trkpt lat="43.769919617992436" lon="11.205517790597511"><ele>42.0</ele><time>2026-04-18T10:03:26Z</time></trkpt><trkpt lat="43.769907549955704" lon="11.205376465378594"><ele>42.0</ele><time>2026-04-18T10:03:28Z</time></trkpt><trkpt lat="43.76989185114758" lon="11.20523086770161"><ele>42.0</ele><time>2026-04-18T10:03:30Z</time></trkpt><trkpt lat="43.76987115686417" lon="11.20508395419677"><ele>42.0</ele><time>2026-04-18T10:03:32Z</time></trkpt><trkpt lat="43.76985620301136" lon="11.204932110959085"><ele>42.0</ele><time>2026-04-18T10:03:34Z</time></trkpt><trkpt lat="43.76983082142764" lon="11.204779590860689"><ele>42.0</ele><time>2026-04-18T10:03:35.998Z</time></trkpt><trkpt lat="43.76981692624017" lon="11.204626819440309"><ele>42.0</ele><time>2026-04-18T10:03:37.998Z</time></trkpt><trkpt lat="43.76980176827124" lon="11.20447669617972"><ele>42.0</ele><time>2026-04-18T10:03:39.998Z</time></trkpt><trkpt lat="43.769775605077044" lon="11.204325645798535"><ele>42.2</ele><time>2026-04-18T10:03:41.998Z</time></trkpt><trkpt lat="43.76976281694012" lon="11.204169615289013"><ele>42.400000000000006</ele><time>2026-04-18T10:03:43.998Z</time></trkpt><trkpt lat="43.76974625174683" lon="11.204015080139564"><ele>42.599999999999994</ele><time>2026-04-18T10:03:45.999Z</time></trkpt><trkpt lat="43.76972270323297" lon="11.203861125834939"><ele>42.8</ele><time>2026-04-18T10:03:47.999Z</time></trkpt><trkpt lat="43.769702682050735" lon="11.203712413590683"><ele>43.0</ele><time>2026-04-18T10:03:49.999Z</time></trkpt><trkpt lat="43.769680437399664" lon="11.203557118908726"><ele>43.0</ele><time>2026-04-18T10:03:51.999Z</time></trkpt><trkpt lat="43.769662646815604" lon="11.203401669892031"><ele>43.0</ele><time>2026-04-18T10:03:53.999Z</time></trkpt><trkpt lat="43.76963674921298" lon="11.203246451784127"><ele>43.0</ele><time>2026-04-18T10:03:55.999Z</time></trkpt><trkpt lat="43.76961436662341" lon="11.203095435025483"><ele>43.0</ele><time>2026-04-18T10:03:57.999Z</time></trkpt><trkpt lat="43.76959183922078" lon="11.202936428535285"><ele>42.599999999999994</ele><time>2026-04-18T10:03:59.999Z</time></trkpt><trkpt lat="43.769571522862066" lon="11.202783075795132"><ele>42.199999999999996</ele><time>2026-04-18T10:04:01.999Z</time></trkpt><trkpt lat="43.76955512581043" lon="11.202627005156545"><ele>41.8</ele><time>2026-04-18T10:04:03.999Z</time></trkpt><trkpt lat="43.76953380811548" lon="11.2024778173347"><ele>41.4</ele><time>2026-04-18T10:04:05.999Z</time></trkpt><trkpt lat="43.76951437939902" lon="11.202324857250371"><ele>41.0</ele><time>2026-04-18T10:04:07.999Z</time></trkpt><trkpt lat="43.76949461446711" lon="11.202169603952713"><ele>41.0</ele><time>2026-04-18T10:04:09.999Z</time></trkpt><trkpt lat="43.769476795242895" lon="11.202015587696623"><ele>41.0</ele><time>2026-04-18T10:04:11.999Z</time></trkpt><trkpt lat="43.76946188123632" lon="11.201857936760025"><ele>41.0</ele><time>2026-04-18T10:04:13.999Z</time></trkpt><trkpt lat="43.7694388005539" lon="11.20170519523562"><ele>41.0</ele><time>2026-04-18T10:04:15.999Z</time></trkpt><trkpt lat="43.76942193927862" lon="11.201556390165445"><ele>41.0</ele><time>2026-04-18T10:04:18Z</time></trkpt><trkpt lat="43.76939595321745" lon="11.201402475277721"><ele>41.0</ele><time>2026-04-18T10:04:20Z</time></trkpt><trkpt lat="43.76937797396969" lon="11.201256456584565"><ele>41.0</ele><time>2026-04-18T10:04:22Z</time></trkpt><trkpt lat="43.76935568501148" lon="11.201096376493302"><ele>41.0</ele><time>2026-04-18T10:04:24Z</time></trkpt><trkpt lat="43.7693365902149" lon="11.200935995650534"><ele>41.0</ele><time>2026-04-18T10:04:26Z</time></trkpt><trkpt lat="43.769320242231615" lon="11.2007809933668"><ele>41.0</ele><time>2026-04-18T10:04:28Z</time></trkpt><trkpt lat="43.76929864509024" lon="11.200626850477912"><ele>41.0</ele><time>2026-04-18T10:04:30Z</time></trkpt><trkpt lat="43.76927988936375" lon="11.200466825345119"><ele>41.0</ele><time>2026-04-18T10:04:32Z</time></trkpt><trkpt lat="43.769259731063094" lon="11.200311105261203"><ele>41.0</ele><time>2026-04-18T10:04:34Z</time></trkpt><trkpt lat="43.7692506410833" lon="11.200152557821925"><ele>41.0</ele><time>2026-04-18T10:04:36Z</time></trkpt><trkpt lat="43.76924518145493" lon="11.19999315237909"><ele>41.0</ele><time>2026-04-18T10:04:38Z</time></trkpt><trkpt lat="43.769242445437115" lon="11.199832780115567"><ele>41.0</ele><time>2026-04-18T10:04:40Z</time></trkpt><trkpt lat="43.76924072804238" lon="11.199672216729486"><ele>41.0</ele><time>2026-04-18T10:04:42Z</time></trkpt><trkpt lat="43.76923894916442" lon="11.199513712599966"><ele>41.0</ele><time>2026-04-18T10:04:44Z</time></trkpt><trkpt lat="43.769231106804945" lon="11.199352797647252"><ele>41.0</ele><time>2026-04-18T10:04:46Z</time></trkpt><trkpt lat="43.76923134127543" lon="11.199195262620247"><ele>41.0</ele><time>2026-04-18T10:04:48Z</time></trkpt><trkpt lat="43.769230108854615" lon="11.19903881724677"><ele>41.0</ele><time>2026-04-18T10:04:50Z</time></trkpt><trkpt lat="43.769228755099874" lon="11.198879703935582"><ele>41.0</ele><time>2026-04-18T10:04:52Z</time></trkpt><trkpt lat="43.769227516415896" lon="11.198719205470724"><ele>41.0</ele><time>2026-04-18T10:04:54Z</time></trkpt><trkpt lat="43.76922894181829" lon="11.198557897195467"><ele>41.0</ele><time>2026-04-18T10:04:56Z</time></trkpt><trkpt lat="43.769228109685294" lon="11.198405293475556"><ele>41.0</ele><time>2026-04-18T10:04:58Z</time></trkpt><trkpt lat="43.76923041139219" lon="11.198241475140987"><ele>41.25</ele><time>2026-04-18T10:05:00Z</time></trkpt><trkpt lat="43.76922758674663" lon="11.198083140248889"><ele>41.5</ele><time>2026-04-18T10:05:02Z</time></trkpt><trkpt lat="43.7692211659669" lon="11.197924288161332"><ele>41.75</ele><time>2026-04-18T10:05:04Z</time></trkpt><trkpt lat="43.769209247662076" lon="11.19775980096029"><ele>42.0</ele><time>2026-04-18T10:05:06Z</time></trkpt><trkpt lat="43.76920700433783" lon="11.197598648246354"><ele>42.0</ele><time>2026-04-18T10:05:08Z</time></trkpt><trkpt lat="43.76920357333044" lon="11.197439813572986"><ele>42.0</ele><time>2026-04-18T10:05:10Z</time></trkpt><trkpt lat="43.769196350045036" lon="11.197276710824962"><ele>42.0</ele><time>2026-04-18T10:05:12Z</time></trkpt><trkpt lat="43.76919502400829" lon="11.197115717958216"><ele>42.0</ele><time>2026-04-18T10:05:14Z</time></trkpt><trkpt lat="43.76918939033524" lon="11.196955004518475"><ele>41.75</ele><time>2026-04-18T10:05:16Z</time></trkpt><trkpt lat="43.76918658315592" lon="11.19679443010811"><ele>41.5</ele><time>2026-04-18T10:05:18Z</time></trkpt><trkpt lat="43.7691840068835" lon="11.19663338282354"><ele>41.25</ele><time>2026-04-18T10:05:20Z</time></trkpt><trkpt lat="43.769188199146924" lon="11.196476059278789"><ele>41.0</ele><time>2026-04-18T10:05:22Z</time></trkpt><trkpt lat="43.76918538288187" lon="11.196312998142135"><ele>41.0</ele><time>2026-04-18T10:05:24Z</time></trkpt><trkpt lat="43.769182598502226" lon="11.196144846738832"><ele>41.0</ele><time>2026-04-18T10:05:26Z</time></trkpt><trkpt lat="43.76918580358734" lon="11.195980773264493"><ele>41.0</ele><time>2026-04-18T10:05:28Z</time></trkpt><trkpt lat="43.7691858524311" lon="11.195817060622968"><ele>41.0</ele><time>2026-04-18T10:05:30Z</time></trkpt><trkpt lat="43.769181986670155" lon="11.195652853603784"><ele>40.75</ele><time>2026-04-18T10:05:32Z</time></trkpt><trkpt lat="43.769181799060654" lon="11.19549269875748"><ele>40.5</ele><time>2026-04-18T10:05:34Z</time></trkpt><trkpt lat="43.76917763927659" lon="11.195329634705331"><ele>40.25</ele><time>2026-04-18T10:05:36Z</time></trkpt><trkpt lat="43.76916286875227" lon="11.19516354676659"><ele>40.0</ele><time>2026-04-18T10:05:38Z</time></trkpt><trkpt lat="43.769154865238704" lon="11.19500406899055"><ele>40.0</ele><time>2026-04-18T10:05:40Z</time></trkpt><trkpt lat="43.769150179211344" lon="11.194840008848349"><ele>40.0</ele><time>2026-04-18T10:05:41.999Z</time></trkpt><trkpt lat="43.76914325755703" lon="11.19467397356447"><ele>40.0</ele><time>2026-04-18T10:05:43.999Z</time></trkpt><trkpt lat="43.76913960153011" lon="11.194507092516062"><ele>40.0</ele><time>2026-04-18T10:05:45.999Z</time></trkpt><trkpt lat="43.769134856265566" lon="11.1943420683724"><ele>40.2</ele><time>2026-04-18T10:05:47.999Z</time></trkpt><trkpt lat="43.769136544173904" lon="11.194185521240568"><ele>40.4</ele><time>2026-04-18T10:05:49.999Z</time></trkpt><trkpt lat="43.76913571845605" lon="11.194031435791747"><ele>40.599999999999994</ele><time>2026-04-18T10:05:51.999Z</time></trkpt><trkpt lat="43.769134158907356" lon="11.193877556044345"><ele>40.8</ele><time>2026-04-18T10:05:53.999Z</time></trkpt><trkpt lat="43.76911994326691" lon="11.19372440303772"><ele>41.0</ele><time>2026-04-18T10:05:55.999Z</time></trkpt><trkpt lat="43.769124238849734" lon="11.19356846997878"><ele>41.5</ele><time>2026-04-18T10:05:57.999Z</time></trkpt><trkpt lat="43.769123167672376" lon="11.193413592215556"><ele>42.0</ele><time>2026-04-18T10:05:59.999Z</time></trkpt><trkpt lat="43.769119831843234" lon="11.193253861938256"><ele>42.5</ele><time>2026-04-18T10:06:02Z</time></trkpt><trkpt lat="43.769114192075016" lon="11.193097367531918"><ele>43.0</ele><time>2026-04-18T10:06:04Z</time></trkpt><trkpt lat="43.769122947914845" lon="11.192936358358377"><ele>43.0</ele><time>2026-04-18T10:06:06Z</time></trkpt><trkpt lat="43.76912899629069" lon="11.192784044989153"><ele>43.0</ele><time>2026-04-18T10:06:08Z</time></trkpt><trkpt lat="43.769124664046366" lon="11.192634489430821"><ele>43.0</ele><time>2026-04-18T10:06:10Z</time></trkpt><trkpt lat="43.769130293742435" lon="11.192494924856902"><ele>43.0</ele><time>2026-04-18T10:06:12Z</time></trkpt><trkpt lat="43.769097973036395" lon="11.192390079982262"><ele>43.0</ele><time>2026-04-18T10:06:14Z</time></trkpt><trkpt lat="43.76910563259887" lon="11.192289575228424"><ele>42.85714285714286</ele><time>2026-04-18T10:06:16Z</time></trkpt><trkpt lat="43.769096239201964" lon="11.19219022896872"><ele>42.714285714285715</ele><time>2026-04-18T10:06:18Z</time></trkpt><trkpt lat="43.76912544348189" lon="11.192104728056103"><ele>42.57142857142857</ele><time>2026-04-18T10:06:20Z</time></trkpt><trkpt lat="43.76914591691454" lon="11.192015491466252"><ele>42.42857142857143</ele><time>2026-04-18T10:06:25Z</time></trkpt><trkpt lat="43.76913621572359" lon="11.191925330736938"><ele>42.285714285714285</ele><time>2026-04-18T10:06:57Z</time></trkpt><trkpt lat="43.769123957824576" lon="11.191812494428163"><ele>42.142857142857146</ele><time>2026-04-18T10:07:00Z</time></trkpt><trkpt lat="43.76912656666666" lon="11.191700985233625"><ele>42.0</ele><time>2026-04-18T10:07:02Z</time></trkpt><trkpt lat="43.76912266477445" lon="11.191577566310128"><ele>42.0</ele><time>2026-04-18T10:07:04Z</time></trkpt><trkpt lat="43.76911351599218" lon="11.191449876864498"><ele>42.0</ele><time>2026-04-18T10:07:06Z</time></trkpt><trkpt lat="43.76910925205098" lon="11.191314462795075"><ele>42.0</ele><time>2026-04-18T10:07:08Z</time></trkpt><trkpt lat="43.76909265363446" lon="11.191188064346013"><ele>42.0</ele><time>2026-04-18T10:07:10Z</time></trkpt><trkpt lat="43.76907418785919" lon="11.191064957490374"><ele>42.0</ele><time>2026-04-18T10:07:12Z</time></trkpt><trkpt lat="43.76905231357881" lon="11.190947586467633"><ele>42.0</ele><time>2026-04-18T10:07:14Z</time></trkpt><trkpt lat="43.76903556246384" lon="11.190817033940162"><ele>42.0</ele><time>2026-04-18T10:07:16.001Z</time></trkpt><trkpt lat="43.76901551753041" lon="11.19069600241777"><ele>42.0</ele><time>2026-04-18T10:07:18.001Z</time></trkpt><trkpt lat="43.76901977849609" lon="11.190571124495852"><ele>42.0</ele><time>2026-04-18T10:07:20.001Z</time></trkpt><trkpt lat="43.769034262381936" lon="11.190433801655523"><ele>42.0</ele><time>2026-04-18T10:07:22.001Z</time></trkpt><trkpt lat="43.76899582181842" lon="11.190310894217978"><ele>41.8</ele><time>2026-04-18T10:07:24.001Z</time></trkpt><trkpt lat="43.76891120272649" lon="11.190230842563915"><ele>41.6</ele><time>2026-04-18T10:07:26.001Z</time></trkpt><trkpt lat="43.76884500595613" lon="11.190132851051095"><ele>41.4</ele><time>2026-04-18T10:07:28.001Z</time></trkpt><trkpt lat="43.76880105311346" lon="11.190017805123183"><ele>41.199999999999996</ele><time>2026-04-18T10:07:30.001Z</time></trkpt><trkpt lat="43.76875938709569" lon="11.189896063000209"><ele>41.0</ele><time>2026-04-18T10:07:32.001Z</time></trkpt><trkpt lat="43.76871252272159" lon="11.189775992695122"><ele>40.8</ele><time>2026-04-18T10:07:34.001Z</time></trkpt><trkpt lat="43.76866074863591" lon="11.18966291466541"><ele>40.599999999999994</ele><time>2026-04-18T10:07:36.001Z</time></trkpt><trkpt lat="43.76860315765618" lon="11.189550402475229"><ele>40.4</ele><time>2026-04-18T10:07:38.001Z</time></trkpt><trkpt lat="43.768545846138686" lon="11.189446642614602"><ele>40.2</ele><time>2026-04-18T10:07:40.001Z</time></trkpt><trkpt lat="43.768496012077456" lon="11.18933996381519"><ele>40.0</ele><time>2026-04-18T10:07:42.001Z</time></trkpt><trkpt lat="43.7684440311069" lon="11.189229854890895"><ele>40.0</ele><time>2026-04-18T10:07:44.001Z</time></trkpt><trkpt lat="43.76838342063024" lon="11.189124302720066"><ele>40.0</ele><time>2026-04-18T10:07:46.001Z</time></trkpt><trkpt lat="43.76832666523446" lon="11.189016663036284"><ele>40.0</ele><time>2026-04-18T10:07:48Z</time></trkpt><trkpt lat="43.7682750654737" lon="11.188907665078885"><ele>40.0</ele><time>2026-04-18T10:07:50Z</time></trkpt><trkpt lat="43.7682216960846" lon="11.188804814641406"><ele>40.0</ele><time>2026-04-18T10:07:52Z</time></trkpt><trkpt lat="43.768166378296634" lon="11.188696895934408"><ele>40.0</ele><time>2026-04-18T10:07:54Z</time></trkpt><trkpt lat="43.768106180977796" lon="11.188591900092304"><ele>40.0</ele><time>2026-04-18T10:07:56Z</time></trkpt><trkpt lat="43.76804666617589" lon="11.18847851374465"><ele>40.0</ele><time>2026-04-18T10:07:58Z</time></trkpt><trkpt lat="43.76798150220208" lon="11.188356469158144"><ele>40.0</ele><time>2026-04-18T10:08:00Z</time></trkpt><trkpt lat="43.767912743707136" lon="11.188219909066717"><ele>40.0</ele><time>2026-04-18T10:08:02Z</time></trkpt><trkpt lat="43.76787244949876" lon="11.188149430762824"><ele>40.0</ele><time>2026-04-18T10:08:03Z</time></trkpt><trkpt lat="43.7678358639449" lon="11.18807810516107"><ele>40.0</ele><time>2026-04-18T10:08:04Z</time></trkpt><trkpt lat="43.767798651997616" lon="11.188003234080558"><ele>40.0</ele><time>2026-04-18T10:08:05Z</time></trkpt><trkpt lat="43.76775896590459" lon="11.187931074026519"><ele>40.0</ele><time>2026-04-18T10:08:06Z</time></trkpt><trkpt lat="43.767715981005956" lon="11.187860747282311"><ele>40.0</ele><time>2026-04-18T10:08:07Z</time></trkpt><trkpt lat="43.76767662836796" lon="11.187782630897187"><ele>40.0</ele><time>2026-04-18T10:08:08Z</time></trkpt><trkpt lat="43.76763724129665" lon="11.187702784220793"><ele>40.0</ele><time>2026-04-18T10:08:09Z</time></trkpt><trkpt lat="43.76759646779514" lon="11.187628698688911"><ele>40.0</ele><time>2026-04-18T10:08:10Z</time></trkpt><trkpt lat="43.76755706860362" lon="11.187554015780082"><ele>40.0</ele><time>2026-04-18T10:08:11Z</time></trkpt><trkpt lat="43.76751605543035" lon="11.18747599463876"><ele>40.0</ele><time>2026-04-18T10:08:12Z</time></trkpt><trkpt lat="43.76747538199235" lon="11.18739703744678"><ele>40.0</ele><time>2026-04-18T10:08:13Z</time></trkpt><trkpt lat="43.767437420780304" lon="11.187314400824725"><ele>40.0</ele><time>2026-04-18T10:08:14Z</time></trkpt><trkpt lat="43.76739557450591" lon="11.187241606956965"><ele>40.0</ele><time>2026-04-18T10:08:15Z</time></trkpt><trkpt lat="43.767354149699095" lon="11.187164518762266"><ele>40.0</ele><time>2026-04-18T10:08:16Z</time></trkpt><trkpt lat="43.767313426871794" lon="11.187088981233158"><ele>39.714285714285715</ele><time>2026-04-18T10:08:17Z</time></trkpt><trkpt lat="43.76727500800112" lon="11.187009131376062"><ele>39.42857142857143</ele><time>2026-04-18T10:08:18Z</time></trkpt><trkpt lat="43.76723604626924" lon="11.186930826917028"><ele>39.14285714285714</ele><time>2026-04-18T10:08:19Z</time></trkpt><trkpt lat="43.76719615627136" lon="11.18685282413123"><ele>38.85714285714286</ele><time>2026-04-18T10:08:20Z</time></trkpt><trkpt lat="43.7671604167906" lon="11.186774009734634"><ele>38.57142857142858</ele><time>2026-04-18T10:08:21Z</time></trkpt><trkpt lat="43.76711436490732" lon="11.1866956552941"><ele>38.285714285714285</ele><time>2026-04-18T10:08:22Z</time></trkpt><trkpt lat="43.76707212875146" lon="11.186615258165544"><ele>38.0</ele><time>2026-04-18T10:08:23Z</time></trkpt><trkpt lat="43.76703461164846" lon="11.186535283341058"><ele>38.285714285714285</ele><time>2026-04-18T10:08:24Z</time></trkpt><trkpt lat="43.76699135298125" lon="11.186457189911252"><ele>38.57142857142858</ele><time>2026-04-18T10:08:25Z</time></trkpt><trkpt lat="43.76695287092373" lon="11.186375128078117"><ele>38.85714285714286</ele><time>2026-04-18T10:08:26Z</time></trkpt><trkpt lat="43.76691498840062" lon="11.186295628268315"><ele>39.14285714285714</ele><time>2026-04-18T10:08:27Z</time></trkpt><trkpt lat="43.766869953061324" lon="11.1862193779716"><ele>39.42857142857143</ele><time>2026-04-18T10:08:28Z</time></trkpt><trkpt lat="43.766831568251646" lon="11.18613336596844"><ele>39.714285714285715</ele><time>2026-04-18T10:08:29Z</time></trkpt><trkpt lat="43.76678937428583" lon="11.186055377218022"><ele>40.0</ele><time>2026-04-18T10:08:30Z</time></trkpt><trkpt lat="43.76674521321621" lon="11.185978835788328"><ele>40.0</ele><time>2026-04-18T10:08:31Z</time></trkpt><trkpt lat="43.7667013833859" lon="11.185899924445287"><ele>40.0</ele><time>2026-04-18T10:08:32Z</time></trkpt><trkpt lat="43.766657849088695" lon="11.185821057193758"><ele>40.0</ele><time>2026-04-18T10:08:33Z</time></trkpt><trkpt lat="43.766614453340814" lon="11.185742832038398"><ele>40.0</ele><time>2026-04-18T10:08:34Z</time></trkpt><trkpt lat="43.76657354292338" lon="11.185662525845846"><ele>40.0</ele><time>2026-04-18T10:08:35Z</time></trkpt><trkpt lat="43.76653151299804" lon="11.185585869198142"><ele>40.0</ele><time>2026-04-18T10:08:36Z</time></trkpt><trkpt lat="43.76648847139203" lon="11.185506539460516"><ele>40.0</ele><time>2026-04-18T10:08:37Z</time></trkpt><trkpt lat="43.76644718728584" lon="11.18542828713713"><ele>40.0</ele><time>2026-04-18T10:08:38Z</time></trkpt><trkpt lat="43.76640458301709" lon="11.185348915531439"><ele>40.0</ele><time>2026-04-18T10:08:39Z</time></trkpt><trkpt lat="43.766362304549446" lon="11.185274959008023"><ele>40.0</ele><time>2026-04-18T10:08:40Z</time></trkpt><trkpt lat="43.766324338703164" lon="11.185193666344778"><ele>40.0</ele><time>2026-04-18T10:08:41Z</time></trkpt><trkpt lat="43.76628821579159" lon="11.18511456528137"><ele>40.0</ele><time>2026-04-18T10:08:42Z</time></trkpt><trkpt lat="43.766253080430126" lon="11.185033313939705"><ele>40.0</ele><time>2026-04-18T10:08:43Z</time></trkpt><trkpt lat="43.766220397869304" lon="11.184950305567812"><ele>40.0</ele><time>2026-04-18T10:08:44Z</time></trkpt><trkpt lat="43.766188368137925" lon="11.184865081336223"><ele>40.14285714285714</ele><time>2026-04-18T10:08:45Z</time></trkpt><trkpt lat="43.766160136211994" lon="11.184778708183645"><ele>40.285714285714285</ele><time>2026-04-18T10:08:46Z</time></trkpt><trkpt lat="43.76612917292381" lon="11.184691903336336"><ele>40.42857142857143</ele><time>2026-04-18T10:08:47.001Z</time></trkpt><trkpt lat="43.766097812853964" lon="11.184608175508552"><ele>40.57142857142857</ele><time>2026-04-18T10:08:48.001Z</time></trkpt><trkpt lat="43.766070998270514" lon="11.184520490458285"><ele>40.714285714285715</ele><time>2026-04-18T10:08:49.001Z</time></trkpt><trkpt lat="43.766046737258854" lon="11.184429102117493"><ele>40.857142857142854</ele><time>2026-04-18T10:08:50.001Z</time></trkpt><trkpt lat="43.76602374881573" lon="11.18433782295352"><ele>41.0</ele><time>2026-04-18T10:08:51.001Z</time></trkpt><trkpt lat="43.765999019360045" lon="11.18424473323577"><ele>40.99999999999999</ele><time>2026-04-18T10:08:52.001Z</time></trkpt><trkpt lat="43.76597812540711" lon="11.184159313782208"><ele>41.0</ele><time>2026-04-18T10:08:53.001Z</time></trkpt><trkpt lat="43.765958856428554" lon="11.184067704898432"><ele>41.0</ele><time>2026-04-18T10:08:54.001Z</time></trkpt><trkpt lat="43.76594058157579" lon="11.1839771254986"><ele>41.0</ele><time>2026-04-18T10:08:55.001Z</time></trkpt><trkpt lat="43.765926497136164" lon="11.183888303425888"><ele>41.0</ele><time>2026-04-18T10:08:56.001Z</time></trkpt><trkpt lat="43.76591087824351" lon="11.183796087306847"><ele>40.99999999999999</ele><time>2026-04-18T10:08:57.001Z</time></trkpt><trkpt lat="43.76589144732168" lon="11.183706537504284"><ele>41.0</ele><time>2026-04-18T10:08:58.001Z</time></trkpt><trkpt lat="43.76587917914477" lon="11.183613716619615"><ele>41.0</ele><time>2026-04-18T10:08:59.001Z</time></trkpt><trkpt lat="43.765861005164076" lon="11.183524615224874"><ele>41.0</ele><time>2026-04-18T10:09:00.001Z</time></trkpt><trkpt lat="43.765839462893005" lon="11.183342530668785"><ele>41.0</ele><time>2026-04-18T10:09:02.001Z</time></trkpt><trkpt lat="43.765821180347004" lon="11.183250175648736"><ele>41.0</ele><time>2026-04-18T10:09:03.001Z</time></trkpt><trkpt lat="43.765800131634265" lon="11.183155952044338"><ele>41.0</ele><time>2026-04-18T10:09:04.001Z</time></trkpt><trkpt lat="43.76578714236639" lon="11.183062410649262"><ele>41.0</ele><time>2026-04-18T10:09:05.001Z</time></trkpt><trkpt lat="43.765768136880055" lon="11.182971893035774"><ele>40.99999999999999</ele><time>2026-04-18T10:09:06.001Z</time></trkpt><trkpt lat="43.765756092345434" lon="11.182879432737723"><ele>41.0</ele><time>2026-04-18T10:09:07.001Z</time></trkpt><trkpt lat="43.765742402442434" lon="11.182784578644922"><ele>41.0</ele><time>2026-04-18T10:09:08.001Z</time></trkpt><trkpt lat="43.7657249461402" lon="11.182692692131289"><ele>41.0</ele><time>2026-04-18T10:09:09.001Z</time></trkpt><trkpt lat="43.76570878814856" lon="11.18260017871994"><ele>41.0</ele><time>2026-04-18T10:09:10.001Z</time></trkpt><trkpt lat="43.765690828051085" lon="11.182510614260595"><ele>40.99999999999999</ele><time>2026-04-18T10:09:11.001Z</time></trkpt><trkpt lat="43.765673084283684" lon="11.1824216834891"><ele>41.0</ele><time>2026-04-18T10:09:12.001Z</time></trkpt><trkpt lat="43.76565929187785" lon="11.182332297004232"><ele>40.71428571428571</ele><time>2026-04-18T10:09:13.001Z</time></trkpt><trkpt lat="43.76564376440596" lon="11.182238856094633"><ele>40.42857142857143</ele><time>2026-04-18T10:09:14.001Z</time></trkpt><trkpt lat="43.76562886586042" lon="11.182150596808416"><ele>40.14285714285714</ele><time>2026-04-18T10:09:15.001Z</time></trkpt><trkpt lat="43.765611518683905" lon="11.182062551694479"><ele>39.857142857142854</ele><time>2026-04-18T10:09:16.001Z</time></trkpt><trkpt lat="43.76559672948183" lon="11.18197473301167"><ele>39.57142857142857</ele><time>2026-04-18T10:09:17.001Z</time></trkpt><trkpt lat="43.765582281134144" lon="11.181886740100072"><ele>39.285714285714285</ele><time>2026-04-18T10:09:18.001Z</time></trkpt><trkpt lat="43.765567233674375" lon="11.181798686076021"><ele>39.0</ele><time>2026-04-18T10:09:19.001Z</time></trkpt><trkpt lat="43.76555383865768" lon="11.18171158895692"><ele>39.0</ele><time>2026-04-18T10:09:20.001Z</time></trkpt><trkpt lat="43.76554047833398" lon="11.18162425591274"><ele>39.0</ele><time>2026-04-18T10:09:21.001Z</time></trkpt><trkpt lat="43.76552079897817" lon="11.181541419626766"><ele>39.0</ele><time>2026-04-18T10:09:22.001Z</time></trkpt><trkpt lat="43.76550395714468" lon="11.181453283072168"><ele>39.0</ele><time>2026-04-18T10:09:23.001Z</time></trkpt><trkpt lat="43.76547128405286" lon="11.181280915057041"><ele>39.0</ele><time>2026-04-18T10:09:25.001Z</time></trkpt><trkpt lat="43.765459110159306" lon="11.181193025882223"><ele>39.0</ele><time>2026-04-18T10:09:26.001Z</time></trkpt><trkpt lat="43.7654461767167" lon="11.181106847627053"><ele>38.8</ele><time>2026-04-18T10:09:27.001Z</time></trkpt><trkpt lat="43.76541852653631" lon="11.180939804329103"><ele>38.599999999999994</ele><time>2026-04-18T10:09:29.001Z</time></trkpt><trkpt lat="43.7654012129165" lon="11.180853682052243"><ele>38.4</ele><time>2026-04-18T10:09:30.001Z</time></trkpt><trkpt lat="43.7653855112832" lon="11.180769022165338"><ele>38.199999999999996</ele><time>2026-04-18T10:09:31.001Z</time></trkpt><trkpt lat="43.76535748655307" lon="11.180601264577161"><ele>38.0</ele><time>2026-04-18T10:09:33.001Z</time></trkpt><trkpt lat="43.76533044462111" lon="11.180427412591454"><ele>38.14285714285714</ele><time>2026-04-18T10:09:35.001Z</time></trkpt><trkpt lat="43.765311054319106" lon="11.180339954788892"><ele>38.28571428571429</ele><time>2026-04-18T10:09:36.001Z</time></trkpt><trkpt lat="43.76529550641628" lon="11.180254745722275"><ele>38.42857142857143</ele><time>2026-04-18T10:09:37.001Z</time></trkpt><trkpt lat="43.76528421709498" lon="11.180168010281836"><ele>38.57142857142857</ele><time>2026-04-18T10:09:38.001Z</time></trkpt><trkpt lat="43.765276472374985" lon="11.18008036787318"><ele>38.71428571428571</ele><time>2026-04-18T10:09:39.001Z</time></trkpt><trkpt lat="43.76527067003559" lon="11.179989029962945"><ele>38.85714285714286</ele><time>2026-04-18T10:09:40.001Z</time></trkpt><trkpt lat="43.76527168095565" lon="11.179899140425416"><ele>39.0</ele><time>2026-04-18T10:09:41.001Z</time></trkpt><trkpt lat="43.76528117226935" lon="11.179802834738176"><ele>39.0</ele><time>2026-04-18T10:09:42.001Z</time></trkpt><trkpt lat="43.76529533544726" lon="11.179716783122075"><ele>39.0</ele><time>2026-04-18T10:09:43.001Z</time></trkpt><trkpt lat="43.76533889499936" lon="11.17958876979759"><ele>39.0</ele><time>2026-04-18T10:09:45.001Z</time></trkpt><trkpt lat="43.7653883772546" lon="11.179500120633188"><ele>39.0</ele><time>2026-04-18T10:09:47.001Z</time></trkpt><trkpt lat="43.76543300677422" lon="11.179401077907208"><ele>39.0</ele><time>2026-04-18T10:09:49.001Z</time></trkpt><trkpt lat="43.76543978600835" lon="11.179275043067936"><ele>39.0</ele><time>2026-04-18T10:09:51.001Z</time></trkpt><trkpt lat="43.765386240552814" lon="11.179147146133973"><ele>39.0</ele><time>2026-04-18T10:09:53.001Z</time></trkpt><trkpt lat="43.76532397680378" lon="11.17911795711036"><ele>39.0</ele><time>2026-04-18T10:09:54.001Z</time></trkpt><trkpt lat="43.76521702875147" lon="11.179070161890227"><ele>39.0</ele><time>2026-04-18T10:09:56.001Z</time></trkpt><trkpt lat="43.7651235478968" lon="11.178989375758517"><ele>39.0</ele><time>2026-04-18T10:09:58.001Z</time></trkpt><trkpt lat="43.765068586107496" lon="11.178845708746644"><ele>39.0</ele><time>2026-04-18T10:10:00.001Z</time></trkpt><trkpt lat="43.76504211756325" lon="11.178697455764508"><ele>39.75</ele><time>2026-04-18T10:10:02.001Z</time></trkpt><trkpt lat="43.765011884132825" lon="11.178550927809448"><ele>40.5</ele><time>2026-04-18T10:10:04.001Z</time></trkpt><trkpt lat="43.764983277380736" lon="11.178398180800528"><ele>41.25</ele><time>2026-04-18T10:10:06.001Z</time></trkpt><trkpt lat="43.76495649952527" lon="11.178249157803167"><ele>42.0</ele><time>2026-04-18T10:10:08.001Z</time></trkpt><trkpt lat="43.76492903800613" lon="11.178094994597563"><ele>42.5</ele><time>2026-04-18T10:10:10.001Z</time></trkpt><trkpt lat="43.764906890112854" lon="11.177934585271455"><ele>43.0</ele><time>2026-04-18T10:10:12.001Z</time></trkpt><trkpt lat="43.7648762267795" lon="11.177773299898151"><ele>43.5</ele><time>2026-04-18T10:10:14.001Z</time></trkpt><trkpt lat="43.764848879081256" lon="11.177620439094817"><ele>44.0</ele><time>2026-04-18T10:10:16.001Z</time></trkpt><trkpt lat="43.764837294659486" lon="11.177462845436537"><ele>43.6</ele><time>2026-04-18T10:10:18.001Z</time></trkpt><trkpt lat="43.76480683468151" lon="11.177316332965816"><ele>43.2</ele><time>2026-04-18T10:10:20.001Z</time></trkpt><trkpt lat="43.76477684039941" lon="11.177157876771693"><ele>42.800000000000004</ele><time>2026-04-18T10:10:22.001Z</time></trkpt><trkpt lat="43.76477299207928" lon="11.177060323935288"><ele>42.400000000000006</ele><time>2026-04-18T10:10:23.001Z</time></trkpt><trkpt lat="43.76477860685973" lon="11.176965944926943"><ele>42.0</ele><time>2026-04-18T10:10:24.001Z</time></trkpt><trkpt lat="43.76474654511411" lon="11.176819250087261"><ele>42.0</ele><time>2026-04-18T10:10:26.001Z</time></trkpt><trkpt lat="43.7647180590957" lon="11.176646039972338"><ele>42.0</ele><time>2026-04-18T10:10:28.001Z</time></trkpt><trkpt lat="43.76470461970547" lon="11.176560868454594"><ele>42.0</ele><time>2026-04-18T10:10:29.001Z</time></trkpt><trkpt lat="43.7646803257557" lon="11.17639058610668"><ele>42.0</ele><time>2026-04-18T10:10:31.001Z</time></trkpt><trkpt lat="43.76464061640722" lon="11.176238630284026"><ele>42.0</ele><time>2026-04-18T10:10:33.001Z</time></trkpt><trkpt lat="43.764619299758884" lon="11.176121543688316"><ele>41.8</ele><time>2026-04-18T10:10:35.001Z</time></trkpt><trkpt lat="43.764641144923466" lon="11.176016149215675"><ele>41.6</ele><time>2026-04-18T10:10:37.001Z</time></trkpt><trkpt lat="43.76468509899059" lon="11.175890692254761"><ele>41.4</ele><time>2026-04-18T10:10:39.001Z</time></trkpt><trkpt lat="43.7646640547341" lon="11.175756323942107"><ele>41.199999999999996</ele><time>2026-04-18T10:10:41.001Z</time></trkpt><trkpt lat="43.76459313965901" lon="11.175628612149044"><ele>41.0</ele><time>2026-04-18T10:10:43.001Z</time></trkpt><trkpt lat="43.76454041177387" lon="11.175513829878147"><ele>41.599999999999994</ele><time>2026-04-18T10:10:45.001Z</time></trkpt><trkpt lat="43.7645218243611" lon="11.175413314246052"><ele>42.2</ele><time>2026-04-18T10:10:47.001Z</time></trkpt><trkpt lat="43.76451750062012" lon="11.175276937780522"><ele>42.8</ele><time>2026-04-18T10:10:49.001Z</time></trkpt><trkpt lat="43.764525755390316" lon="11.175145054667098"><ele>43.400000000000006</ele><time>2026-04-18T10:10:51.001Z</time></trkpt><trkpt lat="43.76452915590776" lon="11.17500430668513"><ele>44.0</ele><time>2026-04-18T10:10:53.001Z</time></trkpt><trkpt lat="43.76454075712128" lon="11.17484311706696"><ele>44.0</ele><time>2026-04-18T10:10:55.001Z</time></trkpt><trkpt lat="43.76455585205973" lon="11.17468122616443"><ele>44.0</ele><time>2026-04-18T10:10:57.001Z</time></trkpt><trkpt lat="43.76456917953658" lon="11.174595034444241"><ele>44.0</ele><time>2026-04-18T10:10:58.001Z</time></trkpt><trkpt lat="43.76459836399849" lon="11.174433777337322"><ele>44.0</ele><time>2026-04-18T10:11:00.001Z</time></trkpt><trkpt lat="43.7646258407121" lon="11.174268081306753"><ele>44.0</ele><time>2026-04-18T10:11:02.001Z</time></trkpt><trkpt lat="43.76466829578692" lon="11.174109830119408"><ele>44.0</ele><time>2026-04-18T10:11:04.001Z</time></trkpt><trkpt lat="43.764693458149125" lon="11.174023799981544"><ele>44.0</ele><time>2026-04-18T10:11:05.001Z</time></trkpt><trkpt lat="43.764733578312686" lon="11.173852793487507"><ele>44.0</ele><time>2026-04-18T10:11:07.001Z</time></trkpt><trkpt lat="43.76476605075722" lon="11.173694987247208"><ele>44.0</ele><time>2026-04-18T10:11:09.001Z</time></trkpt><trkpt lat="43.76478264800047" lon="11.173605474419286"><ele>44.0</ele><time>2026-04-18T10:11:10.001Z</time></trkpt><trkpt lat="43.76479875180147" lon="11.17351981566573"><ele>44.0</ele><time>2026-04-18T10:11:11.001Z</time></trkpt><trkpt lat="43.76481636717473" lon="11.173435062033253"><ele>43.85714285714286</ele><time>2026-04-18T10:11:12.001Z</time></trkpt><trkpt lat="43.76484506177584" lon="11.173274257771409"><ele>43.714285714285715</ele><time>2026-04-18T10:11:14.001Z</time></trkpt><trkpt lat="43.76486047045728" lon="11.173187740009185"><ele>43.57142857142857</ele><time>2026-04-18T10:11:15.001Z</time></trkpt><trkpt lat="43.76487821361015" lon="11.173099372785709"><ele>43.42857142857143</ele><time>2026-04-18T10:11:16.001Z</time></trkpt><trkpt lat="43.76489227161294" lon="11.173010815845279"><ele>43.285714285714285</ele><time>2026-04-18T10:11:17.001Z</time></trkpt><trkpt lat="43.764903447839394" lon="11.172923803196513"><ele>43.142857142857146</ele><time>2026-04-18T10:11:18.001Z</time></trkpt><trkpt lat="43.76492010325988" lon="11.172838559813966"><ele>43.0</ele><time>2026-04-18T10:11:19.001Z</time></trkpt><trkpt lat="43.76494885175992" lon="11.172676431059285"><ele>43.0</ele><time>2026-04-18T10:11:21.001Z</time></trkpt><trkpt lat="43.76496982908113" lon="11.172589496721915"><ele>43.0</ele><time>2026-04-18T10:11:22.001Z</time></trkpt><trkpt lat="43.76499310326973" lon="11.172418738129013"><ele>43.0</ele><time>2026-04-18T10:11:24.001Z</time></trkpt><trkpt lat="43.765025683382646" lon="11.172253987712995"><ele>43.0</ele><time>2026-04-18T10:11:26.001Z</time></trkpt><trkpt lat="43.765054315406296" lon="11.17208902262086"><ele>43.0</ele><time>2026-04-18T10:11:28.001Z</time></trkpt><trkpt lat="43.76509094341515" lon="11.171926603153436"><ele>42.8</ele><time>2026-04-18T10:11:30.001Z</time></trkpt><trkpt lat="43.76512202291328" lon="11.171761889048664"><ele>42.599999999999994</ele><time>2026-04-18T10:11:32.001Z</time></trkpt><trkpt lat="43.76513580918503" lon="11.171676236516811"><ele>42.400000000000006</ele><time>2026-04-18T10:11:33.001Z</time></trkpt><trkpt lat="43.76515959412718" lon="11.171504447532026"><ele>42.2</ele><time>2026-04-18T10:11:35.001Z</time></trkpt><trkpt lat="43.76519835514251" lon="11.17134936531285"><ele>42.0</ele><time>2026-04-18T10:11:37.001Z</time></trkpt><trkpt lat="43.7652397560895" lon="11.17119106406244"><ele>41.75</ele><time>2026-04-18T10:11:39.001Z</time></trkpt><trkpt lat="43.765265052824056" lon="11.171029204966324"><ele>41.5</ele><time>2026-04-18T10:11:41.001Z</time></trkpt><trkpt lat="43.765271206941165" lon="11.170860881659477"><ele>41.25</ele><time>2026-04-18T10:11:43.001Z</time></trkpt><trkpt lat="43.76527725091367" lon="11.170693943632381"><ele>41.0</ele><time>2026-04-18T10:11:45.001Z</time></trkpt><trkpt lat="43.7653026962593" lon="11.170530283338291"><ele>40.8</ele><time>2026-04-18T10:11:47.001Z</time></trkpt><trkpt lat="43.76530167747032" lon="11.170440541561403"><ele>40.599999999999994</ele><time>2026-04-18T10:11:48.001Z</time></trkpt><trkpt lat="43.76530145802826" lon="11.170267905191048"><ele>40.4</ele><time>2026-04-18T10:11:50.001Z</time></trkpt><trkpt lat="43.76530856234136" lon="11.170091587640904"><ele>40.2</ele><time>2026-04-18T10:11:52.001Z</time></trkpt><trkpt lat="43.76527864243144" lon="11.16999649639513"><ele>40.0</ele><time>2026-04-18T10:11:53.001Z</time></trkpt><trkpt lat="43.76529900815369" lon="11.169913522668361"><ele>40.285714285714285</ele><time>2026-04-18T10:11:54.001Z</time></trkpt><trkpt lat="43.76530518814967" lon="11.169824514581927"><ele>40.57142857142857</ele><time>2026-04-18T10:11:55.001Z</time></trkpt><trkpt lat="43.765304306301154" lon="11.169735990495644"><ele>40.85714285714286</ele><time>2026-04-18T10:11:56.001Z</time></trkpt><trkpt lat="43.76530317280005" lon="11.169645379372385"><ele>41.14285714285714</ele><time>2026-04-18T10:11:57.001Z</time></trkpt><trkpt lat="43.76529886413605" lon="11.169553079102235"><ele>41.42857142857143</ele><time>2026-04-18T10:11:58.001Z</time></trkpt><trkpt lat="43.76528762481234" lon="11.169463990779343"><ele>41.714285714285715</ele><time>2026-04-18T10:11:59.001Z</time></trkpt><trkpt lat="43.765282995581245" lon="11.169375550077268"><ele>42.0</ele><time>2026-04-18T10:12:00.001Z</time></trkpt><trkpt lat="43.765286663924755" lon="11.169212983358333"><ele>42.0</ele><time>2026-04-18T10:12:02.001Z</time></trkpt><trkpt lat="43.76527998458642" lon="11.169120572007664"><ele>42.0</ele><time>2026-04-18T10:12:03.001Z</time></trkpt><trkpt lat="43.7652707032162" lon="11.16893822343148"><ele>42.0</ele><time>2026-04-18T10:12:05.001Z</time></trkpt><trkpt lat="43.765264080104906" lon="11.168850027253718"><ele>42.0</ele><time>2026-04-18T10:12:06.001Z</time></trkpt><trkpt lat="43.76526090792855" lon="11.168755916948282"><ele>42.0</ele><time>2026-04-18T10:12:07.001Z</time></trkpt><trkpt lat="43.76526324879192" lon="11.168665106493174"><ele>42.0</ele><time>2026-04-18T10:12:08.001Z</time></trkpt><trkpt lat="43.76525771036459" lon="11.168575380913282"><ele>41.8</ele><time>2026-04-18T10:12:09.001Z</time></trkpt><trkpt lat="43.76525343536152" lon="11.168402785420025"><ele>41.6</ele><time>2026-04-18T10:12:11.001Z</time></trkpt><trkpt lat="43.76523922301884" lon="11.168218917866115"><ele>41.4</ele><time>2026-04-18T10:12:13.001Z</time></trkpt><trkpt lat="43.765230456161355" lon="11.16812626940156"><ele>41.199999999999996</ele><time>2026-04-18T10:12:14.001Z</time></trkpt><trkpt lat="43.76522003421206" lon="11.168032933616505"><ele>41.0</ele><time>2026-04-18T10:12:15.001Z</time></trkpt><trkpt lat="43.765227023313194" lon="11.16784923595568"><ele>40.4</ele><time>2026-04-18T10:12:17.001Z</time></trkpt><trkpt lat="43.76522813712108" lon="11.167755180245926"><ele>39.8</ele><time>2026-04-18T10:12:18.001Z</time></trkpt><trkpt lat="43.76521689371338" lon="11.167567101959765"><ele>39.199999999999996</ele><time>2026-04-18T10:12:20.001Z</time></trkpt><trkpt lat="43.76522779983937" lon="11.16746368960589"><ele>38.599999999999994</ele><time>2026-04-18T10:12:21.001Z</time></trkpt><trkpt lat="43.76524269507427" lon="11.167357388505444"><ele>38.0</ele><time>2026-04-18T10:12:22.001Z</time></trkpt><trkpt lat="43.76522210606067" lon="11.167230018826382"><ele>38.0</ele><time>2026-04-18T10:12:23.001Z</time></trkpt><trkpt lat="43.765210565831765" lon="11.167143947752422"><ele>38.0</ele><time>2026-04-18T10:12:24.001Z</time></trkpt><trkpt lat="43.76520432552098" lon="11.166985402829587"><ele>38.0</ele><time>2026-04-18T10:12:26.001Z</time></trkpt><trkpt lat="43.76521180510556" lon="11.166835686546927"><ele>38.0</ele><time>2026-04-18T10:12:28.001Z</time></trkpt><trkpt lat="43.7652222495119" lon="11.166660387937121"><ele>38.0</ele><time>2026-04-18T10:12:30.001Z</time></trkpt><trkpt lat="43.76523735343026" lon="11.166485243937009"><ele>37.8</ele><time>2026-04-18T10:12:32.001Z</time></trkpt><trkpt lat="43.76524556783893" lon="11.16639500202406"><ele>37.599999999999994</ele><time>2026-04-18T10:12:33.001Z</time></trkpt><trkpt lat="43.76525685560505" lon="11.166308163904512"><ele>37.400000000000006</ele><time>2026-04-18T10:12:34.001Z</time></trkpt><trkpt lat="43.76528425385564" lon="11.1661468329108"><ele>37.2</ele><time>2026-04-18T10:12:36.001Z</time></trkpt><trkpt lat="43.76531896692773" lon="11.165982208478136"><ele>37.0</ele><time>2026-04-18T10:12:38.001Z</time></trkpt><trkpt lat="43.76533114578143" lon="11.165829826394459"><ele>37.0</ele><time>2026-04-18T10:12:40.001Z</time></trkpt><trkpt lat="43.765336800409436" lon="11.16573602743393"><ele>37.0</ele><time>2026-04-18T10:12:41.001Z</time></trkpt><trkpt lat="43.76534632403838" lon="11.165572410862568"><ele>37.0</ele><time>2026-04-18T10:12:43.001Z</time></trkpt><trkpt lat="43.765353992899655" lon="11.165403381617518"><ele>37.0</ele><time>2026-04-18T10:12:45.001Z</time></trkpt><trkpt lat="43.76536480350043" lon="11.165238273338845"><ele>37.0</ele><time>2026-04-18T10:12:47.001Z</time></trkpt><trkpt lat="43.76536186476962" lon="11.165069921422868"><ele>37.5</ele><time>2026-04-18T10:12:49.001Z</time></trkpt><trkpt lat="43.76536486640458" lon="11.164905808626978"><ele>38.0</ele><time>2026-04-18T10:12:51.001Z</time></trkpt><trkpt lat="43.76536184315168" lon="11.1647334413463"><ele>38.5</ele><time>2026-04-18T10:12:53.001Z</time></trkpt><trkpt lat="43.765365437245116" lon="11.164558956390435"><ele>39.0</ele><time>2026-04-18T10:12:55.001Z</time></trkpt><trkpt lat="43.765366706239476" lon="11.164390092645311"><ele>39.0</ele><time>2026-04-18T10:12:57.001Z</time></trkpt><trkpt lat="43.765363652738124" lon="11.164300070807625"><ele>39.0</ele><time>2026-04-18T10:12:58.001Z</time></trkpt><trkpt lat="43.765367261602" lon="11.164130887928854"><ele>39.0</ele><time>2026-04-18T10:13:00.001Z</time></trkpt><trkpt lat="43.765372645961314" lon="11.163967371829509"><ele>39.0</ele><time>2026-04-18T10:13:02.001Z</time></trkpt><trkpt lat="43.76537489034605" lon="11.163800971108165"><ele>39.0</ele><time>2026-04-18T10:13:04.001Z</time></trkpt><trkpt lat="43.76537895586855" lon="11.163638947025534"><ele>38.6</ele><time>2026-04-18T10:13:06.001Z</time></trkpt><trkpt lat="43.76537128508672" lon="11.163471085529658"><ele>38.2</ele><time>2026-04-18T10:13:08.001Z</time></trkpt><trkpt lat="43.765358842432754" lon="11.163303196393786"><ele>37.800000000000004</ele><time>2026-04-18T10:13:10.001Z</time></trkpt><trkpt lat="43.76536240405451" lon="11.163132359981018"><ele>37.4</ele><time>2026-04-18T10:13:12.001Z</time></trkpt><trkpt lat="43.76535991174623" lon="11.163042409949911"><ele>37.0</ele><time>2026-04-18T10:13:13.001Z</time></trkpt><trkpt lat="43.76536896850958" lon="11.16287494943713"><ele>37.0</ele><time>2026-04-18T10:13:15.001Z</time></trkpt><trkpt lat="43.76537450475193" lon="11.162786068000242"><ele>37.0</ele><time>2026-04-18T10:13:16.001Z</time></trkpt><trkpt lat="43.76536913554981" lon="11.162617340228978"><ele>37.0</ele><time>2026-04-18T10:13:18.001Z</time></trkpt><trkpt lat="43.76535655085076" lon="11.1624604388114"><ele>37.0</ele><time>2026-04-18T10:13:20.001Z</time></trkpt><trkpt lat="43.76536377218505" lon="11.162360542889743"><ele>37.0</ele><time>2026-04-18T10:13:21.001Z</time></trkpt><trkpt lat="43.76536585863438" lon="11.162191439587447"><ele>37.0</ele><time>2026-04-18T10:13:23.001Z</time></trkpt><trkpt lat="43.76536082010432" lon="11.162032576248615"><ele>37.0</ele><time>2026-04-18T10:13:25.001Z</time></trkpt><trkpt lat="43.7653601504187" lon="11.161944348736455"><ele>37.0</ele><time>2026-04-18T10:13:26.001Z</time></trkpt><trkpt lat="43.765353894905004" lon="11.161768658779895"><ele>37.0</ele><time>2026-04-18T10:13:28.001Z</time></trkpt><trkpt lat="43.76536231181228" lon="11.161600799020848"><ele>37.0</ele><time>2026-04-18T10:13:30.001Z</time></trkpt><trkpt lat="43.76535907139053" lon="11.161428769643294"><ele>37.25</ele><time>2026-04-18T10:13:32.001Z</time></trkpt><trkpt lat="43.76536434425353" lon="11.161261575353848"><ele>37.5</ele><time>2026-04-18T10:13:34.001Z</time></trkpt><trkpt lat="43.76541538385188" lon="11.161120000892623"><ele>37.75</ele><time>2026-04-18T10:13:36.001Z</time></trkpt><trkpt lat="43.765447439603854" lon="11.160971040444423"><ele>38.0</ele><time>2026-04-18T10:13:38.001Z</time></trkpt><trkpt lat="43.76541839892219" lon="11.16081093974288"><ele>38.0</ele><time>2026-04-18T10:13:40.001Z</time></trkpt><trkpt lat="43.76540260937372" lon="11.160644512924549"><ele>38.0</ele><time>2026-04-18T10:13:42.001Z</time></trkpt><trkpt lat="43.765409782414004" lon="11.160556783809604"><ele>38.0</ele><time>2026-04-18T10:13:43.001Z</time></trkpt><trkpt lat="43.765424017731334" lon="11.16038848898546"><ele>38.0</ele><time>2026-04-18T10:13:45.001Z</time></trkpt><trkpt lat="43.76543076017693" lon="11.160213193020526"><ele>38.0</ele><time>2026-04-18T10:13:47.001Z</time></trkpt><trkpt lat="43.76543574148491" lon="11.160040848321065"><ele>38.0</ele><time>2026-04-18T10:13:49.001Z</time></trkpt><trkpt lat="43.76544302201172" lon="11.15986845231437"><ele>38.0</ele><time>2026-04-18T10:13:51.001Z</time></trkpt><trkpt lat="43.76545024712249" lon="11.15969624503455"><ele>38.0</ele><time>2026-04-18T10:13:53.001Z</time></trkpt><trkpt lat="43.76546044516724" lon="11.15952870085095"><ele>38.0</ele><time>2026-04-18T10:13:55.001Z</time></trkpt><trkpt lat="43.76547680630847" lon="11.159368296208005"><ele>38.0</ele><time>2026-04-18T10:13:57.001Z</time></trkpt><trkpt lat="43.765494725743345" lon="11.159205236159268"><ele>38.0</ele><time>2026-04-18T10:13:59.001Z</time></trkpt><trkpt lat="43.765511104142355" lon="11.159040616956572"><ele>38.0</ele><time>2026-04-18T10:14:01.001Z</time></trkpt><trkpt lat="43.76553011123792" lon="11.158879857165385"><ele>38.0</ele><time>2026-04-18T10:14:03.001Z</time></trkpt><trkpt lat="43.76554713474208" lon="11.158720170593435"><ele>38.0</ele><time>2026-04-18T10:14:05.001Z</time></trkpt><trkpt lat="43.76556901342401" lon="11.158562111924315"><ele>38.0</ele><time>2026-04-18T10:14:07.001Z</time></trkpt><trkpt lat="43.765586205763974" lon="11.158402115342962"><ele>38.0</ele><time>2026-04-18T10:14:09.001Z</time></trkpt><trkpt lat="43.765598525167086" lon="11.158241837794767"><ele>38.0</ele><time>2026-04-18T10:14:11.001Z</time></trkpt><trkpt lat="43.765625889762156" lon="11.158083948263869"><ele>38.25</ele><time>2026-04-18T10:14:13.001Z</time></trkpt><trkpt lat="43.765684209780105" lon="11.157938099957729"><ele>38.5</ele><time>2026-04-18T10:14:15Z</time></trkpt><trkpt lat="43.76575757761188" lon="11.157814241373686"><ele>38.75</ele><time>2026-04-18T10:14:17Z</time></trkpt><trkpt lat="43.765802046644964" lon="11.157667143887414"><ele>39.0</ele><time>2026-04-18T10:14:19Z</time></trkpt><trkpt lat="43.76579383233277" lon="11.157501311784792"><ele>38.6</ele><time>2026-04-18T10:14:21Z</time></trkpt><trkpt lat="43.765733996168485" lon="11.157359315456407"><ele>38.2</ele><time>2026-04-18T10:14:23Z</time></trkpt><trkpt lat="43.76566932755609" lon="11.157317054543627"><ele>37.800000000000004</ele><time>2026-04-18T10:14:25Z</time></trkpt><trkpt lat="43.765757292068415" lon="11.157088922503704"><ele>37.4</ele><time>2026-04-18T10:14:26Z</time></trkpt><trkpt lat="43.76577499104326" lon="11.156999858227236"><ele>37.0</ele><time>2026-04-18T10:14:27Z</time></trkpt><trkpt lat="43.76579494955724" lon="11.1569126247814"><ele>37.0</ele><time>2026-04-18T10:14:28Z</time></trkpt><trkpt lat="43.765811143942045" lon="11.156827961790883"><ele>37.0</ele><time>2026-04-18T10:14:29Z</time></trkpt><trkpt lat="43.765837297398534" lon="11.156658035220447"><ele>37.0</ele><time>2026-04-18T10:14:31Z</time></trkpt><trkpt lat="43.76584743261836" lon="11.156571043396232"><ele>37.0</ele><time>2026-04-18T10:14:32Z</time></trkpt><trkpt lat="43.765871363636016" lon="11.156406907112023"><ele>37.0</ele><time>2026-04-18T10:14:34Z</time></trkpt><trkpt lat="43.7658961857153" lon="11.156241550438725"><ele>37.2</ele><time>2026-04-18T10:14:36Z</time></trkpt><trkpt lat="43.765904123023226" lon="11.15615349621311"><ele>37.400000000000006</ele><time>2026-04-18T10:14:37Z</time></trkpt><trkpt lat="43.76592300611515" lon="11.155983490793902"><ele>37.599999999999994</ele><time>2026-04-18T10:14:39Z</time></trkpt><trkpt lat="43.765939407319905" lon="11.155829582281978"><ele>37.8</ele><time>2026-04-18T10:14:41Z</time></trkpt><trkpt lat="43.76595202866945" lon="11.155736174924074"><ele>38.0</ele><time>2026-04-18T10:14:42Z</time></trkpt><trkpt lat="43.76597196704852" lon="11.155567463847412"><ele>38.5</ele><time>2026-04-18T10:14:44Z</time></trkpt><trkpt lat="43.76600147659604" lon="11.155405892765788"><ele>39.0</ele><time>2026-04-18T10:14:46Z</time></trkpt><trkpt lat="43.76602469528698" lon="11.155241781151213"><ele>39.5</ele><time>2026-04-18T10:14:48Z</time></trkpt><trkpt lat="43.76605211758304" lon="11.155075474135483"><ele>40.0</ele><time>2026-04-18T10:14:50Z</time></trkpt><trkpt lat="43.76608807849868" lon="11.154913957132878"><ele>40.4</ele><time>2026-04-18T10:14:52Z</time></trkpt><trkpt lat="43.76611730083998" lon="11.154749585789226"><ele>40.8</ele><time>2026-04-18T10:14:54Z</time></trkpt><trkpt lat="43.76612586787823" lon="11.154659185563618"><ele>41.2</ele><time>2026-04-18T10:14:55Z</time></trkpt><trkpt lat="43.766151985358235" lon="11.154487210715208"><ele>41.6</ele><time>2026-04-18T10:14:57Z</time></trkpt><trkpt lat="43.7661714988244" lon="11.154398316441966"><ele>42.0</ele><time>2026-04-18T10:14:58Z</time></trkpt><trkpt lat="43.766204062691195" lon="11.154234768646052"><ele>42.0</ele><time>2026-04-18T10:15:00Z</time></trkpt><trkpt lat="43.7662344117717" lon="11.154073253935005"><ele>42.0</ele><time>2026-04-18T10:15:02Z</time></trkpt><trkpt lat="43.766256502633176" lon="11.153914207136317"><ele>42.0</ele><time>2026-04-18T10:15:04Z</time></trkpt><trkpt lat="43.76627347276263" lon="11.153754597266463"><ele>42.0</ele><time>2026-04-18T10:15:06Z</time></trkpt><trkpt lat="43.766299712352975" lon="11.153595652376806"><ele>41.5</ele><time>2026-04-18T10:15:08Z</time></trkpt><trkpt lat="43.76633704718181" lon="11.153438594344534"><ele>41.0</ele><time>2026-04-18T10:15:10Z</time></trkpt><trkpt lat="43.76637134388738" lon="11.153278122464483"><ele>40.5</ele><time>2026-04-18T10:15:12Z</time></trkpt><trkpt lat="43.766397358370526" lon="11.153117248300676"><ele>40.0</ele><time>2026-04-18T10:15:14Z</time></trkpt><trkpt lat="43.76642629393407" lon="11.152958432821245"><ele>39.25</ele><time>2026-04-18T10:15:16Z</time></trkpt><trkpt lat="43.7664518644287" lon="11.152791304420086"><ele>38.5</ele><time>2026-04-18T10:15:18Z</time></trkpt><trkpt lat="43.76648176830838" lon="11.152623709972579"><ele>37.75</ele><time>2026-04-18T10:15:20Z</time></trkpt><trkpt lat="43.76651167228337" lon="11.152461074389501"><ele>37.0</ele><time>2026-04-18T10:15:22Z</time></trkpt><trkpt lat="43.76653928190019" lon="11.15229374699392"><ele>37.0</ele><time>2026-04-18T10:15:24Z</time></trkpt><trkpt lat="43.76656333808577" lon="11.152127642150022"><ele>37.0</ele><time>2026-04-18T10:15:26.001Z</time></trkpt><trkpt lat="43.766577688626185" lon="11.152038720328722"><ele>37.0</ele><time>2026-04-18T10:15:27.001Z</time></trkpt><trkpt lat="43.76659737404881" lon="11.151873652690488"><ele>37.0</ele><time>2026-04-18T10:15:29.001Z</time></trkpt><trkpt lat="43.766615219664196" lon="11.151705144000022"><ele>37.0</ele><time>2026-04-18T10:15:31.001Z</time></trkpt><trkpt lat="43.76663350641612" lon="11.15153629194309"><ele>36.800000000000004</ele><time>2026-04-18T10:15:33.001Z</time></trkpt><trkpt lat="43.766669091439894" lon="11.15137072439054"><ele>36.6</ele><time>2026-04-18T10:15:35.001Z</time></trkpt><trkpt lat="43.76669686282136" lon="11.151205026391919"><ele>36.400000000000006</ele><time>2026-04-18T10:15:37.001Z</time></trkpt><trkpt lat="43.766728044102116" lon="11.151034157366873"><ele>36.2</ele><time>2026-04-18T10:15:39.001Z</time></trkpt><trkpt lat="43.76674324103846" lon="11.15094827658613"><ele>36.0</ele><time>2026-04-18T10:15:40.001Z</time></trkpt><trkpt lat="43.766777265670754" lon="11.150784787433006"><ele>36.0</ele><time>2026-04-18T10:15:42.001Z</time></trkpt><trkpt lat="43.76681536863162" lon="11.15062295839367"><ele>36.0</ele><time>2026-04-18T10:15:44.001Z</time></trkpt><trkpt lat="43.7668318400841" lon="11.150538106459761"><ele>36.0</ele><time>2026-04-18T10:15:45.001Z</time></trkpt><trkpt lat="43.76686626391488" lon="11.150373595780017"><ele>36.0</ele><time>2026-04-18T10:15:47.001Z</time></trkpt><trkpt lat="43.76688548682568" lon="11.15029029025667"><ele>36.0</ele><time>2026-04-18T10:15:48.001Z</time></trkpt><trkpt lat="43.76692438789151" lon="11.150129762770806"><ele>36.0</ele><time>2026-04-18T10:15:50.001Z</time></trkpt><trkpt lat="43.76695891968501" lon="11.149964675699227"><ele>36.0</ele><time>2026-04-18T10:15:52.001Z</time></trkpt><trkpt lat="43.76699053449087" lon="11.149794737770344"><ele>36.0</ele><time>2026-04-18T10:15:54.001Z</time></trkpt><trkpt lat="43.76701656512343" lon="11.149633846619086"><ele>36.0</ele><time>2026-04-18T10:15:56.001Z</time></trkpt><trkpt lat="43.76703617167135" lon="11.14954947276358"><ele>36.0</ele><time>2026-04-18T10:15:57.001Z</time></trkpt><trkpt lat="43.76707459268048" lon="11.149392102900809"><ele>36.0</ele><time>2026-04-18T10:15:59.001Z</time></trkpt><trkpt lat="43.76710604039829" lon="11.149223757051816"><ele>36.0</ele><time>2026-04-18T10:16:01.001Z</time></trkpt><trkpt lat="43.7671354891219" lon="11.149054546703258"><ele>36.0</ele><time>2026-04-18T10:16:03.001Z</time></trkpt><trkpt lat="43.76716356132772" lon="11.148884993101456"><ele>36.0</ele><time>2026-04-18T10:16:05.001Z</time></trkpt><trkpt lat="43.76717385730137" lon="11.148797091327939"><ele>36.0</ele><time>2026-04-18T10:16:06.001Z</time></trkpt><trkpt lat="43.76719395084946" lon="11.148628908766158"><ele>36.0</ele><time>2026-04-18T10:16:08.001Z</time></trkpt><trkpt lat="43.76721645572431" lon="11.148460620700742"><ele>36.0</ele><time>2026-04-18T10:16:10.001Z</time></trkpt><trkpt lat="43.76723631474692" lon="11.148291504714122"><ele>36.0</ele><time>2026-04-18T10:16:12Z</time></trkpt><trkpt lat="43.76725789961378" lon="11.148119589870626"><ele>36.0</ele><time>2026-04-18T10:16:14Z</time></trkpt><trkpt lat="43.76727836769876" lon="11.147952988681133"><ele>36.2</ele><time>2026-04-18T10:16:16Z</time></trkpt><trkpt lat="43.76729705938495" lon="11.147782730381415"><ele>36.400000000000006</ele><time>2026-04-18T10:16:18Z</time></trkpt><trkpt lat="43.76730760656331" lon="11.147695398568949"><ele>36.6</ele><time>2026-04-18T10:16:19Z</time></trkpt><trkpt lat="43.767325841262384" lon="11.147524287180612"><ele>36.800000000000004</ele><time>2026-04-18T10:16:21Z</time></trkpt><trkpt lat="43.76734926218817" lon="11.1473547649639"><ele>37.0</ele><time>2026-04-18T10:16:23Z</time></trkpt><trkpt lat="43.76737592152001" lon="11.147188017163936"><ele>37.0</ele><time>2026-04-18T10:16:25Z</time></trkpt><trkpt lat="43.76740553826887" lon="11.14703163008363"><ele>37.0</ele><time>2026-04-18T10:16:27Z</time></trkpt><trkpt lat="43.767425760940306" lon="11.14686563262995"><ele>37.0</ele><time>2026-04-18T10:16:29Z</time></trkpt><trkpt lat="43.76744720790132" lon="11.14670271046028"><ele>37.0</ele><time>2026-04-18T10:16:31Z</time></trkpt><trkpt lat="43.767471526269084" lon="11.146542695849321"><ele>36.800000000000004</ele><time>2026-04-18T10:16:33Z</time></trkpt><trkpt lat="43.76749577143625" lon="11.146378654968908"><ele>36.6</ele><time>2026-04-18T10:16:35Z</time></trkpt><trkpt lat="43.76751388231094" lon="11.146208032107594"><ele>36.400000000000006</ele><time>2026-04-18T10:16:37Z</time></trkpt><trkpt lat="43.76755289645906" lon="11.146058343843025"><ele>36.2</ele><time>2026-04-18T10:16:39Z</time></trkpt><trkpt lat="43.76756472464926" lon="11.145972182780687"><ele>36.0</ele><time>2026-04-18T10:16:40Z</time></trkpt><trkpt lat="43.76759409994846" lon="11.14580546373727"><ele>35.8</ele><time>2026-04-18T10:16:42Z</time></trkpt><trkpt lat="43.76762741730364" lon="11.145640672245978"><ele>35.6</ele><time>2026-04-18T10:16:44Z</time></trkpt><trkpt lat="43.76764531233595" lon="11.145556730700639"><ele>35.4</ele><time>2026-04-18T10:16:45Z</time></trkpt><trkpt lat="43.76767142609964" lon="11.145391873604293"><ele>35.2</ele><time>2026-04-18T10:16:47Z</time></trkpt><trkpt lat="43.76770782281855" lon="11.145232578942432"><ele>35.0</ele><time>2026-04-18T10:16:49Z</time></trkpt><trkpt lat="43.767732276050765" lon="11.145069201215211"><ele>35.0</ele><time>2026-04-18T10:16:51Z</time></trkpt><trkpt lat="43.76776476028349" lon="11.144910941262891"><ele>35.0</ele><time>2026-04-18T10:16:53Z</time></trkpt><trkpt lat="43.76778650228662" lon="11.14474649364716"><ele>35.0</ele><time>2026-04-18T10:16:55Z</time></trkpt><trkpt lat="43.767816591887524" lon="11.144595004016013"><ele>35.0</ele><time>2026-04-18T10:16:57Z</time></trkpt><trkpt lat="43.76784830803497" lon="11.144438571998688"><ele>35.0</ele><time>2026-04-18T10:16:59Z</time></trkpt><trkpt lat="43.76787492162106" lon="11.1442835080048"><ele>35.0</ele><time>2026-04-18T10:17:01Z</time></trkpt><trkpt lat="43.76789945417972" lon="11.144123098477367"><ele>35.0</ele><time>2026-04-18T10:17:03Z</time></trkpt><trkpt lat="43.76793467736602" lon="11.143983360053376"><ele>35.0</ele><time>2026-04-18T10:17:05Z</time></trkpt><trkpt lat="43.76794024814317" lon="11.143896232128872"><ele>35.0</ele><time>2026-04-18T10:17:06Z</time></trkpt><trkpt lat="43.76795867862547" lon="11.143736461882192"><ele>35.2</ele><time>2026-04-18T10:17:08Z</time></trkpt><trkpt lat="43.767983455341145" lon="11.143583897203932"><ele>35.4</ele><time>2026-04-18T10:17:10Z</time></trkpt><trkpt lat="43.76801861620889" lon="11.143436519172154"><ele>35.6</ele><time>2026-04-18T10:17:12Z</time></trkpt><trkpt lat="43.76804392331896" lon="11.143281344076492"><ele>35.8</ele><time>2026-04-18T10:17:14Z</time></trkpt><trkpt lat="43.76805518746062" lon="11.143193940518705"><ele>36.0</ele><time>2026-04-18T10:17:15Z</time></trkpt><trkpt lat="43.768074910607666" lon="11.143028745573723"><ele>36.0</ele><time>2026-04-18T10:17:17Z</time></trkpt><trkpt lat="43.768090694522165" lon="11.142940076399583"><ele>36.0</ele><time>2026-04-18T10:17:18Z</time></trkpt><trkpt lat="43.768111949727576" lon="11.142777958677241"><ele>36.0</ele><time>2026-04-18T10:17:20Z</time></trkpt><trkpt lat="43.76812912986331" lon="11.142692718813484"><ele>36.0</ele><time>2026-04-18T10:17:21Z</time></trkpt><trkpt lat="43.768147533720374" lon="11.14252036150978"><ele>36.0</ele><time>2026-04-18T10:17:23Z</time></trkpt><trkpt lat="43.768170892008236" lon="11.142361768067834"><ele>36.0</ele><time>2026-04-18T10:17:25Z</time></trkpt><trkpt lat="43.768174738517985" lon="11.142268629976739"><ele>36.0</ele><time>2026-04-18T10:17:26Z</time></trkpt><trkpt lat="43.768187690272406" lon="11.142180924942345"><ele>36.0</ele><time>2026-04-18T10:17:27Z</time></trkpt><trkpt lat="43.76821632416771" lon="11.14201844554215"><ele>36.0</ele><time>2026-04-18T10:17:29Z</time></trkpt><trkpt lat="43.76824010041109" lon="11.141846333309578"><ele>36.0</ele><time>2026-04-18T10:17:31Z</time></trkpt><trkpt lat="43.76824314640407" lon="11.141753791285966"><ele>36.0</ele><time>2026-04-18T10:17:32Z</time></trkpt><trkpt lat="43.76828844921152" lon="11.141600000838531"><ele>35.8</ele><time>2026-04-18T10:17:34Z</time></trkpt><trkpt lat="43.76829844263118" lon="11.141509852588777"><ele>35.6</ele><time>2026-04-18T10:17:35Z</time></trkpt><trkpt lat="43.7683251989781" lon="11.141342582871088"><ele>35.4</ele><time>2026-04-18T10:17:37Z</time></trkpt><trkpt lat="43.76834282940807" lon="11.141258397231109"><ele>35.2</ele><time>2026-04-18T10:17:38Z</time></trkpt><trkpt lat="43.76837652067328" lon="11.141104879465445"><ele>35.0</ele><time>2026-04-18T10:17:40Z</time></trkpt><trkpt lat="43.76839789544271" lon="11.140942219174105"><ele>35.0</ele><time>2026-04-18T10:17:42Z</time></trkpt><trkpt lat="43.76840671658803" lon="11.140780182713312"><ele>35.0</ele><time>2026-04-18T10:17:44Z</time></trkpt><trkpt lat="43.768412002529296" lon="11.140608743166286"><ele>35.0</ele><time>2026-04-18T10:17:46Z</time></trkpt><trkpt lat="43.768418208409805" lon="11.140520033278415"><ele>35.0</ele><time>2026-04-18T10:17:47Z</time></trkpt><trkpt lat="43.768430224215976" lon="11.140350561495758"><ele>35.0</ele><time>2026-04-18T10:17:49Z</time></trkpt><trkpt lat="43.768451331543055" lon="11.140183010082794"><ele>35.166666666666664</ele><time>2026-04-18T10:17:51Z</time></trkpt><trkpt lat="43.76846580450477" lon="11.140012996131555"><ele>35.33333333333333</ele><time>2026-04-18T10:17:53Z</time></trkpt><trkpt lat="43.7684800960837" lon="11.139840965755722"><ele>35.5</ele><time>2026-04-18T10:17:55Z</time></trkpt><trkpt lat="43.76848474922127" lon="11.139750737970145"><ele>35.666666666666664</ele><time>2026-04-18T10:17:56Z</time></trkpt><trkpt lat="43.7684894286773" lon="11.139661361415572"><ele>35.833333333333336</ele><time>2026-04-18T10:17:57Z</time></trkpt><trkpt lat="43.76849280973807" lon="11.139573015940641"><ele>36.0</ele><time>2026-04-18T10:17:58Z</time></trkpt><trkpt lat="43.768496687063966" lon="11.139484341645117"><ele>36.00000000000001</ele><time>2026-04-18T10:17:59Z</time></trkpt><trkpt lat="43.76849563166815" lon="11.139395722748327"><ele>36.0</ele><time>2026-04-18T10:18:00Z</time></trkpt><trkpt lat="43.76851583323028" lon="11.139306948405219"><ele>36.0</ele><time>2026-04-18T10:18:01Z</time></trkpt><trkpt lat="43.7685289057863" lon="11.139216915036528"><ele>36.0</ele><time>2026-04-18T10:18:02Z</time></trkpt><trkpt lat="43.768545116431994" lon="11.13912550773185"><ele>36.0</ele><time>2026-04-18T10:18:03Z</time></trkpt><trkpt lat="43.768554631890616" lon="11.139034890431885"><ele>36.00000000000001</ele><time>2026-04-18T10:18:04Z</time></trkpt><trkpt lat="43.768559919645575" lon="11.138942669351408"><ele>36.0</ele><time>2026-04-18T10:18:05Z</time></trkpt><trkpt lat="43.76856562570688" lon="11.13885424224005"><ele>35.85714285714286</ele><time>2026-04-18T10:18:06Z</time></trkpt><trkpt lat="43.768570035039886" lon="11.138761712298836"><ele>35.714285714285715</ele><time>2026-04-18T10:18:07Z</time></trkpt><trkpt lat="43.768571968076664" lon="11.138665973505852"><ele>35.57142857142857</ele><time>2026-04-18T10:18:08Z</time></trkpt><trkpt lat="43.76857321430335" lon="11.138571585417496"><ele>35.42857142857143</ele><time>2026-04-18T10:18:09Z</time></trkpt><trkpt lat="43.76857055907564" lon="11.138483093791418"><ele>35.285714285714285</ele><time>2026-04-18T10:18:10Z</time></trkpt><trkpt lat="43.768560598510106" lon="11.138393245872368"><ele>35.142857142857146</ele><time>2026-04-18T10:18:11Z</time></trkpt><trkpt lat="43.76855375799585" lon="11.138300069409386"><ele>35.0</ele><time>2026-04-18T10:18:12Z</time></trkpt><trkpt lat="43.76853559819586" lon="11.138123760775631"><ele>35.166666666666664</ele><time>2026-04-18T10:18:14Z</time></trkpt><trkpt lat="43.76852086944282" lon="11.137956632325466"><ele>35.33333333333333</ele><time>2026-04-18T10:18:16Z</time></trkpt><trkpt lat="43.76851241963647" lon="11.137869392268337"><ele>35.5</ele><time>2026-04-18T10:18:17Z</time></trkpt><trkpt lat="43.76850980200453" lon="11.137781310467572"><ele>35.666666666666664</ele><time>2026-04-18T10:18:18Z</time></trkpt><trkpt lat="43.768504559317236" lon="11.137609008755092"><ele>35.833333333333336</ele><time>2026-04-18T10:18:20Z</time></trkpt><trkpt lat="43.76849752402648" lon="11.13751980218175"><ele>36.0</ele><time>2026-04-18T10:18:21Z</time></trkpt><trkpt lat="43.76849066955182" lon="11.137342305357834"><ele>36.0</ele><time>2026-04-18T10:18:23Z</time></trkpt><trkpt lat="43.768481229800074" lon="11.137167291158999"><ele>36.0</ele><time>2026-04-18T10:18:25Z</time></trkpt><trkpt lat="43.76847162065536" lon="11.137079084684036"><ele>36.0</ele><time>2026-04-18T10:18:26Z</time></trkpt><trkpt lat="43.76846463127124" lon="11.136990915473792"><ele>36.0</ele><time>2026-04-18T10:18:27Z</time></trkpt><trkpt lat="43.76845658486954" lon="11.136899107016214"><ele>36.0</ele><time>2026-04-18T10:18:28Z</time></trkpt><trkpt lat="43.76845392167948" lon="11.136809890550776"><ele>36.0</ele><time>2026-04-18T10:18:29Z</time></trkpt><trkpt lat="43.768453910413555" lon="11.136720308929036"><ele>36.0</ele><time>2026-04-18T10:18:30Z</time></trkpt><trkpt lat="43.76845044176088" lon="11.136623014727801"><ele>36.0</ele><time>2026-04-18T10:18:31Z</time></trkpt><trkpt lat="43.76844390981196" lon="11.136529102586932"><ele>36.0</ele><time>2026-04-18T10:18:32Z</time></trkpt><trkpt lat="43.76843233257122" lon="11.136358728641934"><ele>36.0</ele><time>2026-04-18T10:18:34Z</time></trkpt><trkpt lat="43.76842395047778" lon="11.13626495687647"><ele>36.0</ele><time>2026-04-18T10:18:35Z</time></trkpt><trkpt lat="43.76841925697636" lon="11.136177707856246"><ele>36.0</ele><time>2026-04-18T10:18:36Z</time></trkpt><trkpt lat="43.76841394767322" lon="11.1360071087386"><ele>36.0</ele><time>2026-04-18T10:18:38Z</time></trkpt><trkpt lat="43.76841015434944" lon="11.135836435892672"><ele>36.0</ele><time>2026-04-18T10:18:40Z</time></trkpt><trkpt lat="43.76839924911998" lon="11.135740706169583"><ele>36.0</ele><time>2026-04-18T10:18:41Z</time></trkpt><trkpt lat="43.76839825267586" lon="11.135653436944168"><ele>36.0</ele><time>2026-04-18T10:18:42Z</time></trkpt><trkpt lat="43.76838388925037" lon="11.135481377866904"><ele>36.0</ele><time>2026-04-18T10:18:44Z</time></trkpt><trkpt lat="43.76837863497181" lon="11.135307366401603"><ele>36.2</ele><time>2026-04-18T10:18:46Z</time></trkpt><trkpt lat="43.76836976408719" lon="11.135134597578732"><ele>36.400000000000006</ele><time>2026-04-18T10:18:48Z</time></trkpt><trkpt lat="43.7683687905462" lon="11.135046894684688"><ele>36.6</ele><time>2026-04-18T10:18:49Z</time></trkpt><trkpt lat="43.76836754004293" lon="11.134958604849421"><ele>36.800000000000004</ele><time>2026-04-18T10:18:50Z</time></trkpt><trkpt lat="43.76837276859354" lon="11.134776646576526"><ele>37.0</ele><time>2026-04-18T10:18:52Z</time></trkpt><trkpt lat="43.76837693893909" lon="11.134609727925993"><ele>36.75</ele><time>2026-04-18T10:18:54Z</time></trkpt><trkpt lat="43.76837994885287" lon="11.134438752954315"><ele>36.5</ele><time>2026-04-18T10:18:56Z</time></trkpt><trkpt lat="43.76838591982519" lon="11.134272168768675"><ele>36.25</ele><time>2026-04-18T10:18:58Z</time></trkpt><trkpt lat="43.76839395398353" lon="11.134110185682857"><ele>36.0</ele><time>2026-04-18T10:19:00Z</time></trkpt><trkpt lat="43.76839382056548" lon="11.133945920683777"><ele>36.0</ele><time>2026-04-18T10:19:02Z</time></trkpt><trkpt lat="43.76840034929884" lon="11.133817789718313"><ele>36.0</ele><time>2026-04-18T10:19:04Z</time></trkpt><trkpt lat="43.76840930096462" lon="11.133707314149197"><ele>36.0</ele><time>2026-04-18T10:19:06Z</time></trkpt><trkpt lat="43.76840426236288" lon="11.133588202955934"><ele>36.0</ele><time>2026-04-18T10:19:08Z</time></trkpt><trkpt lat="43.76840275453149" lon="11.13346989697095"><ele>36.0</ele><time>2026-04-18T10:19:10Z</time></trkpt><trkpt lat="43.76840004203034" lon="11.133323183020531"><ele>36.2</ele><time>2026-04-18T10:19:12Z</time></trkpt><trkpt lat="43.768404334342755" lon="11.133173761798675"><ele>36.400000000000006</ele><time>2026-04-18T10:19:14Z</time></trkpt><trkpt lat="43.76840455170249" lon="11.133023125153219"><ele>36.6</ele><time>2026-04-18T10:19:16Z</time></trkpt><trkpt lat="43.768410280437145" lon="11.132867823973868"><ele>36.800000000000004</ele><time>2026-04-18T10:19:18Z</time></trkpt><trkpt lat="43.76841193479344" lon="11.132717806738928"><ele>37.0</ele><time>2026-04-18T10:19:20Z</time></trkpt><trkpt lat="43.76841990563701" lon="11.132562071204324"><ele>37.0</ele><time>2026-04-18T10:19:22Z</time></trkpt><trkpt lat="43.76843145638933" lon="11.13241412952434"><ele>37.0</ele><time>2026-04-18T10:19:24Z</time></trkpt><trkpt lat="43.76844902933818" lon="11.132261409321563"><ele>37.0</ele><time>2026-04-18T10:19:26Z</time></trkpt><trkpt lat="43.76847919086457" lon="11.132077457244673"><ele>37.0</ele><time>2026-04-18T10:19:28Z</time></trkpt><trkpt lat="43.76848573133633" lon="11.13198417302065"><ele>37.0</ele><time>2026-04-18T10:19:29Z</time></trkpt><trkpt lat="43.76849004320541" lon="11.131890130500347"><ele>37.0</ele><time>2026-04-18T10:19:30Z</time></trkpt><trkpt lat="43.768496646542346" lon="11.131705004658354"><ele>37.0</ele><time>2026-04-18T10:19:32Z</time></trkpt><trkpt lat="43.76850413353767" lon="11.13161324421887"><ele>37.0</ele><time>2026-04-18T10:19:33Z</time></trkpt><trkpt lat="43.76851188559414" lon="11.1315190720145"><ele>37.0</ele><time>2026-04-18T10:19:34Z</time></trkpt><trkpt lat="43.76852170292068" lon="11.131429914187175"><ele>37.0</ele><time>2026-04-18T10:19:35Z</time></trkpt><trkpt lat="43.76853105670984" lon="11.131336607070594"><ele>37.0</ele><time>2026-04-18T10:19:36Z</time></trkpt><trkpt lat="43.76854875428157" lon="11.131164982704158"><ele>37.0</ele><time>2026-04-18T10:19:38Z</time></trkpt><trkpt lat="43.76856736750418" lon="11.130996123063104"><ele>37.0</ele><time>2026-04-18T10:19:40Z</time></trkpt><trkpt lat="43.76857420434697" lon="11.130906618739623"><ele>37.0</ele><time>2026-04-18T10:19:41Z</time></trkpt><trkpt lat="43.768591226782" lon="11.13073070160061"><ele>37.0</ele><time>2026-04-18T10:19:43Z</time></trkpt><trkpt lat="43.76860291590734" lon="11.13064464794071"><ele>37.0</ele><time>2026-04-18T10:19:44Z</time></trkpt><trkpt lat="43.76862828413104" lon="11.13047773767313"><ele>37.0</ele><time>2026-04-18T10:19:46Z</time></trkpt><trkpt lat="43.768652586774095" lon="11.130316305335345"><ele>37.0</ele><time>2026-04-18T10:19:48Z</time></trkpt><trkpt lat="43.76866413143964" lon="11.130222532112514"><ele>37.0</ele><time>2026-04-18T10:19:49Z</time></trkpt><trkpt lat="43.76867590308644" lon="11.130135944211386"><ele>37.0</ele><time>2026-04-18T10:19:50Z</time></trkpt><trkpt lat="43.7686863103825" lon="11.130049722814345"><ele>37.0</ele><time>2026-04-18T10:19:51Z</time></trkpt><trkpt lat="43.76870397176947" lon="11.129965829062174"><ele>37.0</ele><time>2026-04-18T10:19:52Z</time></trkpt><trkpt lat="43.768737558719316" lon="11.129797856583385"><ele>36.85714285714286</ele><time>2026-04-18T10:19:54Z</time></trkpt><trkpt lat="43.76876573292176" lon="11.129715793531908"><ele>36.714285714285715</ele><time>2026-04-18T10:19:55Z</time></trkpt><trkpt lat="43.76878023071933" lon="11.129623198033558"><ele>36.57142857142857</ele><time>2026-04-18T10:19:56Z</time></trkpt><trkpt lat="43.768794279084375" lon="11.129536360171322"><ele>36.42857142857143</ele><time>2026-04-18T10:19:57Z</time></trkpt><trkpt lat="43.7688205098248" lon="11.129455887542832"><ele>36.285714285714285</ele><time>2026-04-18T10:19:58Z</time></trkpt><trkpt lat="43.76884942553637" lon="11.12937366335486"><ele>36.142857142857146</ele><time>2026-04-18T10:19:59Z</time></trkpt><trkpt lat="43.76887448138348" lon="11.129290977694861"><ele>36.0</ele><time>2026-04-18T10:20:00Z</time></trkpt><trkpt lat="43.768892459506304" lon="11.129202817206897"><ele>36.0</ele><time>2026-04-18T10:20:01Z</time></trkpt><trkpt lat="43.76891692458941" lon="11.129117780791963"><ele>36.0</ele><time>2026-04-18T10:20:02Z</time></trkpt><trkpt lat="43.7689435887913" lon="11.1290336930237"><ele>36.0</ele><time>2026-04-18T10:20:03Z</time></trkpt><trkpt lat="43.76897660784242" lon="11.128950411140918"><ele>36.0</ele><time>2026-04-18T10:20:04Z</time></trkpt><trkpt lat="43.76899975346286" lon="11.12877660693709"><ele>36.0</ele><time>2026-04-18T10:20:06Z</time></trkpt><trkpt lat="43.76900634685383" lon="11.128689312859342"><ele>36.0</ele><time>2026-04-18T10:20:07Z</time></trkpt><trkpt lat="43.76901378682362" lon="11.128602606497124"><ele>35.833333333333336</ele><time>2026-04-18T10:20:08Z</time></trkpt><trkpt lat="43.76901896954737" lon="11.128508671327582"><ele>35.666666666666664</ele><time>2026-04-18T10:20:09Z</time></trkpt><trkpt lat="43.76903067165851" lon="11.12833760016048"><ele>35.5</ele><time>2026-04-18T10:20:11Z</time></trkpt><trkpt lat="43.769036740071236" lon="11.128248887663778"><ele>35.33333333333333</ele><time>2026-04-18T10:20:12Z</time></trkpt><trkpt lat="43.76902727532584" lon="11.128161131063194"><ele>35.166666666666664</ele><time>2026-04-18T10:20:13Z</time></trkpt><trkpt lat="43.76904768443857" lon="11.127987329761181"><ele>35.0</ele><time>2026-04-18T10:20:15Z</time></trkpt><trkpt lat="43.769067112520844" lon="11.127812206922345"><ele>35.0</ele><time>2026-04-18T10:20:17Z</time></trkpt><trkpt lat="43.76909494943086" lon="11.127646213623391"><ele>35.0</ele><time>2026-04-18T10:20:19Z</time></trkpt><trkpt lat="43.76910321737402" lon="11.127558346550531"><ele>35.0</ele><time>2026-04-18T10:20:20Z</time></trkpt><trkpt lat="43.769119746348096" lon="11.127381802711316"><ele>35.0</ele><time>2026-04-18T10:20:22Z</time></trkpt><trkpt lat="43.769130099802055" lon="11.127295072277585"><ele>35.0</ele><time>2026-04-18T10:20:23Z</time></trkpt><trkpt lat="43.769141619364206" lon="11.127206891822357"><ele>35.0</ele><time>2026-04-18T10:20:24Z</time></trkpt><trkpt lat="43.7691531424811" lon="11.127120152946333"><ele>35.0</ele><time>2026-04-18T10:20:25Z</time></trkpt><trkpt lat="43.76916080374388" lon="11.127033125144587"><ele>35.0</ele><time>2026-04-18T10:20:26Z</time></trkpt><trkpt lat="43.76917299971126" lon="11.12694469581001"><ele>35.0</ele><time>2026-04-18T10:20:27Z</time></trkpt><trkpt lat="43.76918500458217" lon="11.126858894175141"><ele>35.0</ele><time>2026-04-18T10:20:28Z</time></trkpt><trkpt lat="43.76920083673896" lon="11.126772181800371"><ele>35.0</ele><time>2026-04-18T10:20:29Z</time></trkpt><trkpt lat="43.7692282161095" lon="11.12659964553791"><ele>35.0</ele><time>2026-04-18T10:20:31Z</time></trkpt><trkpt lat="43.76926694227482" lon="11.126430900369012"><ele>35.0</ele><time>2026-04-18T10:20:33Z</time></trkpt><trkpt lat="43.76929721538455" lon="11.126262091886485"><ele>35.0</ele><time>2026-04-18T10:20:35Z</time></trkpt><trkpt lat="43.769323597003435" lon="11.126171362804207"><ele>35.0</ele><time>2026-04-18T10:20:36Z</time></trkpt><trkpt lat="43.76937429331337" lon="11.126018871234779"><ele>35.0</ele><time>2026-04-18T10:20:38Z</time></trkpt><trkpt lat="43.76941971244385" lon="11.125870056971909"><ele>35.0</ele><time>2026-04-18T10:20:40Z</time></trkpt><trkpt lat="43.76945154752" lon="11.125722270658173"><ele>35.4</ele><time>2026-04-18T10:20:42Z</time></trkpt><trkpt lat="43.76949209715259" lon="11.12558444415394"><ele>35.8</ele><time>2026-04-18T10:20:44Z</time></trkpt><trkpt lat="43.769520924419055" lon="11.125450809496334"><ele>36.2</ele><time>2026-04-18T10:20:46Z</time></trkpt><trkpt lat="43.76955443650661" lon="11.125317077048674"><ele>36.6</ele><time>2026-04-18T10:20:48Z</time></trkpt><trkpt lat="43.76957683764176" lon="11.125179775528752"><ele>37.0</ele><time>2026-04-18T10:20:50Z</time></trkpt><trkpt lat="43.76961132314802" lon="11.125052811178131"><ele>37.0</ele><time>2026-04-18T10:20:52Z</time></trkpt><trkpt lat="43.76963718115122" lon="11.12492380463752"><ele>37.0</ele><time>2026-04-18T10:20:54Z</time></trkpt><trkpt lat="43.76967073922005" lon="11.1247932791247"><ele>37.0</ele><time>2026-04-18T10:20:56Z</time></trkpt><trkpt lat="43.76969920945796" lon="11.124660357173227"><ele>37.0</ele><time>2026-04-18T10:20:58Z</time></trkpt><trkpt lat="43.76972698195079" lon="11.12453107170452"><ele>37.0</ele><time>2026-04-18T10:21:00Z</time></trkpt><trkpt lat="43.7697469520369" lon="11.124392567962197"><ele>36.800000000000004</ele><time>2026-04-18T10:21:02Z</time></trkpt><trkpt lat="43.76975572329117" lon="11.124249796548463"><ele>36.6</ele><time>2026-04-18T10:21:04Z</time></trkpt><trkpt lat="43.76975777662284" lon="11.124102498231254"><ele>36.400000000000006</ele><time>2026-04-18T10:21:06Z</time></trkpt><trkpt lat="43.769756987273944" lon="11.123949273427968"><ele>36.2</ele><time>2026-04-18T10:21:08Z</time></trkpt><trkpt lat="43.769753927457295" lon="11.123800138789479"><ele>36.0</ele><time>2026-04-18T10:21:10Z</time></trkpt><trkpt lat="43.76975051407401" lon="11.12365706535442"><ele>36.0</ele><time>2026-04-18T10:21:12Z</time></trkpt><trkpt lat="43.76974616509785" lon="11.123514149605494"><ele>36.0</ele><time>2026-04-18T10:21:14Z</time></trkpt><trkpt lat="43.76974499142486" lon="11.12337829756258"><ele>36.0</ele><time>2026-04-18T10:21:16Z</time></trkpt><trkpt lat="43.76973817297978" lon="11.12323897029745"><ele>36.0</ele><time>2026-04-18T10:21:18Z</time></trkpt><trkpt lat="43.769733779303444" lon="11.123096093570458"><ele>36.0</ele><time>2026-04-18T10:21:20Z</time></trkpt><trkpt lat="43.76972845999618" lon="11.12294756554054"><ele>36.0</ele><time>2026-04-18T10:21:22Z</time></trkpt><trkpt lat="43.76972810220531" lon="11.122785992460372"><ele>36.0</ele><time>2026-04-18T10:21:24Z</time></trkpt><trkpt lat="43.769726146304215" lon="11.122623269763348"><ele>36.0</ele><time>2026-04-18T10:21:26Z</time></trkpt><trkpt lat="43.76972592357035" lon="11.12245275795278"><ele>36.0</ele><time>2026-04-18T10:21:28Z</time></trkpt><trkpt lat="43.7697242207788" lon="11.12236335910075"><ele>36.0</ele><time>2026-04-18T10:21:29Z</time></trkpt><trkpt lat="43.769724644879076" lon="11.122188707125002"><ele>36.142857142857146</ele><time>2026-04-18T10:21:31Z</time></trkpt><trkpt lat="43.769725770725046" lon="11.122098382569648"><ele>36.285714285714285</ele><time>2026-04-18T10:21:32Z</time></trkpt><trkpt lat="43.769723321374244" lon="11.122008254901218"><ele>36.42857142857143</ele><time>2026-04-18T10:21:33Z</time></trkpt><trkpt lat="43.769724031149345" lon="11.121917632726905"><ele>36.57142857142857</ele><time>2026-04-18T10:21:34Z</time></trkpt><trkpt lat="43.769723529455185" lon="11.121824998323158"><ele>36.714285714285715</ele><time>2026-04-18T10:21:35Z</time></trkpt><trkpt lat="43.76972305484259" lon="11.121734242299043"><ele>36.85714285714286</ele><time>2026-04-18T10:21:36Z</time></trkpt><trkpt lat="43.769718600950995" lon="11.121636576480094"><ele>37.0</ele><time>2026-04-18T10:21:37Z</time></trkpt><trkpt lat="43.76971848076354" lon="11.121539751975284"><ele>36.714285714285715</ele><time>2026-04-18T10:21:38Z</time></trkpt><trkpt lat="43.76972340399231" lon="11.12144389221518"><ele>36.42857142857143</ele><time>2026-04-18T10:21:39Z</time></trkpt><trkpt lat="43.76973535930044" lon="11.121345689450315"><ele>36.14285714285714</ele><time>2026-04-18T10:21:40Z</time></trkpt><trkpt lat="43.76975865792556" lon="11.121248386521481"><ele>35.85714285714286</ele><time>2026-04-18T10:21:41Z</time></trkpt><trkpt lat="43.76978909215832" lon="11.121155439448966"><ele>35.57142857142857</ele><time>2026-04-18T10:21:42Z</time></trkpt><trkpt lat="43.76983005108671" lon="11.12106818976305"><ele>35.285714285714285</ele><time>2026-04-18T10:21:43Z</time></trkpt><trkpt lat="43.769870814126534" lon="11.120984249690446"><ele>35.0</ele><time>2026-04-18T10:21:44Z</time></trkpt><trkpt lat="43.76989322914194" lon="11.120887468746199"><ele>35.0</ele><time>2026-04-18T10:21:45Z</time></trkpt><trkpt lat="43.76988594755964" lon="11.120777146958465"><ele>35.0</ele><time>2026-04-18T10:21:46Z</time></trkpt><trkpt lat="43.76985512276688" lon="11.120680286795425"><ele>35.0</ele><time>2026-04-18T10:21:47Z</time></trkpt><trkpt lat="43.76981222625829" lon="11.12060031513265"><ele>35.0</ele><time>2026-04-18T10:21:48Z</time></trkpt><trkpt lat="43.76977078872197" lon="11.120519463185621"><ele>35.0</ele><time>2026-04-18T10:21:49Z</time></trkpt><trkpt lat="43.7697303897101" lon="11.12042986472792"><ele>35.0</ele><time>2026-04-18T10:21:50Z</time></trkpt><trkpt lat="43.76972186672757" lon="11.120331421306927"><ele>35.0</ele><time>2026-04-18T10:21:51Z</time></trkpt><trkpt lat="43.769717470567365" lon="11.120227925753486"><ele>35.142857142857146</ele><time>2026-04-18T10:21:52Z</time></trkpt><trkpt lat="43.76971422748088" lon="11.120131828504816"><ele>35.285714285714285</ele><time>2026-04-18T10:21:53Z</time></trkpt><trkpt lat="43.76971556031031" lon="11.120034459804122"><ele>35.42857142857143</ele><time>2026-04-18T10:21:54Z</time></trkpt><trkpt lat="43.76971900933429" lon="11.119942970113737"><ele>35.57142857142857</ele><time>2026-04-18T10:21:55Z</time></trkpt><trkpt lat="43.769719937085604" lon="11.119843141198459"><ele>35.714285714285715</ele><time>2026-04-18T10:21:56Z</time></trkpt><trkpt lat="43.76971286723145" lon="11.119750213656985"><ele>35.85714285714286</ele><time>2026-04-18T10:21:57Z</time></trkpt><trkpt lat="43.769709688216125" lon="11.119661753742914"><ele>36.0</ele><time>2026-04-18T10:21:58Z</time></trkpt><trkpt lat="43.769723327030455" lon="11.119490203695078"><ele>36.0</ele><time>2026-04-18T10:22:00Z</time></trkpt><trkpt lat="43.769723148035794" lon="11.119397328417586"><ele>36.0</ele><time>2026-04-18T10:22:01Z</time></trkpt><trkpt lat="43.76973285642118" lon="11.11923323165748"><ele>36.0</ele><time>2026-04-18T10:22:03Z</time></trkpt><trkpt lat="43.76974008133518" lon="11.119063670034386"><ele>36.0</ele><time>2026-04-18T10:22:05Z</time></trkpt><trkpt lat="43.76974337282332" lon="11.11889598770405"><ele>36.0</ele><time>2026-04-18T10:22:07Z</time></trkpt><trkpt lat="43.76975233054242" lon="11.118728606685657"><ele>36.0</ele><time>2026-04-18T10:22:09Z</time></trkpt><trkpt lat="43.769750737285726" lon="11.118566666334276"><ele>36.0</ele><time>2026-04-18T10:22:11Z</time></trkpt><trkpt lat="43.76975860309142" lon="11.118399076057592"><ele>36.0</ele><time>2026-04-18T10:22:13Z</time></trkpt><trkpt lat="43.769762947976105" lon="11.118232392282605"><ele>36.0</ele><time>2026-04-18T10:22:15Z</time></trkpt><trkpt lat="43.76976840804755" lon="11.118063919315636"><ele>35.75</ele><time>2026-04-18T10:22:17Z</time></trkpt><trkpt lat="43.769772660760346" lon="11.11790219978043"><ele>35.5</ele><time>2026-04-18T10:22:19Z</time></trkpt><trkpt lat="43.7697809680466" lon="11.117739225879463"><ele>35.25</ele><time>2026-04-18T10:22:21Z</time></trkpt><trkpt lat="43.76979078630827" lon="11.11757517858531"><ele>35.0</ele><time>2026-04-18T10:22:23Z</time></trkpt><trkpt lat="43.769794377819686" lon="11.117411369684945"><ele>35.5</ele><time>2026-04-18T10:22:25Z</time></trkpt><trkpt lat="43.76980038325451" lon="11.117247116524691"><ele>36.0</ele><time>2026-04-18T10:22:27Z</time></trkpt><trkpt lat="43.769803731141934" lon="11.117085873562623"><ele>36.5</ele><time>2026-04-18T10:22:29Z</time></trkpt><trkpt lat="43.76980973750585" lon="11.116923664593218"><ele>37.0</ele><time>2026-04-18T10:22:31Z</time></trkpt><trkpt lat="43.76981464340389" lon="11.116761192919103"><ele>37.0</ele><time>2026-04-18T10:22:33Z</time></trkpt><trkpt lat="43.76981892239912" lon="11.116599585656898"><ele>37.0</ele><time>2026-04-18T10:22:35Z</time></trkpt><trkpt lat="43.769819986514555" lon="11.116433767099402"><ele>37.0</ele><time>2026-04-18T10:22:37Z</time></trkpt><trkpt lat="43.769825161832536" lon="11.116270548714763"><ele>37.0</ele><time>2026-04-18T10:22:39Z</time></trkpt><trkpt lat="43.76982528712764" lon="11.11610783720455"><ele>37.0</ele><time>2026-04-18T10:22:41Z</time></trkpt><trkpt lat="43.76982899944787" lon="11.115940080572361"><ele>37.0</ele><time>2026-04-18T10:22:43Z</time></trkpt><trkpt lat="43.76983285468681" lon="11.115771953005554"><ele>37.0</ele><time>2026-04-18T10:22:45Z</time></trkpt><trkpt lat="43.76983777633299" lon="11.115598794673604"><ele>37.0</ele><time>2026-04-18T10:22:47Z</time></trkpt><trkpt lat="43.7698436175489" lon="11.115424996071226"><ele>36.800000000000004</ele><time>2026-04-18T10:22:49Z</time></trkpt><trkpt lat="43.7698475238827" lon="11.115337590768583"><ele>36.6</ele><time>2026-04-18T10:22:50Z</time></trkpt><trkpt lat="43.76985652549755" lon="11.115169887557613"><ele>36.400000000000006</ele><time>2026-04-18T10:22:52Z</time></trkpt><trkpt lat="43.7698640010585" lon="11.115013552588891"><ele>36.2</ele><time>2026-04-18T10:22:54Z</time></trkpt><trkpt lat="43.76987421510451" lon="11.114922981610105"><ele>36.0</ele><time>2026-04-18T10:22:55Z</time></trkpt><trkpt lat="43.76989293283766" lon="11.114760009736012"><ele>36.4</ele><time>2026-04-18T10:22:57Z</time></trkpt><trkpt lat="43.76990316702897" lon="11.11461074925011"><ele>36.8</ele><time>2026-04-18T10:22:59Z</time></trkpt><trkpt lat="43.76991848712624" lon="11.114459930727225"><ele>37.199999999999996</ele><time>2026-04-18T10:23:01Z</time></trkpt><trkpt lat="43.76994211053534" lon="11.114318857571599"><ele>37.6</ele><time>2026-04-18T10:23:03Z</time></trkpt><trkpt lat="43.769979964353034" lon="11.114157074506393"><ele>38.0</ele><time>2026-04-18T10:23:05Z</time></trkpt><trkpt lat="43.77002187841776" lon="11.11399207493374"><ele>38.0</ele><time>2026-04-18T10:23:07Z</time></trkpt><trkpt lat="43.77004199407074" lon="11.113905668405959"><ele>38.0</ele><time>2026-04-18T10:23:08Z</time></trkpt><trkpt lat="43.77006042675967" lon="11.113816892916512"><ele>38.0</ele><time>2026-04-18T10:23:09Z</time></trkpt><trkpt lat="43.77007719744503" lon="11.11373123342462"><ele>38.0</ele><time>2026-04-18T10:23:10Z</time></trkpt><trkpt lat="43.77010071414991" lon="11.113648044271253"><ele>38.0</ele><time>2026-04-18T10:23:11Z</time></trkpt><trkpt lat="43.770127357088604" lon="11.113481458043456"><ele>38.0</ele><time>2026-04-18T10:23:13Z</time></trkpt><trkpt lat="43.77013033630114" lon="11.113312841179184"><ele>37.75</ele><time>2026-04-18T10:23:15Z</time></trkpt><trkpt lat="43.770128251547476" lon="11.113156070056675"><ele>37.5</ele><time>2026-04-18T10:23:17Z</time></trkpt><trkpt lat="43.77019040857671" lon="11.11302011269287"><ele>37.25</ele><time>2026-04-18T10:23:19Z</time></trkpt><trkpt lat="43.77027116370626" lon="11.112892326334954"><ele>37.0</ele><time>2026-04-18T10:23:21Z</time></trkpt><trkpt lat="43.7703039248195" lon="11.112727842668791"><ele>36.800000000000004</ele><time>2026-04-18T10:23:23Z</time></trkpt><trkpt lat="43.77033241664627" lon="11.1125643802359"><ele>36.6</ele><time>2026-04-18T10:23:25Z</time></trkpt><trkpt lat="43.77035123536021" lon="11.112480650192293"><ele>36.400000000000006</ele><time>2026-04-18T10:23:26Z</time></trkpt><trkpt lat="43.770389530434656" lon="11.112317381339674"><ele>36.2</ele><time>2026-04-18T10:23:28Z</time></trkpt><trkpt lat="43.77043431192062" lon="11.112156558200574"><ele>36.0</ele><time>2026-04-18T10:23:30Z</time></trkpt><trkpt lat="43.77048019875677" lon="11.11200008643086"><ele>36.0</ele><time>2026-04-18T10:23:32Z</time></trkpt><trkpt lat="43.77052557134437" lon="11.111832006827308"><ele>36.0</ele><time>2026-04-18T10:23:34Z</time></trkpt><trkpt lat="43.770567242919704" lon="11.111668786041712"><ele>36.0</ele><time>2026-04-18T10:23:36Z</time></trkpt><trkpt lat="43.770609589637914" lon="11.111508911916323"><ele>36.0</ele><time>2026-04-18T10:23:38Z</time></trkpt><trkpt lat="43.77063837774231" lon="11.111426401380152"><ele>36.0</ele><time>2026-04-18T10:23:39Z</time></trkpt><trkpt lat="43.77065606259397" lon="11.111339233481779"><ele>36.0</ele><time>2026-04-18T10:23:40Z</time></trkpt><trkpt lat="43.770689292791786" lon="11.111178796079344"><ele>36.0</ele><time>2026-04-18T10:23:42Z</time></trkpt><trkpt lat="43.770712766002156" lon="11.111014719501213"><ele>36.0</ele><time>2026-04-18T10:23:44Z</time></trkpt><trkpt lat="43.77072959394454" lon="11.110854016657035"><ele>36.0</ele><time>2026-04-18T10:23:46Z</time></trkpt><trkpt lat="43.77075256819763" lon="11.110704529873503"><ele>36.333333333333336</ele><time>2026-04-18T10:23:48Z</time></trkpt><trkpt lat="43.77077742768524" lon="11.110544896538922"><ele>36.666666666666664</ele><time>2026-04-18T10:23:50Z</time></trkpt><trkpt lat="43.770798991471075" lon="11.1104118132438"><ele>37.0</ele><time>2026-04-18T10:23:52Z</time></trkpt><trkpt lat="43.770840336384786" lon="11.110325927607175"><ele>37.33333333333333</ele><time>2026-04-18T10:23:54Z</time></trkpt><trkpt lat="43.770869425280615" lon="11.110239792701659"><ele>37.666666666666664</ele><time>2026-04-18T10:23:56Z</time></trkpt><trkpt lat="43.770885370027266" lon="11.1101291158992"><ele>38.0</ele><time>2026-04-18T10:23:58Z</time></trkpt><trkpt lat="43.77090880413708" lon="11.110004238374154"><ele>38.0</ele><time>2026-04-18T10:24:00Z</time></trkpt><trkpt lat="43.77093057138439" lon="11.109866031646398"><ele>38.0</ele><time>2026-04-18T10:24:02Z</time></trkpt><trkpt lat="43.77096421572529" lon="11.109735984843157"><ele>38.0</ele><time>2026-04-18T10:24:04Z</time></trkpt><trkpt lat="43.770984264509174" lon="11.109584036148556"><ele>38.0</ele><time>2026-04-18T10:24:06Z</time></trkpt><trkpt lat="43.770993310579534" lon="11.10942724952464"><ele>38.0</ele><time>2026-04-18T10:24:08Z</time></trkpt><trkpt lat="43.77102442668474" lon="11.109290592454768"><ele>37.666666666666664</ele><time>2026-04-18T10:24:10Z</time></trkpt><trkpt lat="43.771045672212054" lon="11.109164525848215"><ele>37.33333333333333</ele><time>2026-04-18T10:24:12Z</time></trkpt><trkpt lat="43.77106829753487" lon="11.109032887544442"><ele>37.0</ele><time>2026-04-18T10:24:15Z</time></trkpt><trkpt lat="43.77113716716819" lon="11.109053372276444"><ele>36.666666666666664</ele><time>2026-04-18T10:24:17Z</time></trkpt><trkpt lat="43.771222010676766" lon="11.109072002751933"><ele>36.333333333333336</ele><time>2026-04-18T10:24:19Z</time></trkpt><trkpt lat="43.771283918908765" lon="11.109094425464264"><ele>36.0</ele><time>2026-04-18T10:24:20Z</time></trkpt><trkpt lat="43.771383420658836" lon="11.10909092714755"><ele>36.0</ele><time>2026-04-18T10:24:22Z</time></trkpt><trkpt lat="43.77148128496306" lon="11.10902289012915"><ele>36.0</ele><time>2026-04-18T10:24:24Z</time></trkpt><trkpt lat="43.771530520613126" lon="11.108877093783068"><ele>36.0</ele><time>2026-04-18T10:24:26Z</time></trkpt><trkpt lat="43.77157677171465" lon="11.108747659471451"><ele>36.0</ele><time>2026-04-18T10:24:28Z</time></trkpt><trkpt lat="43.77160186526365" lon="11.108665236410786"><ele>36.0</ele><time>2026-04-18T10:24:29Z</time></trkpt><trkpt lat="43.7716500767105" lon="11.108518438452846"><ele>36.0</ele><time>2026-04-18T10:24:31Z</time></trkpt><trkpt lat="43.771686783929916" lon="11.10836616960431"><ele>36.0</ele><time>2026-04-18T10:24:33Z</time></trkpt><trkpt lat="43.771733429020024" lon="11.108212039423258"><ele>36.0</ele><time>2026-04-18T10:24:35Z</time></trkpt><trkpt lat="43.77179010910042" lon="11.108070028372483"><ele>36.0</ele><time>2026-04-18T10:24:37Z</time></trkpt><trkpt lat="43.77184374862632" lon="11.107913008610078"><ele>36.0</ele><time>2026-04-18T10:24:39Z</time></trkpt><trkpt lat="43.771869072471574" lon="11.107828749290656"><ele>36.0</ele><time>2026-04-18T10:24:40Z</time></trkpt><trkpt lat="43.77191648374405" lon="11.107676782479663"><ele>36.0</ele><time>2026-04-18T10:24:42Z</time></trkpt><trkpt lat="43.77195883187409" lon="11.107524556634795"><ele>36.0</ele><time>2026-04-18T10:24:44Z</time></trkpt><trkpt lat="43.77200271620209" lon="11.107374305370767"><ele>36.0</ele><time>2026-04-18T10:24:46Z</time></trkpt><trkpt lat="43.77205368388532" lon="11.10722252232255"><ele>36.0</ele><time>2026-04-18T10:24:48Z</time></trkpt><trkpt lat="43.77209514236381" lon="11.107076052769886"><ele>36.0</ele><time>2026-04-18T10:24:50Z</time></trkpt><trkpt lat="43.77213884155089" lon="11.106929570260426"><ele>36.0</ele><time>2026-04-18T10:24:52Z</time></trkpt><trkpt lat="43.77217337545382" lon="11.106778803997765"><ele>36.0</ele><time>2026-04-18T10:24:54Z</time></trkpt><trkpt lat="43.77217850709994" lon="11.106623768026479"><ele>36.0</ele><time>2026-04-18T10:24:56Z</time></trkpt><trkpt lat="43.772113263302906" lon="11.106485475791679"><ele>36.0</ele><time>2026-04-18T10:24:58Z</time></trkpt><trkpt lat="43.772012282978494" lon="11.106391080855571"><ele>36.0</ele><time>2026-04-18T10:25:00Z</time></trkpt><trkpt lat="43.77191121726977" lon="11.106315108173812"><ele>36.0</ele><time>2026-04-18T10:25:02Z</time></trkpt><trkpt lat="43.77181921076156" lon="11.106203355999783"><ele>36.0</ele><time>2026-04-18T10:25:04Z</time></trkpt><trkpt lat="43.77174857934125" lon="11.106111072023658"><ele>36.0</ele><time>2026-04-18T10:25:06Z</time></trkpt><trkpt lat="43.77178460721098" lon="11.105851171718589"><ele>36.0</ele><time>2026-04-18T10:25:09Z</time></trkpt><trkpt lat="43.77180080756214" lon="11.105694003823176"><ele>36.0</ele><time>2026-04-18T10:25:11Z</time></trkpt><trkpt lat="43.77182837339508" lon="11.105537164732453"><ele>36.0</ele><time>2026-04-18T10:25:13Z</time></trkpt><trkpt lat="43.77183906479913" lon="11.10536616313485"><ele>36.0</ele><time>2026-04-18T10:25:15Z</time></trkpt><trkpt lat="43.771848307966515" lon="11.105201957484653"><ele>36.0</ele><time>2026-04-18T10:25:17Z</time></trkpt><trkpt lat="43.771862965775014" lon="11.105042364716844"><ele>36.0</ele><time>2026-04-18T10:25:19Z</time></trkpt><trkpt lat="43.771869086297215" lon="11.104888638946974"><ele>35.4</ele><time>2026-04-18T10:25:21Z</time></trkpt><trkpt lat="43.77187272580807" lon="11.104733829146245"><ele>34.8</ele><time>2026-04-18T10:25:23Z</time></trkpt><trkpt lat="43.77188003630891" lon="11.10458733841155"><ele>34.199999999999996</ele><time>2026-04-18T10:25:25Z</time></trkpt><trkpt lat="43.77188388250389" lon="11.104449510068322"><ele>33.6</ele><time>2026-04-18T10:25:27Z</time></trkpt><trkpt lat="43.77189077942872" lon="11.104305762016038"><ele>33.0</ele><time>2026-04-18T10:25:29Z</time></trkpt><trkpt lat="43.771891455632904" lon="11.104159910111779"><ele>33.5</ele><time>2026-04-18T10:25:31Z</time></trkpt><trkpt lat="43.771896084490145" lon="11.104009831521804"><ele>34.0</ele><time>2026-04-18T10:25:33Z</time></trkpt><trkpt lat="43.77189879492198" lon="11.10385182517719"><ele>34.5</ele><time>2026-04-18T10:25:35Z</time></trkpt><trkpt lat="43.771901272467076" lon="11.103692559965353"><ele>35.0</ele><time>2026-04-18T10:25:37Z</time></trkpt><trkpt lat="43.77190490936336" lon="11.103533417904135"><ele>35.0</ele><time>2026-04-18T10:25:39Z</time></trkpt><trkpt lat="43.77190382546102" lon="11.103372355556587"><ele>35.0</ele><time>2026-04-18T10:25:41Z</time></trkpt><trkpt lat="43.77190800705694" lon="11.103213599384762"><ele>35.0</ele><time>2026-04-18T10:25:43Z</time></trkpt><trkpt lat="43.77190728912466" lon="11.103052725206101"><ele>35.0</ele><time>2026-04-18T10:25:45Z</time></trkpt><trkpt lat="43.77190706694521" lon="11.102889669993369"><ele>35.0</ele><time>2026-04-18T10:25:47Z</time></trkpt><trkpt lat="43.77191105453227" lon="11.102727571920326"><ele>35.0</ele><time>2026-04-18T10:25:49Z</time></trkpt><trkpt lat="43.771910734258874" lon="11.102564440542778"><ele>35.0</ele><time>2026-04-18T10:25:51Z</time></trkpt><trkpt lat="43.7719126158037" lon="11.102400122487301"><ele>35.0</ele><time>2026-04-18T10:25:53Z</time></trkpt><trkpt lat="43.77191606113906" lon="11.102237685679139"><ele>35.0</ele><time>2026-04-18T10:25:55Z</time></trkpt><trkpt lat="43.77192123566573" lon="11.102075203121275"><ele>35.0</ele><time>2026-04-18T10:25:57Z</time></trkpt><trkpt lat="43.77191876184207" lon="11.101913674787854"><ele>35.0</ele><time>2026-04-18T10:25:59Z</time></trkpt><trkpt lat="43.7719223702538" lon="11.101752052682674"><ele>35.0</ele><time>2026-04-18T10:26:01Z</time></trkpt><trkpt lat="43.771924277416765" lon="11.1015889462602"><ele>35.0</ele><time>2026-04-18T10:26:03Z</time></trkpt><trkpt lat="43.771929557400284" lon="11.101414758355931"><ele>35.0</ele><time>2026-04-18T10:26:05Z</time></trkpt><trkpt lat="43.77193299817074" lon="11.101255116832403"><ele>35.0</ele><time>2026-04-18T10:26:07Z</time></trkpt><trkpt lat="43.77193954872729" lon="11.101091665014007"><ele>35.0</ele><time>2026-04-18T10:26:09Z</time></trkpt><trkpt lat="43.77194885926447" lon="11.10092958568215"><ele>35.0</ele><time>2026-04-18T10:26:11Z</time></trkpt><trkpt lat="43.7719565594135" lon="11.100769429814894"><ele>35.0</ele><time>2026-04-18T10:26:13Z</time></trkpt><trkpt lat="43.77196394330507" lon="11.100604783237962"><ele>35.0</ele><time>2026-04-18T10:26:15Z</time></trkpt><trkpt lat="43.77197328642168" lon="11.100443295350024"><ele>35.0</ele><time>2026-04-18T10:26:17Z</time></trkpt><trkpt lat="43.77197839630149" lon="11.100281741660496"><ele>35.5</ele><time>2026-04-18T10:26:19Z</time></trkpt><trkpt lat="43.771983799114004" lon="11.100118209492036"><ele>36.0</ele><time>2026-04-18T10:26:21Z</time></trkpt><trkpt lat="43.771991868921745" lon="11.099958568120753"><ele>36.5</ele><time>2026-04-18T10:26:23Z</time></trkpt><trkpt lat="43.7719994364872" lon="11.099800641427882"><ele>37.0</ele><time>2026-04-18T10:26:25Z</time></trkpt><trkpt lat="43.77200858306065" lon="11.099641370904312"><ele>37.0</ele><time>2026-04-18T10:26:27Z</time></trkpt><trkpt lat="43.772019256803254" lon="11.099481244029672"><ele>37.0</ele><time>2026-04-18T10:26:29Z</time></trkpt><trkpt lat="43.772030992651686" lon="11.09932127984984"><ele>37.0</ele><time>2026-04-18T10:26:31Z</time></trkpt><trkpt lat="43.7720369400861" lon="11.099161112167973"><ele>37.0</ele><time>2026-04-18T10:26:33Z</time></trkpt><trkpt lat="43.77204335851322" lon="11.09900392539513"><ele>36.75</ele><time>2026-04-18T10:26:35Z</time></trkpt><trkpt lat="43.77205625540893" lon="11.098847206851623"><ele>36.5</ele><time>2026-04-18T10:26:37Z</time></trkpt><trkpt lat="43.77206081094734" lon="11.098684122369853"><ele>36.25</ele><time>2026-04-18T10:26:39Z</time></trkpt><trkpt lat="43.77207037235484" lon="11.09852755500451"><ele>36.0</ele><time>2026-04-18T10:26:41Z</time></trkpt><trkpt lat="43.77208061948294" lon="11.098365475063579"><ele>35.75</ele><time>2026-04-18T10:26:43Z</time></trkpt><trkpt lat="43.77208694669017" lon="11.098202746126347"><ele>35.5</ele><time>2026-04-18T10:26:45Z</time></trkpt><trkpt lat="43.772094511784594" lon="11.098044703218454"><ele>35.25</ele><time>2026-04-18T10:26:47Z</time></trkpt><trkpt lat="43.77210460480745" lon="11.097885860973703"><ele>35.0</ele><time>2026-04-18T10:26:49Z</time></trkpt><trkpt lat="43.77211125757966" lon="11.09771413136263"><ele>35.0</ele><time>2026-04-18T10:26:51Z</time></trkpt><trkpt lat="43.772110788024214" lon="11.097624762626195"><ele>35.0</ele><time>2026-04-18T10:26:52Z</time></trkpt><trkpt lat="43.77211282106249" lon="11.097530121105116"><ele>35.0</ele><time>2026-04-18T10:26:53Z</time></trkpt><trkpt lat="43.77211345994172" lon="11.097434332850733"><ele>35.0</ele><time>2026-04-18T10:26:54Z</time></trkpt><trkpt lat="43.77211202232255" lon="11.097331524306577"><ele>35.0</ele><time>2026-04-18T10:26:55Z</time></trkpt><trkpt lat="43.77211586023477" lon="11.097233853450634"><ele>35.0</ele><time>2026-04-18T10:26:56Z</time></trkpt><trkpt lat="43.77212007799574" lon="11.097132617188668"><ele>35.0</ele><time>2026-04-18T10:26:57Z</time></trkpt><trkpt lat="43.77212008827272" lon="11.09702272738743"><ele>34.83333333333333</ele><time>2026-04-18T10:26:58Z</time></trkpt><trkpt lat="43.772132725190886" lon="11.096912307473298"><ele>34.666666666666664</ele><time>2026-04-18T10:26:59Z</time></trkpt><trkpt lat="43.77214376641566" lon="11.096806662235505"><ele>34.5</ele><time>2026-04-18T10:27:00Z</time></trkpt><trkpt lat="43.772152961597115" lon="11.09670427777487"><ele>34.333333333333336</ele><time>2026-04-18T10:27:01Z</time></trkpt><trkpt lat="43.77215914915108" lon="11.096601912755332"><ele>34.16666666666667</ele><time>2026-04-18T10:27:02Z</time></trkpt><trkpt lat="43.772164128021345" lon="11.096500320508547"><ele>34.0</ele><time>2026-04-18T10:27:03Z</time></trkpt><trkpt lat="43.772170679183574" lon="11.096402976456911"><ele>33.99999999999999</ele><time>2026-04-18T10:27:04Z</time></trkpt><trkpt lat="43.77217237071501" lon="11.096303405142564"><ele>34.0</ele><time>2026-04-18T10:27:05Z</time></trkpt><trkpt lat="43.77216923609941" lon="11.096207421686264"><ele>34.0</ele><time>2026-04-18T10:27:06Z</time></trkpt><trkpt lat="43.772172478365846" lon="11.096111821250831"><ele>34.0</ele><time>2026-04-18T10:27:07Z</time></trkpt><trkpt lat="43.77219521437353" lon="11.096018703326996"><ele>34.0</ele><time>2026-04-18T10:27:08Z</time></trkpt><trkpt lat="43.77221540420873" lon="11.09592890992698"><ele>33.99999999999999</ele><time>2026-04-18T10:27:09Z</time></trkpt><trkpt lat="43.77216804761803" lon="11.095838683143587"><ele>34.0</ele><time>2026-04-18T10:27:10Z</time></trkpt><trkpt lat="43.77216730081297" lon="11.09573759492244"><ele>34.0</ele><time>2026-04-18T10:27:11Z</time></trkpt><trkpt lat="43.77218156770959" lon="11.095574315944864"><ele>34.0</ele><time>2026-04-18T10:27:13Z</time></trkpt><trkpt lat="43.772168562068934" lon="11.095485933124436"><ele>34.0</ele><time>2026-04-18T10:27:14Z</time></trkpt><trkpt lat="43.77217776424541" lon="11.095388161101628"><ele>34.0</ele><time>2026-04-18T10:27:15Z</time></trkpt><trkpt lat="43.77218301229962" lon="11.09521255758542"><ele>34.0</ele><time>2026-04-18T10:27:17Z</time></trkpt><trkpt lat="43.772183631922466" lon="11.095123960579198"><ele>34.0</ele><time>2026-04-18T10:27:18Z</time></trkpt><trkpt lat="43.772181919204954" lon="11.095022158091"><ele>34.16666666666667</ele><time>2026-04-18T10:27:19Z</time></trkpt><trkpt lat="43.77218293137307" lon="11.094849589206472"><ele>34.333333333333336</ele><time>2026-04-18T10:27:21Z</time></trkpt><trkpt lat="43.77218139592831" lon="11.094762264984306"><ele>34.5</ele><time>2026-04-18T10:27:22Z</time></trkpt><trkpt lat="43.77217828584522" lon="11.09467489592366"><ele>34.666666666666664</ele><time>2026-04-18T10:27:23Z</time></trkpt><trkpt lat="43.772178706948075" lon="11.094501939820999"><ele>34.83333333333333</ele><time>2026-04-18T10:27:25Z</time></trkpt><trkpt lat="43.772182734232686" lon="11.094413516897859"><ele>35.0</ele><time>2026-04-18T10:27:26Z</time></trkpt><trkpt lat="43.77218620435012" lon="11.09432299124647"><ele>35.0</ele><time>2026-04-18T10:27:27Z</time></trkpt><trkpt lat="43.772195264354764" lon="11.09423670836334"><ele>35.0</ele><time>2026-04-18T10:27:28Z</time></trkpt><trkpt lat="43.772209620397525" lon="11.094151366712415"><ele>35.0</ele><time>2026-04-18T10:27:29Z</time></trkpt><trkpt lat="43.77222170639146" lon="11.094065376205911"><ele>35.0</ele><time>2026-04-18T10:27:30Z</time></trkpt><trkpt lat="43.77224859001583" lon="11.093902081441916"><ele>35.0</ele><time>2026-04-18T10:27:32Z</time></trkpt><trkpt lat="43.772264790973374" lon="11.093736217788987"><ele>35.0</ele><time>2026-04-18T10:27:34Z</time></trkpt><trkpt lat="43.772284957651465" lon="11.093567730171126"><ele>35.0</ele><time>2026-04-18T10:27:36Z</time></trkpt><trkpt lat="43.772300972689294" lon="11.093398864165454"><ele>35.0</ele><time>2026-04-18T10:27:38Z</time></trkpt><trkpt lat="43.772326920220024" lon="11.093242952016219"><ele>35.0</ele><time>2026-04-18T10:27:40Z</time></trkpt><trkpt lat="43.77234396511615" lon="11.093094557953417"><ele>35.0</ele><time>2026-04-18T10:27:42Z</time></trkpt><trkpt lat="43.772364938806085" lon="11.092948781126863"><ele>35.0</ele><time>2026-04-18T10:27:44Z</time></trkpt><trkpt lat="43.77239183546126" lon="11.092790501937237"><ele>35.0</ele><time>2026-04-18T10:27:46Z</time></trkpt><trkpt lat="43.77241489345051" lon="11.092647859958204"><ele>35.0</ele><time>2026-04-18T10:27:48Z</time></trkpt><trkpt lat="43.77243162061115" lon="11.092492071207996"><ele>35.0</ele><time>2026-04-18T10:27:50Z</time></trkpt><trkpt lat="43.77247037957805" lon="11.092338184639337"><ele>35.6</ele><time>2026-04-18T10:27:52Z</time></trkpt><trkpt lat="43.77246976167692" lon="11.092235710207584"><ele>36.2</ele><time>2026-04-18T10:27:53Z</time></trkpt><trkpt lat="43.77246330533147" lon="11.092092998311616"><ele>36.8</ele><time>2026-04-18T10:27:55Z</time></trkpt><trkpt lat="43.772460910405925" lon="11.091928657082615"><ele>37.4</ele><time>2026-04-18T10:27:57Z</time></trkpt><trkpt lat="43.772485076576395" lon="11.091761085611045"><ele>38.0</ele><time>2026-04-18T10:27:59Z</time></trkpt><trkpt lat="43.77249040135803" lon="11.091590275210104"><ele>37.8</ele><time>2026-04-18T10:28:01Z</time></trkpt><trkpt lat="43.77250894355" lon="11.091505714395515"><ele>37.599999999999994</ele><time>2026-04-18T10:28:02Z</time></trkpt><trkpt lat="43.77253123285107" lon="11.091421063203981"><ele>37.400000000000006</ele><time>2026-04-18T10:28:03Z</time></trkpt><trkpt lat="43.772593430336194" lon="11.091284987110088"><ele>37.2</ele><time>2026-04-18T10:28:05Z</time></trkpt><trkpt lat="43.772641813201275" lon="11.091142132029413"><ele>37.0</ele><time>2026-04-18T10:28:07Z</time></trkpt><trkpt lat="43.7726925806938" lon="11.091000981247186"><ele>37.0</ele><time>2026-04-18T10:28:09Z</time></trkpt><trkpt lat="43.77274685662389" lon="11.090861628745838"><ele>37.0</ele><time>2026-04-18T10:28:11Z</time></trkpt><trkpt lat="43.77280141481016" lon="11.090724864368545"><ele>37.0</ele><time>2026-04-18T10:28:13Z</time></trkpt><trkpt lat="43.772853000333875" lon="11.09058234686766"><ele>37.0</ele><time>2026-04-18T10:28:15Z</time></trkpt><trkpt lat="43.772896569799016" lon="11.090518878765879"><ele>37.0</ele><time>2026-04-18T10:28:16Z</time></trkpt><trkpt lat="43.77294576803192" lon="11.090372784509256"><ele>37.8</ele><time>2026-04-18T10:28:18Z</time></trkpt><trkpt lat="43.77300652976926" lon="11.090236843003368"><ele>38.6</ele><time>2026-04-18T10:28:20Z</time></trkpt><trkpt lat="43.77307042336366" lon="11.09009696331006"><ele>39.4</ele><time>2026-04-18T10:28:22Z</time></trkpt><trkpt lat="43.773135429262105" lon="11.089961255934263"><ele>40.199999999999996</ele><time>2026-04-18T10:28:24Z</time></trkpt><trkpt lat="43.77317253793607" lon="11.089887235849746"><ele>41.0</ele><time>2026-04-18T10:28:25Z</time></trkpt><trkpt lat="43.77323670049377" lon="11.089784424118841"><ele>41.199999999999996</ele><time>2026-04-18T10:28:27Z</time></trkpt><trkpt lat="43.773309238246945" lon="11.089627989405521"><ele>41.4</ele><time>2026-04-18T10:28:29Z</time></trkpt><trkpt lat="43.7733486713788" lon="11.089558757012533"><ele>41.6</ele><time>2026-04-18T10:28:30Z</time></trkpt><trkpt lat="43.77342104633025" lon="11.089455000034263"><ele>41.8</ele><time>2026-04-18T10:28:32Z</time></trkpt><trkpt lat="43.77349862234625" lon="11.089327186955162"><ele>42.0</ele><time>2026-04-18T10:28:34Z</time></trkpt><trkpt lat="43.773590181591594" lon="11.089239977476742"><ele>41.8</ele><time>2026-04-18T10:28:36Z</time></trkpt><trkpt lat="43.77367556976661" lon="11.089131140121689"><ele>41.6</ele><time>2026-04-18T10:28:38Z</time></trkpt><trkpt lat="43.77372531453855" lon="11.089074236643153"><ele>41.4</ele><time>2026-04-18T10:28:39Z</time></trkpt><trkpt lat="43.77377819138939" lon="11.088945622676459"><ele>41.199999999999996</ele><time>2026-04-18T10:28:41Z</time></trkpt><trkpt lat="43.77387344511332" lon="11.088845464432751"><ele>41.0</ele><time>2026-04-18T10:28:43Z</time></trkpt><trkpt lat="43.77396401619244" lon="11.088755443117108"><ele>41.0</ele><time>2026-04-18T10:28:45Z</time></trkpt><trkpt lat="43.77406224919226" lon="11.088665782131693"><ele>41.0</ele><time>2026-04-18T10:28:47Z</time></trkpt><trkpt lat="43.77415975036785" lon="11.08857181296706"><ele>41.0</ele><time>2026-04-18T10:28:49Z</time></trkpt><trkpt lat="43.774254916719514" lon="11.088465083062088"><ele>41.0</ele><time>2026-04-18T10:28:51Z</time></trkpt><trkpt lat="43.77435248132543" lon="11.088363253006888"><ele>40.8</ele><time>2026-04-18T10:28:53Z</time></trkpt><trkpt lat="43.774442334035825" lon="11.08825581977157"><ele>40.599999999999994</ele><time>2026-04-18T10:28:55Z</time></trkpt><trkpt lat="43.77453851512333" lon="11.088146572718978"><ele>40.4</ele><time>2026-04-18T10:28:57Z</time></trkpt><trkpt lat="43.77463307971418" lon="11.088040392340814"><ele>40.2</ele><time>2026-04-18T10:28:59Z</time></trkpt><trkpt lat="43.77468363463859" lon="11.087987072618038"><ele>40.0</ele><time>2026-04-18T10:29:00Z</time></trkpt><trkpt lat="43.77477817176629" lon="11.087875397402994"><ele>40.0</ele><time>2026-04-18T10:29:02Z</time></trkpt><trkpt lat="43.774872499487586" lon="11.08776546840195"><ele>40.0</ele><time>2026-04-18T10:29:04Z</time></trkpt><trkpt lat="43.77496874978747" lon="11.087651554701376"><ele>40.0</ele><time>2026-04-18T10:29:06Z</time></trkpt><trkpt lat="43.77506636254317" lon="11.087542764566562"><ele>40.0</ele><time>2026-04-18T10:29:08Z</time></trkpt><trkpt lat="43.77516404148955" lon="11.087435680913163"><ele>39.333333333333336</ele><time>2026-04-18T10:29:10Z</time></trkpt><trkpt lat="43.77521087132511" lon="11.08737736922905"><ele>38.66666666666667</ele><time>2026-04-18T10:29:11Z</time></trkpt><trkpt lat="43.775301791810755" lon="11.087267710798955"><ele>38.0</ele><time>2026-04-18T10:29:13Z</time></trkpt><trkpt lat="43.77535147588793" lon="11.08720940938891"><ele>37.333333333333336</ele><time>2026-04-18T10:29:14Z</time></trkpt><trkpt lat="43.77544817707292" lon="11.087098093373283"><ele>36.666666666666664</ele><time>2026-04-18T10:29:16Z</time></trkpt><trkpt lat="43.77549437337437" lon="11.087038422493643"><ele>36.0</ele><time>2026-04-18T10:29:17Z</time></trkpt><trkpt lat="43.775582994982024" lon="11.086916416484517"><ele>36.00000000000001</ele><time>2026-04-18T10:29:19Z</time></trkpt><trkpt lat="43.77562792568468" lon="11.086854391288014"><ele>36.0</ele><time>2026-04-18T10:29:20Z</time></trkpt><trkpt lat="43.77567424164796" lon="11.086790925979521"><ele>36.0</ele><time>2026-04-18T10:29:21Z</time></trkpt><trkpt lat="43.77572011237961" lon="11.08672484038431"><ele>36.0</ele><time>2026-04-18T10:29:22Z</time></trkpt><trkpt lat="43.77576462042217" lon="11.086658155358254"><ele>36.0</ele><time>2026-04-18T10:29:23Z</time></trkpt><trkpt lat="43.77580901838842" lon="11.08659021212768"><ele>36.00000000000001</ele><time>2026-04-18T10:29:24Z</time></trkpt><trkpt lat="43.77585082219502" lon="11.086518504790027"><ele>36.0</ele><time>2026-04-18T10:29:25Z</time></trkpt><trkpt lat="43.77589254915692" lon="11.086447957513075"><ele>35.42857142857143</ele><time>2026-04-18T10:29:26Z</time></trkpt><trkpt lat="43.77593266271752" lon="11.086374666573153"><ele>34.85714285714286</ele><time>2026-04-18T10:29:27Z</time></trkpt><trkpt lat="43.77597531755296" lon="11.086302720400308"><ele>34.285714285714285</ele><time>2026-04-18T10:29:28Z</time></trkpt><trkpt lat="43.77601356175277" lon="11.086226520396737"><ele>33.714285714285715</ele><time>2026-04-18T10:29:29Z</time></trkpt><trkpt lat="43.77605390683905" lon="11.086149680396396"><ele>33.14285714285714</ele><time>2026-04-18T10:29:30Z</time></trkpt><trkpt lat="43.77609108475012" lon="11.086073469927504"><ele>32.57142857142857</ele><time>2026-04-18T10:29:31Z</time></trkpt><trkpt lat="43.77613240991448" lon="11.085996272691995"><ele>32.0</ele><time>2026-04-18T10:29:32Z</time></trkpt><trkpt lat="43.77616951181049" lon="11.085921680781654"><ele>32.0</ele><time>2026-04-18T10:29:33Z</time></trkpt><trkpt lat="43.77620883265815" lon="11.085845194149847"><ele>31.999999999999996</ele><time>2026-04-18T10:29:34Z</time></trkpt><trkpt lat="43.77624929662185" lon="11.085769738326674"><ele>32.0</ele><time>2026-04-18T10:29:35Z</time></trkpt><trkpt lat="43.776288520256294" lon="11.085694213954946"><ele>32.0</ele><time>2026-04-18T10:29:36Z</time></trkpt><trkpt lat="43.776325152313724" lon="11.085616928846866"><ele>31.999999999999996</ele><time>2026-04-18T10:29:37Z</time></trkpt><trkpt lat="43.77636628471289" lon="11.085535709910213"><ele>32.0</ele><time>2026-04-18T10:29:38Z</time></trkpt><trkpt lat="43.776399682376145" lon="11.085459351543403"><ele>32.0</ele><time>2026-04-18T10:29:39Z</time></trkpt><trkpt lat="43.77643264234529" lon="11.085381732808216"><ele>32.42857142857143</ele><time>2026-04-18T10:29:40Z</time></trkpt><trkpt lat="43.77647154570767" lon="11.085305580352738"><ele>32.857142857142854</ele><time>2026-04-18T10:29:41Z</time></trkpt><trkpt lat="43.7765069213999" lon="11.08523171083078"><ele>33.285714285714285</ele><time>2026-04-18T10:29:42Z</time></trkpt><trkpt lat="43.77653675272938" lon="11.08514838505894"><ele>33.714285714285715</ele><time>2026-04-18T10:29:43Z</time></trkpt><trkpt lat="43.77657082444093" lon="11.085068455074905"><ele>34.14285714285714</ele><time>2026-04-18T10:29:44Z</time></trkpt><trkpt lat="43.77660215939466" lon="11.08498845568386"><ele>34.57142857142857</ele><time>2026-04-18T10:29:45Z</time></trkpt><trkpt lat="43.77663109572575" lon="11.084907579203769"><ele>35.0</ele><time>2026-04-18T10:29:46Z</time></trkpt><trkpt lat="43.776687955516294" lon="11.084752355714548"><ele>34.714285714285715</ele><time>2026-04-18T10:29:48Z</time></trkpt><trkpt lat="43.776714371472494" lon="11.084669398949787"><ele>34.42857142857143</ele><time>2026-04-18T10:29:49Z</time></trkpt><trkpt lat="43.77674522748471" lon="11.084592897530635"><ele>34.14285714285714</ele><time>2026-04-18T10:29:50Z</time></trkpt><trkpt lat="43.77677528233321" lon="11.084511680652396"><ele>33.85714285714286</ele><time>2026-04-18T10:29:51Z</time></trkpt><trkpt lat="43.77680320590883" lon="11.084428892345091"><ele>33.57142857142857</ele><time>2026-04-18T10:29:52Z</time></trkpt><trkpt lat="43.77683158216216" lon="11.084347337406536"><ele>33.285714285714285</ele><time>2026-04-18T10:29:53Z</time></trkpt><trkpt lat="43.776857108464924" lon="11.084265350166213"><ele>33.0</ele><time>2026-04-18T10:29:54Z</time></trkpt><trkpt lat="43.776912648579625" lon="11.084109668829072"><ele>33.42857142857143</ele><time>2026-04-18T10:29:56Z</time></trkpt><trkpt lat="43.776934987394164" lon="11.084028110594339"><ele>33.85714285714286</ele><time>2026-04-18T10:29:57Z</time></trkpt><trkpt lat="43.77700368262181" lon="11.0838833441561"><ele>34.28571428571429</ele><time>2026-04-18T10:29:59Z</time></trkpt><trkpt lat="43.77701948538219" lon="11.083793685902297"><ele>34.714285714285715</ele><time>2026-04-18T10:30:00Z</time></trkpt><trkpt lat="43.77706006794379" lon="11.083725643380419"><ele>35.142857142857146</ele><time>2026-04-18T10:30:01Z</time></trkpt><trkpt lat="43.777095070987066" lon="11.083652802340955"><ele>35.57142857142858</ele><time>2026-04-18T10:30:02Z</time></trkpt><trkpt lat="43.77712738334013" lon="11.083574604226614"><ele>36.0</ele><time>2026-04-18T10:30:03Z</time></trkpt><trkpt lat="43.77716003968866" lon="11.083492147826849"><ele>36.00000000000001</ele><time>2026-04-18T10:30:04Z</time></trkpt><trkpt lat="43.77719170520035" lon="11.083413689348784"><ele>36.0</ele><time>2026-04-18T10:30:05Z</time></trkpt><trkpt lat="43.777224211795854" lon="11.083332913575378"><ele>36.0</ele><time>2026-04-18T10:30:06Z</time></trkpt><trkpt lat="43.77726881604866" lon="11.083264704918616"><ele>36.0</ele><time>2026-04-18T10:30:07Z</time></trkpt><trkpt lat="43.77729922071635" lon="11.083177976255891"><ele>36.0</ele><time>2026-04-18T10:30:08Z</time></trkpt><trkpt lat="43.77733085864305" lon="11.083094277997041"><ele>36.00000000000001</ele><time>2026-04-18T10:30:09Z</time></trkpt><trkpt lat="43.77736693887967" lon="11.083022757018961"><ele>36.0</ele><time>2026-04-18T10:30:10Z</time></trkpt><trkpt lat="43.777397396476566" lon="11.082940452477942"><ele>36.57142857142858</ele><time>2026-04-18T10:30:11Z</time></trkpt><trkpt lat="43.77743468560353" lon="11.082866259463268"><ele>37.142857142857146</ele><time>2026-04-18T10:30:12Z</time></trkpt><trkpt lat="43.77746155533966" lon="11.082783425162498"><ele>37.714285714285715</ele><time>2026-04-18T10:30:13Z</time></trkpt><trkpt lat="43.77749412800655" lon="11.082699037377212"><ele>38.28571428571429</ele><time>2026-04-18T10:30:14Z</time></trkpt><trkpt lat="43.77752418957861" lon="11.082618333797303"><ele>38.85714285714286</ele><time>2026-04-18T10:30:15Z</time></trkpt><trkpt lat="43.77756279937948" lon="11.0825433167193"><ele>39.42857142857143</ele><time>2026-04-18T10:30:16Z</time></trkpt><trkpt lat="43.777597844581834" lon="11.082463025387128"><ele>40.0</ele><time>2026-04-18T10:30:17Z</time></trkpt><trkpt lat="43.77762608100293" lon="11.082381280963684"><ele>40.42857142857143</ele><time>2026-04-18T10:30:18Z</time></trkpt><trkpt lat="43.77765832165144" lon="11.082301601634857"><ele>40.85714285714286</ele><time>2026-04-18T10:30:19Z</time></trkpt><trkpt lat="43.77769785649928" lon="11.082222653934476"><ele>41.28571428571429</ele><time>2026-04-18T10:30:20Z</time></trkpt><trkpt lat="43.77772121347284" lon="11.082139481813817"><ele>41.714285714285715</ele><time>2026-04-18T10:30:21Z</time></trkpt><trkpt lat="43.77776692899551" lon="11.082070147048983"><ele>42.142857142857146</ele><time>2026-04-18T10:30:22Z</time></trkpt><trkpt lat="43.777812416465416" lon="11.082004905285528"><ele>42.57142857142858</ele><time>2026-04-18T10:30:23Z</time></trkpt><trkpt lat="43.77784277944756" lon="11.081924962418066"><ele>43.0</ele><time>2026-04-18T10:30:24Z</time></trkpt><trkpt lat="43.77786850835698" lon="11.081842941170192"><ele>42.28571428571429</ele><time>2026-04-18T10:30:25Z</time></trkpt><trkpt lat="43.777900410183875" lon="11.08176334856756"><ele>41.57142857142857</ele><time>2026-04-18T10:30:26Z</time></trkpt><trkpt lat="43.7779262283524" lon="11.081676507139317"><ele>40.85714285714286</ele><time>2026-04-18T10:30:27Z</time></trkpt><trkpt lat="43.77795121814157" lon="11.081592026644172"><ele>40.142857142857146</ele><time>2026-04-18T10:30:28Z</time></trkpt><trkpt lat="43.7779866797321" lon="11.081514890489563"><ele>39.42857142857143</ele><time>2026-04-18T10:30:29Z</time></trkpt><trkpt lat="43.77802046638322" lon="11.08143856658866"><ele>38.714285714285715</ele><time>2026-04-18T10:30:30Z</time></trkpt><trkpt lat="43.77804335597462" lon="11.081355143462973"><ele>38.0</ele><time>2026-04-18T10:30:31Z</time></trkpt><trkpt lat="43.77809939508781" lon="11.081203873572134"><ele>38.0</ele><time>2026-04-18T10:30:33Z</time></trkpt><trkpt lat="43.77813339095792" lon="11.081120952589714"><ele>38.0</ele><time>2026-04-18T10:30:34Z</time></trkpt><trkpt lat="43.77815585134178" lon="11.081035352341994"><ele>38.0</ele><time>2026-04-18T10:30:35Z</time></trkpt><trkpt lat="43.77819034785812" lon="11.080957450148588"><ele>38.0</ele><time>2026-04-18T10:30:36Z</time></trkpt><trkpt lat="43.778220473041294" lon="11.08087169697549"><ele>38.0</ele><time>2026-04-18T10:30:37Z</time></trkpt><trkpt lat="43.77827086554982" lon="11.080792486180439"><ele>38.0</ele><time>2026-04-18T10:30:38Z</time></trkpt><trkpt lat="43.778338972611536" lon="11.080659455509412"><ele>38.5</ele><time>2026-04-18T10:30:40Z</time></trkpt><trkpt lat="43.7783629085842" lon="11.08056939703891"><ele>39.0</ele><time>2026-04-18T10:30:41Z</time></trkpt><trkpt lat="43.77838623089425" lon="11.080483689385677"><ele>39.5</ele><time>2026-04-18T10:30:42Z</time></trkpt><trkpt lat="43.778413685140556" lon="11.080398040449788"><ele>40.0</ele><time>2026-04-18T10:30:43Z</time></trkpt><trkpt lat="43.778468964791976" lon="11.080234771681537"><ele>40.5</ele><time>2026-04-18T10:30:45Z</time></trkpt><trkpt lat="43.7784992580497" lon="11.080152313343307"><ele>41.0</ele><time>2026-04-18T10:30:46Z</time></trkpt><trkpt lat="43.77856307980738" lon="11.080009873479932"><ele>40.5</ele><time>2026-04-18T10:30:48Z</time></trkpt><trkpt lat="43.77858495765598" lon="11.079922954331384"><ele>40.0</ele><time>2026-04-18T10:30:49Z</time></trkpt><trkpt lat="43.778622629090655" lon="11.079844733058536"><ele>39.5</ele><time>2026-04-18T10:30:50Z</time></trkpt><trkpt lat="43.77865671542439" lon="11.07976998733525"><ele>39.0</ele><time>2026-04-18T10:30:51Z</time></trkpt><trkpt lat="43.7786893278704" lon="11.079693204383215"><ele>38.5</ele><time>2026-04-18T10:30:52Z</time></trkpt><trkpt lat="43.77872451816848" lon="11.079617900596798"><ele>38.0</ele><time>2026-04-18T10:30:53Z</time></trkpt><trkpt lat="43.778785624108565" lon="11.079467805853414"><ele>38.0</ele><time>2026-04-18T10:30:55Z</time></trkpt><trkpt lat="43.778837157479025" lon="11.07930517611874"><ele>38.0</ele><time>2026-04-18T10:30:57Z</time></trkpt><trkpt lat="43.778875766495936" lon="11.079230569005915"><ele>38.0</ele><time>2026-04-18T10:30:58Z</time></trkpt><trkpt lat="43.77894335190334" lon="11.079085023279582"><ele>38.0</ele><time>2026-04-18T10:31:00Z</time></trkpt><trkpt lat="43.77900232984965" lon="11.078932585624726"><ele>38.0</ele><time>2026-04-18T10:31:02Z</time></trkpt><trkpt lat="43.77906371887452" lon="11.078782035183684"><ele>37.8</ele><time>2026-04-18T10:31:04Z</time></trkpt><trkpt lat="43.77912402700634" lon="11.078635070793514"><ele>37.599999999999994</ele><time>2026-04-18T10:31:06Z</time></trkpt><trkpt lat="43.77919246265966" lon="11.078495847161255"><ele>37.400000000000006</ele><time>2026-04-18T10:31:08Z</time></trkpt><trkpt lat="43.779259092262805" lon="11.078373872727926"><ele>37.2</ele><time>2026-04-18T10:31:10Z</time></trkpt><trkpt lat="43.77928782315958" lon="11.078286182181781"><ele>37.0</ele><time>2026-04-18T10:31:11Z</time></trkpt><trkpt lat="43.77935172989346" lon="11.078142131639735"><ele>37.0</ele><time>2026-04-18T10:31:13Z</time></trkpt><trkpt lat="43.77941049157831" lon="11.077997802104129"><ele>37.0</ele><time>2026-04-18T10:31:15Z</time></trkpt><trkpt lat="43.77947589122033" lon="11.077872482292177"><ele>37.0</ele><time>2026-04-18T10:31:17Z</time></trkpt><trkpt lat="43.77953600473039" lon="11.077759808952608"><ele>37.0</ele><time>2026-04-18T10:31:19Z</time></trkpt><trkpt lat="43.779568917678304" lon="11.077666791339484"><ele>37.0</ele><time>2026-04-18T10:31:20Z</time></trkpt><trkpt lat="43.77962842662705" lon="11.077532435384207"><ele>38.0</ele><time>2026-04-18T10:31:22Z</time></trkpt><trkpt lat="43.77968586829635" lon="11.077393681665331"><ele>39.0</ele><time>2026-04-18T10:31:24Z</time></trkpt><trkpt lat="43.77975302779471" lon="11.077260195323936"><ele>40.0</ele><time>2026-04-18T10:31:26Z</time></trkpt><trkpt lat="43.77981667803342" lon="11.077111545538033"><ele>41.0</ele><time>2026-04-18T10:31:28Z</time></trkpt><trkpt lat="43.779887405311136" lon="11.07697269560179"><ele>41.0</ele><time>2026-04-18T10:31:30Z</time></trkpt><trkpt lat="43.779920693984984" lon="11.076897323589183"><ele>41.0</ele><time>2026-04-18T10:31:31Z</time></trkpt><trkpt lat="43.77998303774049" lon="11.076752347467107"><ele>41.0</ele><time>2026-04-18T10:31:33Z</time></trkpt><trkpt lat="43.780041795281896" lon="11.0766065939236"><ele>41.0</ele><time>2026-04-18T10:31:35Z</time></trkpt><trkpt lat="43.78010178504111" lon="11.076459139626238"><ele>41.0</ele><time>2026-04-18T10:31:37Z</time></trkpt><trkpt lat="43.78015044987406" lon="11.076311488752328"><ele>40.0</ele><time>2026-04-18T10:31:39Z</time></trkpt><trkpt lat="43.780197530340516" lon="11.076162537413648"><ele>39.0</ele><time>2026-04-18T10:31:41Z</time></trkpt><trkpt lat="43.780250848295076" lon="11.07601926093745"><ele>38.0</ele><time>2026-04-18T10:31:43Z</time></trkpt><trkpt lat="43.78029034076666" lon="11.075868053793824"><ele>37.0</ele><time>2026-04-18T10:31:45Z</time></trkpt><trkpt lat="43.780330009671204" lon="11.075717639411302"><ele>37.0</ele><time>2026-04-18T10:31:47Z</time></trkpt><trkpt lat="43.78037501131917" lon="11.075566722912278"><ele>37.0</ele><time>2026-04-18T10:31:49Z</time></trkpt><trkpt lat="43.780417828611654" lon="11.075409647445497"><ele>37.0</ele><time>2026-04-18T10:31:51Z</time></trkpt><trkpt lat="43.78045234554947" lon="11.075261456227969"><ele>37.0</ele><time>2026-04-18T10:31:53Z</time></trkpt><trkpt lat="43.7804813028244" lon="11.07511059285217"><ele>37.0</ele><time>2026-04-18T10:31:55Z</time></trkpt><trkpt lat="43.780510975349344" lon="11.07496439267634"><ele>37.0</ele><time>2026-04-18T10:31:57Z</time></trkpt><trkpt lat="43.78054011823434" lon="11.074815234523074"><ele>37.0</ele><time>2026-04-18T10:31:59Z</time></trkpt><trkpt lat="43.780563606201994" lon="11.074666531291813"><ele>37.0</ele><time>2026-04-18T10:32:01Z</time></trkpt><trkpt lat="43.780583969046766" lon="11.074520359046367"><ele>37.0</ele><time>2026-04-18T10:32:03Z</time></trkpt><trkpt lat="43.78060109613034" lon="11.074376776181577"><ele>37.2</ele><time>2026-04-18T10:32:05Z</time></trkpt><trkpt lat="43.78060919714777" lon="11.07423012123967"><ele>37.400000000000006</ele><time>2026-04-18T10:32:07Z</time></trkpt><trkpt lat="43.780617760537154" lon="11.074083435250671"><ele>37.599999999999994</ele><time>2026-04-18T10:32:09Z</time></trkpt><trkpt lat="43.780616661367034" lon="11.073945787758738"><ele>37.8</ele><time>2026-04-18T10:32:11Z</time></trkpt><trkpt lat="43.780605061888686" lon="11.073804228231099"><ele>38.0</ele><time>2026-04-18T10:32:13Z</time></trkpt><trkpt lat="43.78058399345811" lon="11.073673961023866"><ele>38.199999999999996</ele><time>2026-04-18T10:32:15Z</time></trkpt><trkpt lat="43.78056148143757" lon="11.07354027778204"><ele>38.4</ele><time>2026-04-18T10:32:17Z</time></trkpt><trkpt lat="43.78053381164264" lon="11.073411737930904"><ele>38.599999999999994</ele><time>2026-04-18T10:32:19Z</time></trkpt><trkpt lat="43.78050267334122" lon="11.07328719939976"><ele>38.8</ele><time>2026-04-18T10:32:21Z</time></trkpt><trkpt lat="43.78046668508867" lon="11.07316206810842"><ele>39.0</ele><time>2026-04-18T10:32:23Z</time></trkpt><trkpt lat="43.780432174160964" lon="11.073034441760392"><ele>38.6</ele><time>2026-04-18T10:32:25Z</time></trkpt><trkpt lat="43.78039402062014" lon="11.07291319652465"><ele>38.2</ele><time>2026-04-18T10:32:27Z</time></trkpt><trkpt lat="43.78035259772231" lon="11.072792129995737"><ele>37.800000000000004</ele><time>2026-04-18T10:32:29Z</time></trkpt><trkpt lat="43.78031632534652" lon="11.072671058208746"><ele>37.4</ele><time>2026-04-18T10:32:31Z</time></trkpt><trkpt lat="43.78027765398405" lon="11.072551256417027"><ele>37.0</ele><time>2026-04-18T10:32:33Z</time></trkpt><trkpt lat="43.780236717013395" lon="11.072436687773616"><ele>36.800000000000004</ele><time>2026-04-18T10:32:35Z</time></trkpt><trkpt lat="43.78018923592454" lon="11.072321736364191"><ele>36.6</ele><time>2026-04-18T10:32:37Z</time></trkpt><trkpt lat="43.78013110623174" lon="11.072199014838636"><ele>36.400000000000006</ele><time>2026-04-18T10:32:39Z</time></trkpt><trkpt lat="43.78006127661672" lon="11.07207527291144"><ele>36.2</ele><time>2026-04-18T10:32:41Z</time></trkpt><trkpt lat="43.779973253773065" lon="11.071960451097551"><ele>36.0</ele><time>2026-04-18T10:32:43Z</time></trkpt><trkpt lat="43.779872401039114" lon="11.071854596296006"><ele>36.28571428571429</ele><time>2026-04-18T10:32:45Z</time></trkpt><trkpt lat="43.779818593054" lon="11.07180353063766"><ele>36.57142857142857</ele><time>2026-04-18T10:32:46Z</time></trkpt><trkpt lat="43.77976117539175" lon="11.071754388044715"><ele>36.85714285714286</ele><time>2026-04-18T10:32:47Z</time></trkpt><trkpt lat="43.7797000092332" lon="11.071703534075647"><ele>37.142857142857146</ele><time>2026-04-18T10:32:48Z</time></trkpt><trkpt lat="43.779637207562935" lon="11.071655047911772"><ele>37.42857142857143</ele><time>2026-04-18T10:32:49Z</time></trkpt><trkpt lat="43.77957240875261" lon="11.071605565678398"><ele>37.714285714285715</ele><time>2026-04-18T10:32:50Z</time></trkpt><trkpt lat="43.77950518290559" lon="11.07155602723762"><ele>38.0</ele><time>2026-04-18T10:32:51Z</time></trkpt><trkpt lat="43.77943374220521" lon="11.07150724013448"><ele>37.5</ele><time>2026-04-18T10:32:52Z</time></trkpt><trkpt lat="43.7793650846841" lon="11.07145181917819"><ele>37.0</ele><time>2026-04-18T10:32:53Z</time></trkpt><trkpt lat="43.77929249686537" lon="11.071396350448472"><ele>36.5</ele><time>2026-04-18T10:32:54Z</time></trkpt><trkpt lat="43.779218224181896" lon="11.071340572125811"><ele>36.0</ele><time>2026-04-18T10:32:55Z</time></trkpt><trkpt lat="43.77914365417151" lon="11.071281325669862"><ele>35.5</ele><time>2026-04-18T10:32:56Z</time></trkpt><trkpt lat="43.77906698067624" lon="11.071221365863193"><ele>35.0</ele><time>2026-04-18T10:32:57Z</time></trkpt><trkpt lat="43.77898589690603" lon="11.071168835022936"><ele>35.0</ele><time>2026-04-18T10:32:58Z</time></trkpt><trkpt lat="43.778904240055546" lon="11.071113811509017"><ele>35.0</ele><time>2026-04-18T10:32:59Z</time></trkpt><trkpt lat="43.77882281854587" lon="11.071055322231825"><ele>35.0</ele><time>2026-04-18T10:33:00Z</time></trkpt><trkpt lat="43.77874294823454" lon="11.070996169433629"><ele>35.0</ele><time>2026-04-18T10:33:01Z</time></trkpt><trkpt lat="43.778658647688914" lon="11.070943987431185"><ele>35.0</ele><time>2026-04-18T10:33:02Z</time></trkpt><trkpt lat="43.778580811438125" lon="11.070891292022816"><ele>35.0</ele><time>2026-04-18T10:33:03Z</time></trkpt><trkpt lat="43.778502698974144" lon="11.070843797203612"><ele>35.0</ele><time>2026-04-18T10:33:04Z</time></trkpt><trkpt lat="43.77842375995842" lon="11.070799617272252"><ele>35.0</ele><time>2026-04-18T10:33:05Z</time></trkpt><trkpt lat="43.77834452415472" lon="11.07076168587641"><ele>35.0</ele><time>2026-04-18T10:33:06Z</time></trkpt><trkpt lat="43.77826827766952" lon="11.070725849376867"><ele>35.0</ele><time>2026-04-18T10:33:07Z</time></trkpt><trkpt lat="43.778194154312565" lon="11.070696261421707"><ele>35.0</ele><time>2026-04-18T10:33:08Z</time></trkpt><trkpt lat="43.778120878612896" lon="11.070666506519206"><ele>34.857142857142854</ele><time>2026-04-18T10:33:09Z</time></trkpt><trkpt lat="43.77804981445518" lon="11.070632836855989"><ele>34.714285714285715</ele><time>2026-04-18T10:33:10Z</time></trkpt><trkpt lat="43.77797940471457" lon="11.070602722229427"><ele>34.57142857142857</ele><time>2026-04-18T10:33:11Z</time></trkpt><trkpt lat="43.777910996624485" lon="11.070573737899478"><ele>34.42857142857143</ele><time>2026-04-18T10:33:12Z</time></trkpt><trkpt lat="43.777845844059776" lon="11.070543503958076"><ele>34.285714285714285</ele><time>2026-04-18T10:33:13Z</time></trkpt><trkpt lat="43.77778056273557" lon="11.070515953887734"><ele>34.14285714285714</ele><time>2026-04-18T10:33:14Z</time></trkpt><trkpt lat="43.777715926742104" lon="11.070488193156343"><ele>34.0</ele><time>2026-04-18T10:33:15Z</time></trkpt><trkpt lat="43.77765212695132" lon="11.070464568959762"><ele>34.0</ele><time>2026-04-18T10:33:16Z</time></trkpt><trkpt lat="43.77753285072474" lon="11.070409786978459"><ele>34.0</ele><time>2026-04-18T10:33:18Z</time></trkpt><trkpt lat="43.7774126560004" lon="11.07036828446679"><ele>34.0</ele><time>2026-04-18T10:33:20Z</time></trkpt><trkpt lat="43.77729643441544" lon="11.070340890784646"><ele>34.0</ele><time>2026-04-18T10:33:22Z</time></trkpt><trkpt lat="43.77718373181371" lon="11.070322027034827"><ele>34.0</ele><time>2026-04-18T10:33:24Z</time></trkpt><trkpt lat="43.777065706997384" lon="11.070300523928045"><ele>34.0</ele><time>2026-04-18T10:33:26Z</time></trkpt><trkpt lat="43.77695315002675" lon="11.070289908577426"><ele>34.0</ele><time>2026-04-18T10:33:28Z</time></trkpt><trkpt lat="43.776843520213575" lon="11.07027102695866"><ele>34.0</ele><time>2026-04-18T10:33:30Z</time></trkpt><trkpt lat="43.77673171646471" lon="11.07024953883257"><ele>34.2</ele><time>2026-04-18T10:33:32Z</time></trkpt><trkpt lat="43.77662130871323" lon="11.070236064271157"><ele>34.4</ele><time>2026-04-18T10:33:34Z</time></trkpt><trkpt lat="43.77651131063989" lon="11.070216080267148"><ele>34.6</ele><time>2026-04-18T10:33:36Z</time></trkpt><trkpt lat="43.776399751454996" lon="11.070200332893796"><ele>34.8</ele><time>2026-04-18T10:33:38Z</time></trkpt><trkpt lat="43.77628671649738" lon="11.070182749448902"><ele>35.0</ele><time>2026-04-18T10:33:40Z</time></trkpt><trkpt lat="43.77617373001862" lon="11.070167510639124"><ele>35.0</ele><time>2026-04-18T10:33:42Z</time></trkpt><trkpt lat="43.776060428333516" lon="11.070151251532469"><ele>35.0</ele><time>2026-04-18T10:33:44Z</time></trkpt><trkpt lat="43.77594554084815" lon="11.070133743947082"><ele>35.0</ele><time>2026-04-18T10:33:46Z</time></trkpt><trkpt lat="43.77583157757334" lon="11.07012075934081"><ele>35.0</ele><time>2026-04-18T10:33:48Z</time></trkpt><trkpt lat="43.77572127447379" lon="11.070104176898877"><ele>34.8</ele><time>2026-04-18T10:33:50Z</time></trkpt><trkpt lat="43.77561623690523" lon="11.070080089241683"><ele>34.6</ele><time>2026-04-18T10:33:52Z</time></trkpt><trkpt lat="43.775524020089655" lon="11.070035258725717"><ele>34.4</ele><time>2026-04-18T10:33:54Z</time></trkpt><trkpt lat="43.77543274389564" lon="11.069982983979513"><ele>34.2</ele><time>2026-04-18T10:33:56Z</time></trkpt><trkpt lat="43.77535587982288" lon="11.06991860569158"><ele>34.0</ele><time>2026-04-18T10:33:58Z</time></trkpt><trkpt lat="43.7752866996809" lon="11.069845659091872"><ele>34.0</ele><time>2026-04-18T10:34:00Z</time></trkpt><trkpt lat="43.77522084129761" lon="11.069779326569277"><ele>34.0</ele><time>2026-04-18T10:34:02Z</time></trkpt><trkpt lat="43.775163606665764" lon="11.069696413160559"><ele>34.0</ele><time>2026-04-18T10:34:04Z</time></trkpt><trkpt lat="43.775106567000215" lon="11.069601755421186"><ele>34.0</ele><time>2026-04-18T10:34:06Z</time></trkpt><trkpt lat="43.77505871055058" lon="11.069509145386748"><ele>34.0</ele><time>2026-04-18T10:34:08Z</time></trkpt><trkpt lat="43.775015016705595" lon="11.069391542402984"><ele>34.0</ele><time>2026-04-18T10:34:10Z</time></trkpt><trkpt lat="43.77498034797715" lon="11.06926999499137"><ele>35.4</ele><time>2026-04-18T10:34:12Z</time></trkpt><trkpt lat="43.774957695471514" lon="11.069137884127944"><ele>36.8</ele><time>2026-04-18T10:34:14Z</time></trkpt><trkpt lat="43.77493855785497" lon="11.069006768780781"><ele>38.199999999999996</ele><time>2026-04-18T10:34:16Z</time></trkpt><trkpt lat="43.774938032570674" lon="11.06887679787815"><ele>39.599999999999994</ele><time>2026-04-18T10:34:18Z</time></trkpt><trkpt lat="43.774945558945326" lon="11.068748392335271"><ele>41.0</ele><time>2026-04-18T10:34:20Z</time></trkpt><trkpt lat="43.7749563744101" lon="11.068618031290345"><ele>43.0</ele><time>2026-04-18T10:34:22Z</time></trkpt><trkpt lat="43.77497063570772" lon="11.068480865984938"><ele>45.0</ele><time>2026-04-18T10:34:24Z</time></trkpt><trkpt lat="43.77498535892153" lon="11.068352421480549"><ele>47.0</ele><time>2026-04-18T10:34:26Z</time></trkpt><trkpt lat="43.77500444835516" lon="11.068214806053915"><ele>49.0</ele><time>2026-04-18T10:34:28Z</time></trkpt><trkpt lat="43.77502582958247" lon="11.06809276297057"><ele>51.0</ele><time>2026-04-18T10:34:30Z</time></trkpt><trkpt lat="43.77505323581033" lon="11.06797762969683"><ele>52.5</ele><time>2026-04-18T10:34:32Z</time></trkpt><trkpt lat="43.775079107665704" lon="11.067863165796414"><ele>54.0</ele><time>2026-04-18T10:34:34Z</time></trkpt><trkpt lat="43.77511158614024" lon="11.067749668485419"><ele>55.5</ele><time>2026-04-18T10:34:36Z</time></trkpt><trkpt lat="43.77514343660267" lon="11.067637762891525"><ele>57.0</ele><time>2026-04-18T10:34:38Z</time></trkpt><trkpt lat="43.775165122613174" lon="11.067518564682098"><ele>58.5</ele><time>2026-04-18T10:34:40Z</time></trkpt><trkpt lat="43.77520065879431" lon="11.067401563546436"><ele>60.0</ele><time>2026-04-18T10:34:42Z</time></trkpt><trkpt lat="43.77524111699814" lon="11.067275001418544"><ele>55.4</ele><time>2026-04-18T10:34:44Z</time></trkpt><trkpt lat="43.77528865333117" lon="11.0671587033005"><ele>50.8</ele><time>2026-04-18T10:34:46Z</time></trkpt><trkpt lat="43.775327409921935" lon="11.067041456800826"><ele>46.2</ele><time>2026-04-18T10:34:48Z</time></trkpt><trkpt lat="43.77536103708546" lon="11.066923961201335"><ele>41.6</ele><time>2026-04-18T10:34:50Z</time></trkpt><trkpt lat="43.77539835935281" lon="11.06680714753975"><ele>37.0</ele><time>2026-04-18T10:34:52Z</time></trkpt><trkpt lat="43.77542967269842" lon="11.066683595825648"><ele>37.6</ele><time>2026-04-18T10:34:54Z</time></trkpt><trkpt lat="43.77547177933057" lon="11.066557999748325"><ele>38.2</ele><time>2026-04-18T10:34:56Z</time></trkpt><trkpt lat="43.77550260742787" lon="11.066408702204997"><ele>38.8</ele><time>2026-04-18T10:34:58Z</time></trkpt><trkpt lat="43.775524192725385" lon="11.066326542939606"><ele>39.4</ele><time>2026-04-18T10:34:59Z</time></trkpt><trkpt lat="43.77555124229719" lon="11.066152252695664"><ele>40.0</ele><time>2026-04-18T10:35:01Z</time></trkpt><trkpt lat="43.77556789484282" lon="11.066061251140686"><ele>40.0</ele><time>2026-04-18T10:35:02Z</time></trkpt><trkpt lat="43.775581473760525" lon="11.065969713580763"><ele>40.0</ele><time>2026-04-18T10:35:03Z</time></trkpt><trkpt lat="43.77559275820922" lon="11.065873809230242"><ele>40.0</ele><time>2026-04-18T10:35:04Z</time></trkpt><trkpt lat="43.77560734012311" lon="11.065775471317789"><ele>40.0</ele><time>2026-04-18T10:35:05Z</time></trkpt><trkpt lat="43.77561846624078" lon="11.06567466845098"><ele>40.0</ele><time>2026-04-18T10:35:06Z</time></trkpt><trkpt lat="43.77562268070501" lon="11.065570539236722"><ele>40.0</ele><time>2026-04-18T10:35:07Z</time></trkpt><trkpt lat="43.77562006987854" lon="11.065466403599597"><ele>40.0</ele><time>2026-04-18T10:35:08Z</time></trkpt><trkpt lat="43.775620065429266" lon="11.065357006576985"><ele>39.66666666666667</ele><time>2026-04-18T10:35:09Z</time></trkpt><trkpt lat="43.77561288676912" lon="11.065245999830962"><ele>39.333333333333336</ele><time>2026-04-18T10:35:10Z</time></trkpt><trkpt lat="43.77560188595809" lon="11.065130519852437"><ele>39.0</ele><time>2026-04-18T10:35:11Z</time></trkpt><trkpt lat="43.77558954831507" lon="11.0650163304388"><ele>38.666666666666664</ele><time>2026-04-18T10:35:12Z</time></trkpt><trkpt lat="43.77556993140658" lon="11.064900186493189"><ele>38.33333333333333</ele><time>2026-04-18T10:35:13Z</time></trkpt><trkpt lat="43.77554217856566" lon="11.064788306920546"><ele>38.0</ele><time>2026-04-18T10:35:14Z</time></trkpt><trkpt lat="43.775503999216994" lon="11.064679691323619"><ele>37.83333333333333</ele><time>2026-04-18T10:35:15Z</time></trkpt><trkpt lat="43.77546585525341" lon="11.064570105089713"><ele>37.666666666666664</ele><time>2026-04-18T10:35:16Z</time></trkpt><trkpt lat="43.775436082047335" lon="11.064456146749942"><ele>37.5</ele><time>2026-04-18T10:35:17Z</time></trkpt><trkpt lat="43.775386024163346" lon="11.06435536671642"><ele>37.333333333333336</ele><time>2026-04-18T10:35:18Z</time></trkpt><trkpt lat="43.77532721598455" lon="11.064260651255593"><ele>37.16666666666667</ele><time>2026-04-18T10:35:19Z</time></trkpt><trkpt lat="43.775272854353496" lon="11.064168250719119"><ele>37.0</ele><time>2026-04-18T10:35:20Z</time></trkpt><trkpt lat="43.775215626171914" lon="11.064081860323617"><ele>37.5</ele><time>2026-04-18T10:35:21Z</time></trkpt><trkpt lat="43.77516070660215" lon="11.063995300218787"><ele>38.0</ele><time>2026-04-18T10:35:22Z</time></trkpt><trkpt lat="43.775105331686085" lon="11.063908628041538"><ele>38.5</ele><time>2026-04-18T10:35:23Z</time></trkpt><trkpt lat="43.77504694078046" lon="11.063823759375666"><ele>39.0</ele><time>2026-04-18T10:35:24Z</time></trkpt><trkpt lat="43.77498803451858" lon="11.06374447868477"><ele>39.5</ele><time>2026-04-18T10:35:25Z</time></trkpt><trkpt lat="43.77492896135772" lon="11.063673823828621"><ele>40.0</ele><time>2026-04-18T10:35:26Z</time></trkpt><trkpt lat="43.774869488773106" lon="11.063602172874333"><ele>40.0</ele><time>2026-04-18T10:35:27Z</time></trkpt><trkpt lat="43.77481125345986" lon="11.063525260454453"><ele>40.0</ele><time>2026-04-18T10:35:28Z</time></trkpt><trkpt lat="43.77475238393002" lon="11.063453171574817"><ele>40.0</ele><time>2026-04-18T10:35:29Z</time></trkpt><trkpt lat="43.77468433793708" lon="11.063399933286906"><ele>40.0</ele><time>2026-04-18T10:35:30Z</time></trkpt><trkpt lat="43.774609437598635" lon="11.063359124902988"><ele>40.0</ele><time>2026-04-18T10:35:31Z</time></trkpt><trkpt lat="43.77453632425531" lon="11.063318425732705"><ele>40.0</ele><time>2026-04-18T10:35:32Z</time></trkpt><trkpt lat="43.77446425611909" lon="11.063270862346538"><ele>39.5</ele><time>2026-04-18T10:35:33Z</time></trkpt><trkpt lat="43.77439254596936" lon="11.063229708752763"><ele>39.0</ele><time>2026-04-18T10:35:34Z</time></trkpt><trkpt lat="43.77431738307156" lon="11.06319550471176"><ele>38.5</ele><time>2026-04-18T10:35:35Z</time></trkpt><trkpt lat="43.77424202116332" lon="11.063164813274762"><ele>38.0</ele><time>2026-04-18T10:35:36Z</time></trkpt><trkpt lat="43.774166135092315" lon="11.063139805880185"><ele>37.5</ele><time>2026-04-18T10:35:37Z</time></trkpt><trkpt lat="43.77408913133226" lon="11.063117979835468"><ele>37.0</ele><time>2026-04-18T10:35:38Z</time></trkpt><trkpt lat="43.77401241476958" lon="11.063101679312934"><ele>36.5</ele><time>2026-04-18T10:35:39Z</time></trkpt><trkpt lat="43.773936410361216" lon="11.06308766570952"><ele>36.0</ele><time>2026-04-18T10:35:40Z</time></trkpt><trkpt lat="43.77385804138964" lon="11.063067600598238"><ele>35.5</ele><time>2026-04-18T10:35:41Z</time></trkpt><trkpt lat="43.773784274123514" lon="11.063051313795409"><ele>35.0</ele><time>2026-04-18T10:35:42Z</time></trkpt><trkpt lat="43.77370868318032" lon="11.063036394954754"><ele>34.5</ele><time>2026-04-18T10:35:43Z</time></trkpt><trkpt lat="43.773636099166694" lon="11.06301501351401"><ele>34.0</ele><time>2026-04-18T10:35:44Z</time></trkpt><trkpt lat="43.77356413150967" lon="11.063001916397104"><ele>33.99999999999999</ele><time>2026-04-18T10:35:45Z</time></trkpt><trkpt lat="43.77349332883957" lon="11.062987675974862"><ele>34.0</ele><time>2026-04-18T10:35:46Z</time></trkpt><trkpt lat="43.773423548053074" lon="11.062968798630955"><ele>34.0</ele><time>2026-04-18T10:35:47Z</time></trkpt><trkpt lat="43.773354360394286" lon="11.06295409086956"><ele>34.0</ele><time>2026-04-18T10:35:48Z</time></trkpt><trkpt lat="43.7732871110122" lon="11.062939227130983"><ele>34.0</ele><time>2026-04-18T10:35:49Z</time></trkpt><trkpt lat="43.77322114857076" lon="11.062925905847809"><ele>33.99999999999999</ele><time>2026-04-18T10:35:50Z</time></trkpt><trkpt lat="43.773155351248285" lon="11.062912621283584"><ele>34.0</ele><time>2026-04-18T10:35:51Z</time></trkpt><trkpt lat="43.77309071413143" lon="11.062901762199331"><ele>33.99999999999999</ele><time>2026-04-18T10:35:52Z</time></trkpt><trkpt lat="43.77302511273211" lon="11.062885657186083"><ele>34.0</ele><time>2026-04-18T10:35:53Z</time></trkpt><trkpt lat="43.77296120026535" lon="11.062871812139758"><ele>34.0</ele><time>2026-04-18T10:35:54Z</time></trkpt><trkpt lat="43.7728987820108" lon="11.062857340633405"><ele>34.0</ele><time>2026-04-18T10:35:55Z</time></trkpt><trkpt lat="43.77283337963653" lon="11.062837626072593"><ele>34.0</ele><time>2026-04-18T10:35:56Z</time></trkpt><trkpt lat="43.77276964324474" lon="11.062820050296486"><ele>33.99999999999999</ele><time>2026-04-18T10:35:57Z</time></trkpt><trkpt lat="43.77270610547609" lon="11.062804400639472"><ele>34.0</ele><time>2026-04-18T10:35:58Z</time></trkpt><trkpt lat="43.77264194258773" lon="11.062789713608803"><ele>34.25</ele><time>2026-04-18T10:35:59Z</time></trkpt><trkpt lat="43.77257858798807" lon="11.06277490551328"><ele>34.5</ele><time>2026-04-18T10:36:00Z</time></trkpt><trkpt lat="43.772515591776106" lon="11.062757772885742"><ele>34.75</ele><time>2026-04-18T10:36:01Z</time></trkpt><trkpt lat="43.77245140591505" lon="11.062743542818023"><ele>35.0</ele><time>2026-04-18T10:36:02Z</time></trkpt><trkpt lat="43.772388182446065" lon="11.062728247976818"><ele>35.25</ele><time>2026-04-18T10:36:03Z</time></trkpt><trkpt lat="43.77232571874052" lon="11.062713747726423"><ele>35.5</ele><time>2026-04-18T10:36:04Z</time></trkpt><trkpt lat="43.77226259977496" lon="11.062697196410252"><ele>35.75</ele><time>2026-04-18T10:36:05Z</time></trkpt><trkpt lat="43.7722005461023" lon="11.062678782405749"><ele>36.0</ele><time>2026-04-18T10:36:06Z</time></trkpt><trkpt lat="43.77207919236238" lon="11.062642914304629"><ele>36.0</ele><time>2026-04-18T10:36:08Z</time></trkpt><trkpt lat="43.77196039744499" lon="11.062598107525234"><ele>36.0</ele><time>2026-04-18T10:36:10Z</time></trkpt><trkpt lat="43.7718440915541" lon="11.062546851886168"><ele>36.0</ele><time>2026-04-18T10:36:12Z</time></trkpt><trkpt lat="43.771729853535604" lon="11.062491959715203"><ele>36.0</ele><time>2026-04-18T10:36:14Z</time></trkpt><trkpt lat="43.771613185987796" lon="11.062437467547374"><ele>35.666666666666664</ele><time>2026-04-18T10:36:16Z</time></trkpt><trkpt lat="43.771495978413235" lon="11.062380645715862"><ele>35.333333333333336</ele><time>2026-04-18T10:36:18Z</time></trkpt><trkpt lat="43.77143575376043" lon="11.062348380265302"><ele>35.0</ele><time>2026-04-18T10:36:19Z</time></trkpt><trkpt lat="43.77137543953251" lon="11.062319511614273"><ele>34.66666666666667</ele><time>2026-04-18T10:36:20Z</time></trkpt><trkpt lat="43.77131459560025" lon="11.06228724201193"><ele>34.333333333333336</ele><time>2026-04-18T10:36:21Z</time></trkpt><trkpt lat="43.77125231672346" lon="11.062256314418025"><ele>34.0</ele><time>2026-04-18T10:36:22Z</time></trkpt><trkpt lat="43.771188559033526" lon="11.062226411628878"><ele>33.99999999999999</ele><time>2026-04-18T10:36:23Z</time></trkpt><trkpt lat="43.77112330142874" lon="11.062193834136778"><ele>34.0</ele><time>2026-04-18T10:36:24Z</time></trkpt><trkpt lat="43.77105905099215" lon="11.062162110261697"><ele>34.0</ele><time>2026-04-18T10:36:25Z</time></trkpt><trkpt lat="43.770995276865136" lon="11.06212750938527"><ele>34.0</ele><time>2026-04-18T10:36:26Z</time></trkpt><trkpt lat="43.770929915382865" lon="11.062097888195774"><ele>34.0</ele><time>2026-04-18T10:36:27Z</time></trkpt><trkpt lat="43.77086546147535" lon="11.062068135817887"><ele>33.99999999999999</ele><time>2026-04-18T10:36:28Z</time></trkpt><trkpt lat="43.77080347159324" lon="11.062034463496026"><ele>34.0</ele><time>2026-04-18T10:36:29Z</time></trkpt><trkpt lat="43.770739952396575" lon="11.062004559598503"><ele>34.285714285714285</ele><time>2026-04-18T10:36:30Z</time></trkpt><trkpt lat="43.77067490961006" lon="11.06197462614147"><ele>34.57142857142857</ele><time>2026-04-18T10:36:31Z</time></trkpt><trkpt lat="43.77061201258363" lon="11.061936295006902"><ele>34.85714285714286</ele><time>2026-04-18T10:36:32Z</time></trkpt><trkpt lat="43.77055007171065" lon="11.061899935350416"><ele>35.14285714285714</ele><time>2026-04-18T10:36:33Z</time></trkpt><trkpt lat="43.770489597316384" lon="11.061861765512212"><ele>35.42857142857143</ele><time>2026-04-18T10:36:34Z</time></trkpt><trkpt lat="43.7704282235912" lon="11.0618246482907"><ele>35.714285714285715</ele><time>2026-04-18T10:36:35Z</time></trkpt><trkpt lat="43.770365117762445" lon="11.061786116448655"><ele>36.0</ele><time>2026-04-18T10:36:36Z</time></trkpt><trkpt lat="43.77030528188654" lon="11.061746531168525"><ele>36.00000000000001</ele><time>2026-04-18T10:36:37Z</time></trkpt><trkpt lat="43.77024543341624" lon="11.061705069396949"><ele>36.0</ele><time>2026-04-18T10:36:38Z</time></trkpt><trkpt lat="43.77018555835033" lon="11.061663723252936"><ele>36.0</ele><time>2026-04-18T10:36:39Z</time></trkpt><trkpt lat="43.77012817467628" lon="11.061620177353864"><ele>36.0</ele><time>2026-04-18T10:36:40Z</time></trkpt><trkpt lat="43.77006987293529" lon="11.061577653174403"><ele>36.0</ele><time>2026-04-18T10:36:41Z</time></trkpt><trkpt lat="43.77001295325042" lon="11.061534300369134"><ele>36.00000000000001</ele><time>2026-04-18T10:36:42Z</time></trkpt><trkpt lat="43.7699562123916" lon="11.061490408008844"><ele>36.0</ele><time>2026-04-18T10:36:43Z</time></trkpt><trkpt lat="43.76989706794716" lon="11.061448396249162"><ele>36.00000000000001</ele><time>2026-04-18T10:36:44Z</time></trkpt><trkpt lat="43.769838907598874" lon="11.061405377107082"><ele>36.0</ele><time>2026-04-18T10:36:45Z</time></trkpt><trkpt lat="43.76978124693801" lon="11.061363149052319"><ele>36.0</ele><time>2026-04-18T10:36:46Z</time></trkpt><trkpt lat="43.76972463855922" lon="11.061319057075298"><ele>36.0</ele><time>2026-04-18T10:36:47Z</time></trkpt><trkpt lat="43.769667399884575" lon="11.061276325882265"><ele>36.0</ele><time>2026-04-18T10:36:48Z</time></trkpt><trkpt lat="43.769611956323004" lon="11.061233295829021"><ele>36.00000000000001</ele><time>2026-04-18T10:36:49Z</time></trkpt><trkpt lat="43.7695547632009" lon="11.061190516338097"><ele>36.0</ele><time>2026-04-18T10:36:50Z</time></trkpt><trkpt lat="43.7694981983181" lon="11.061148876725682"><ele>36.00000000000001</ele><time>2026-04-18T10:36:51Z</time></trkpt><trkpt lat="43.76944130804657" lon="11.061106018441826"><ele>36.0</ele><time>2026-04-18T10:36:52Z</time></trkpt><trkpt lat="43.76938327013823" lon="11.061065922924415"><ele>36.0</ele><time>2026-04-18T10:36:53Z</time></trkpt><trkpt lat="43.76932567950007" lon="11.061025337024494"><ele>36.0</ele><time>2026-04-18T10:36:54Z</time></trkpt><trkpt lat="43.76926843896321" lon="11.060984685882707"><ele>36.0</ele><time>2026-04-18T10:36:55Z</time></trkpt><trkpt lat="43.76920962557442" lon="11.060943788367362"><ele>36.00000000000001</ele><time>2026-04-18T10:36:56Z</time></trkpt><trkpt lat="43.76915095870004" lon="11.060902981999115"><ele>36.0</ele><time>2026-04-18T10:36:57Z</time></trkpt><trkpt lat="43.7690931694173" lon="11.060864421368464"><ele>35.57142857142858</ele><time>2026-04-18T10:36:58Z</time></trkpt><trkpt lat="43.76903319194535" lon="11.060827047362963"><ele>35.142857142857146</ele><time>2026-04-18T10:36:59Z</time></trkpt><trkpt lat="43.768972865365264" lon="11.060792007609518"><ele>34.714285714285715</ele><time>2026-04-18T10:37:00Z</time></trkpt><trkpt lat="43.7689129455779" lon="11.060756278844714"><ele>34.28571428571429</ele><time>2026-04-18T10:37:01Z</time></trkpt><trkpt lat="43.768852195248606" lon="11.060720395645607"><ele>33.85714285714286</ele><time>2026-04-18T10:37:02Z</time></trkpt><trkpt lat="43.76879237468552" lon="11.060681210703034"><ele>33.42857142857143</ele><time>2026-04-18T10:37:03Z</time></trkpt><trkpt lat="43.76873384005046" lon="11.06064577257041"><ele>33.0</ele><time>2026-04-18T10:37:04Z</time></trkpt><trkpt lat="43.768674909789375" lon="11.060610207812367"><ele>33.0</ele><time>2026-04-18T10:37:05Z</time></trkpt><trkpt lat="43.76861518369862" lon="11.060573880700293"><ele>33.0</ele><time>2026-04-18T10:37:06Z</time></trkpt><trkpt lat="43.76855227398236" lon="11.060541311842707"><ele>33.0</ele><time>2026-04-18T10:37:07Z</time></trkpt><trkpt lat="43.76848975145298" lon="11.060507474501124"><ele>33.0</ele><time>2026-04-18T10:37:08Z</time></trkpt><trkpt lat="43.768428592427775" lon="11.060472477621765"><ele>33.0</ele><time>2026-04-18T10:37:09Z</time></trkpt><trkpt lat="43.7683660716597" lon="11.060439666800656"><ele>33.0</ele><time>2026-04-18T10:37:10Z</time></trkpt><trkpt lat="43.76830284619499" lon="11.06040974920509"><ele>33.0</ele><time>2026-04-18T10:37:11Z</time></trkpt><trkpt lat="43.7682399476242" lon="11.06037590568423"><ele>33.42857142857143</ele><time>2026-04-18T10:37:12Z</time></trkpt><trkpt lat="43.768177300000154" lon="11.060344725843773"><ele>33.85714285714286</ele><time>2026-04-18T10:37:13Z</time></trkpt><trkpt lat="43.76811530858237" lon="11.060310955804761"><ele>34.28571428571429</ele><time>2026-04-18T10:37:14Z</time></trkpt><trkpt lat="43.76805454278513" lon="11.060279075754107"><ele>34.714285714285715</ele><time>2026-04-18T10:37:15Z</time></trkpt><trkpt lat="43.76799089643318" lon="11.060249230634316"><ele>35.142857142857146</ele><time>2026-04-18T10:37:16Z</time></trkpt><trkpt lat="43.767925355046025" lon="11.060219980402222"><ele>35.57142857142858</ele><time>2026-04-18T10:37:17Z</time></trkpt><trkpt lat="43.76786106217909" lon="11.060190586046408"><ele>36.0</ele><time>2026-04-18T10:37:18Z</time></trkpt><trkpt lat="43.767796691139395" lon="11.060166123889903"><ele>36.00000000000001</ele><time>2026-04-18T10:37:19Z</time></trkpt><trkpt lat="43.76773321676698" lon="11.06013728453914"><ele>36.0</ele><time>2026-04-18T10:37:20Z</time></trkpt><trkpt lat="43.76766963690737" lon="11.06010754055656"><ele>36.0</ele><time>2026-04-18T10:37:21Z</time></trkpt><trkpt lat="43.76760528297867" lon="11.060077969623848"><ele>36.0</ele><time>2026-04-18T10:37:22Z</time></trkpt><trkpt lat="43.76754123807638" lon="11.060052405497222"><ele>36.0</ele><time>2026-04-18T10:37:23Z</time></trkpt><trkpt lat="43.76747731893148" lon="11.06002196153272"><ele>36.00000000000001</ele><time>2026-04-18T10:37:24Z</time></trkpt><trkpt lat="43.76741297356827" lon="11.059991006378885"><ele>36.0</ele><time>2026-04-18T10:37:25Z</time></trkpt><trkpt lat="43.76735031298177" lon="11.059951532518802"><ele>35.42857142857143</ele><time>2026-04-18T10:37:26Z</time></trkpt><trkpt lat="43.7672866147084" lon="11.059927551346199"><ele>34.85714285714286</ele><time>2026-04-18T10:37:27Z</time></trkpt><trkpt lat="43.76722256926061" lon="11.05989785149724"><ele>34.285714285714285</ele><time>2026-04-18T10:37:28Z</time></trkpt><trkpt lat="43.76715869269357" lon="11.059874946414963"><ele>33.714285714285715</ele><time>2026-04-18T10:37:29Z</time></trkpt><trkpt lat="43.76709590162451" lon="11.059845360512455"><ele>33.14285714285714</ele><time>2026-04-18T10:37:30Z</time></trkpt><trkpt lat="43.7670335688615" lon="11.059812742470958"><ele>32.57142857142857</ele><time>2026-04-18T10:37:31Z</time></trkpt><trkpt lat="43.76696927757081" lon="11.059787991205292"><ele>32.0</ele><time>2026-04-18T10:37:32Z</time></trkpt><trkpt lat="43.766906376136475" lon="11.059761955323605"><ele>32.166666666666664</ele><time>2026-04-18T10:37:33Z</time></trkpt><trkpt lat="43.76684633761456" lon="11.059733319799046"><ele>32.33333333333333</ele><time>2026-04-18T10:37:34Z</time></trkpt><trkpt lat="43.76672849893798" lon="11.059687262198597"><ele>32.5</ele><time>2026-04-18T10:37:36Z</time></trkpt><trkpt lat="43.76666828970017" lon="11.059661776543306"><ele>32.666666666666664</ele><time>2026-04-18T10:37:37Z</time></trkpt><trkpt lat="43.76660660428584" lon="11.059640013732382"><ele>32.833333333333336</ele><time>2026-04-18T10:37:38Z</time></trkpt><trkpt lat="43.76654362801499" lon="11.059619130736612"><ele>33.0</ele><time>2026-04-18T10:37:39Z</time></trkpt><trkpt lat="43.766420279429916" lon="11.059593030681114"><ele>33.0</ele><time>2026-04-18T10:37:41Z</time></trkpt><trkpt lat="43.76629601026559" lon="11.059564661476442"><ele>33.0</ele><time>2026-04-18T10:37:43Z</time></trkpt><trkpt lat="43.76617889575408" lon="11.059551646201385"><ele>33.0</ele><time>2026-04-18T10:37:45Z</time></trkpt><trkpt lat="43.76605488610609" lon="11.05953924579956"><ele>33.0</ele><time>2026-04-18T10:37:47Z</time></trkpt><trkpt lat="43.765990773746886" lon="11.059535628598619"><ele>33.0</ele><time>2026-04-18T10:37:48Z</time></trkpt><trkpt lat="43.76592457274731" lon="11.059527323020687"><ele>33.14285714285714</ele><time>2026-04-18T10:37:49Z</time></trkpt><trkpt lat="43.765857083250076" lon="11.059525537147586"><ele>33.285714285714285</ele><time>2026-04-18T10:37:50Z</time></trkpt><trkpt lat="43.765793856967555" lon="11.059517590908701"><ele>33.42857142857143</ele><time>2026-04-18T10:37:51Z</time></trkpt><trkpt lat="43.76572783918028" lon="11.059513225054292"><ele>33.57142857142857</ele><time>2026-04-18T10:37:52Z</time></trkpt><trkpt lat="43.76566208372683" lon="11.059503960805323"><ele>33.714285714285715</ele><time>2026-04-18T10:37:53Z</time></trkpt><trkpt lat="43.76559599674968" lon="11.059496530468698"><ele>33.857142857142854</ele><time>2026-04-18T10:37:54Z</time></trkpt><trkpt lat="43.76552985062215" lon="11.05948917448714"><ele>34.0</ele><time>2026-04-18T10:37:55Z</time></trkpt><trkpt lat="43.76546550822875" lon="11.059487280854352"><ele>34.0</ele><time>2026-04-18T10:37:56Z</time></trkpt><trkpt lat="43.76539958163526" lon="11.059484035814874"><ele>34.0</ele><time>2026-04-18T10:37:57Z</time></trkpt><trkpt lat="43.765333556389024" lon="11.059478759105339"><ele>34.0</ele><time>2026-04-18T10:37:58Z</time></trkpt><trkpt lat="43.765269800277586" lon="11.059481751218751"><ele>34.0</ele><time>2026-04-18T10:37:59Z</time></trkpt><trkpt lat="43.76514663040867" lon="11.05948098497245"><ele>34.0</ele><time>2026-04-18T10:38:01Z</time></trkpt><trkpt lat="43.76502558844277" lon="11.059498754455804"><ele>34.0</ele><time>2026-04-18T10:38:03Z</time></trkpt><trkpt lat="43.76496089806664" lon="11.059496161385333"><ele>34.2</ele><time>2026-04-18T10:38:04Z</time></trkpt><trkpt lat="43.76483652782596" lon="11.059514599317419"><ele>34.4</ele><time>2026-04-18T10:38:06Z</time></trkpt><trkpt lat="43.76471352636317" lon="11.059536978641011"><ele>34.6</ele><time>2026-04-18T10:38:08Z</time></trkpt><trkpt lat="43.764650914564434" lon="11.059551427940066"><ele>34.8</ele><time>2026-04-18T10:38:09Z</time></trkpt><trkpt lat="43.764527011655055" lon="11.059573337788454"><ele>35.0</ele><time>2026-04-18T10:38:11Z</time></trkpt><trkpt lat="43.764460465279086" lon="11.05958281909108"><ele>35.0</ele><time>2026-04-18T10:38:12Z</time></trkpt><trkpt lat="43.76439650341357" lon="11.059580103754321"><ele>35.0</ele><time>2026-04-18T10:38:13Z</time></trkpt><trkpt lat="43.76432817516609" lon="11.059572348367057"><ele>35.0</ele><time>2026-04-18T10:38:14Z</time></trkpt><trkpt lat="43.76426139371209" lon="11.059570635628997"><ele>35.0</ele><time>2026-04-18T10:38:15Z</time></trkpt><trkpt lat="43.76419562447703" lon="11.059579945193649"><ele>35.0</ele><time>2026-04-18T10:38:16Z</time></trkpt><trkpt lat="43.764119692230004" lon="11.059578492190143"><ele>35.0</ele><time>2026-04-18T10:38:17Z</time></trkpt><trkpt lat="43.76404095579936" lon="11.059593184823031"><ele>35.0</ele><time>2026-04-18T10:38:18Z</time></trkpt><trkpt lat="43.76396963821326" lon="11.059589683839263"><ele>35.0</ele><time>2026-04-18T10:38:19Z</time></trkpt><trkpt lat="43.76389397775272" lon="11.0596059732938"><ele>35.0</ele><time>2026-04-18T10:38:20Z</time></trkpt><trkpt lat="43.763819461218795" lon="11.059596712305055"><ele>35.0</ele><time>2026-04-18T10:38:21Z</time></trkpt><trkpt lat="43.76374784318737" lon="11.059603900067964"><ele>35.0</ele><time>2026-04-18T10:38:22Z</time></trkpt><trkpt lat="43.76367605201228" lon="11.059611844059503"><ele>35.0</ele><time>2026-04-18T10:38:23Z</time></trkpt><trkpt lat="43.763612264113505" lon="11.059617599426803"><ele>35.0</ele><time>2026-04-18T10:38:24Z</time></trkpt><trkpt lat="43.763540132436205" lon="11.059628258973271"><ele>35.0</ele><time>2026-04-18T10:38:25Z</time></trkpt><trkpt lat="43.76347413130322" lon="11.059634346081138"><ele>35.0</ele><time>2026-04-18T10:38:26Z</time></trkpt><trkpt lat="43.76340900701126" lon="11.05963779914852"><ele>35.0</ele><time>2026-04-18T10:38:27Z</time></trkpt><trkpt lat="43.76328810566836" lon="11.05965481274476"><ele>35.0</ele><time>2026-04-18T10:38:29Z</time></trkpt><trkpt lat="43.76322311824469" lon="11.059660125272787"><ele>35.0</ele><time>2026-04-18T10:38:30Z</time></trkpt><trkpt lat="43.763156202332866" lon="11.059667804931863"><ele>35.0</ele><time>2026-04-18T10:38:31Z</time></trkpt><trkpt lat="43.763092380803904" lon="11.059676824775009"><ele>35.0</ele><time>2026-04-18T10:38:32Z</time></trkpt><trkpt lat="43.76302936535329" lon="11.059687792830179"><ele>35.0</ele><time>2026-04-18T10:38:33Z</time></trkpt><trkpt lat="43.76296594331566" lon="11.059700148820207"><ele>35.0</ele><time>2026-04-18T10:38:34Z</time></trkpt><trkpt lat="43.76290062215236" lon="11.059714866873737"><ele>35.0</ele><time>2026-04-18T10:38:35Z</time></trkpt><trkpt lat="43.76277205073249" lon="11.059740103552691"><ele>35.0</ele><time>2026-04-18T10:38:37Z</time></trkpt><trkpt lat="43.76264601298513" lon="11.059753881934064"><ele>35.0</ele><time>2026-04-18T10:38:39Z</time></trkpt><trkpt lat="43.762519329548844" lon="11.059762281130508"><ele>35.0</ele><time>2026-04-18T10:38:41Z</time></trkpt><trkpt lat="43.76245314539188" lon="11.059756129026786"><ele>34.6</ele><time>2026-04-18T10:38:42Z</time></trkpt><trkpt lat="43.762342316531665" lon="11.059745619495462"><ele>34.2</ele><time>2026-04-18T10:38:44Z</time></trkpt><trkpt lat="43.7622353588381" lon="11.059710585119012"><ele>33.8</ele><time>2026-04-18T10:38:46Z</time></trkpt><trkpt lat="43.762140609173606" lon="11.059701677422492"><ele>33.4</ele><time>2026-04-18T10:38:48Z</time></trkpt><trkpt lat="43.762044014813995" lon="11.059682096177587"><ele>33.0</ele><time>2026-04-18T10:38:50Z</time></trkpt><trkpt lat="43.761942221186054" lon="11.0596580434717"><ele>33.199999999999996</ele><time>2026-04-18T10:38:52Z</time></trkpt><trkpt lat="43.76184298551296" lon="11.059637277272916"><ele>33.4</ele><time>2026-04-18T10:38:54Z</time></trkpt><trkpt lat="43.76173897744175" lon="11.059612717904999"><ele>33.599999999999994</ele><time>2026-04-18T10:38:56Z</time></trkpt><trkpt lat="43.76163439855528" lon="11.059584122756274"><ele>33.8</ele><time>2026-04-18T10:38:58Z</time></trkpt><trkpt lat="43.76152373043695" lon="11.059556497545072"><ele>34.0</ele><time>2026-04-18T10:39:00Z</time></trkpt><trkpt lat="43.76141053002576" lon="11.059526705899843"><ele>34.0</ele><time>2026-04-18T10:39:02Z</time></trkpt><trkpt lat="43.761289079971895" lon="11.059493942221609"><ele>34.0</ele><time>2026-04-18T10:39:04Z</time></trkpt><trkpt lat="43.761164868301265" lon="11.05946694945629"><ele>34.0</ele><time>2026-04-18T10:39:06Z</time></trkpt><trkpt lat="43.76110085922658" lon="11.059445033563549"><ele>34.0</ele><time>2026-04-18T10:39:07Z</time></trkpt><trkpt lat="43.76103900869032" lon="11.05941895512001"><ele>34.0</ele><time>2026-04-18T10:39:08Z</time></trkpt><trkpt lat="43.760978277051095" lon="11.059395253516113"><ele>34.0</ele><time>2026-04-18T10:39:09Z</time></trkpt><trkpt lat="43.760916148747484" lon="11.05937144778844"><ele>34.0</ele><time>2026-04-18T10:39:10Z</time></trkpt><trkpt lat="43.76085504023924" lon="11.059347887840014"><ele>34.0</ele><time>2026-04-18T10:39:11Z</time></trkpt><trkpt lat="43.760734394455255" lon="11.059300711580873"><ele>34.0</ele><time>2026-04-18T10:39:13Z</time></trkpt><trkpt lat="43.760616717474186" lon="11.059247733602387"><ele>34.0</ele><time>2026-04-18T10:39:15Z</time></trkpt><trkpt lat="43.760501978817736" lon="11.059196593514352"><ele>34.0</ele><time>2026-04-18T10:39:17Z</time></trkpt><trkpt lat="43.76038809421774" lon="11.059142123511341"><ele>33.75</ele><time>2026-04-18T10:39:19Z</time></trkpt><trkpt lat="43.760278851513846" lon="11.059081055803256"><ele>33.5</ele><time>2026-04-18T10:39:21Z</time></trkpt><trkpt lat="43.7601695112767" lon="11.059025899459433"><ele>33.25</ele><time>2026-04-18T10:39:23Z</time></trkpt><trkpt lat="43.7600597079989" lon="11.058971547812256"><ele>33.0</ele><time>2026-04-18T10:39:25Z</time></trkpt><trkpt lat="43.75994648543033" lon="11.058919315504095"><ele>33.0</ele><time>2026-04-18T10:39:27Z</time></trkpt><trkpt lat="43.759884595081886" lon="11.058887125628594"><ele>33.0</ele><time>2026-04-18T10:39:28Z</time></trkpt><trkpt lat="43.75977400456842" lon="11.058826195510413"><ele>33.0</ele><time>2026-04-18T10:39:30Z</time></trkpt><trkpt lat="43.75966026844189" lon="11.058772843964407"><ele>33.0</ele><time>2026-04-18T10:39:32Z</time></trkpt><trkpt lat="43.759546087634945" lon="11.058712987586919"><ele>33.0</ele><time>2026-04-18T10:39:34Z</time></trkpt><trkpt lat="43.75943839081591" lon="11.058636444993397"><ele>33.0</ele><time>2026-04-18T10:39:36Z</time></trkpt><trkpt lat="43.759381910729964" lon="11.058593509598731"><ele>33.0</ele><time>2026-04-18T10:39:37Z</time></trkpt><trkpt lat="43.759325200253635" lon="11.058550902552282"><ele>33.0</ele><time>2026-04-18T10:39:38Z</time></trkpt><trkpt lat="43.75922184871454" lon="11.05845579739887"><ele>33.0</ele><time>2026-04-18T10:39:40Z</time></trkpt><trkpt lat="43.75911795356423" lon="11.05835597883449"><ele>33.0</ele><time>2026-04-18T10:39:42Z</time></trkpt><trkpt lat="43.75907265691345" lon="11.058282985556316"><ele>33.0</ele><time>2026-04-18T10:39:43Z</time></trkpt><trkpt lat="43.758996615522264" lon="11.058153698535993"><ele>33.0</ele><time>2026-04-18T10:39:45Z</time></trkpt><trkpt lat="43.75893858811366" lon="11.05801925977152"><ele>33.0</ele><time>2026-04-18T10:39:47Z</time></trkpt><trkpt lat="43.75888851987784" lon="11.05787310565637"><ele>33.0</ele><time>2026-04-18T10:39:49Z</time></trkpt><trkpt lat="43.758840598390066" lon="11.057735555601651"><ele>33.0</ele><time>2026-04-18T10:39:51Z</time></trkpt><trkpt lat="43.758797273373794" lon="11.057600170286955"><ele>33.0</ele><time>2026-04-18T10:39:53Z</time></trkpt><trkpt lat="43.758746123922144" lon="11.057455972543295"><ele>32.6</ele><time>2026-04-18T10:39:55Z</time></trkpt><trkpt lat="43.75870271620386" lon="11.05730068248104"><ele>32.199999999999996</ele><time>2026-04-18T10:39:57Z</time></trkpt><trkpt lat="43.7586489536354" lon="11.057173236247213"><ele>31.8</ele><time>2026-04-18T10:39:59Z</time></trkpt><trkpt lat="43.75859634422673" lon="11.057041384829468"><ele>31.4</ele><time>2026-04-18T10:40:01Z</time></trkpt><trkpt lat="43.75854601124884" lon="11.056903551614305"><ele>31.0</ele><time>2026-04-18T10:40:03Z</time></trkpt><trkpt lat="43.75849839869023" lon="11.056763351270211"><ele>32.8</ele><time>2026-04-18T10:40:05Z</time></trkpt><trkpt lat="43.75844600943328" lon="11.056631989547823"><ele>34.6</ele><time>2026-04-18T10:40:07Z</time></trkpt><trkpt lat="43.758390269748844" lon="11.05650313647294"><ele>36.4</ele><time>2026-04-18T10:40:09Z</time></trkpt><trkpt lat="43.75833055585946" lon="11.056379501821397"><ele>38.2</ele><time>2026-04-18T10:40:11Z</time></trkpt><trkpt lat="43.75827331473844" lon="11.056256099548605"><ele>40.0</ele><time>2026-04-18T10:40:13Z</time></trkpt><trkpt lat="43.75822271070068" lon="11.056120328957775"><ele>40.0</ele><time>2026-04-18T10:40:15Z</time></trkpt><trkpt lat="43.758168541283965" lon="11.05599009999413"><ele>40.0</ele><time>2026-04-18T10:40:17Z</time></trkpt><trkpt lat="43.75813123093664" lon="11.05584505145681"><ele>40.0</ele><time>2026-04-18T10:40:19Z</time></trkpt><trkpt lat="43.75809986094867" lon="11.055707301758371"><ele>40.0</ele><time>2026-04-18T10:40:21Z</time></trkpt><trkpt lat="43.75807710758636" lon="11.055562901799012"><ele>40.0</ele><time>2026-04-18T10:40:23Z</time></trkpt><trkpt lat="43.75805429696266" lon="11.055422922537211"><ele>39.2</ele><time>2026-04-18T10:40:25Z</time></trkpt><trkpt lat="43.75802375976408" lon="11.055289059956706"><ele>38.4</ele><time>2026-04-18T10:40:27Z</time></trkpt><trkpt lat="43.758000554797796" lon="11.055148134207704"><ele>37.6</ele><time>2026-04-18T10:40:29Z</time></trkpt><trkpt lat="43.757978804300976" lon="11.054999408322963"><ele>36.8</ele><time>2026-04-18T10:40:31Z</time></trkpt><trkpt lat="43.75796087719499" lon="11.054841279145874"><ele>36.0</ele><time>2026-04-18T10:40:33Z</time></trkpt><trkpt lat="43.75795184356556" lon="11.054678878900603"><ele>36.0</ele><time>2026-04-18T10:40:35Z</time></trkpt><trkpt lat="43.7579574800447" lon="11.05451062810316"><ele>36.0</ele><time>2026-04-18T10:40:37Z</time></trkpt><trkpt lat="43.75796823973836" lon="11.054419298314428"><ele>36.0</ele><time>2026-04-18T10:40:38Z</time></trkpt><trkpt lat="43.75799304772468" lon="11.054258917613218"><ele>36.0</ele><time>2026-04-18T10:40:40Z</time></trkpt><trkpt lat="43.758029235349525" lon="11.054100146365952"><ele>36.0</ele><time>2026-04-18T10:40:42Z</time></trkpt><trkpt lat="43.75804665869998" lon="11.054015482286571"><ele>38.0</ele><time>2026-04-18T10:40:43Z</time></trkpt><trkpt lat="43.75806927923693" lon="11.053933192885117"><ele>40.0</ele><time>2026-04-18T10:40:44Z</time></trkpt><trkpt lat="43.7580951452351" lon="11.053853266725977"><ele>42.0</ele><time>2026-04-18T10:40:45Z</time></trkpt><trkpt lat="43.758149037924525" lon="11.05370079677473"><ele>44.0</ele><time>2026-04-18T10:40:47Z</time></trkpt><trkpt lat="43.758202493491254" lon="11.053551125839281"><ele>46.0</ele><time>2026-04-18T10:40:49Z</time></trkpt><trkpt lat="43.75824198498541" lon="11.053391470207837"><ele>48.5</ele><time>2026-04-18T10:40:51Z</time></trkpt><trkpt lat="43.75826953623783" lon="11.05322903853408"><ele>51.0</ele><time>2026-04-18T10:40:53Z</time></trkpt><trkpt lat="43.758303165954494" lon="11.053066518981842"><ele>53.5</ele><time>2026-04-18T10:40:55Z</time></trkpt><trkpt lat="43.75833320210323" lon="11.052908773086358"><ele>56.0</ele><time>2026-04-18T10:40:57Z</time></trkpt><trkpt lat="43.75836493928005" lon="11.052752339922252"><ele>56.0</ele><time>2026-04-18T10:40:59Z</time></trkpt><trkpt lat="43.75839592550838" lon="11.052601696714687"><ele>55.99999999999999</ele><time>2026-04-18T10:41:01Z</time></trkpt><trkpt lat="43.75840881760248" lon="11.052447006721597"><ele>55.99999999999999</ele><time>2026-04-18T10:41:03Z</time></trkpt><trkpt lat="43.75844653452471" lon="11.05230313669445"><ele>56.0</ele><time>2026-04-18T10:41:05Z</time></trkpt><trkpt lat="43.758491091847176" lon="11.052169159359844"><ele>56.0</ele><time>2026-04-18T10:41:07Z</time></trkpt><trkpt lat="43.7585480504388" lon="11.05202649374579"><ele>54.0</ele><time>2026-04-18T10:41:09Z</time></trkpt><trkpt lat="43.75858973615604" lon="11.051892932194734"><ele>51.99999999999999</ele><time>2026-04-18T10:41:11Z</time></trkpt><trkpt lat="43.75864097059256" lon="11.051756341192876"><ele>50.0</ele><time>2026-04-18T10:41:13Z</time></trkpt><trkpt lat="43.758694663625455" lon="11.051622728157138"><ele>48.0</ele><time>2026-04-18T10:41:15Z</time></trkpt><trkpt lat="43.7587458962921" lon="11.051486161099128"><ele>46.0</ele><time>2026-04-18T10:41:17Z</time></trkpt><trkpt lat="43.75880489149789" lon="11.051346479496278"><ele>46.0</ele><time>2026-04-18T10:41:19Z</time></trkpt><trkpt lat="43.7588748521005" lon="11.051223012610492"><ele>46.0</ele><time>2026-04-18T10:41:21Z</time></trkpt><trkpt lat="43.75894705797449" lon="11.05108463179915"><ele>46.0</ele><time>2026-04-18T10:41:23Z</time></trkpt><trkpt lat="43.75901370849511" lon="11.050939466019846"><ele>46.0</ele><time>2026-04-18T10:41:25Z</time></trkpt><trkpt lat="43.75908761516581" lon="11.050803064617455"><ele>43.4</ele><time>2026-04-18T10:41:27Z</time></trkpt><trkpt lat="43.75915811373357" lon="11.050663414092504"><ele>40.8</ele><time>2026-04-18T10:41:29Z</time></trkpt><trkpt lat="43.75918719557243" lon="11.050585947828006"><ele>38.199999999999996</ele><time>2026-04-18T10:41:30Z</time></trkpt><trkpt lat="43.75925301962917" lon="11.050456955756674"><ele>35.599999999999994</ele><time>2026-04-18T10:41:32Z</time></trkpt><trkpt lat="43.75931480130222" lon="11.050327529477542"><ele>33.0</ele><time>2026-04-18T10:41:34Z</time></trkpt><trkpt lat="43.75938320998706" lon="11.050202569184847"><ele>33.0</ele><time>2026-04-18T10:41:36Z</time></trkpt><trkpt lat="43.75943923678876" lon="11.050062179593205"><ele>33.0</ele><time>2026-04-18T10:41:38Z</time></trkpt><trkpt lat="43.759508249719" lon="11.049927998323595"><ele>33.0</ele><time>2026-04-18T10:41:40Z</time></trkpt><trkpt lat="43.75957332501678" lon="11.049786114766292"><ele>33.0</ele><time>2026-04-18T10:41:42Z</time></trkpt><trkpt lat="43.75963070804393" lon="11.04964123343954"><ele>34.5</ele><time>2026-04-18T10:41:44Z</time></trkpt><trkpt lat="43.75968145913193" lon="11.04949214110759"><ele>36.0</ele><time>2026-04-18T10:41:46Z</time></trkpt><trkpt lat="43.759742302020015" lon="11.04934747563435"><ele>37.5</ele><time>2026-04-18T10:41:48Z</time></trkpt><trkpt lat="43.759806600504774" lon="11.049207644739422"><ele>39.0</ele><time>2026-04-18T10:41:50Z</time></trkpt><trkpt lat="43.75987728596413" lon="11.049080263875426"><ele>42.0</ele><time>2026-04-18T10:41:52Z</time></trkpt><trkpt lat="43.75992832945834" lon="11.048955260245313"><ele>45.0</ele><time>2026-04-18T10:41:54Z</time></trkpt><trkpt lat="43.759989033196064" lon="11.048844907026261"><ele>48.00000000000001</ele><time>2026-04-18T10:41:56Z</time></trkpt><trkpt lat="43.76005567747245" lon="11.048736788161488"><ele>51.0</ele><time>2026-04-18T10:41:58Z</time></trkpt><trkpt lat="43.7601185418908" lon="11.048626507345599"><ele>54.0</ele><time>2026-04-18T10:42:00Z</time></trkpt><trkpt lat="43.76017942964136" lon="11.048516720994401"><ele>53.0</ele><time>2026-04-18T10:42:02Z</time></trkpt><trkpt lat="43.76023219105397" lon="11.048403558470007"><ele>52.00000000000001</ele><time>2026-04-18T10:42:04Z</time></trkpt><trkpt lat="43.760290786523186" lon="11.048284808407876"><ele>51.0</ele><time>2026-04-18T10:42:06Z</time></trkpt><trkpt lat="43.76035631010465" lon="11.04816530874748"><ele>50.0</ele><time>2026-04-18T10:42:08Z</time></trkpt><trkpt lat="43.76043214491748" lon="11.048042793368017"><ele>49.0</ele><time>2026-04-18T10:42:10Z</time></trkpt><trkpt lat="43.76051513710534" lon="11.047926409913766"><ele>49.0</ele><time>2026-04-18T10:42:12Z</time></trkpt><trkpt lat="43.76056687870588" lon="11.047876150463996"><ele>49.0</ele><time>2026-04-18T10:42:13Z</time></trkpt><trkpt lat="43.7606712568503" lon="11.047779491566036"><ele>49.0</ele><time>2026-04-18T10:42:15Z</time></trkpt><trkpt lat="43.760782301867366" lon="11.047711283581256"><ele>49.0</ele><time>2026-04-18T10:42:17Z</time></trkpt><trkpt lat="43.760889747003866" lon="11.047650108335768"><ele>49.0</ele><time>2026-04-18T10:42:19Z</time></trkpt><trkpt lat="43.760995279551544" lon="11.047600987569684"><ele>47.0</ele><time>2026-04-18T10:42:21Z</time></trkpt><trkpt lat="43.761094684400746" lon="11.047544268610821"><ele>45.0</ele><time>2026-04-18T10:42:23Z</time></trkpt><trkpt lat="43.76119942258103" lon="11.047490948107292"><ele>43.0</ele><time>2026-04-18T10:42:25Z</time></trkpt><trkpt lat="43.76130597490513" lon="11.047443972374984"><ele>41.0</ele><time>2026-04-18T10:42:27Z</time></trkpt><trkpt lat="43.76140555203519" lon="11.047383040685036"><ele>39.0</ele><time>2026-04-18T10:42:29Z</time></trkpt><trkpt lat="43.76150491842052" lon="11.047309687866303"><ele>40.25</ele><time>2026-04-18T10:42:31Z</time></trkpt><trkpt lat="43.76160231128054" lon="11.047219355122328"><ele>41.5</ele><time>2026-04-18T10:42:33Z</time></trkpt><trkpt lat="43.761698015909126" lon="11.04713806271446"><ele>42.75</ele><time>2026-04-18T10:42:35Z</time></trkpt><trkpt lat="43.7617988521792" lon="11.047052988343644"><ele>44.0</ele><time>2026-04-18T10:42:37Z</time></trkpt><trkpt lat="43.76190132915146" lon="11.046974439977221"><ele>44.0</ele><time>2026-04-18T10:42:39Z</time></trkpt><trkpt lat="43.76199859508044" lon="11.046890069629775"><ele>44.0</ele><time>2026-04-18T10:42:41Z</time></trkpt><trkpt lat="43.76210888648363" lon="11.046815739854498"><ele>44.0</ele><time>2026-04-18T10:42:43Z</time></trkpt><trkpt lat="43.76221451987035" lon="11.046738326199213"><ele>44.0</ele><time>2026-04-18T10:42:45Z</time></trkpt><trkpt lat="43.76232594434208" lon="11.046661354728116"><ele>45.33333333333333</ele><time>2026-04-18T10:42:47Z</time></trkpt><trkpt lat="43.762432965572316" lon="11.04657824908993"><ele>46.666666666666664</ele><time>2026-04-18T10:42:49Z</time></trkpt><trkpt lat="43.76254420261438" lon="11.04649767371276"><ele>48.0</ele><time>2026-04-18T10:42:51Z</time></trkpt><trkpt lat="43.762601049172105" lon="11.04646019488808"><ele>49.33333333333333</ele><time>2026-04-18T10:42:52Z</time></trkpt><trkpt lat="43.76265900219339" lon="11.046421074447316"><ele>50.666666666666664</ele><time>2026-04-18T10:42:53Z</time></trkpt><trkpt lat="43.76271345354334" lon="11.04637286110255"><ele>52.0</ele><time>2026-04-18T10:42:54Z</time></trkpt><trkpt lat="43.762823497860325" lon="11.046324589398196"><ele>52.0</ele><time>2026-04-18T10:42:56Z</time></trkpt><trkpt lat="43.76288802838263" lon="11.046300645726548"><ele>52.0</ele><time>2026-04-18T10:42:57Z</time></trkpt><trkpt lat="43.76295283139854" lon="11.04628902591218"><ele>52.0</ele><time>2026-04-18T10:42:58Z</time></trkpt><trkpt lat="43.76301848460375" lon="11.046276146865988"><ele>52.0</ele><time>2026-04-18T10:42:59Z</time></trkpt><trkpt lat="43.76308623555955" lon="11.046257890204583"><ele>52.0</ele><time>2026-04-18T10:43:00Z</time></trkpt><trkpt lat="43.76315446306412" lon="11.0462331026322"><ele>52.0</ele><time>2026-04-18T10:43:01Z</time></trkpt><trkpt lat="43.76322158147785" lon="11.046206207202614"><ele>52.0</ele><time>2026-04-18T10:43:02Z</time></trkpt><trkpt lat="43.763288977750975" lon="11.046169734800403"><ele>52.0</ele><time>2026-04-18T10:43:03Z</time></trkpt><trkpt lat="43.76335082657179" lon="11.046121827251877"><ele>52.0</ele><time>2026-04-18T10:43:04Z</time></trkpt><trkpt lat="43.763414317687946" lon="11.046075252584973"><ele>52.0</ele><time>2026-04-18T10:43:05Z</time></trkpt><trkpt lat="43.763477013111036" lon="11.04602968788367"><ele>52.0</ele><time>2026-04-18T10:43:06Z</time></trkpt><trkpt lat="43.763534454830946" lon="11.045979629272779"><ele>52.0</ele><time>2026-04-18T10:43:07Z</time></trkpt><trkpt lat="43.76358939383269" lon="11.045926571927948"><ele>52.0</ele><time>2026-04-18T10:43:08Z</time></trkpt><trkpt lat="43.76364320430612" lon="11.04587426219111"><ele>52.0</ele><time>2026-04-18T10:43:09Z</time></trkpt><trkpt lat="43.76369543202247" lon="11.045821761070222"><ele>50.666666666666664</ele><time>2026-04-18T10:43:10Z</time></trkpt><trkpt lat="43.763793178337814" lon="11.045719536152408"><ele>49.33333333333333</ele><time>2026-04-18T10:43:12Z</time></trkpt><trkpt lat="43.763884331699124" lon="11.045603136615329"><ele>48.0</ele><time>2026-04-18T10:43:14Z</time></trkpt><trkpt lat="43.76392946733202" lon="11.045540869934836"><ele>46.666666666666664</ele><time>2026-04-18T10:43:15Z</time></trkpt><trkpt lat="43.76397778976787" lon="11.045481663093032"><ele>45.33333333333333</ele><time>2026-04-18T10:43:16Z</time></trkpt><trkpt lat="43.764030120187805" lon="11.0454276832235"><ele>44.0</ele><time>2026-04-18T10:43:17Z</time></trkpt><trkpt lat="43.76411971002308" lon="11.045304321152258"><ele>44.0</ele><time>2026-04-18T10:43:19Z</time></trkpt><trkpt lat="43.764164162671825" lon="11.045240605275737"><ele>44.0</ele><time>2026-04-18T10:43:20Z</time></trkpt><trkpt lat="43.7642101943065" lon="11.045175344518352"><ele>44.0</ele><time>2026-04-18T10:43:21Z</time></trkpt><trkpt lat="43.76425766790941" lon="11.045113440102897"><ele>44.0</ele><time>2026-04-18T10:43:22Z</time></trkpt><trkpt lat="43.7643062623072" lon="11.045052571386453"><ele>44.0</ele><time>2026-04-18T10:43:23Z</time></trkpt><trkpt lat="43.764353146752484" lon="11.044991243310923"><ele>44.0</ele><time>2026-04-18T10:43:24Z</time></trkpt><trkpt lat="43.764396077952036" lon="11.04492643940728"><ele>44.0</ele><time>2026-04-18T10:43:25Z</time></trkpt><trkpt lat="43.76448559774829" lon="11.04480591378142"><ele>42.25</ele><time>2026-04-18T10:43:27Z</time></trkpt><trkpt lat="43.76457255451971" lon="11.044682395432691"><ele>40.5</ele><time>2026-04-18T10:43:29Z</time></trkpt><trkpt lat="43.764656420463915" lon="11.044561535217543"><ele>38.75</ele><time>2026-04-18T10:43:31Z</time></trkpt><trkpt lat="43.76473595462436" lon="11.044448316210937"><ele>37.0</ele><time>2026-04-18T10:43:33Z</time></trkpt><trkpt lat="43.76480973586635" lon="11.044320891410903"><ele>37.0</ele><time>2026-04-18T10:43:35Z</time></trkpt><trkpt lat="43.7648439821209" lon="11.044245480456096"><ele>37.0</ele><time>2026-04-18T10:43:36Z</time></trkpt><trkpt lat="43.764876513491004" lon="11.044161684497807"><ele>37.0</ele><time>2026-04-18T10:43:37Z</time></trkpt><trkpt lat="43.76490919171661" lon="11.044075178648397"><ele>37.0</ele><time>2026-04-18T10:43:38Z</time></trkpt><trkpt lat="43.764934652696134" lon="11.043977247883747"><ele>37.0</ele><time>2026-04-18T10:43:39Z</time></trkpt><trkpt lat="43.76496582381577" lon="11.043881780572294"><ele>37.0</ele><time>2026-04-18T10:43:40Z</time></trkpt><trkpt lat="43.76499794788294" lon="11.043782432956029"><ele>37.0</ele><time>2026-04-18T10:43:41Z</time></trkpt><trkpt lat="43.76503233325498" lon="11.043680946322686"><ele>37.0</ele><time>2026-04-18T10:43:42Z</time></trkpt><trkpt lat="43.76506553514604" lon="11.04357597641356"><ele>37.0</ele><time>2026-04-18T10:43:43Z</time></trkpt><trkpt lat="43.76510113518977" lon="11.043468828957142"><ele>37.0</ele><time>2026-04-18T10:43:44Z</time></trkpt><trkpt lat="43.76513758323581" lon="11.043364521613922"><ele>37.0</ele><time>2026-04-18T10:43:45Z</time></trkpt><trkpt lat="43.76517056724391" lon="11.043257965570564"><ele>37.0</ele><time>2026-04-18T10:43:46Z</time></trkpt><trkpt lat="43.76520177112257" lon="11.043150075382117"><ele>37.0</ele><time>2026-04-18T10:43:47Z</time></trkpt><trkpt lat="43.76523492279009" lon="11.043043289218778"><ele>36.5</ele><time>2026-04-18T10:43:48Z</time></trkpt><trkpt lat="43.76526738821131" lon="11.042940900511912"><ele>36.0</ele><time>2026-04-18T10:43:49Z</time></trkpt><trkpt lat="43.765302586011266" lon="11.042835827496438"><ele>35.5</ele><time>2026-04-18T10:43:50Z</time></trkpt><trkpt lat="43.765335332646444" lon="11.04273306746907"><ele>35.0</ele><time>2026-04-18T10:43:51Z</time></trkpt><trkpt lat="43.76535983837008" lon="11.042626231151045"><ele>34.5</ele><time>2026-04-18T10:43:52Z</time></trkpt><trkpt lat="43.76538347981604" lon="11.042522705569793"><ele>34.0</ele><time>2026-04-18T10:43:53Z</time></trkpt><trkpt lat="43.76541268613047" lon="11.042423618249357"><ele>33.99999999999999</ele><time>2026-04-18T10:43:54Z</time></trkpt><trkpt lat="43.76544084009358" lon="11.042325182632842"><ele>34.0</ele><time>2026-04-18T10:43:55Z</time></trkpt><trkpt lat="43.76546434398139" lon="11.042227428280759"><ele>34.0</ele><time>2026-04-18T10:43:56Z</time></trkpt><trkpt lat="43.765488310923665" lon="11.042132249855511"><ele>34.0</ele><time>2026-04-18T10:43:57Z</time></trkpt><trkpt lat="43.76551236656332" lon="11.04203773691555"><ele>34.0</ele><time>2026-04-18T10:43:58Z</time></trkpt><trkpt lat="43.76553576320659" lon="11.041946054233124"><ele>33.99999999999999</ele><time>2026-04-18T10:43:59Z</time></trkpt><trkpt lat="43.765560210839894" lon="11.041857074849037"><ele>34.0</ele><time>2026-04-18T10:44:00Z</time></trkpt><trkpt lat="43.765583129437026" lon="11.041768346460975"><ele>33.99999999999999</ele><time>2026-04-18T10:44:01Z</time></trkpt><trkpt lat="43.765603908757" lon="11.04167537663172"><ele>34.0</ele><time>2026-04-18T10:44:02Z</time></trkpt><trkpt lat="43.765630075611156" lon="11.04158650873895"><ele>34.0</ele><time>2026-04-18T10:44:03Z</time></trkpt><trkpt lat="43.765654186747526" lon="11.041494556359737"><ele>34.0</ele><time>2026-04-18T10:44:04Z</time></trkpt><trkpt lat="43.76567284259909" lon="11.041404999284062"><ele>34.0</ele><time>2026-04-18T10:44:05Z</time></trkpt><trkpt lat="43.76569032077911" lon="11.041317224461451"><ele>33.99999999999999</ele><time>2026-04-18T10:44:06Z</time></trkpt><trkpt lat="43.765702956596925" lon="11.041230394927567"><ele>34.0</ele><time>2026-04-18T10:44:07Z</time></trkpt><trkpt lat="43.765714741927006" lon="11.041142002928458"><ele>34.16666666666667</ele><time>2026-04-18T10:44:08Z</time></trkpt><trkpt lat="43.76572742625968" lon="11.041052856062507"><ele>34.333333333333336</ele><time>2026-04-18T10:44:09Z</time></trkpt><trkpt lat="43.765740868904174" lon="11.040966259273187"><ele>34.5</ele><time>2026-04-18T10:44:10Z</time></trkpt><trkpt lat="43.76574863424625" lon="11.040876573916112"><ele>34.666666666666664</ele><time>2026-04-18T10:44:11Z</time></trkpt><trkpt lat="43.765773256470695" lon="11.040699185570007"><ele>34.83333333333333</ele><time>2026-04-18T10:44:13Z</time></trkpt><trkpt lat="43.76578492433018" lon="11.040612912193946"><ele>35.0</ele><time>2026-04-18T10:44:14Z</time></trkpt><trkpt lat="43.765790260813056" lon="11.040520686583271"><ele>35.0</ele><time>2026-04-18T10:44:15Z</time></trkpt><trkpt lat="43.765797534557485" lon="11.040432573240407"><ele>35.0</ele><time>2026-04-18T10:44:16Z</time></trkpt><trkpt lat="43.76580475209645" lon="11.040342325173771"><ele>35.0</ele><time>2026-04-18T10:44:17Z</time></trkpt><trkpt lat="43.76581065283767" lon="11.04025225144571"><ele>35.0</ele><time>2026-04-18T10:44:18Z</time></trkpt><trkpt lat="43.76581735548574" lon="11.040163106947148"><ele>35.0</ele><time>2026-04-18T10:44:19Z</time></trkpt><trkpt lat="43.765824055188226" lon="11.040074856098517"><ele>35.0</ele><time>2026-04-18T10:44:20Z</time></trkpt><trkpt lat="43.76582918148534" lon="11.039985266912941"><ele>35.0</ele><time>2026-04-18T10:44:21Z</time></trkpt><trkpt lat="43.765835993463824" lon="11.03980719367317"><ele>35.0</ele><time>2026-04-18T10:44:23Z</time></trkpt><trkpt lat="43.76584105785011" lon="11.03971891781863"><ele>35.0</ele><time>2026-04-18T10:44:24Z</time></trkpt><trkpt lat="43.76584609577646" lon="11.039628328909853"><ele>35.0</ele><time>2026-04-18T10:44:25Z</time></trkpt><trkpt lat="43.765849355584876" lon="11.039538445233859"><ele>35.0</ele><time>2026-04-18T10:44:26Z</time></trkpt><trkpt lat="43.76585194205625" lon="11.039448218553161"><ele>35.0</ele><time>2026-04-18T10:44:27Z</time></trkpt><trkpt lat="43.76585178207367" lon="11.039358912808309"><ele>35.0</ele><time>2026-04-18T10:44:28Z</time></trkpt><trkpt lat="43.76585111345486" lon="11.039271080233782"><ele>35.0</ele><time>2026-04-18T10:44:29Z</time></trkpt><trkpt lat="43.765853045357765" lon="11.039097015457193"><ele>34.8</ele><time>2026-04-18T10:44:31Z</time></trkpt><trkpt lat="43.765853810968174" lon="11.039006793259889"><ele>34.6</ele><time>2026-04-18T10:44:32Z</time></trkpt><trkpt lat="43.76584456644308" lon="11.038833495342118"><ele>34.4</ele><time>2026-04-18T10:44:34Z</time></trkpt><trkpt lat="43.765826510667075" lon="11.038656909420398"><ele>34.2</ele><time>2026-04-18T10:44:36Z</time></trkpt><trkpt lat="43.76581269115443" lon="11.03856621227751"><ele>34.0</ele><time>2026-04-18T10:44:37Z</time></trkpt><trkpt lat="43.76579683489371" lon="11.038475304540524"><ele>34.0</ele><time>2026-04-18T10:44:38Z</time></trkpt><trkpt lat="43.76577836987883" lon="11.03838713303703"><ele>34.0</ele><time>2026-04-18T10:44:39Z</time></trkpt><trkpt lat="43.765761711190464" lon="11.038300427288341"><ele>34.0</ele><time>2026-04-18T10:44:40Z</time></trkpt><trkpt lat="43.76574377922472" lon="11.038213287718966"><ele>34.0</ele><time>2026-04-18T10:44:41Z</time></trkpt><trkpt lat="43.76572973344932" lon="11.038122636981136"><ele>34.0</ele><time>2026-04-18T10:44:42Z</time></trkpt><trkpt lat="43.765705528665386" lon="11.037948760787735"><ele>34.0</ele><time>2026-04-18T10:44:44Z</time></trkpt><trkpt lat="43.76568522703314" lon="11.037859882132189"><ele>33.833333333333336</ele><time>2026-04-18T10:44:45Z</time></trkpt><trkpt lat="43.76566445316576" lon="11.037774505363103"><ele>33.66666666666667</ele><time>2026-04-18T10:44:46Z</time></trkpt><trkpt lat="43.76565196084314" lon="11.037688883280767"><ele>33.5</ele><time>2026-04-18T10:44:47Z</time></trkpt><trkpt lat="43.76561713685179" lon="11.037524393469049"><ele>33.333333333333336</ele><time>2026-04-18T10:44:49Z</time></trkpt><trkpt lat="43.76560458746466" lon="11.03743776340319"><ele>33.166666666666664</ele><time>2026-04-18T10:44:50Z</time></trkpt><trkpt lat="43.76557935715698" lon="11.037274347586036"><ele>33.0</ele><time>2026-04-18T10:44:52Z</time></trkpt><trkpt lat="43.76555180189122" lon="11.037109251271042"><ele>33.0</ele><time>2026-04-18T10:44:54Z</time></trkpt><trkpt lat="43.76552340013621" lon="11.036944246044554"><ele>33.0</ele><time>2026-04-18T10:44:56Z</time></trkpt><trkpt lat="43.765492875522895" lon="11.036777494679319"><ele>33.0</ele><time>2026-04-18T10:44:58Z</time></trkpt><trkpt lat="43.76546278463187" lon="11.036615723289822"><ele>33.0</ele><time>2026-04-18T10:45:00Z</time></trkpt><trkpt lat="43.76543279790925" lon="11.036452853688912"><ele>33.0</ele><time>2026-04-18T10:45:02Z</time></trkpt><trkpt lat="43.76540079266636" lon="11.03629272901555"><ele>33.0</ele><time>2026-04-18T10:45:04Z</time></trkpt><trkpt lat="43.765365268732" lon="11.036132322287783"><ele>33.0</ele><time>2026-04-18T10:45:06Z</time></trkpt><trkpt lat="43.765339010346224" lon="11.03596785306318"><ele>33.0</ele><time>2026-04-18T10:45:08Z</time></trkpt><trkpt lat="43.765309103361254" lon="11.035806766014007"><ele>33.0</ele><time>2026-04-18T10:45:10Z</time></trkpt><trkpt lat="43.76528203516171" lon="11.035641352818292"><ele>33.0</ele><time>2026-04-18T10:45:12Z</time></trkpt><trkpt lat="43.76524533986677" lon="11.03547825911934"><ele>33.0</ele><time>2026-04-18T10:45:14Z</time></trkpt><trkpt lat="43.76521405170002" lon="11.035313143702146"><ele>33.0</ele><time>2026-04-18T10:45:16Z</time></trkpt><trkpt lat="43.765177301277745" lon="11.035153122724166"><ele>33.0</ele><time>2026-04-18T10:45:18Z</time></trkpt><trkpt lat="43.76514457590437" lon="11.034996115248902"><ele>33.0</ele><time>2026-04-18T10:45:20Z</time></trkpt><trkpt lat="43.765110573240996" lon="11.034847705373771"><ele>33.0</ele><time>2026-04-18T10:45:22Z</time></trkpt><trkpt lat="43.7650827582679" lon="11.034695343063804"><ele>33.0</ele><time>2026-04-18T10:45:24Z</time></trkpt><trkpt lat="43.76505379756607" lon="11.034546362622455"><ele>33.0</ele><time>2026-04-18T10:45:26Z</time></trkpt><trkpt lat="43.7650248497206" lon="11.034395411057904"><ele>33.0</ele><time>2026-04-18T10:45:28Z</time></trkpt><trkpt lat="43.764994049072584" lon="11.034246123314224"><ele>33.0</ele><time>2026-04-18T10:45:30Z</time></trkpt><trkpt lat="43.76496329349242" lon="11.034091703940094"><ele>33.0</ele><time>2026-04-18T10:45:32Z</time></trkpt><trkpt lat="43.76493069706489" lon="11.03393266178268"><ele>33.0</ele><time>2026-04-18T10:45:34Z</time></trkpt><trkpt lat="43.76489050278836" lon="11.033770159486945"><ele>33.0</ele><time>2026-04-18T10:45:36Z</time></trkpt><trkpt lat="43.76486901330419" lon="11.033686155634017"><ele>33.0</ele><time>2026-04-18T10:45:37Z</time></trkpt><trkpt lat="43.76484765454919" lon="11.033602300951918"><ele>33.0</ele><time>2026-04-18T10:45:38Z</time></trkpt><trkpt lat="43.76481608430048" lon="11.033519984973735"><ele>33.0</ele><time>2026-04-18T10:45:39Z</time></trkpt><trkpt lat="43.76478683385536" lon="11.033435571917598"><ele>33.0</ele><time>2026-04-18T10:45:40Z</time></trkpt><trkpt lat="43.76475052185859" lon="11.033353047216504"><ele>33.285714285714285</ele><time>2026-04-18T10:45:41Z</time></trkpt><trkpt lat="43.76471046436654" lon="11.033275830495443"><ele>33.57142857142857</ele><time>2026-04-18T10:45:42Z</time></trkpt><trkpt lat="43.76467065562273" lon="11.033200457558843"><ele>33.85714285714286</ele><time>2026-04-18T10:45:43Z</time></trkpt><trkpt lat="43.76463203799094" lon="11.033118663133639"><ele>34.14285714285714</ele><time>2026-04-18T10:45:44Z</time></trkpt><trkpt lat="43.764595726095834" lon="11.033046412226822"><ele>34.42857142857143</ele><time>2026-04-18T10:45:45Z</time></trkpt><trkpt lat="43.764556532060915" lon="11.032973294137344"><ele>34.714285714285715</ele><time>2026-04-18T10:45:46Z</time></trkpt><trkpt lat="43.76451615653247" lon="11.032904296869456"><ele>35.0</ele><time>2026-04-18T10:45:47Z</time></trkpt><trkpt lat="43.76447660956081" lon="11.03283173032761"><ele>35.0</ele><time>2026-04-18T10:45:48Z</time></trkpt><trkpt lat="43.764401482249255" lon="11.032691531568176"><ele>35.0</ele><time>2026-04-18T10:45:50Z</time></trkpt><trkpt lat="43.76436437387824" lon="11.032615807623753"><ele>35.0</ele><time>2026-04-18T10:45:51Z</time></trkpt><trkpt lat="43.76432211151948" lon="11.032541896837204"><ele>35.0</ele><time>2026-04-18T10:45:52Z</time></trkpt><trkpt lat="43.76428280279893" lon="11.032465413891934"><ele>35.0</ele><time>2026-04-18T10:45:53Z</time></trkpt><trkpt lat="43.7642048812431" lon="11.03232477680398"><ele>35.0</ele><time>2026-04-18T10:45:55Z</time></trkpt><trkpt lat="43.76416404723794" lon="11.032252066105528"><ele>35.0</ele><time>2026-04-18T10:45:56Z</time></trkpt><trkpt lat="43.764123790449766" lon="11.032181286913012"><ele>35.0</ele><time>2026-04-18T10:45:57Z</time></trkpt><trkpt lat="43.76408610323903" lon="11.032109153489976"><ele>35.0</ele><time>2026-04-18T10:45:58Z</time></trkpt><trkpt lat="43.764046001733675" lon="11.032036998480962"><ele>35.0</ele><time>2026-04-18T10:45:59Z</time></trkpt><trkpt lat="43.76400239777971" lon="11.031972838097639"><ele>35.0</ele><time>2026-04-18T10:46:00Z</time></trkpt><trkpt lat="43.76395830904428" lon="11.031906727884243"><ele>35.0</ele><time>2026-04-18T10:46:01Z</time></trkpt><trkpt lat="43.76386913356567" lon="11.031781661456119"><ele>35.0</ele><time>2026-04-18T10:46:03Z</time></trkpt><trkpt lat="43.76382471089989" lon="11.031716747313013"><ele>35.0</ele><time>2026-04-18T10:46:04Z</time></trkpt><trkpt lat="43.76377872976886" lon="11.031652546511342"><ele>35.0</ele><time>2026-04-18T10:46:05Z</time></trkpt><trkpt lat="43.76373281667387" lon="11.031590771305071"><ele>35.0</ele><time>2026-04-18T10:46:06Z</time></trkpt><trkpt lat="43.76368700158905" lon="11.031527249947466"><ele>35.0</ele><time>2026-04-18T10:46:07Z</time></trkpt><trkpt lat="43.763640897883235" lon="11.03146669988138"><ele>35.0</ele><time>2026-04-18T10:46:08Z</time></trkpt><trkpt lat="43.76359396521317" lon="11.031406396632033"><ele>35.0</ele><time>2026-04-18T10:46:09Z</time></trkpt><trkpt lat="43.763503126995126" lon="11.031288784286673"><ele>35.75</ele><time>2026-04-18T10:46:11Z</time></trkpt><trkpt lat="43.763413164454356" lon="11.031170124069291"><ele>36.5</ele><time>2026-04-18T10:46:13Z</time></trkpt><trkpt lat="43.76332572891742" lon="11.0310524513592"><ele>37.25</ele><time>2026-04-18T10:46:15Z</time></trkpt><trkpt lat="43.763234707068165" lon="11.030940009646422"><ele>38.0</ele><time>2026-04-18T10:46:17Z</time></trkpt><trkpt lat="43.7631438847342" lon="11.030833097381096"><ele>36.5</ele><time>2026-04-18T10:46:19Z</time></trkpt><trkpt lat="43.76305187729288" lon="11.0307288133304"><ele>35.0</ele><time>2026-04-18T10:46:21Z</time></trkpt><trkpt lat="43.7629521315052" lon="11.030631466863147"><ele>33.5</ele><time>2026-04-18T10:46:23Z</time></trkpt><trkpt lat="43.762848774245036" lon="11.03053704955437"><ele>32.0</ele><time>2026-04-18T10:46:25Z</time></trkpt><trkpt lat="43.76274330748395" lon="11.030448217564139"><ele>32.6</ele><time>2026-04-18T10:46:27Z</time></trkpt><trkpt lat="43.762690967166264" lon="11.030399299308234"><ele>33.2</ele><time>2026-04-18T10:46:28Z</time></trkpt><trkpt lat="43.762587018730166" lon="11.030309986754796"><ele>33.8</ele><time>2026-04-18T10:46:30Z</time></trkpt><trkpt lat="43.762479059601944" lon="11.030229718763396"><ele>34.4</ele><time>2026-04-18T10:46:32Z</time></trkpt><trkpt lat="43.76236528905341" lon="11.030160975678209"><ele>35.0</ele><time>2026-04-18T10:46:34Z</time></trkpt><trkpt lat="43.762250081924535" lon="11.030107990418518"><ele>35.0</ele><time>2026-04-18T10:46:36Z</time></trkpt><trkpt lat="43.762131082881815" lon="11.03006463613114"><ele>35.0</ele><time>2026-04-18T10:46:38Z</time></trkpt><trkpt lat="43.76201348660969" lon="11.030034213360654"><ele>35.0</ele><time>2026-04-18T10:46:40Z</time></trkpt><trkpt lat="43.761893990210176" lon="11.02999438589277"><ele>35.0</ele><time>2026-04-18T10:46:42Z</time></trkpt><trkpt lat="43.761832087569864" lon="11.029975048552277"><ele>35.0</ele><time>2026-04-18T10:46:43Z</time></trkpt><trkpt lat="43.76176838990775" lon="11.02995185051568"><ele>34.25</ele><time>2026-04-18T10:46:44Z</time></trkpt><trkpt lat="43.761648568933076" lon="11.029915809174494"><ele>33.5</ele><time>2026-04-18T10:46:46Z</time></trkpt><trkpt lat="43.7615281577252" lon="11.029876126109755"><ele>32.75</ele><time>2026-04-18T10:46:48Z</time></trkpt><trkpt lat="43.761412901896485" lon="11.029829134896625"><ele>32.0</ele><time>2026-04-18T10:46:50Z</time></trkpt><trkpt lat="43.76130225241801" lon="11.029801674871779"><ele>32.0</ele><time>2026-04-18T10:46:52Z</time></trkpt><trkpt lat="43.761189339592015" lon="11.02976116269158"><ele>32.0</ele><time>2026-04-18T10:46:54Z</time></trkpt><trkpt lat="43.761079142085485" lon="11.029718746913941"><ele>32.0</ele><time>2026-04-18T10:46:56Z</time></trkpt><trkpt lat="43.76096828926813" lon="11.029682693521943"><ele>32.0</ele><time>2026-04-18T10:46:58Z</time></trkpt><trkpt lat="43.76085805756985" lon="11.029653566970413"><ele>32.2</ele><time>2026-04-18T10:47:00Z</time></trkpt><trkpt lat="43.760747884808296" lon="11.029628500406195"><ele>32.400000000000006</ele><time>2026-04-18T10:47:02Z</time></trkpt><trkpt lat="43.760637133823145" lon="11.029604641276038"><ele>32.599999999999994</ele><time>2026-04-18T10:47:04Z</time></trkpt><trkpt lat="43.760532048782096" lon="11.029585529330172"><ele>32.8</ele><time>2026-04-18T10:47:06Z</time></trkpt><trkpt lat="43.760424953620245" lon="11.029573473329844"><ele>33.0</ele><time>2026-04-18T10:47:08Z</time></trkpt><trkpt lat="43.76031548191909" lon="11.029555484106064"><ele>33.0</ele><time>2026-04-18T10:47:10Z</time></trkpt><trkpt lat="43.760207874347905" lon="11.029546052944921"><ele>33.0</ele><time>2026-04-18T10:47:12Z</time></trkpt><trkpt lat="43.76010246919976" lon="11.029540288897175"><ele>33.0</ele><time>2026-04-18T10:47:14Z</time></trkpt><trkpt lat="43.759987226553484" lon="11.029528453307728"><ele>33.0</ele><time>2026-04-18T10:47:16Z</time></trkpt><trkpt lat="43.75987679607293" lon="11.02952508230874"><ele>33.0</ele><time>2026-04-18T10:47:18Z</time></trkpt><trkpt lat="43.759761542078664" lon="11.029516966746085"><ele>33.0</ele><time>2026-04-18T10:47:20Z</time></trkpt><trkpt lat="43.75964477544649" lon="11.029515767250896"><ele>33.0</ele><time>2026-04-18T10:47:22Z</time></trkpt><trkpt lat="43.75952937903849" lon="11.029516055133072"><ele>33.0</ele><time>2026-04-18T10:47:24Z</time></trkpt><trkpt lat="43.75941241787458" lon="11.02951633062909"><ele>33.0</ele><time>2026-04-18T10:47:26Z</time></trkpt><trkpt lat="43.75929896709206" lon="11.02952309617105"><ele>33.199999999999996</ele><time>2026-04-18T10:47:28Z</time></trkpt><trkpt lat="43.7591818778389" lon="11.02953226429031"><ele>33.4</ele><time>2026-04-18T10:47:30Z</time></trkpt><trkpt lat="43.75911745898654" lon="11.029533885736015"><ele>33.599999999999994</ele><time>2026-04-18T10:47:31Z</time></trkpt><trkpt lat="43.759054165843395" lon="11.029536242250385"><ele>33.8</ele><time>2026-04-18T10:47:32Z</time></trkpt><trkpt lat="43.75893408900645" lon="11.029546294083552"><ele>34.0</ele><time>2026-04-18T10:47:34Z</time></trkpt><trkpt lat="43.7588156693891" lon="11.02956018128176"><ele>33.99999999999999</ele><time>2026-04-18T10:47:36Z</time></trkpt><trkpt lat="43.75875230667938" lon="11.02956489555201"><ele>34.0</ele><time>2026-04-18T10:47:37Z</time></trkpt><trkpt lat="43.75868640340972" lon="11.029568824061279"><ele>34.0</ele><time>2026-04-18T10:47:38Z</time></trkpt><trkpt lat="43.75862093498478" lon="11.029573916024496"><ele>34.0</ele><time>2026-04-18T10:47:39Z</time></trkpt><trkpt lat="43.758556181601755" lon="11.029583476353581"><ele>34.0</ele><time>2026-04-18T10:47:40Z</time></trkpt><trkpt lat="43.758490490245876" lon="11.029591673639345"><ele>33.99999999999999</ele><time>2026-04-18T10:47:41Z</time></trkpt><trkpt lat="43.758424819832356" lon="11.029604471443276"><ele>34.0</ele><time>2026-04-18T10:47:42Z</time></trkpt><trkpt lat="43.75836013937111" lon="11.029617436788186"><ele>33.57142857142857</ele><time>2026-04-18T10:47:43Z</time></trkpt><trkpt lat="43.75829501522451" lon="11.029629789092809"><ele>33.14285714285714</ele><time>2026-04-18T10:47:44Z</time></trkpt><trkpt lat="43.75822917808944" lon="11.029645632690693"><ele>32.714285714285715</ele><time>2026-04-18T10:47:45Z</time></trkpt><trkpt lat="43.75816211823495" lon="11.029666198542547"><ele>32.285714285714285</ele><time>2026-04-18T10:47:46Z</time></trkpt><trkpt lat="43.75809601842764" lon="11.02968151978117"><ele>31.85714285714286</ele><time>2026-04-18T10:47:47Z</time></trkpt><trkpt lat="43.75803106539323" lon="11.029695621640155"><ele>31.42857142857143</ele><time>2026-04-18T10:47:48Z</time></trkpt><trkpt lat="43.75796220154546" lon="11.02971623556733"><ele>31.0</ele><time>2026-04-18T10:47:49Z</time></trkpt><trkpt lat="43.757834375763075" lon="11.029743584170188"><ele>31.000000000000004</ele><time>2026-04-18T10:47:51Z</time></trkpt><trkpt lat="43.757765586437394" lon="11.029754774325815"><ele>31.0</ele><time>2026-04-18T10:47:52Z</time></trkpt><trkpt lat="43.75770060063117" lon="11.029773462663062"><ele>31.0</ele><time>2026-04-18T10:47:53Z</time></trkpt><trkpt lat="43.75763264595135" lon="11.029788271904044"><ele>31.0</ele><time>2026-04-18T10:47:54Z</time></trkpt><trkpt lat="43.75757023707114" lon="11.02980596034173"><ele>31.000000000000004</ele><time>2026-04-18T10:47:55Z</time></trkpt><trkpt lat="43.75744737909007" lon="11.029841567530534"><ele>31.0</ele><time>2026-04-18T10:47:57Z</time></trkpt><trkpt lat="43.75738487645912" lon="11.029857977935404"><ele>31.142857142857146</ele><time>2026-04-18T10:47:58Z</time></trkpt><trkpt lat="43.757320305256926" lon="11.029874471433734"><ele>31.28571428571429</ele><time>2026-04-18T10:47:59Z</time></trkpt><trkpt lat="43.7572561144378" lon="11.029890684779193"><ele>31.42857142857143</ele><time>2026-04-18T10:48:00Z</time></trkpt><trkpt lat="43.75719289571164" lon="11.029901556986555"><ele>31.57142857142857</ele><time>2026-04-18T10:48:01Z</time></trkpt><trkpt lat="43.75712812418141" lon="11.029912630628543"><ele>31.71428571428571</ele><time>2026-04-18T10:48:02Z</time></trkpt><trkpt lat="43.75706560331997" lon="11.029927263861563"><ele>31.857142857142854</ele><time>2026-04-18T10:48:03Z</time></trkpt><trkpt lat="43.757003709048284" lon="11.029947092454805"><ele>32.0</ele><time>2026-04-18T10:48:04Z</time></trkpt><trkpt lat="43.75693948994396" lon="11.029960305730656"><ele>32.0</ele><time>2026-04-18T10:48:05Z</time></trkpt><trkpt lat="43.756874468566195" lon="11.029971675687388"><ele>32.0</ele><time>2026-04-18T10:48:06Z</time></trkpt><trkpt lat="43.75681217600046" lon="11.029988605949605"><ele>32.0</ele><time>2026-04-18T10:48:07Z</time></trkpt><trkpt lat="43.756690702255256" lon="11.030024866806047"><ele>32.0</ele><time>2026-04-18T10:48:09Z</time></trkpt><trkpt lat="43.75656832074284" lon="11.030053188141597"><ele>32.0</ele><time>2026-04-18T10:48:11Z</time></trkpt><trkpt lat="43.7564456237291" lon="11.030087660037543"><ele>32.0</ele><time>2026-04-18T10:48:13Z</time></trkpt><trkpt lat="43.756321158438595" lon="11.030122614868153"><ele>31.999999999999996</ele><time>2026-04-18T10:48:15Z</time></trkpt><trkpt lat="43.75625820873621" lon="11.03013929576019"><ele>32.0</ele><time>2026-04-18T10:48:16Z</time></trkpt><trkpt lat="43.756194054121195" lon="11.030156666807128"><ele>32.0</ele><time>2026-04-18T10:48:17Z</time></trkpt><trkpt lat="43.75613222765623" lon="11.030173546698537"><ele>31.999999999999996</ele><time>2026-04-18T10:48:18Z</time></trkpt><trkpt lat="43.75606776617679" lon="11.030187872156155"><ele>32.0</ele><time>2026-04-18T10:48:19Z</time></trkpt><trkpt lat="43.75600505345168" lon="11.030205387709781"><ele>32.0</ele><time>2026-04-18T10:48:20Z</time></trkpt><trkpt lat="43.75594231269759" lon="11.030221527848203"><ele>32.0</ele><time>2026-04-18T10:48:21Z</time></trkpt><trkpt lat="43.75587826124143" lon="11.030234901389882"><ele>31.999999999999996</ele><time>2026-04-18T10:48:22Z</time></trkpt><trkpt lat="43.75581280735037" lon="11.030247799638698"><ele>32.0</ele><time>2026-04-18T10:48:23Z</time></trkpt><trkpt lat="43.7557475618943" lon="11.030261264989534"><ele>32.0</ele><time>2026-04-18T10:48:24Z</time></trkpt><trkpt lat="43.75568380743203" lon="11.030277561979686"><ele>31.999999999999996</ele><time>2026-04-18T10:48:25Z</time></trkpt><trkpt lat="43.75561907099849" lon="11.030288486193838"><ele>32.0</ele><time>2026-04-18T10:48:26Z</time></trkpt><trkpt lat="43.75555481578219" lon="11.030298357796779"><ele>32.0</ele><time>2026-04-18T10:48:27Z</time></trkpt><trkpt lat="43.75548941883869" lon="11.030313836693622"><ele>32.0</ele><time>2026-04-18T10:48:28Z</time></trkpt><trkpt lat="43.75542405199731" lon="11.030327254172732"><ele>31.999999999999996</ele><time>2026-04-18T10:48:29Z</time></trkpt><trkpt lat="43.7553563403999" lon="11.030335998658787"><ele>32.0</ele><time>2026-04-18T10:48:30Z</time></trkpt><trkpt lat="43.75528782688007" lon="11.0303422440409"><ele>32.0</ele><time>2026-04-18T10:48:31Z</time></trkpt><trkpt lat="43.75522106397263" lon="11.030352860729083"><ele>31.999999999999996</ele><time>2026-04-18T10:48:32Z</time></trkpt><trkpt lat="43.75515293588531" lon="11.030363086802016"><ele>32.0</ele><time>2026-04-18T10:48:33Z</time></trkpt><trkpt lat="43.75508771616312" lon="11.030374360775179"><ele>32.0</ele><time>2026-04-18T10:48:34Z</time></trkpt><trkpt lat="43.75502374889827" lon="11.030387990163238"><ele>32.0</ele><time>2026-04-18T10:48:35Z</time></trkpt><trkpt lat="43.75495881128988" lon="11.030401187285275"><ele>31.999999999999996</ele><time>2026-04-18T10:48:36Z</time></trkpt><trkpt lat="43.754894280089204" lon="11.030415033761825"><ele>32.0</ele><time>2026-04-18T10:48:37Z</time></trkpt><trkpt lat="43.754831899924504" lon="11.030430918976855"><ele>32.0</ele><time>2026-04-18T10:48:38Z</time></trkpt><trkpt lat="43.75476825283446" lon="11.03044962586109"><ele>31.999999999999996</ele><time>2026-04-18T10:48:39Z</time></trkpt><trkpt lat="43.75470716157889" lon="11.03047644061598"><ele>32.0</ele><time>2026-04-18T10:48:40Z</time></trkpt><trkpt lat="43.75464809989678" lon="11.030517233528702"><ele>32.0</ele><time>2026-04-18T10:48:41Z</time></trkpt><trkpt lat="43.75459026191401" lon="11.030559373118415"><ele>32.0</ele><time>2026-04-18T10:48:42Z</time></trkpt><trkpt lat="43.75453342802405" lon="11.030602274630395"><ele>31.999999999999996</ele><time>2026-04-18T10:48:43Z</time></trkpt><trkpt lat="43.75447756773342" lon="11.030648860109343"><ele>32.0</ele><time>2026-04-18T10:48:44Z</time></trkpt><trkpt lat="43.75442184640427" lon="11.030697706590546"><ele>32.0</ele><time>2026-04-18T10:48:45Z</time></trkpt><trkpt lat="43.75436783018806" lon="11.03074688520118"><ele>31.999999999999996</ele><time>2026-04-18T10:48:46Z</time></trkpt><trkpt lat="43.754315539717055" lon="11.030795940771617"><ele>32.0</ele><time>2026-04-18T10:48:47Z</time></trkpt><trkpt lat="43.75426159178878" lon="11.030842068071776"><ele>32.0</ele><time>2026-04-18T10:48:48Z</time></trkpt><trkpt lat="43.75416000336169" lon="11.03093484678647"><ele>32.5</ele><time>2026-04-18T10:48:50Z</time></trkpt><trkpt lat="43.75406021290088" lon="11.03102538478495"><ele>33.0</ele><time>2026-04-18T10:48:52Z</time></trkpt><trkpt lat="43.75396187538264" lon="11.031107815663102"><ele>33.5</ele><time>2026-04-18T10:48:54Z</time></trkpt><trkpt lat="43.753866117532404" lon="11.031190170306312"><ele>34.0</ele><time>2026-04-18T10:48:56Z</time></trkpt><trkpt lat="43.75377543612615" lon="11.03127111702623"><ele>34.0</ele><time>2026-04-18T10:48:58Z</time></trkpt><trkpt lat="43.753683548030665" lon="11.031350508710142"><ele>34.0</ele><time>2026-04-18T10:49:00Z</time></trkpt><trkpt lat="43.75359446079628" lon="11.031431569408978"><ele>34.0</ele><time>2026-04-18T10:49:02Z</time></trkpt><trkpt lat="43.75350074849823" lon="11.031510778969917"><ele>34.0</ele><time>2026-04-18T10:49:04Z</time></trkpt><trkpt lat="43.75340838747473" lon="11.031594085628145"><ele>34.0</ele><time>2026-04-18T10:49:06Z</time></trkpt><trkpt lat="43.75331174322382" lon="11.0316798200279"><ele>35.0</ele><time>2026-04-18T10:49:08Z</time></trkpt><trkpt lat="43.753215681312064" lon="11.031772005116299"><ele>36.0</ele><time>2026-04-18T10:49:10Z</time></trkpt><trkpt lat="43.753109041188665" lon="11.031856798157145"><ele>37.0</ele><time>2026-04-18T10:49:12Z</time></trkpt><trkpt lat="43.7529996427702" lon="11.031932023291095"><ele>38.0</ele><time>2026-04-18T10:49:14Z</time></trkpt><trkpt lat="43.75288871816209" lon="11.032003171403838"><ele>38.0</ele><time>2026-04-18T10:49:16Z</time></trkpt><trkpt lat="43.7527740143027" lon="11.03207111588367"><ele>38.0</ele><time>2026-04-18T10:49:18Z</time></trkpt><trkpt lat="43.75265790756506" lon="11.032135657960467"><ele>38.0</ele><time>2026-04-18T10:49:20Z</time></trkpt><trkpt lat="43.752547693361244" lon="11.032192837901333"><ele>38.0</ele><time>2026-04-18T10:49:22Z</time></trkpt><trkpt lat="43.752431260376895" lon="11.032240634955391"><ele>36.5</ele><time>2026-04-18T10:49:24Z</time></trkpt><trkpt lat="43.7523118017382" lon="11.032277131587376"><ele>35.0</ele><time>2026-04-18T10:49:26Z</time></trkpt><trkpt lat="43.75219927788997" lon="11.032313226187679"><ele>33.5</ele><time>2026-04-18T10:49:28Z</time></trkpt><trkpt lat="43.75209152252388" lon="11.032351672326806"><ele>32.0</ele><time>2026-04-18T10:49:30Z</time></trkpt><trkpt lat="43.75198591057786" lon="11.032398769051278"><ele>32.0</ele><time>2026-04-18T10:49:32Z</time></trkpt><trkpt lat="43.75188199636411" lon="11.03245564720187"><ele>32.0</ele><time>2026-04-18T10:49:34Z</time></trkpt><trkpt lat="43.75177614634265" lon="11.032510464525673"><ele>32.0</ele><time>2026-04-18T10:49:36Z</time></trkpt><trkpt lat="43.75166865418134" lon="11.032565848368236"><ele>32.0</ele><time>2026-04-18T10:49:38Z</time></trkpt><trkpt lat="43.75156251230439" lon="11.032616588755896"><ele>32.6</ele><time>2026-04-18T10:49:40Z</time></trkpt><trkpt lat="43.75145767358703" lon="11.032667139391158"><ele>33.2</ele><time>2026-04-18T10:49:42Z</time></trkpt><trkpt lat="43.75135737672681" lon="11.032723312964837"><ele>33.8</ele><time>2026-04-18T10:49:44Z</time></trkpt><trkpt lat="43.7512575430042" lon="11.032778117836266"><ele>34.4</ele><time>2026-04-18T10:49:46Z</time></trkpt><trkpt lat="43.751158850180424" lon="11.032833966954435"><ele>35.0</ele><time>2026-04-18T10:49:48Z</time></trkpt><trkpt lat="43.75106115981185" lon="11.032889306593258"><ele>34.0</ele><time>2026-04-18T10:49:50Z</time></trkpt><trkpt lat="43.75096710780044" lon="11.032951081124265"><ele>33.0</ele><time>2026-04-18T10:49:52Z</time></trkpt><trkpt lat="43.75086563211566" lon="11.033006530434088"><ele>32.0</ele><time>2026-04-18T10:49:54Z</time></trkpt><trkpt lat="43.75076961168462" lon="11.033067300515032"><ele>31.0</ele><time>2026-04-18T10:49:56Z</time></trkpt><trkpt lat="43.750669018520234" lon="11.033121653897712"><ele>30.0</ele><time>2026-04-18T10:49:58Z</time></trkpt><trkpt lat="43.75057393133359" lon="11.033179357412132"><ele>30.0</ele><time>2026-04-18T10:50:00Z</time></trkpt><trkpt lat="43.750477375050664" lon="11.033231962301882"><ele>30.0</ele><time>2026-04-18T10:50:02Z</time></trkpt><trkpt lat="43.750380530950274" lon="11.033284435849449"><ele>30.0</ele><time>2026-04-18T10:50:04Z</time></trkpt><trkpt lat="43.75028536282043" lon="11.033325868323924"><ele>30.0</ele><time>2026-04-18T10:50:06Z</time></trkpt><trkpt lat="43.75018778238694" lon="11.033357429107442"><ele>30.0</ele><time>2026-04-18T10:50:08Z</time></trkpt><trkpt lat="43.75008887655934" lon="11.033382492029991"><ele>30.6</ele><time>2026-04-18T10:50:10Z</time></trkpt><trkpt lat="43.74999829793222" lon="11.033416793001779"><ele>31.2</ele><time>2026-04-18T10:50:12Z</time></trkpt><trkpt lat="43.749905523535325" lon="11.033449893602763"><ele>31.799999999999997</ele><time>2026-04-18T10:50:14Z</time></trkpt><trkpt lat="43.74981274334299" lon="11.033474837141139"><ele>32.4</ele><time>2026-04-18T10:50:16Z</time></trkpt><trkpt lat="43.749720626433394" lon="11.033501758002576"><ele>33.0</ele><time>2026-04-18T10:50:18Z</time></trkpt><trkpt lat="43.749630535915784" lon="11.033528799870052"><ele>33.0</ele><time>2026-04-18T10:50:20Z</time></trkpt><trkpt lat="43.74953675787234" lon="11.033556045773572"><ele>33.0</ele><time>2026-04-18T10:50:22Z</time></trkpt><trkpt lat="43.74944525078558" lon="11.033583894720188"><ele>33.0</ele><time>2026-04-18T10:50:24Z</time></trkpt><trkpt lat="43.74935282018386" lon="11.033608076195677"><ele>33.0</ele><time>2026-04-18T10:50:26Z</time></trkpt><trkpt lat="43.74925968936278" lon="11.03362405072622"><ele>33.0</ele><time>2026-04-18T10:50:28Z</time></trkpt><trkpt lat="43.74916888109865" lon="11.033662301625188"><ele>32.4</ele><time>2026-04-18T10:50:30Z</time></trkpt><trkpt lat="43.74907998857117" lon="11.033690040353497"><ele>31.799999999999997</ele><time>2026-04-18T10:50:32Z</time></trkpt><trkpt lat="43.74899034779094" lon="11.033720420533957"><ele>31.2</ele><time>2026-04-18T10:50:34Z</time></trkpt><trkpt lat="43.7488588597819" lon="11.033740781216318"><ele>30.6</ele><time>2026-04-18T10:50:36Z</time></trkpt><trkpt lat="43.74877772900872" lon="11.033759874284794"><ele>30.0</ele><time>2026-04-18T10:50:38Z</time></trkpt><trkpt lat="43.748675506613985" lon="11.033772922290376"><ele>30.0</ele><time>2026-04-18T10:50:40Z</time></trkpt><trkpt lat="43.74857821678605" lon="11.033807558008668"><ele>30.0</ele><time>2026-04-18T10:50:42Z</time></trkpt><trkpt lat="43.74847361188926" lon="11.03382908308846"><ele>30.0</ele><time>2026-04-18T10:50:44Z</time></trkpt><trkpt lat="43.748370727858585" lon="11.033847676035084"><ele>30.0</ele><time>2026-04-18T10:50:46Z</time></trkpt><trkpt lat="43.74827038618488" lon="11.033865111873657"><ele>30.0</ele><time>2026-04-18T10:50:48Z</time></trkpt><trkpt lat="43.74816368567652" lon="11.03386727392991"><ele>30.0</ele><time>2026-04-18T10:50:50Z</time></trkpt><trkpt lat="43.74805974964549" lon="11.033869222727777"><ele>30.0</ele><time>2026-04-18T10:50:52Z</time></trkpt><trkpt lat="43.74795451775125" lon="11.033868560667596"><ele>30.0</ele><time>2026-04-18T10:50:54Z</time></trkpt><trkpt lat="43.747844368834805" lon="11.033859011794314"><ele>30.0</ele><time>2026-04-18T10:50:56Z</time></trkpt><trkpt lat="43.74773337722777" lon="11.03384094950273"><ele>30.0</ele><time>2026-04-18T10:50:58Z</time></trkpt><trkpt lat="43.747626256245006" lon="11.033836304501758"><ele>30.0</ele><time>2026-04-18T10:51:00Z</time></trkpt><trkpt lat="43.74752100554053" lon="11.03381973098962"><ele>30.0</ele><time>2026-04-18T10:51:02Z</time></trkpt><trkpt lat="43.74742338478051" lon="11.03379747067407"><ele>30.0</ele><time>2026-04-18T10:51:04Z</time></trkpt><trkpt lat="43.74733771429209" lon="11.033781474723005"><ele>30.0</ele><time>2026-04-18T10:51:06Z</time></trkpt><trkpt lat="43.74724876020711" lon="11.03376113142776"><ele>30.0</ele><time>2026-04-18T10:51:08Z</time></trkpt><trkpt lat="43.7471605862974" lon="11.033740970654438"><ele>30.0</ele><time>2026-04-18T10:51:10Z</time></trkpt><trkpt lat="43.74707437758873" lon="11.0337200124811"><ele>30.0</ele><time>2026-04-18T10:51:12Z</time></trkpt><trkpt lat="43.74698707334157" lon="11.03369131852399"><ele>30.0</ele><time>2026-04-18T10:51:14Z</time></trkpt><trkpt lat="43.746898504229435" lon="11.033660413976476"><ele>30.0</ele><time>2026-04-18T10:51:16Z</time></trkpt><trkpt lat="43.746806199814934" lon="11.033623523325566"><ele>30.0</ele><time>2026-04-18T10:51:18Z</time></trkpt><trkpt lat="43.7467073997027" lon="11.033579619585948"><ele>29.4</ele><time>2026-04-18T10:51:20Z</time></trkpt><trkpt lat="43.74660827773411" lon="11.033521180454755"><ele>28.8</ele><time>2026-04-18T10:51:22Z</time></trkpt><trkpt lat="43.74651020657349" lon="11.033460800078918"><ele>28.200000000000003</ele><time>2026-04-18T10:51:24Z</time></trkpt><trkpt lat="43.746412571149335" lon="11.033379281786292"><ele>27.6</ele><time>2026-04-18T10:51:26Z</time></trkpt><trkpt lat="43.746321404619586" lon="11.033285323062913"><ele>27.0</ele><time>2026-04-18T10:51:28Z</time></trkpt><trkpt lat="43.74623105151133" lon="11.033190355799526"><ele>27.0</ele><time>2026-04-18T10:51:30Z</time></trkpt><trkpt lat="43.74614102513603" lon="11.033088077933753"><ele>27.000000000000004</ele><time>2026-04-18T10:51:32Z</time></trkpt><trkpt lat="43.74604796323701" lon="11.032999975880358"><ele>27.000000000000004</ele><time>2026-04-18T10:51:34Z</time></trkpt><trkpt lat="43.74596053212997" lon="11.032908523876703"><ele>27.0</ele><time>2026-04-18T10:51:36Z</time></trkpt><trkpt lat="43.7458777282402" lon="11.032820349394283"><ele>27.0</ele><time>2026-04-18T10:51:38Z</time></trkpt><trkpt lat="43.745798164695415" lon="11.032734708250473"><ele>28.200000000000003</ele><time>2026-04-18T10:51:40Z</time></trkpt><trkpt lat="43.74572472032978" lon="11.03265359681121"><ele>29.400000000000002</ele><time>2026-04-18T10:51:42Z</time></trkpt><trkpt lat="43.74564955931703" lon="11.032574625913893"><ele>30.599999999999998</ele><time>2026-04-18T10:51:44Z</time></trkpt><trkpt lat="43.74557886965478" lon="11.032491317286716"><ele>31.799999999999997</ele><time>2026-04-18T10:51:46Z</time></trkpt><trkpt lat="43.74550599582823" lon="11.032418807673716"><ele>33.0</ele><time>2026-04-18T10:51:48Z</time></trkpt><trkpt lat="43.74542653209457" lon="11.032347593455244"><ele>33.0</ele><time>2026-04-18T10:51:50Z</time></trkpt><trkpt lat="43.74534849712074" lon="11.032279317299912"><ele>33.0</ele><time>2026-04-18T10:51:52Z</time></trkpt><trkpt lat="43.74528375653101" lon="11.032173914694248"><ele>33.0</ele><time>2026-04-18T10:51:54Z</time></trkpt><trkpt lat="43.74517446881694" lon="11.032080223078262"><ele>33.0</ele><time>2026-04-18T10:51:56Z</time></trkpt><trkpt lat="43.745116037628165" lon="11.032012660575727"><ele>33.0</ele><time>2026-04-18T10:51:57Z</time></trkpt><trkpt lat="43.7450476217261" lon="11.03194149787166"><ele>33.6</ele><time>2026-04-18T10:51:58Z</time></trkpt><trkpt lat="43.744976496773326" lon="11.031860538415213"><ele>34.199999999999996</ele><time>2026-04-18T10:51:59Z</time></trkpt><trkpt lat="43.744894593892724" lon="11.031789537108574"><ele>34.8</ele><time>2026-04-18T10:52:00Z</time></trkpt><trkpt lat="43.74481306195046" lon="11.031702413645117"><ele>35.4</ele><time>2026-04-18T10:52:01Z</time></trkpt><trkpt lat="43.74472187052269" lon="11.03161515955422"><ele>36.0</ele><time>2026-04-18T10:52:02Z</time></trkpt><trkpt lat="43.74462858520408" lon="11.031522857966243"><ele>34.5</ele><time>2026-04-18T10:52:03Z</time></trkpt><trkpt lat="43.74453020953608" lon="11.031424364764046"><ele>33.0</ele><time>2026-04-18T10:52:04Z</time></trkpt><trkpt lat="43.74443434577023" lon="11.031325475953272"><ele>31.5</ele><time>2026-04-18T10:52:05Z</time></trkpt><trkpt lat="43.74433758310649" lon="11.031230882915384"><ele>30.0</ele><time>2026-04-18T10:52:06Z</time></trkpt><trkpt lat="43.74423528291115" lon="11.031153432396119"><ele>30.0</ele><time>2026-04-18T10:52:07Z</time></trkpt><trkpt lat="43.744134715372276" lon="11.031064616437899"><ele>30.0</ele><time>2026-04-18T10:52:08Z</time></trkpt><trkpt lat="43.74404429868064" lon="11.030997437110345"><ele>30.0</ele><time>2026-04-18T10:52:09Z</time></trkpt><trkpt lat="43.74395611110576" lon="11.030926487881562"><ele>30.0</ele><time>2026-04-18T10:52:10Z</time></trkpt><trkpt lat="43.743870039550316" lon="11.030864842322968"><ele>30.0</ele><time>2026-04-18T10:52:11Z</time></trkpt><trkpt lat="43.743781464444574" lon="11.030809801947036"><ele>29.666666666666668</ele><time>2026-04-18T10:52:12Z</time></trkpt><trkpt lat="43.74369299291754" lon="11.03078252372774"><ele>29.333333333333336</ele><time>2026-04-18T10:52:13Z</time></trkpt><trkpt lat="43.74360047676424" lon="11.030760200214878"><ele>29.0</ele><time>2026-04-18T10:52:14Z</time></trkpt><trkpt lat="43.74351806119636" lon="11.03072896958364"><ele>28.666666666666668</ele><time>2026-04-18T10:52:15Z</time></trkpt><trkpt lat="43.74343650037372" lon="11.030708194690007"><ele>28.333333333333336</ele><time>2026-04-18T10:52:16Z</time></trkpt><trkpt lat="43.74335284235323" lon="11.03068707813795"><ele>28.0</ele><time>2026-04-18T10:52:17Z</time></trkpt><trkpt lat="43.74327385557386" lon="11.030658922984237"><ele>28.0</ele><time>2026-04-18T10:52:18Z</time></trkpt><trkpt lat="43.74319388641611" lon="11.030630841209904"><ele>28.0</ele><time>2026-04-18T10:52:19Z</time></trkpt><trkpt lat="43.743113912109486" lon="11.030618959980142"><ele>28.0</ele><time>2026-04-18T10:52:20Z</time></trkpt><trkpt lat="43.74303963173004" lon="11.030594140810372"><ele>28.0</ele><time>2026-04-18T10:52:21Z</time></trkpt><trkpt lat="43.74297149794147" lon="11.030567104715873"><ele>28.0</ele><time>2026-04-18T10:52:22Z</time></trkpt><trkpt lat="43.74290359924214" lon="11.030551437071468"><ele>28.0</ele><time>2026-04-18T10:52:23Z</time></trkpt><trkpt lat="43.74283755334649" lon="11.03053538799269"><ele>28.0</ele><time>2026-04-18T10:52:24Z</time></trkpt><trkpt lat="43.74277195052105" lon="11.03051582269301"><ele>28.5</ele><time>2026-04-18T10:52:25Z</time></trkpt><trkpt lat="43.74265234671487" lon="11.030479171343613"><ele>29.0</ele><time>2026-04-18T10:52:27Z</time></trkpt><trkpt lat="43.742528434594924" lon="11.030442885998092"><ele>29.5</ele><time>2026-04-18T10:52:29Z</time></trkpt><trkpt lat="43.74241818291798" lon="11.030406824890708"><ele>30.0</ele><time>2026-04-18T10:52:31Z</time></trkpt><trkpt lat="43.74230510968354" lon="11.030376773030012"><ele>30.0</ele><time>2026-04-18T10:52:33Z</time></trkpt><trkpt lat="43.74219374294123" lon="11.030342570504219"><ele>30.0</ele><time>2026-04-18T10:52:35Z</time></trkpt><trkpt lat="43.74208954763474" lon="11.030293311283861"><ele>30.0</ele><time>2026-04-18T10:52:37Z</time></trkpt><trkpt lat="43.74198947177282" lon="11.03021552254067"><ele>30.0</ele><time>2026-04-18T10:52:39Z</time></trkpt><trkpt lat="43.74189429403908" lon="11.030124894467171"><ele>30.25</ele><time>2026-04-18T10:52:41Z</time></trkpt><trkpt lat="43.741796291167766" lon="11.030037810815685"><ele>30.5</ele><time>2026-04-18T10:52:43Z</time></trkpt><trkpt lat="43.74170868570124" lon="11.029936281565142"><ele>30.75</ele><time>2026-04-18T10:52:45Z</time></trkpt><trkpt lat="43.74162981938555" lon="11.02981790207663"><ele>31.0</ele><time>2026-04-18T10:52:47Z</time></trkpt><trkpt lat="43.7415433021482" lon="11.02969992778978"><ele>31.0</ele><time>2026-04-18T10:52:49Z</time></trkpt><trkpt lat="43.741452613717804" lon="11.029584553221788"><ele>31.0</ele><time>2026-04-18T10:52:51Z</time></trkpt><trkpt lat="43.741398009969714" lon="11.02952470683179"><ele>31.0</ele><time>2026-04-18T10:52:52Z</time></trkpt><trkpt lat="43.74132256681393" lon="11.02940351037803"><ele>31.0</ele><time>2026-04-18T10:52:54Z</time></trkpt><trkpt lat="43.74123411645493" lon="11.029288440163947"><ele>31.0</ele><time>2026-04-18T10:52:56Z</time></trkpt><trkpt lat="43.74114573311016" lon="11.029170159974857"><ele>31.0</ele><time>2026-04-18T10:52:58Z</time></trkpt><trkpt lat="43.74106025893132" lon="11.029046561408553"><ele>31.0</ele><time>2026-04-18T10:53:00Z</time></trkpt><trkpt lat="43.74097395675793" lon="11.028926730369601"><ele>31.0</ele><time>2026-04-18T10:53:02Z</time></trkpt><trkpt lat="43.74087483727033" lon="11.028821293585093"><ele>31.0</ele><time>2026-04-18T10:53:04Z</time></trkpt><trkpt lat="43.740791801007504" lon="11.02870890128988"><ele>30.8</ele><time>2026-04-18T10:53:06Z</time></trkpt><trkpt lat="43.74071090686793" lon="11.028593158048745"><ele>30.6</ele><time>2026-04-18T10:53:08Z</time></trkpt><trkpt lat="43.740625675844356" lon="11.028494596944123"><ele>30.4</ele><time>2026-04-18T10:53:10Z</time></trkpt><trkpt lat="43.740541642474355" lon="11.028407321903556"><ele>30.2</ele><time>2026-04-18T10:53:12Z</time></trkpt><trkpt lat="43.740468286798425" lon="11.028319089381078"><ele>30.0</ele><time>2026-04-18T10:53:14Z</time></trkpt><trkpt lat="43.74040213255033" lon="11.028246891345088"><ele>30.0</ele><time>2026-04-18T10:53:16Z</time></trkpt><trkpt lat="43.740352063332864" lon="11.028160777868413"><ele>30.0</ele><time>2026-04-18T10:53:18Z</time></trkpt><trkpt lat="43.740291177115644" lon="11.02808852603032"><ele>30.0</ele><time>2026-04-18T10:53:20Z</time></trkpt><trkpt lat="43.74023844217534" lon="11.027997153855862"><ele>30.0</ele><time>2026-04-18T10:53:22Z</time></trkpt><trkpt lat="43.74018453549996" lon="11.027924736748114"><ele>30.0</ele><time>2026-04-18T10:53:24Z</time></trkpt><trkpt lat="43.74012747331238" lon="11.027848080569846"><ele>30.0</ele><time>2026-04-18T10:53:26Z</time></trkpt><trkpt lat="43.740067094332666" lon="11.027766751303108"><ele>30.0</ele><time>2026-04-18T10:53:28Z</time></trkpt><trkpt lat="43.74000327770393" lon="11.0276803743821"><ele>30.0</ele><time>2026-04-18T10:53:30Z</time></trkpt><trkpt lat="43.73993597338269" lon="11.02758927674732"><ele>30.0</ele><time>2026-04-18T10:53:32Z</time></trkpt><trkpt lat="43.73987083628129" lon="11.027498046309361"><ele>30.0</ele><time>2026-04-18T10:53:34Z</time></trkpt><trkpt lat="43.73980454752945" lon="11.027403752996308"><ele>30.0</ele><time>2026-04-18T10:53:36Z</time></trkpt><trkpt lat="43.73973138842131" lon="11.027299687349263"><ele>30.0</ele><time>2026-04-18T10:53:38Z</time></trkpt><trkpt lat="43.7396669454667" lon="11.02723027462821"><ele>30.0</ele><time>2026-04-18T10:53:40Z</time></trkpt><trkpt lat="43.73964467354101" lon="11.027124026353922"><ele>30.0</ele><time>2026-04-18T10:53:42Z</time></trkpt><trkpt lat="43.73955109465934" lon="11.027065502398187"><ele>30.0</ele><time>2026-04-18T10:53:44Z</time></trkpt><trkpt lat="43.73948649604888" lon="11.02700557182081"><ele>30.0</ele><time>2026-04-18T10:53:46Z</time></trkpt><trkpt lat="43.739421784733615" lon="11.026896712352732"><ele>30.0</ele><time>2026-04-18T10:53:48Z</time></trkpt><trkpt lat="43.73934415924671" lon="11.026828369082114"><ele>30.2</ele><time>2026-04-18T10:53:50Z</time></trkpt><trkpt lat="43.73928861362835" lon="11.026750417594346"><ele>30.4</ele><time>2026-04-18T10:53:52Z</time></trkpt><trkpt lat="43.739224512546045" lon="11.026650303427918"><ele>30.6</ele><time>2026-04-18T10:53:54Z</time></trkpt><trkpt lat="43.739145487280915" lon="11.026545916025292"><ele>30.8</ele><time>2026-04-18T10:53:56Z</time></trkpt><trkpt lat="43.73906410512585" lon="11.026432145840756"><ele>31.0</ele><time>2026-04-18T10:53:58Z</time></trkpt><trkpt lat="43.738980780395856" lon="11.026321734001929"><ele>31.0</ele><time>2026-04-18T10:54:00Z</time></trkpt><trkpt lat="43.738897821355835" lon="11.026225214917284"><ele>31.0</ele><time>2026-04-18T10:54:02Z</time></trkpt><trkpt lat="43.73880806433242" lon="11.026142013387433"><ele>31.0</ele><time>2026-04-18T10:54:04Z</time></trkpt><trkpt lat="43.73872424705683" lon="11.026060448762752"><ele>31.0</ele><time>2026-04-18T10:54:06Z</time></trkpt><trkpt lat="43.73863958922841" lon="11.025974898808537"><ele>31.0</ele><time>2026-04-18T10:54:08Z</time></trkpt><trkpt lat="43.73855478645116" lon="11.025874136719324"><ele>31.0</ele><time>2026-04-18T10:54:10Z</time></trkpt><trkpt lat="43.73845320540356" lon="11.025787654638794"><ele>31.0</ele><time>2026-04-18T10:54:12Z</time></trkpt><trkpt lat="43.73835333878633" lon="11.025692067194132"><ele>31.0</ele><time>2026-04-18T10:54:14Z</time></trkpt><trkpt lat="43.73825227508295" lon="11.025588613546198"><ele>31.0</ele><time>2026-04-18T10:54:16Z</time></trkpt><trkpt lat="43.73815127013351" lon="11.025487654872663"><ele>31.0</ele><time>2026-04-18T10:54:18Z</time></trkpt><trkpt lat="43.73805201743928" lon="11.025391145968245"><ele>31.0</ele><time>2026-04-18T10:54:20Z</time></trkpt><trkpt lat="43.73800335781442" lon="11.025334782852783"><ele>31.0</ele><time>2026-04-18T10:54:21Z</time></trkpt><trkpt lat="43.7379120754014" lon="11.02522018053647"><ele>31.0</ele><time>2026-04-18T10:54:23Z</time></trkpt><trkpt lat="43.737811716870674" lon="11.025127990616555"><ele>31.0</ele><time>2026-04-18T10:54:25Z</time></trkpt><trkpt lat="43.737715920760735" lon="11.02502696920828"><ele>31.0</ele><time>2026-04-18T10:54:27Z</time></trkpt><trkpt lat="43.73761167197639" lon="11.024943801343165"><ele>31.0</ele><time>2026-04-18T10:54:29Z</time></trkpt><trkpt lat="43.737572348862194" lon="11.024872259412179"><ele>31.0</ele><time>2026-04-18T10:54:30Z</time></trkpt><trkpt lat="43.737475001634735" lon="11.024786558316718"><ele>31.0</ele><time>2026-04-18T10:54:32Z</time></trkpt><trkpt lat="43.737383174080094" lon="11.024688777453447"><ele>31.0</ele><time>2026-04-18T10:54:34Z</time></trkpt><trkpt lat="43.73730062220577" lon="11.02459588379691"><ele>31.000000000000004</ele><time>2026-04-18T10:54:36Z</time></trkpt><trkpt lat="43.73722916960162" lon="11.024522299408707"><ele>31.0</ele><time>2026-04-18T10:54:38Z</time></trkpt><trkpt lat="43.73715569802616" lon="11.024448175371294"><ele>31.0</ele><time>2026-04-18T10:54:40Z</time></trkpt><trkpt lat="43.73709681415942" lon="11.024359646216402"><ele>31.0</ele><time>2026-04-18T10:54:42Z</time></trkpt><trkpt lat="43.73703092440509" lon="11.024290664114982"><ele>31.000000000000004</ele><time>2026-04-18T10:54:44Z</time></trkpt><trkpt lat="43.73695602130138" lon="11.024207436228489"><ele>31.0</ele><time>2026-04-18T10:54:46Z</time></trkpt><trkpt lat="43.73687762544167" lon="11.024129084839583"><ele>31.0</ele><time>2026-04-18T10:54:48Z</time></trkpt><trkpt lat="43.73680159829433" lon="11.024037607533788"><ele>31.0</ele><time>2026-04-18T10:54:50Z</time></trkpt><trkpt lat="43.736717889537914" lon="11.023949202517526"><ele>31.0</ele><time>2026-04-18T10:54:52Z</time></trkpt><trkpt lat="43.73664109561063" lon="11.023850576110599"><ele>31.0</ele><time>2026-04-18T10:54:54Z</time></trkpt><trkpt lat="43.73655724527768" lon="11.023757212799454"><ele>31.0</ele><time>2026-04-18T10:54:56Z</time></trkpt><trkpt lat="43.73646617290386" lon="11.023670364841182"><ele>31.0</ele><time>2026-04-18T10:54:58Z</time></trkpt><trkpt lat="43.73637639297906" lon="11.023583909448615"><ele>31.0</ele><time>2026-04-18T10:55:00Z</time></trkpt><trkpt lat="43.73629212262945" lon="11.023487954572861"><ele>31.0</ele><time>2026-04-18T10:55:02Z</time></trkpt><trkpt lat="43.73620114080742" lon="11.023407094350322"><ele>31.0</ele><time>2026-04-18T10:55:04Z</time></trkpt><trkpt lat="43.73611653807939" lon="11.023314753169647"><ele>31.0</ele><time>2026-04-18T10:55:06Z</time></trkpt><trkpt lat="43.73603438028928" lon="11.023218894875232"><ele>31.200000000000003</ele><time>2026-04-18T10:55:08Z</time></trkpt><trkpt lat="43.73594591626794" lon="11.023125419416706"><ele>31.400000000000002</ele><time>2026-04-18T10:55:10Z</time></trkpt><trkpt lat="43.7358496879615" lon="11.023049797797706"><ele>31.6</ele><time>2026-04-18T10:55:12Z</time></trkpt><trkpt lat="43.73577095247896" lon="11.022951976687335"><ele>31.8</ele><time>2026-04-18T10:55:14Z</time></trkpt><trkpt lat="43.735684162153476" lon="11.022866138622325"><ele>32.0</ele><time>2026-04-18T10:55:16Z</time></trkpt><trkpt lat="43.73559713735144" lon="11.022773140033626"><ele>32.0</ele><time>2026-04-18T10:55:18Z</time></trkpt><trkpt lat="43.735514078542" lon="11.022661469583763"><ele>32.0</ele><time>2026-04-18T10:55:20Z</time></trkpt><trkpt lat="43.735412995301935" lon="11.022586864852332"><ele>32.0</ele><time>2026-04-18T10:55:22Z</time></trkpt><trkpt lat="43.735331427447925" lon="11.022482425479263"><ele>32.0</ele><time>2026-04-18T10:55:24Z</time></trkpt><trkpt lat="43.735243998255925" lon="11.02238118425796"><ele>32.0</ele><time>2026-04-18T10:55:26Z</time></trkpt><trkpt lat="43.735156957896734" lon="11.022278599387699"><ele>32.0</ele><time>2026-04-18T10:55:28Z</time></trkpt><trkpt lat="43.73506784060127" lon="11.022180032191216"><ele>32.0</ele><time>2026-04-18T10:55:30Z</time></trkpt><trkpt lat="43.73497570911567" lon="11.02209447093013"><ele>32.0</ele><time>2026-04-18T10:55:32Z</time></trkpt><trkpt lat="43.73488751942973" lon="11.021999815330735"><ele>32.0</ele><time>2026-04-18T10:55:34Z</time></trkpt><trkpt lat="43.73480506186014" lon="11.021903144637134"><ele>32.0</ele><time>2026-04-18T10:55:36Z</time></trkpt><trkpt lat="43.734723049003506" lon="11.021810013703767"><ele>32.0</ele><time>2026-04-18T10:55:38Z</time></trkpt><trkpt lat="43.734685232222276" lon="11.021687519793412"><ele>32.0</ele><time>2026-04-18T10:55:40Z</time></trkpt><trkpt lat="43.7347178744618" lon="11.021563894045169"><ele>32.0</ele><time>2026-04-18T10:55:42Z</time></trkpt><trkpt lat="43.73477303614861" lon="11.02143178887222"><ele>31.75</ele><time>2026-04-18T10:55:44Z</time></trkpt><trkpt lat="43.73482795243002" lon="11.021300135117773"><ele>31.5</ele><time>2026-04-18T10:55:46Z</time></trkpt><trkpt lat="43.73487745994464" lon="11.021156302221229"><ele>31.25</ele><time>2026-04-18T10:55:48Z</time></trkpt><trkpt lat="43.73487410073624" lon="11.020990897872839"><ele>31.0</ele><time>2026-04-18T10:55:50Z</time></trkpt><trkpt lat="43.734814856641655" lon="11.020852752388466"><ele>31.166666666666668</ele><time>2026-04-18T10:55:52Z</time></trkpt><trkpt lat="43.734721055919664" lon="11.020751037814716"><ele>31.333333333333336</ele><time>2026-04-18T10:55:54Z</time></trkpt><trkpt lat="43.73461151051773" lon="11.020680182206524"><ele>31.5</ele><time>2026-04-18T10:55:56Z</time></trkpt><trkpt lat="43.73455448907788" lon="11.020642029710986"><ele>31.666666666666664</ele><time>2026-04-18T10:55:57Z</time></trkpt><trkpt lat="43.73449761441511" lon="11.020601630112251"><ele>31.833333333333332</ele><time>2026-04-18T10:55:58Z</time></trkpt><trkpt lat="43.73444413348019" lon="11.020553550777356"><ele>32.0</ele><time>2026-04-18T10:55:59Z</time></trkpt><trkpt lat="43.73433240530656" lon="11.020460464910343"><ele>32.0</ele><time>2026-04-18T10:56:01Z</time></trkpt><trkpt lat="43.734274962922136" lon="11.020419059865032"><ele>31.999999999999996</ele><time>2026-04-18T10:56:02Z</time></trkpt><trkpt lat="43.7342209776695" lon="11.020366701001297"><ele>32.0</ele><time>2026-04-18T10:56:03Z</time></trkpt><trkpt lat="43.73416356739637" lon="11.020321627493399"><ele>32.0</ele><time>2026-04-18T10:56:04Z</time></trkpt><trkpt lat="43.734104562156745" lon="11.020281595746981"><ele>31.999999999999996</ele><time>2026-04-18T10:56:05Z</time></trkpt><trkpt lat="43.73404747852202" lon="11.020238615557648"><ele>32.0</ele><time>2026-04-18T10:56:06Z</time></trkpt><trkpt lat="43.73398431674618" lon="11.020199129069516"><ele>32.0</ele><time>2026-04-18T10:56:07Z</time></trkpt><trkpt lat="43.73393083594338" lon="11.020138379435322"><ele>32.0</ele><time>2026-04-18T10:56:08Z</time></trkpt><trkpt lat="43.73387552583322" lon="11.020095650730218"><ele>31.999999999999996</ele><time>2026-04-18T10:56:09Z</time></trkpt><trkpt lat="43.7338179242348" lon="11.020051151830991"><ele>32.0</ele><time>2026-04-18T10:56:10Z</time></trkpt><trkpt lat="43.73376269948438" lon="11.020008489076012"><ele>32.0</ele><time>2026-04-18T10:56:11Z</time></trkpt><trkpt lat="43.73370757384386" lon="11.019965902973325"><ele>31.999999999999996</ele><time>2026-04-18T10:56:12Z</time></trkpt><trkpt lat="43.73365164348818" lon="11.019923305838471"><ele>32.0</ele><time>2026-04-18T10:56:13Z</time></trkpt><trkpt lat="43.733548166866036" lon="11.019848257693221"><ele>32.0</ele><time>2026-04-18T10:56:15Z</time></trkpt><trkpt lat="43.73347908119363" lon="11.019803258719543"><ele>31.8</ele><time>2026-04-18T10:56:17Z</time></trkpt><trkpt lat="43.73341246781806" lon="11.019739073780546"><ele>31.6</ele><time>2026-04-18T10:56:20Z</time></trkpt><trkpt lat="43.73327912421968" lon="11.019771161214818"><ele>31.400000000000002</ele><time>2026-04-18T10:56:23Z</time></trkpt><trkpt lat="43.73319675607884" lon="11.019806201067018"><ele>31.200000000000003</ele><time>2026-04-18T10:56:25Z</time></trkpt><trkpt lat="43.73313075030241" lon="11.019870051276769"><ele>31.0</ele><time>2026-04-18T10:56:27Z</time></trkpt><trkpt lat="43.73307818322376" lon="11.019970128698048"><ele>31.000000000000004</ele><time>2026-04-18T10:56:29Z</time></trkpt><trkpt lat="43.73307240981964" lon="11.020103843865284"><ele>31.0</ele><time>2026-04-18T10:56:31Z</time></trkpt><trkpt lat="43.73308279723257" lon="11.02022358064858"><ele>31.0</ele><time>2026-04-18T10:56:33Z</time></trkpt><trkpt lat="43.733082799507955" lon="11.02033745652183"><ele>31.0</ele><time>2026-04-18T10:56:35Z</time></trkpt><trkpt lat="43.73307789871823" lon="11.020465258198909"><ele>31.000000000000004</ele><time>2026-04-18T10:56:37Z</time></trkpt><trkpt lat="43.733078822622765" lon="11.0205759971389"><ele>31.0</ele><time>2026-04-18T10:56:39Z</time></trkpt><trkpt lat="43.73305081446529" lon="11.02065513847327"><ele>31.0</ele><time>2026-04-18T10:56:42Z</time></trkpt><trkpt lat="43.73327443540297" lon="11.020779919932167"><ele>31.0</ele><time>2026-04-18T10:56:46Z</time></trkpt><trkpt lat="43.7333465987439" lon="11.020827854868278"><ele>31.0</ele><time>2026-04-18T10:56:48Z</time></trkpt><trkpt lat="43.73340577094094" lon="11.020882865443873"><ele>31.0</ele><time>2026-04-18T10:56:50Z</time></trkpt><trkpt lat="43.7333875950482" lon="11.020785807798415"><ele>31.000000000000004</ele><time>2026-04-18T11:05:02Z</time></trkpt><trkpt lat="43.733314255933" lon="11.020766232532146"><ele>31.0</ele><time>2026-04-18T11:05:05Z</time></trkpt><trkpt lat="43.733251276100425" lon="11.020751484491425"><ele>31.0</ele><time>2026-04-18T11:05:07Z</time></trkpt><trkpt lat="43.73322422237754" lon="11.020855288486265"><ele>31.0</ele><time>2026-04-18T11:05:09Z</time></trkpt><trkpt lat="43.73320591202218" lon="11.020979528810358"><ele>31.000000000000004</ele><time>2026-04-18T11:05:11Z</time></trkpt><trkpt lat="43.73322502276339" lon="11.02110131773665"><ele>31.0</ele><time>2026-04-18T11:05:13Z</time></trkpt><trkpt lat="43.73320528913571" lon="11.021215481658983"><ele>31.500000000000004</ele><time>2026-04-18T11:05:15Z</time></trkpt><trkpt lat="43.73320735672846" lon="11.021310216346697"><ele>32.0</ele><time>2026-04-18T11:05:17Z</time></trkpt><trkpt lat="43.7331953734556" lon="11.02141109889565"><ele>32.5</ele><time>2026-04-18T11:05:19Z</time></trkpt><trkpt lat="43.73318328801932" lon="11.021516922920421"><ele>33.0</ele><time>2026-04-18T11:05:21Z</time></trkpt><trkpt lat="43.73317334954976" lon="11.021622916719489"><ele>33.5</ele><time>2026-04-18T11:05:23Z</time></trkpt><trkpt lat="43.73316226324579" lon="11.021737075625811"><ele>34.0</ele><time>2026-04-18T11:05:25Z</time></trkpt><trkpt lat="43.73315108490542" lon="11.021844124364664"><ele>34.5</ele><time>2026-04-18T11:05:27Z</time></trkpt><trkpt lat="43.7331079364536" lon="11.02195091827693"><ele>35.0</ele><time>2026-04-18T11:05:29Z</time></trkpt><trkpt lat="43.73309648850277" lon="11.022056789251355"><ele>35.5</ele><time>2026-04-18T11:05:31Z</time></trkpt><trkpt lat="43.733060371087" lon="11.022157123860849"><ele>36.0</ele><time>2026-04-18T11:05:33Z</time></trkpt><trkpt lat="43.73303610396823" lon="11.022255764971042"><ele>36.5</ele><time>2026-04-18T11:05:35Z</time></trkpt><trkpt lat="43.73299275949132" lon="11.022342290150885"><ele>37.0</ele><time>2026-04-18T11:05:37Z</time></trkpt><trkpt lat="43.7329474801448" lon="11.022430528172944"><ele>37.333333333333336</ele><time>2026-04-18T11:05:39Z</time></trkpt><trkpt lat="43.73290291901524" lon="11.02252608933551"><ele>37.66666666666667</ele><time>2026-04-18T11:05:41Z</time></trkpt><trkpt lat="43.732831937810424" lon="11.022609261323401"><ele>38.0</ele><time>2026-04-18T11:05:43Z</time></trkpt><trkpt lat="43.73274779331238" lon="11.022666144131094"><ele>38.333333333333336</ele><time>2026-04-18T11:05:45Z</time></trkpt><trkpt lat="43.73266197927041" lon="11.022708617453642"><ele>38.666666666666664</ele><time>2026-04-18T11:05:47Z</time></trkpt><trkpt lat="43.7325832286959" lon="11.022756988585867"><ele>39.0</ele><time>2026-04-18T11:05:49Z</time></trkpt><trkpt lat="43.73251371938896" lon="11.022847330462552"><ele>38.8</ele><time>2026-04-18T11:05:51Z</time></trkpt><trkpt lat="43.732441869622015" lon="11.022940935027066"><ele>38.599999999999994</ele><time>2026-04-18T11:05:53Z</time></trkpt><trkpt lat="43.73238491226257" lon="11.023054360503416"><ele>38.4</ele><time>2026-04-18T11:05:55Z</time></trkpt><trkpt lat="43.732314164274335" lon="11.023148588084819"><ele>38.199999999999996</ele><time>2026-04-18T11:05:57Z</time></trkpt><trkpt lat="43.73225000095888" lon="11.023258757566088"><ele>38.0</ele><time>2026-04-18T11:05:59Z</time></trkpt><trkpt lat="43.732174002634686" lon="11.023352379401892"><ele>38.0</ele><time>2026-04-18T11:06:01Z</time></trkpt><trkpt lat="43.73211015277491" lon="11.023466918833558"><ele>38.0</ele><time>2026-04-18T11:06:03Z</time></trkpt><trkpt lat="43.73203648720529" lon="11.023567873327893"><ele>38.0</ele><time>2026-04-18T11:06:05Z</time></trkpt><trkpt lat="43.7319781784404" lon="11.023678102708635"><ele>38.0</ele><time>2026-04-18T11:06:07Z</time></trkpt><trkpt lat="43.73191196806635" lon="11.023790405017815"><ele>38.0</ele><time>2026-04-18T11:06:09Z</time></trkpt><trkpt lat="43.73184288392737" lon="11.023889304660024"><ele>38.0</ele><time>2026-04-18T11:06:11Z</time></trkpt><trkpt lat="43.731773620418934" lon="11.023989055430404"><ele>38.0</ele><time>2026-04-18T11:06:13Z</time></trkpt><trkpt lat="43.73170684779151" lon="11.024109652895975"><ele>38.0</ele><time>2026-04-18T11:06:15Z</time></trkpt><trkpt lat="43.731634123783714" lon="11.024216707555723"><ele>38.0</ele><time>2026-04-18T11:06:17Z</time></trkpt><trkpt lat="43.7315786639343" lon="11.024310670295337"><ele>38.0</ele><time>2026-04-18T11:06:19Z</time></trkpt><trkpt lat="43.731502693912084" lon="11.024379259985807"><ele>38.0</ele><time>2026-04-18T11:06:21Z</time></trkpt><trkpt lat="43.731427856921925" lon="11.024472527152032"><ele>38.0</ele><time>2026-04-18T11:06:23Z</time></trkpt><trkpt lat="43.73134975412013" lon="11.024530692917562"><ele>38.0</ele><time>2026-04-18T11:06:25Z</time></trkpt><trkpt lat="43.73126451392635" lon="11.024596228312323"><ele>38.0</ele><time>2026-04-18T11:06:27Z</time></trkpt><trkpt lat="43.731189676255916" lon="11.024661794878114"><ele>38.0</ele><time>2026-04-18T11:06:29Z</time></trkpt><trkpt lat="43.7311099224356" lon="11.024732291055352"><ele>38.199999999999996</ele><time>2026-04-18T11:06:31Z</time></trkpt><trkpt lat="43.731024250843156" lon="11.024776553287522"><ele>38.4</ele><time>2026-04-18T11:06:33Z</time></trkpt><trkpt lat="43.73093346119488" lon="11.024860421990937"><ele>38.599999999999994</ele><time>2026-04-18T11:06:35Z</time></trkpt><trkpt lat="43.73084523888865" lon="11.024924944129175"><ele>38.8</ele><time>2026-04-18T11:06:37Z</time></trkpt><trkpt lat="43.73075554808638" lon="11.024981395333842"><ele>39.0</ele><time>2026-04-18T11:06:39Z</time></trkpt><trkpt lat="43.73065724363497" lon="11.025038275343642"><ele>39.0</ele><time>2026-04-18T11:06:41Z</time></trkpt><trkpt lat="43.730561399049364" lon="11.02510808761866"><ele>39.0</ele><time>2026-04-18T11:06:43Z</time></trkpt><trkpt lat="43.73046786272527" lon="11.025178707739322"><ele>39.0</ele><time>2026-04-18T11:06:45Z</time></trkpt><trkpt lat="43.73036808249065" lon="11.025241714148322"><ele>39.0</ele><time>2026-04-18T11:06:47Z</time></trkpt><trkpt lat="43.730261390406405" lon="11.025317878744234"><ele>39.0</ele><time>2026-04-18T11:06:49Z</time></trkpt><trkpt lat="43.73020406030101" lon="11.025354533301819"><ele>37.25</ele><time>2026-04-18T11:06:50Z</time></trkpt><trkpt lat="43.73010164920999" lon="11.025435829925952"><ele>35.5</ele><time>2026-04-18T11:06:52Z</time></trkpt><trkpt lat="43.72999944905869" lon="11.025506625681562"><ele>33.75</ele><time>2026-04-18T11:06:54Z</time></trkpt><trkpt lat="43.729893447759956" lon="11.025578366705236"><ele>32.0</ele><time>2026-04-18T11:06:56Z</time></trkpt><trkpt lat="43.729792009506006" lon="11.0256629473671"><ele>32.0</ele><time>2026-04-18T11:06:58Z</time></trkpt><trkpt lat="43.7297345674121" lon="11.025702596008406"><ele>32.0</ele><time>2026-04-18T11:06:59Z</time></trkpt><trkpt lat="43.72962869754889" lon="11.025779578851319"><ele>32.0</ele><time>2026-04-18T11:07:01Z</time></trkpt><trkpt lat="43.72951669109032" lon="11.02584696234687"><ele>32.0</ele><time>2026-04-18T11:07:03Z</time></trkpt><trkpt lat="43.72940630387718" lon="11.02591920402544"><ele>32.0</ele><time>2026-04-18T11:07:05Z</time></trkpt><trkpt lat="43.729305465421085" lon="11.025987669966279"><ele>32.75</ele><time>2026-04-18T11:07:07Z</time></trkpt><trkpt lat="43.729199177870186" lon="11.02607447881634"><ele>33.5</ele><time>2026-04-18T11:07:09Z</time></trkpt><trkpt lat="43.72910191811781" lon="11.026147018223512"><ele>34.25</ele><time>2026-04-18T11:07:11Z</time></trkpt><trkpt lat="43.72900060100075" lon="11.026230143409444"><ele>35.0</ele><time>2026-04-18T11:07:13Z</time></trkpt><trkpt lat="43.72890619133933" lon="11.026304859994434"><ele>35.0</ele><time>2026-04-18T11:07:15Z</time></trkpt><trkpt lat="43.728827078065905" lon="11.026394211431118"><ele>35.0</ele><time>2026-04-18T11:07:17Z</time></trkpt><trkpt lat="43.728743264063844" lon="11.026495525853045"><ele>35.0</ele><time>2026-04-18T11:07:19Z</time></trkpt><trkpt lat="43.72866218595058" lon="11.026596750668833"><ele>35.0</ele><time>2026-04-18T11:07:21Z</time></trkpt><trkpt lat="43.72858763524174" lon="11.026697310812999"><ele>35.0</ele><time>2026-04-18T11:07:23Z</time></trkpt><trkpt lat="43.72851520702467" lon="11.026792029303602"><ele>35.0</ele><time>2026-04-18T11:07:25Z</time></trkpt><trkpt lat="43.72844442524935" lon="11.026893324037761"><ele>35.0</ele><time>2026-04-18T11:07:27Z</time></trkpt><trkpt lat="43.72837069829797" lon="11.026994542819185"><ele>35.0</ele><time>2026-04-18T11:07:29Z</time></trkpt><trkpt lat="43.728297441763516" lon="11.027099785689494"><ele>35.0</ele><time>2026-04-18T11:07:31Z</time></trkpt><trkpt lat="43.728222482039186" lon="11.027191237604198"><ele>35.0</ele><time>2026-04-18T11:07:33Z</time></trkpt><trkpt lat="43.72812204423734" lon="11.027250262305929"><ele>35.0</ele><time>2026-04-18T11:07:35Z</time></trkpt><trkpt lat="43.728016517032486" lon="11.027224205847132"><ele>35.0</ele><time>2026-04-18T11:07:37Z</time></trkpt><trkpt lat="43.727914622642515" lon="11.027195611459806"><ele>35.0</ele><time>2026-04-18T11:07:39Z</time></trkpt><trkpt lat="43.727815320732404" lon="11.027240141750083"><ele>35.0</ele><time>2026-04-18T11:07:41Z</time></trkpt><trkpt lat="43.727761654021215" lon="11.027382579340488"><ele>35.0</ele><time>2026-04-18T11:07:43Z</time></trkpt><trkpt lat="43.72778111567146" lon="11.027538871808144"><ele>35.2</ele><time>2026-04-18T11:07:45Z</time></trkpt><trkpt lat="43.72783705059154" lon="11.027646393779825"><ele>35.4</ele><time>2026-04-18T11:07:47Z</time></trkpt><trkpt lat="43.72777779326832" lon="11.027758994418132"><ele>35.6</ele><time>2026-04-18T11:07:48Z</time></trkpt><trkpt lat="43.72772685104411" lon="11.027900467541972"><ele>35.8</ele><time>2026-04-18T11:07:50Z</time></trkpt><trkpt lat="43.72765706582681" lon="11.028015029120615"><ele>36.0</ele><time>2026-04-18T11:07:52Z</time></trkpt><trkpt lat="43.72757546062788" lon="11.028117405385364"><ele>36.0</ele><time>2026-04-18T11:07:54Z</time></trkpt><trkpt lat="43.72750230137728" lon="11.028225912092712"><ele>36.0</ele><time>2026-04-18T11:07:56Z</time></trkpt><trkpt lat="43.72742563918578" lon="11.028330436020147"><ele>36.0</ele><time>2026-04-18T11:07:58Z</time></trkpt><trkpt lat="43.72735545097236" lon="11.028434819045666"><ele>36.0</ele><time>2026-04-18T11:08:00Z</time></trkpt><trkpt lat="43.7272794574094" lon="11.028543705761962"><ele>36.0</ele><time>2026-04-18T11:08:02Z</time></trkpt><trkpt lat="43.727206585295555" lon="11.028652436657195"><ele>36.2</ele><time>2026-04-18T11:08:04Z</time></trkpt><trkpt lat="43.727129867701464" lon="11.02875360710486"><ele>36.400000000000006</ele><time>2026-04-18T11:08:06Z</time></trkpt><trkpt lat="43.72705851516883" lon="11.028864710640189"><ele>36.6</ele><time>2026-04-18T11:08:08Z</time></trkpt><trkpt lat="43.72698594727756" lon="11.028969658908032"><ele>36.800000000000004</ele><time>2026-04-18T11:08:10Z</time></trkpt><trkpt lat="43.7269168954174" lon="11.029075067228312"><ele>37.0</ele><time>2026-04-18T11:08:12Z</time></trkpt><trkpt lat="43.726845228006184" lon="11.029179913788314"><ele>37.0</ele><time>2026-04-18T11:08:14Z</time></trkpt><trkpt lat="43.72678209942201" lon="11.029282033588713"><ele>37.0</ele><time>2026-04-18T11:08:16Z</time></trkpt><trkpt lat="43.72672428886951" lon="11.02939010794141"><ele>37.0</ele><time>2026-04-18T11:08:18Z</time></trkpt><trkpt lat="43.726665851810175" lon="11.029495554351328"><ele>37.0</ele><time>2026-04-18T11:08:20Z</time></trkpt><trkpt lat="43.72660081759465" lon="11.029601853357073"><ele>37.0</ele><time>2026-04-18T11:08:22Z</time></trkpt><trkpt lat="43.72655068028324" lon="11.029703617217935"><ele>37.0</ele><time>2026-04-18T11:08:24Z</time></trkpt><trkpt lat="43.726502328801956" lon="11.029814553486219"><ele>37.0</ele><time>2026-04-18T11:08:26Z</time></trkpt><trkpt lat="43.72645702972699" lon="11.029924769837203"><ele>37.0</ele><time>2026-04-18T11:08:28Z</time></trkpt><trkpt lat="43.726413410852885" lon="11.030034154986248"><ele>37.0</ele><time>2026-04-18T11:08:30Z</time></trkpt><trkpt lat="43.7263666630634" lon="11.030138067353791"><ele>37.0</ele><time>2026-04-18T11:08:32Z</time></trkpt><trkpt lat="43.7263205477236" lon="11.030240564264417"><ele>37.0</ele><time>2026-04-18T11:08:34Z</time></trkpt><trkpt lat="43.72627686692411" lon="11.030346325440194"><ele>37.0</ele><time>2026-04-18T11:08:36Z</time></trkpt><trkpt lat="43.726229600578236" lon="11.030450459285403"><ele>37.0</ele><time>2026-04-18T11:08:38Z</time></trkpt><trkpt lat="43.72618375454146" lon="11.030555284911218"><ele>37.0</ele><time>2026-04-18T11:08:40Z</time></trkpt><trkpt lat="43.72613051020151" lon="11.030658469691932"><ele>37.0</ele><time>2026-04-18T11:08:42Z</time></trkpt><trkpt lat="43.72605766386622" lon="11.030750376360803"><ele>38.0</ele><time>2026-04-18T11:08:44Z</time></trkpt><trkpt lat="43.72596814685696" lon="11.030808584615786"><ele>39.0</ele><time>2026-04-18T11:08:46Z</time></trkpt><trkpt lat="43.725869460305596" lon="11.03088281612954"><ele>40.0</ele><time>2026-04-18T11:08:48Z</time></trkpt><trkpt lat="43.725767844429996" lon="11.030964968287075"><ele>41.0</ele><time>2026-04-18T11:08:50Z</time></trkpt><trkpt lat="43.7256673112787" lon="11.031062178152425"><ele>41.0</ele><time>2026-04-18T11:08:52Z</time></trkpt><trkpt lat="43.72561151066933" lon="11.031114457198619"><ele>41.0</ele><time>2026-04-18T11:08:53Z</time></trkpt><trkpt lat="43.72550610000834" lon="11.03121391690828"><ele>41.0</ele><time>2026-04-18T11:08:55Z</time></trkpt><trkpt lat="43.725444670637266" lon="11.031249140809686"><ele>41.0</ele><time>2026-04-18T11:08:56Z</time></trkpt><trkpt lat="43.72538701807611" lon="11.031298559076154"><ele>41.0</ele><time>2026-04-18T11:08:57Z</time></trkpt><trkpt lat="43.72533405081853" lon="11.031362608538315"><ele>41.0</ele><time>2026-04-18T11:08:58Z</time></trkpt><trkpt lat="43.725286064616924" lon="11.031433447813427"><ele>40.99999999999999</ele><time>2026-04-18T11:08:59Z</time></trkpt><trkpt lat="43.7252380456917" lon="11.031499591686208"><ele>41.0</ele><time>2026-04-18T11:09:00Z</time></trkpt><trkpt lat="43.72518540477066" lon="11.03156700569598"><ele>41.0</ele><time>2026-04-18T11:09:01Z</time></trkpt><trkpt lat="43.72513501254149" lon="11.031623777624878"><ele>41.0</ele><time>2026-04-18T11:09:02Z</time></trkpt><trkpt lat="43.72508306048124" lon="11.031687210435372"><ele>41.0</ele><time>2026-04-18T11:09:03Z</time></trkpt><trkpt lat="43.7250306516025" lon="11.031752426695792"><ele>40.99999999999999</ele><time>2026-04-18T11:09:04Z</time></trkpt><trkpt lat="43.72498391611166" lon="11.031813534859817"><ele>41.0</ele><time>2026-04-18T11:09:05Z</time></trkpt><trkpt lat="43.724883869311185" lon="11.031921643359372"><ele>41.0</ele><time>2026-04-18T11:09:07Z</time></trkpt><trkpt lat="43.72484186995236" lon="11.031986991509418"><ele>41.0</ele><time>2026-04-18T11:09:08Z</time></trkpt><trkpt lat="43.724798413860285" lon="11.032053916886097"><ele>41.0</ele><time>2026-04-18T11:09:09Z</time></trkpt><trkpt lat="43.724715510526025" lon="11.03217542371648"><ele>41.0</ele><time>2026-04-18T11:09:11Z</time></trkpt><trkpt lat="43.724649046839545" lon="11.032305872701626"><ele>41.0</ele><time>2026-04-18T11:09:13Z</time></trkpt><trkpt lat="43.724589870703255" lon="11.032365850738474"><ele>41.0</ele><time>2026-04-18T11:09:14Z</time></trkpt><trkpt lat="43.724551677421324" lon="11.032435574164209"><ele>40.666666666666664</ele><time>2026-04-18T11:09:15Z</time></trkpt><trkpt lat="43.7244861262197" lon="11.032569654655621"><ele>40.33333333333333</ele><time>2026-04-18T11:09:17Z</time></trkpt><trkpt lat="43.72444744388906" lon="11.03264276229806"><ele>40.0</ele><time>2026-04-18T11:09:18Z</time></trkpt><trkpt lat="43.72441097906615" lon="11.032715780312728"><ele>39.666666666666664</ele><time>2026-04-18T11:09:19Z</time></trkpt><trkpt lat="43.72434041457122" lon="11.032857257759565"><ele>39.333333333333336</ele><time>2026-04-18T11:09:21Z</time></trkpt><trkpt lat="43.72430178669691" lon="11.032928195458716"><ele>39.0</ele><time>2026-04-18T11:09:22Z</time></trkpt><trkpt lat="43.72422963077608" lon="11.033060314061203"><ele>39.0</ele><time>2026-04-18T11:09:24Z</time></trkpt><trkpt lat="43.72416363385001" lon="11.033193425457776"><ele>39.0</ele><time>2026-04-18T11:09:26Z</time></trkpt><trkpt lat="43.72409617339353" lon="11.033326987773444"><ele>39.0</ele><time>2026-04-18T11:09:28Z</time></trkpt><trkpt lat="43.72403111927436" lon="11.033453869960987"><ele>39.0</ele><time>2026-04-18T11:09:30Z</time></trkpt><trkpt lat="43.72396652242656" lon="11.033582247499355"><ele>40.0</ele><time>2026-04-18T11:09:32Z</time></trkpt><trkpt lat="43.72391193107375" lon="11.03371375165892"><ele>41.0</ele><time>2026-04-18T11:09:34Z</time></trkpt><trkpt lat="43.723858121157974" lon="11.033853654701277"><ele>42.0</ele><time>2026-04-18T11:09:36Z</time></trkpt><trkpt lat="43.72381225551424" lon="11.03400745065102"><ele>43.0</ele><time>2026-04-18T11:09:38Z</time></trkpt><trkpt lat="43.72375686329465" lon="11.03414326248085"><ele>41.25</ele><time>2026-04-18T11:09:40Z</time></trkpt><trkpt lat="43.72370301529213" lon="11.034288726568123"><ele>39.5</ele><time>2026-04-18T11:09:42Z</time></trkpt><trkpt lat="43.72365590760601" lon="11.034431783947506"><ele>37.75</ele><time>2026-04-18T11:09:44Z</time></trkpt><trkpt lat="43.723600698246784" lon="11.034576565888363"><ele>36.0</ele><time>2026-04-18T11:09:46Z</time></trkpt><trkpt lat="43.72354617757278" lon="11.034721421873593"><ele>36.0</ele><time>2026-04-18T11:09:48Z</time></trkpt><trkpt lat="43.72349080587267" lon="11.034865122531162"><ele>36.0</ele><time>2026-04-18T11:09:50Z</time></trkpt><trkpt lat="43.723437149134966" lon="11.035009006509098"><ele>36.0</ele><time>2026-04-18T11:09:52Z</time></trkpt><trkpt lat="43.72338686387279" lon="11.035152148089155"><ele>36.0</ele><time>2026-04-18T11:09:54Z</time></trkpt><trkpt lat="43.72333362953155" lon="11.035300073355428"><ele>37.5</ele><time>2026-04-18T11:09:56Z</time></trkpt><trkpt lat="43.72328063374265" lon="11.035443279936908"><ele>39.0</ele><time>2026-04-18T11:09:58Z</time></trkpt><trkpt lat="43.72322536054649" lon="11.035588901747266"><ele>40.5</ele><time>2026-04-18T11:10:00Z</time></trkpt><trkpt lat="43.723168526954815" lon="11.035737104196166"><ele>42.0</ele><time>2026-04-18T11:10:02Z</time></trkpt><trkpt lat="43.72311717192229" lon="11.035872518357976"><ele>43.0</ele><time>2026-04-18T11:10:04Z</time></trkpt><trkpt lat="43.723068919881" lon="11.036019181011058"><ele>44.0</ele><time>2026-04-18T11:10:06Z</time></trkpt><trkpt lat="43.723020032427705" lon="11.036163213151765"><ele>45.0</ele><time>2026-04-18T11:10:08Z</time></trkpt><trkpt lat="43.722966227222265" lon="11.036303061227285"><ele>46.0</ele><time>2026-04-18T11:10:10Z</time></trkpt><trkpt lat="43.72290804214509" lon="11.036435848499924"><ele>46.0</ele><time>2026-04-18T11:10:12Z</time></trkpt><trkpt lat="43.72283826424977" lon="11.03656203955735"><ele>46.0</ele><time>2026-04-18T11:10:14Z</time></trkpt><trkpt lat="43.72275746681068" lon="11.036678942408434"><ele>46.0</ele><time>2026-04-18T11:10:16Z</time></trkpt><trkpt lat="43.722688858883544" lon="11.036802708254147"><ele>46.0</ele><time>2026-04-18T11:10:18Z</time></trkpt><trkpt lat="43.72261384320417" lon="11.036918675829444"><ele>46.199999999999996</ele><time>2026-04-18T11:10:20Z</time></trkpt><trkpt lat="43.722545770225466" lon="11.037036644509719"><ele>46.4</ele><time>2026-04-18T11:10:22Z</time></trkpt><trkpt lat="43.72248013491366" lon="11.037161932393165"><ele>46.6</ele><time>2026-04-18T11:10:24Z</time></trkpt><trkpt lat="43.72241034854945" lon="11.03728269125855"><ele>46.8</ele><time>2026-04-18T11:10:26Z</time></trkpt><trkpt lat="43.722340113656294" lon="11.037400348075888"><ele>47.0</ele><time>2026-04-18T11:10:28Z</time></trkpt><trkpt lat="43.72226818118611" lon="11.03751867914858"><ele>47.0</ele><time>2026-04-18T11:10:30Z</time></trkpt><trkpt lat="43.72219623538614" lon="11.037634949148588"><ele>47.0</ele><time>2026-04-18T11:10:32Z</time></trkpt><trkpt lat="43.7221215162857" lon="11.03773724293051"><ele>47.0</ele><time>2026-04-18T11:10:34Z</time></trkpt><trkpt lat="43.72203799715933" lon="11.037839144429952"><ele>47.0</ele><time>2026-04-18T11:10:36Z</time></trkpt><trkpt lat="43.72195188775454" lon="11.037939992576758"><ele>47.0</ele><time>2026-04-18T11:10:38Z</time></trkpt><trkpt lat="43.72186346248073" lon="11.038031181729885"><ele>46.8</ele><time>2026-04-18T11:10:40Z</time></trkpt><trkpt lat="43.721772335882314" lon="11.038115096681647"><ele>46.6</ele><time>2026-04-18T11:10:42Z</time></trkpt><trkpt lat="43.72167788799106" lon="11.038191976218219"><ele>46.4</ele><time>2026-04-18T11:10:44Z</time></trkpt><trkpt lat="43.72158269314849" lon="11.0382671406565"><ele>46.199999999999996</ele><time>2026-04-18T11:10:46Z</time></trkpt><trkpt lat="43.72148576177822" lon="11.03833369306027"><ele>46.0</ele><time>2026-04-18T11:10:48Z</time></trkpt><trkpt lat="43.721390339604724" lon="11.038397437065347"><ele>46.0</ele><time>2026-04-18T11:10:50Z</time></trkpt><trkpt lat="43.721293062970915" lon="11.03845887841517"><ele>46.0</ele><time>2026-04-18T11:10:52Z</time></trkpt><trkpt lat="43.72119608737235" lon="11.038519425284349"><ele>46.0</ele><time>2026-04-18T11:10:54Z</time></trkpt><trkpt lat="43.7210979486398" lon="11.03858133747479"><ele>46.0</ele><time>2026-04-18T11:10:56Z</time></trkpt><trkpt lat="43.721001798289166" lon="11.038642517533534"><ele>46.0</ele><time>2026-04-18T11:10:58Z</time></trkpt><trkpt lat="43.72089889777172" lon="11.038701606472655"><ele>44.199999999999996</ele><time>2026-04-18T11:11:00Z</time></trkpt><trkpt lat="43.72079851378009" lon="11.038763226642931"><ele>42.4</ele><time>2026-04-18T11:11:02Z</time></trkpt><trkpt lat="43.72069862304666" lon="11.038824488698934"><ele>40.6</ele><time>2026-04-18T11:11:04Z</time></trkpt><trkpt lat="43.72060068827628" lon="11.038885405062649"><ele>38.8</ele><time>2026-04-18T11:11:06Z</time></trkpt><trkpt lat="43.720503064413506" lon="11.038948384043048"><ele>37.0</ele><time>2026-04-18T11:11:08Z</time></trkpt><trkpt lat="43.720409463106726" lon="11.039010290117702"><ele>37.0</ele><time>2026-04-18T11:11:10Z</time></trkpt><trkpt lat="43.720318210866566" lon="11.039081878730494"><ele>37.0</ele><time>2026-04-18T11:11:12Z</time></trkpt><trkpt lat="43.720237058369776" lon="11.039165817686472"><ele>37.0</ele><time>2026-04-18T11:11:14Z</time></trkpt><trkpt lat="43.72016554290447" lon="11.039267557057123"><ele>37.0</ele><time>2026-04-18T11:11:16Z</time></trkpt><trkpt lat="43.72009819878482" lon="11.039382515372937"><ele>37.0</ele><time>2026-04-18T11:11:18Z</time></trkpt><trkpt lat="43.72004222068611" lon="11.039508363836159"><ele>37.0</ele><time>2026-04-18T11:11:20Z</time></trkpt><trkpt lat="43.719994078160134" lon="11.039645925042878"><ele>37.0</ele><time>2026-04-18T11:11:22Z</time></trkpt><trkpt lat="43.719954249107445" lon="11.03978223586411"><ele>37.0</ele><time>2026-04-18T11:11:24Z</time></trkpt><trkpt lat="43.71991744888869" lon="11.039917866761627"><ele>37.0</ele><time>2026-04-18T11:11:26Z</time></trkpt><trkpt lat="43.719879926368584" lon="11.040053544066817"><ele>37.0</ele><time>2026-04-18T11:11:28Z</time></trkpt><trkpt lat="43.719843849879325" lon="11.040190262685822"><ele>37.4</ele><time>2026-04-18T11:11:30Z</time></trkpt><trkpt lat="43.71980499348681" lon="11.040325508775508"><ele>37.800000000000004</ele><time>2026-04-18T11:11:32Z</time></trkpt><trkpt lat="43.71977150090412" lon="11.040456315086203"><ele>38.2</ele><time>2026-04-18T11:11:34Z</time></trkpt><trkpt lat="43.719732746998154" lon="11.040576196684764"><ele>38.6</ele><time>2026-04-18T11:11:36Z</time></trkpt><trkpt lat="43.719701329739024" lon="11.04069959582909"><ele>39.0</ele><time>2026-04-18T11:11:38Z</time></trkpt><trkpt lat="43.7196678955543" lon="11.0408214433702"><ele>39.8</ele><time>2026-04-18T11:11:40Z</time></trkpt><trkpt lat="43.719629461070184" lon="11.04094308337041"><ele>40.599999999999994</ele><time>2026-04-18T11:11:42Z</time></trkpt><trkpt lat="43.71959690433031" lon="11.041067477459672"><ele>41.4</ele><time>2026-04-18T11:11:44Z</time></trkpt><trkpt lat="43.71955955766984" lon="11.041189715346254"><ele>42.199999999999996</ele><time>2026-04-18T11:11:46Z</time></trkpt><trkpt lat="43.71952481202036" lon="11.0413122313593"><ele>43.0</ele><time>2026-04-18T11:11:48Z</time></trkpt><trkpt lat="43.71949117238631" lon="11.041436685342033"><ele>43.0</ele><time>2026-04-18T11:11:50Z</time></trkpt><trkpt lat="43.71945424885131" lon="11.04155862065016"><ele>43.0</ele><time>2026-04-18T11:11:52Z</time></trkpt><trkpt lat="43.71941689221302" lon="11.041679942144446"><ele>43.0</ele><time>2026-04-18T11:11:54Z</time></trkpt><trkpt lat="43.71937537555181" lon="11.041803048009985"><ele>43.0</ele><time>2026-04-18T11:11:56Z</time></trkpt><trkpt lat="43.71934187915428" lon="11.041926454652959"><ele>43.0</ele><time>2026-04-18T11:11:58Z</time></trkpt><trkpt lat="43.71930972026137" lon="11.042052096206804"><ele>42.8</ele><time>2026-04-18T11:12:00Z</time></trkpt><trkpt lat="43.71927791519855" lon="11.042176793433104"><ele>42.599999999999994</ele><time>2026-04-18T11:12:02Z</time></trkpt><trkpt lat="43.719242914655325" lon="11.042302373983915"><ele>42.400000000000006</ele><time>2026-04-18T11:12:04Z</time></trkpt><trkpt lat="43.71921232932699" lon="11.04243369505887"><ele>42.2</ele><time>2026-04-18T11:12:06Z</time></trkpt><trkpt lat="43.719172768553676" lon="11.042567406449194"><ele>42.0</ele><time>2026-04-18T11:12:08Z</time></trkpt><trkpt lat="43.71913603454076" lon="11.042706038057027"><ele>41.8</ele><time>2026-04-18T11:12:10Z</time></trkpt><trkpt lat="43.71909490475647" lon="11.042844019725766"><ele>41.6</ele><time>2026-04-18T11:12:12Z</time></trkpt><trkpt lat="43.71905824010085" lon="11.042983343692189"><ele>41.4</ele><time>2026-04-18T11:12:14Z</time></trkpt><trkpt lat="43.719015770826054" lon="11.043119159565382"><ele>41.199999999999996</ele><time>2026-04-18T11:12:16Z</time></trkpt><trkpt lat="43.71897434737853" lon="11.043257201806055"><ele>41.0</ele><time>2026-04-18T11:12:18Z</time></trkpt><trkpt lat="43.71893698632774" lon="11.043394243855333"><ele>41.4</ele><time>2026-04-18T11:12:20Z</time></trkpt><trkpt lat="43.71889729663525" lon="11.04353364081738"><ele>41.8</ele><time>2026-04-18T11:12:22Z</time></trkpt><trkpt lat="43.71885721303936" lon="11.043671659296773"><ele>42.199999999999996</ele><time>2026-04-18T11:12:24Z</time></trkpt><trkpt lat="43.718821782025195" lon="11.04380806171383"><ele>42.599999999999994</ele><time>2026-04-18T11:12:26Z</time></trkpt><trkpt lat="43.71877924296102" lon="11.043943951097022"><ele>43.0</ele><time>2026-04-18T11:12:28Z</time></trkpt><trkpt lat="43.71874098923532" lon="11.044077386814541"><ele>42.199999999999996</ele><time>2026-04-18T11:12:30Z</time></trkpt><trkpt lat="43.71869701653097" lon="11.044213884257307"><ele>41.4</ele><time>2026-04-18T11:12:32Z</time></trkpt><trkpt lat="43.718653402292134" lon="11.044341677599087"><ele>40.599999999999994</ele><time>2026-04-18T11:12:34Z</time></trkpt><trkpt lat="43.71860151820414" lon="11.044471126942666"><ele>39.8</ele><time>2026-04-18T11:12:36Z</time></trkpt><trkpt lat="43.71855356724456" lon="11.044599111840542"><ele>39.0</ele><time>2026-04-18T11:12:38Z</time></trkpt><trkpt lat="43.7184902822589" lon="11.044715481018915"><ele>39.0</ele><time>2026-04-18T11:12:40Z</time></trkpt><trkpt lat="43.71842610655581" lon="11.044832979286554"><ele>39.0</ele><time>2026-04-18T11:12:42Z</time></trkpt><trkpt lat="43.71835324404923" lon="11.044946822040798"><ele>39.0</ele><time>2026-04-18T11:12:44Z</time></trkpt><trkpt lat="43.718282553633586" lon="11.04505706047376"><ele>39.0</ele><time>2026-04-18T11:12:46Z</time></trkpt><trkpt lat="43.718208466520124" lon="11.045164710165363"><ele>39.0</ele><time>2026-04-18T11:12:48Z</time></trkpt><trkpt lat="43.71813773575233" lon="11.045279315851891"><ele>40.2</ele><time>2026-04-18T11:12:50Z</time></trkpt><trkpt lat="43.7180668196099" lon="11.045395910600817"><ele>41.4</ele><time>2026-04-18T11:12:52Z</time></trkpt><trkpt lat="43.71799293189444" lon="11.045513082621909"><ele>42.6</ele><time>2026-04-18T11:12:54Z</time></trkpt><trkpt lat="43.71791881057064" lon="11.045633714142017"><ele>43.8</ele><time>2026-04-18T11:12:56Z</time></trkpt><trkpt lat="43.71784627173925" lon="11.045750780869625"><ele>45.0</ele><time>2026-04-18T11:12:58Z</time></trkpt><trkpt lat="43.71776627983873" lon="11.045860608876994"><ele>44.8</ele><time>2026-04-18T11:13:00Z</time></trkpt><trkpt lat="43.71769582271176" lon="11.045983954170023"><ele>44.6</ele><time>2026-04-18T11:13:02Z</time></trkpt><trkpt lat="43.71762736414602" lon="11.046106181695087"><ele>44.400000000000006</ele><time>2026-04-18T11:13:04Z</time></trkpt><trkpt lat="43.717560998319804" lon="11.046232278952173"><ele>44.2</ele><time>2026-04-18T11:13:06Z</time></trkpt><trkpt lat="43.71749214209699" lon="11.046348893653516"><ele>44.0</ele><time>2026-04-18T11:13:08Z</time></trkpt><trkpt lat="43.71743430951092" lon="11.046475762601697"><ele>44.0</ele><time>2026-04-18T11:13:10Z</time></trkpt><trkpt lat="43.71737225083508" lon="11.046594659733852"><ele>44.0</ele><time>2026-04-18T11:13:12Z</time></trkpt><trkpt lat="43.71731042729669" lon="11.046702773467969"><ele>44.0</ele><time>2026-04-18T11:13:14Z</time></trkpt><trkpt lat="43.717254155571936" lon="11.046821005103393"><ele>44.0</ele><time>2026-04-18T11:13:16Z</time></trkpt><trkpt lat="43.71719422458405" lon="11.0469361528562"><ele>44.0</ele><time>2026-04-18T11:13:18Z</time></trkpt><trkpt lat="43.71713361355056" lon="11.047050374248743"><ele>43.800000000000004</ele><time>2026-04-18T11:13:20Z</time></trkpt><trkpt lat="43.71708036026451" lon="11.047164174727623"><ele>43.6</ele><time>2026-04-18T11:13:22Z</time></trkpt><trkpt lat="43.717032033946765" lon="11.047281464547916"><ele>43.4</ele><time>2026-04-18T11:13:24Z</time></trkpt><trkpt lat="43.716984152670754" lon="11.0473942700235"><ele>43.2</ele><time>2026-04-18T11:13:26Z</time></trkpt><trkpt lat="43.716934591215086" lon="11.04751299261834"><ele>43.0</ele><time>2026-04-18T11:13:28Z</time></trkpt><trkpt lat="43.71688648982598" lon="11.047634948331064"><ele>43.0</ele><time>2026-04-18T11:13:30Z</time></trkpt><trkpt lat="43.71684140877297" lon="11.047766083896681"><ele>43.0</ele><time>2026-04-18T11:13:32Z</time></trkpt><trkpt lat="43.71679459271391" lon="11.047893225878159"><ele>43.0</ele><time>2026-04-18T11:13:34Z</time></trkpt><trkpt lat="43.71674715604948" lon="11.048019770042094"><ele>43.0</ele><time>2026-04-18T11:13:36Z</time></trkpt><trkpt lat="43.71670681319953" lon="11.048151452735981"><ele>43.0</ele><time>2026-04-18T11:13:38Z</time></trkpt><trkpt lat="43.71666748992837" lon="11.048278141983019"><ele>43.2</ele><time>2026-04-18T11:13:40Z</time></trkpt><trkpt lat="43.71663215120768" lon="11.048406172185878"><ele>43.4</ele><time>2026-04-18T11:13:42Z</time></trkpt><trkpt lat="43.716595880983135" lon="11.048532306259995"><ele>43.6</ele><time>2026-04-18T11:13:44Z</time></trkpt><trkpt lat="43.71656222858762" lon="11.048655864025745"><ele>43.800000000000004</ele><time>2026-04-18T11:13:46Z</time></trkpt><trkpt lat="43.71653282328202" lon="11.048779566277899"><ele>44.0</ele><time>2026-04-18T11:13:48Z</time></trkpt><trkpt lat="43.716502177350975" lon="11.048907657718471"><ele>44.0</ele><time>2026-04-18T11:13:50Z</time></trkpt><trkpt lat="43.716467114005425" lon="11.049037996337983"><ele>44.0</ele><time>2026-04-18T11:13:52Z</time></trkpt><trkpt lat="43.716431309471076" lon="11.049170775702356"><ele>44.0</ele><time>2026-04-18T11:13:54Z</time></trkpt><trkpt lat="43.71639100701098" lon="11.049304272520807"><ele>44.0</ele><time>2026-04-18T11:13:56Z</time></trkpt><trkpt lat="43.716356024023554" lon="11.049433933604774"><ele>44.0</ele><time>2026-04-18T11:13:58Z</time></trkpt><trkpt lat="43.71632156631966" lon="11.04956636849093"><ele>45.0</ele><time>2026-04-18T11:14:00Z</time></trkpt><trkpt lat="43.71628402678681" lon="11.04969102137782"><ele>46.0</ele><time>2026-04-18T11:14:02Z</time></trkpt><trkpt lat="43.71624799196052" lon="11.049818127065121"><ele>47.0</ele><time>2026-04-18T11:14:04Z</time></trkpt><trkpt lat="43.71620243281462" lon="11.049942397663195"><ele>48.0</ele><time>2026-04-18T11:14:06Z</time></trkpt><trkpt lat="43.71616381779823" lon="11.050069396134685"><ele>49.0</ele><time>2026-04-18T11:14:08Z</time></trkpt><trkpt lat="43.716123499528365" lon="11.050193088300395"><ele>48.800000000000004</ele><time>2026-04-18T11:14:10Z</time></trkpt><trkpt lat="43.716082461030076" lon="11.050320276909332"><ele>48.6</ele><time>2026-04-18T11:14:12Z</time></trkpt><trkpt lat="43.71604202511978" lon="11.050439884761754"><ele>48.4</ele><time>2026-04-18T11:14:14Z</time></trkpt><trkpt lat="43.7159999226976" lon="11.050566003595286"><ele>48.2</ele><time>2026-04-18T11:14:16Z</time></trkpt><trkpt lat="43.71595750979598" lon="11.050693071249258"><ele>48.0</ele><time>2026-04-18T11:14:18Z</time></trkpt><trkpt lat="43.715918184264545" lon="11.050818785486177"><ele>48.0</ele><time>2026-04-18T11:14:20Z</time></trkpt><trkpt lat="43.71587472052819" lon="11.050943279931278"><ele>48.0</ele><time>2026-04-18T11:14:22Z</time></trkpt><trkpt lat="43.715831674346646" lon="11.051067958912027"><ele>48.0</ele><time>2026-04-18T11:14:24Z</time></trkpt><trkpt lat="43.715792333332885" lon="11.051188829654262"><ele>48.0</ele><time>2026-04-18T11:14:26Z</time></trkpt><trkpt lat="43.715750128263274" lon="11.051303338555902"><ele>48.0</ele><time>2026-04-18T11:14:28Z</time></trkpt><trkpt lat="43.71571173858152" lon="11.051427427597067"><ele>48.0</ele><time>2026-04-18T11:14:30Z</time></trkpt><trkpt lat="43.71567131000242" lon="11.051553293766563"><ele>48.0</ele><time>2026-04-18T11:14:32Z</time></trkpt><trkpt lat="43.715628632271745" lon="11.051672308376414"><ele>48.0</ele><time>2026-04-18T11:14:34Z</time></trkpt><trkpt lat="43.71558496632422" lon="11.05179551919041"><ele>48.0</ele><time>2026-04-18T11:14:36Z</time></trkpt><trkpt lat="43.71554512745747" lon="11.051917292141768"><ele>48.0</ele><time>2026-04-18T11:14:38Z</time></trkpt><trkpt lat="43.715503510821" lon="11.05204058371638"><ele>49.4</ele><time>2026-04-18T11:14:40Z</time></trkpt><trkpt lat="43.715458960758355" lon="11.052158758039804"><ele>50.8</ele><time>2026-04-18T11:14:42Z</time></trkpt><trkpt lat="43.7154106963976" lon="11.052276587924501"><ele>52.2</ele><time>2026-04-18T11:14:44Z</time></trkpt><trkpt lat="43.71536384024985" lon="11.052393324486049"><ele>53.6</ele><time>2026-04-18T11:14:46Z</time></trkpt><trkpt lat="43.71531446984131" lon="11.052512432061556"><ele>55.0</ele><time>2026-04-18T11:14:48Z</time></trkpt><trkpt lat="43.71526801432083" lon="11.052629816292802"><ele>54.0</ele><time>2026-04-18T11:14:50Z</time></trkpt><trkpt lat="43.715216670042985" lon="11.052745257218858"><ele>53.0</ele><time>2026-04-18T11:14:52Z</time></trkpt><trkpt lat="43.71516832220808" lon="11.052860544743337"><ele>52.0</ele><time>2026-04-18T11:14:54Z</time></trkpt><trkpt lat="43.715120434444906" lon="11.05297963705715"><ele>51.0</ele><time>2026-04-18T11:14:56Z</time></trkpt><trkpt lat="43.71506940604541" lon="11.053090821278982"><ele>50.0</ele><time>2026-04-18T11:14:58Z</time></trkpt><trkpt lat="43.71501911992703" lon="11.053205115767883"><ele>51.2</ele><time>2026-04-18T11:15:00Z</time></trkpt><trkpt lat="43.71497285768378" lon="11.05332715206433"><ele>52.4</ele><time>2026-04-18T11:15:02Z</time></trkpt><trkpt lat="43.71492462575612" lon="11.053444203007873"><ele>53.599999999999994</ele><time>2026-04-18T11:15:04Z</time></trkpt><trkpt lat="43.714875576128975" lon="11.053565497069151"><ele>54.8</ele><time>2026-04-18T11:15:06Z</time></trkpt><trkpt lat="43.71482636969616" lon="11.053687346165516"><ele>56.0</ele><time>2026-04-18T11:15:08Z</time></trkpt><trkpt lat="43.71477183572233" lon="11.053811269079572"><ele>56.0</ele><time>2026-04-18T11:15:10Z</time></trkpt><trkpt lat="43.714720876418745" lon="11.053942655803963"><ele>55.99999999999999</ele><time>2026-04-18T11:15:12Z</time></trkpt><trkpt lat="43.71467103129786" lon="11.054074457209815"><ele>55.99999999999999</ele><time>2026-04-18T11:15:14Z</time></trkpt><trkpt lat="43.714617798952574" lon="11.05420156278834"><ele>56.0</ele><time>2026-04-18T11:15:16Z</time></trkpt><trkpt lat="43.714561718619244" lon="11.05433443460691"><ele>56.0</ele><time>2026-04-18T11:15:18Z</time></trkpt><trkpt lat="43.714506791949894" lon="11.054463829387561"><ele>55.75</ele><time>2026-04-18T11:15:20Z</time></trkpt><trkpt lat="43.71445170833115" lon="11.05460023061159"><ele>55.5</ele><time>2026-04-18T11:15:22Z</time></trkpt><trkpt lat="43.714395673022594" lon="11.054733142300481"><ele>55.25</ele><time>2026-04-18T11:15:24Z</time></trkpt><trkpt lat="43.71434345228139" lon="11.054871365074542"><ele>55.0</ele><time>2026-04-18T11:15:26Z</time></trkpt><trkpt lat="43.71428451772968" lon="11.055009453179668"><ele>56.0</ele><time>2026-04-18T11:15:28Z</time></trkpt><trkpt lat="43.71423060986724" lon="11.055149513368073"><ele>57.0</ele><time>2026-04-18T11:15:30Z</time></trkpt><trkpt lat="43.714178113279196" lon="11.055291272061025"><ele>58.0</ele><time>2026-04-18T11:15:32Z</time></trkpt><trkpt lat="43.71412657529801" lon="11.055435202033625"><ele>59.0</ele><time>2026-04-18T11:15:34Z</time></trkpt><trkpt lat="43.71406446869931" lon="11.055580549452248"><ele>59.0</ele><time>2026-04-18T11:15:36Z</time></trkpt><trkpt lat="43.714002093225744" lon="11.055720782965656"><ele>59.0</ele><time>2026-04-18T11:15:38Z</time></trkpt><trkpt lat="43.71396012984341" lon="11.05586455432736"><ele>59.0</ele><time>2026-04-18T11:15:40Z</time></trkpt><trkpt lat="43.713896502318256" lon="11.056008444338286"><ele>59.0</ele><time>2026-04-18T11:15:42Z</time></trkpt><trkpt lat="43.71383678974246" lon="11.056147663847645"><ele>59.25</ele><time>2026-04-18T11:15:44Z</time></trkpt><trkpt lat="43.71376722879717" lon="11.05628265367158"><ele>59.5</ele><time>2026-04-18T11:15:46Z</time></trkpt><trkpt lat="43.7137127016718" lon="11.05643101609951"><ele>59.75</ele><time>2026-04-18T11:15:48Z</time></trkpt><trkpt lat="43.71365673223575" lon="11.056580464981087"><ele>60.0</ele><time>2026-04-18T11:15:50Z</time></trkpt><trkpt lat="43.713601739838275" lon="11.056719281659934"><ele>57.25</ele><time>2026-04-18T11:15:52Z</time></trkpt><trkpt lat="43.713548867211756" lon="11.056865197211078"><ele>54.5</ele><time>2026-04-18T11:15:54Z</time></trkpt><trkpt lat="43.71348551375866" lon="11.057005791963244"><ele>51.75</ele><time>2026-04-18T11:15:56Z</time></trkpt><trkpt lat="43.71343363690523" lon="11.057147646685955"><ele>49.0</ele><time>2026-04-18T11:15:58Z</time></trkpt><trkpt lat="43.71336770899881" lon="11.05728496678083"><ele>49.0</ele><time>2026-04-18T11:16:00Z</time></trkpt><trkpt lat="43.71333968747477" lon="11.057363391575482"><ele>49.0</ele><time>2026-04-18T11:16:01Z</time></trkpt><trkpt lat="43.71328732071313" lon="11.057505887349752"><ele>49.0</ele><time>2026-04-18T11:16:03Z</time></trkpt><trkpt lat="43.71324607250173" lon="11.057657460037126"><ele>49.0</ele><time>2026-04-18T11:16:05Z</time></trkpt><trkpt lat="43.71321294177015" lon="11.057816394264004"><ele>49.0</ele><time>2026-04-18T11:16:07Z</time></trkpt><trkpt lat="43.71317901961687" lon="11.057973456977669"><ele>50.25</ele><time>2026-04-18T11:16:09Z</time></trkpt><trkpt lat="43.71315588183788" lon="11.058134149496306"><ele>51.5</ele><time>2026-04-18T11:16:11Z</time></trkpt><trkpt lat="43.71312968996552" lon="11.058298460679664"><ele>52.75</ele><time>2026-04-18T11:16:13Z</time></trkpt><trkpt lat="43.71310538316663" lon="11.058462241995365"><ele>54.0</ele><time>2026-04-18T11:16:15Z</time></trkpt><trkpt lat="43.71306716195384" lon="11.058624083398213"><ele>55.2</ele><time>2026-04-18T11:16:17Z</time></trkpt><trkpt lat="43.71302995157224" lon="11.058782972822097"><ele>56.400000000000006</ele><time>2026-04-18T11:16:19Z</time></trkpt><trkpt lat="43.712994269194766" lon="11.058942791394877"><ele>57.6</ele><time>2026-04-18T11:16:21Z</time></trkpt><trkpt lat="43.71297131328528" lon="11.059024270520455"><ele>58.8</ele><time>2026-04-18T11:16:22Z</time></trkpt><trkpt lat="43.71292503966115" lon="11.059182063615852"><ele>60.0</ele><time>2026-04-18T11:16:24Z</time></trkpt><trkpt lat="43.71288083968763" lon="11.059344706044126"><ele>60.8</ele><time>2026-04-18T11:16:26Z</time></trkpt><trkpt lat="43.712826795962265" lon="11.059498773749215"><ele>61.6</ele><time>2026-04-18T11:16:28Z</time></trkpt><trkpt lat="43.71277614890691" lon="11.059659896941865"><ele>62.400000000000006</ele><time>2026-04-18T11:16:30Z</time></trkpt><trkpt lat="43.71275167416305" lon="11.05974315850058"><ele>63.2</ele><time>2026-04-18T11:16:31Z</time></trkpt><trkpt lat="43.712727108667615" lon="11.05982814001529"><ele>64.0</ele><time>2026-04-18T11:16:32Z</time></trkpt><trkpt lat="43.71267182452787" lon="11.059982885847996"><ele>61.2</ele><time>2026-04-18T11:16:34Z</time></trkpt><trkpt lat="43.71264111419438" lon="11.060060155614254"><ele>58.400000000000006</ele><time>2026-04-18T11:16:35Z</time></trkpt><trkpt lat="43.712578768649635" lon="11.060206705744685"><ele>55.6</ele><time>2026-04-18T11:16:37Z</time></trkpt><trkpt lat="43.71252196275095" lon="11.0603471500468"><ele>52.8</ele><time>2026-04-18T11:16:39Z</time></trkpt><trkpt lat="43.712461351226686" lon="11.060491472622818"><ele>50.0</ele><time>2026-04-18T11:16:41Z</time></trkpt><trkpt lat="43.71238908780425" lon="11.060633607257763"><ele>50.00000000000001</ele><time>2026-04-18T11:16:43Z</time></trkpt><trkpt lat="43.712349486631055" lon="11.060702232510764"><ele>50.0</ele><time>2026-04-18T11:16:44Z</time></trkpt><trkpt lat="43.71231412482901" lon="11.0607760632147"><ele>50.0</ele><time>2026-04-18T11:16:45Z</time></trkpt><trkpt lat="43.71222890158615" lon="11.06091107346977"><ele>50.0</ele><time>2026-04-18T11:16:47Z</time></trkpt><trkpt lat="43.71219162395129" lon="11.06098637435633"><ele>50.00000000000001</ele><time>2026-04-18T11:16:48Z</time></trkpt><trkpt lat="43.71214472972886" lon="11.061052790869413"><ele>50.0</ele><time>2026-04-18T11:16:49Z</time></trkpt><trkpt lat="43.71206159406181" lon="11.061177927747584"><ele>50.25</ele><time>2026-04-18T11:16:51Z</time></trkpt><trkpt lat="43.711977733006414" lon="11.061303786611608"><ele>50.5</ele><time>2026-04-18T11:16:53Z</time></trkpt><trkpt lat="43.711902395730924" lon="11.061425099967902"><ele>50.75</ele><time>2026-04-18T11:16:55Z</time></trkpt><trkpt lat="43.7118244794041" lon="11.061538018156648"><ele>51.0</ele><time>2026-04-18T11:16:57Z</time></trkpt><trkpt lat="43.711744869377306" lon="11.06164419114267"><ele>50.25</ele><time>2026-04-18T11:16:59Z</time></trkpt><trkpt lat="43.71166097411542" lon="11.061748246636046"><ele>49.5</ele><time>2026-04-18T11:17:01Z</time></trkpt><trkpt lat="43.71157294141242" lon="11.061852753091795"><ele>48.75</ele><time>2026-04-18T11:17:03Z</time></trkpt><trkpt lat="43.711476309886834" lon="11.061937074100456"><ele>48.0</ele><time>2026-04-18T11:17:05Z</time></trkpt><trkpt lat="43.71136031408937" lon="11.061962903006844"><ele>48.0</ele><time>2026-04-18T11:17:07Z</time></trkpt><trkpt lat="43.71128391977322" lon="11.061983672952312"><ele>48.0</ele><time>2026-04-18T11:17:08Z</time></trkpt><trkpt lat="43.71119665198572" lon="11.061888660189057"><ele>48.0</ele><time>2026-04-18T11:17:10Z</time></trkpt><trkpt lat="43.71108568385846" lon="11.061845043044325"><ele>48.0</ele><time>2026-04-18T11:17:12Z</time></trkpt><trkpt lat="43.71097106450247" lon="11.061844666563386"><ele>48.0</ele><time>2026-04-18T11:17:14Z</time></trkpt><trkpt lat="43.710863595039555" lon="11.061913294884054"><ele>47.75</ele><time>2026-04-18T11:17:16Z</time></trkpt><trkpt lat="43.7107847711847" lon="11.062034344694432"><ele>47.5</ele><time>2026-04-18T11:17:18Z</time></trkpt><trkpt lat="43.710741182565236" lon="11.062185182593637"><ele>47.25</ele><time>2026-04-18T11:17:20Z</time></trkpt><trkpt lat="43.71073476697072" lon="11.062344749643898"><ele>47.0</ele><time>2026-04-18T11:17:22Z</time></trkpt><trkpt lat="43.71076257703382" lon="11.06249953590507"><ele>47.0</ele><time>2026-04-18T11:17:24Z</time></trkpt><trkpt lat="43.710836960285555" lon="11.062625021156892"><ele>47.0</ele><time>2026-04-18T11:17:26Z</time></trkpt><trkpt lat="43.71093057239972" lon="11.062719122077858"><ele>47.0</ele><time>2026-04-18T11:17:28Z</time></trkpt><trkpt lat="43.711038494219714" lon="11.062736996773824"><ele>47.0</ele><time>2026-04-18T11:17:30Z</time></trkpt><trkpt lat="43.71109283610563" lon="11.062924172602427"><ele>47.400000000000006</ele><time>2026-04-18T11:17:32Z</time></trkpt><trkpt lat="43.711122977951966" lon="11.063080922832448"><ele>47.800000000000004</ele><time>2026-04-18T11:17:34Z</time></trkpt><trkpt lat="43.71115346492542" lon="11.063242643373009"><ele>48.2</ele><time>2026-04-18T11:17:36Z</time></trkpt><trkpt lat="43.71118657456433" lon="11.063407768239244"><ele>48.6</ele><time>2026-04-18T11:17:38Z</time></trkpt><trkpt lat="43.71120827549978" lon="11.063489750821377"><ele>49.0</ele><time>2026-04-18T11:17:39Z</time></trkpt><trkpt lat="43.71125024037208" lon="11.063646675658303"><ele>49.6</ele><time>2026-04-18T11:17:41Z</time></trkpt><trkpt lat="43.71127534554629" lon="11.063805572949313"><ele>50.2</ele><time>2026-04-18T11:17:43Z</time></trkpt><trkpt lat="43.71127665063735" lon="11.063948370047655"><ele>50.800000000000004</ele><time>2026-04-18T11:17:45Z</time></trkpt><trkpt lat="43.7112536997272" lon="11.064050271163701"><ele>51.400000000000006</ele><time>2026-04-18T11:17:47Z</time></trkpt><trkpt lat="43.711260506653126" lon="11.064156697701618"><ele>52.0</ele><time>2026-04-18T11:17:50Z</time></trkpt><trkpt lat="43.71123671731073" lon="11.064259763232627"><ele>52.8</ele><time>2026-04-18T11:17:58Z</time></trkpt><trkpt lat="43.71125087619327" lon="11.064397099749037"><ele>53.6</ele><time>2026-04-18T11:18:01Z</time></trkpt><trkpt lat="43.71123267434239" lon="11.064527870640573"><ele>54.39999999999999</ele><time>2026-04-18T11:18:03Z</time></trkpt><trkpt lat="43.711214241044814" lon="11.06467568698932"><ele>55.199999999999996</ele><time>2026-04-18T11:18:05Z</time></trkpt><trkpt lat="43.71118702536013" lon="11.064821376814223"><ele>56.0</ele><time>2026-04-18T11:18:07Z</time></trkpt><trkpt lat="43.711158371577106" lon="11.064966258587322"><ele>57.0</ele><time>2026-04-18T11:18:09Z</time></trkpt><trkpt lat="43.71112405519662" lon="11.06510816012572"><ele>57.99999999999999</ele><time>2026-04-18T11:18:11Z</time></trkpt><trkpt lat="43.71108966773843" lon="11.065253718777935"><ele>58.99999999999999</ele><time>2026-04-18T11:18:13Z</time></trkpt><trkpt lat="43.711050019776195" lon="11.065393076073423"><ele>60.0</ele><time>2026-04-18T11:18:15Z</time></trkpt><trkpt lat="43.71101125600431" lon="11.065535620676966"><ele>61.0</ele><time>2026-04-18T11:18:17Z</time></trkpt><trkpt lat="43.71097252281511" lon="11.065673059854353"><ele>59.0</ele><time>2026-04-18T11:18:19Z</time></trkpt><trkpt lat="43.710933855077876" lon="11.065800404903372"><ele>56.99999999999999</ele><time>2026-04-18T11:18:21Z</time></trkpt><trkpt lat="43.71089646461795" lon="11.065945602978616"><ele>55.0</ele><time>2026-04-18T11:18:23Z</time></trkpt><trkpt lat="43.71086351895002" lon="11.06610369812292"><ele>53.0</ele><time>2026-04-18T11:18:25Z</time></trkpt><trkpt lat="43.71085146594054" lon="11.066190104555996"><ele>51.0</ele><time>2026-04-18T11:18:26Z</time></trkpt><trkpt lat="43.71081842981994" lon="11.066351092121813"><ele>51.0</ele><time>2026-04-18T11:18:28Z</time></trkpt><trkpt lat="43.71078716196405" lon="11.06651867885715"><ele>51.0</ele><time>2026-04-18T11:18:30Z</time></trkpt><trkpt lat="43.71075181471933" lon="11.066680695656716"><ele>51.0</ele><time>2026-04-18T11:18:32Z</time></trkpt><trkpt lat="43.71072243615103" lon="11.06684257682008"><ele>51.0</ele><time>2026-04-18T11:18:34Z</time></trkpt><trkpt lat="43.710696153343314" lon="11.067002557407719"><ele>51.0</ele><time>2026-04-18T11:18:36Z</time></trkpt><trkpt lat="43.71067113783714" lon="11.067157774624985"><ele>51.0</ele><time>2026-04-18T11:18:38Z</time></trkpt><trkpt lat="43.710641317068315" lon="11.067315541020623"><ele>51.0</ele><time>2026-04-18T11:18:40Z</time></trkpt><trkpt lat="43.71060575218658" lon="11.067467186953047"><ele>51.0</ele><time>2026-04-18T11:18:42Z</time></trkpt><trkpt lat="43.71056476647199" lon="11.067608552882557"><ele>51.199999999999996</ele><time>2026-04-18T11:18:44Z</time></trkpt><trkpt lat="43.710522753024414" lon="11.067750093440772"><ele>51.4</ele><time>2026-04-18T11:18:46Z</time></trkpt><trkpt lat="43.71047736433971" lon="11.067889134986771"><ele>51.6</ele><time>2026-04-18T11:18:48Z</time></trkpt><trkpt lat="43.710415592948195" lon="11.06801019517501"><ele>51.8</ele><time>2026-04-18T11:18:50Z</time></trkpt><trkpt lat="43.710345578317806" lon="11.068122704190223"><ele>52.0</ele><time>2026-04-18T11:18:52Z</time></trkpt><trkpt lat="43.71027814045046" lon="11.068241943215362"><ele>51.400000000000006</ele><time>2026-04-18T11:18:54Z</time></trkpt><trkpt lat="43.710206012945875" lon="11.068339791821451"><ele>50.800000000000004</ele><time>2026-04-18T11:18:56Z</time></trkpt><trkpt lat="43.71013227434029" lon="11.068429928348468"><ele>50.2</ele><time>2026-04-18T11:18:58Z</time></trkpt><trkpt lat="43.710065571283536" lon="11.068525636685125"><ele>49.6</ele><time>2026-04-18T11:19:00Z</time></trkpt><trkpt lat="43.71001693032746" lon="11.068623872442581"><ele>49.0</ele><time>2026-04-18T11:19:02Z</time></trkpt><trkpt lat="43.709964710026405" lon="11.068728829849011"><ele>49.0</ele><time>2026-04-18T11:19:04Z</time></trkpt><trkpt lat="43.709916198352474" lon="11.068848973901515"><ele>49.0</ele><time>2026-04-18T11:19:06Z</time></trkpt><trkpt lat="43.70986194509612" lon="11.068971919654455"><ele>49.0</ele><time>2026-04-18T11:19:08Z</time></trkpt><trkpt lat="43.70978951589814" lon="11.069087408451386"><ele>49.0</ele><time>2026-04-18T11:19:10Z</time></trkpt><trkpt lat="43.70974139831762" lon="11.069228395784446"><ele>49.0</ele><time>2026-04-18T11:19:12Z</time></trkpt><trkpt lat="43.7096839353038" lon="11.069351874621566"><ele>50.0</ele><time>2026-04-18T11:19:14Z</time></trkpt><trkpt lat="43.70963125178345" lon="11.06947898373267"><ele>51.0</ele><time>2026-04-18T11:19:16Z</time></trkpt><trkpt lat="43.70959351970323" lon="11.069619671642666"><ele>52.00000000000001</ele><time>2026-04-18T11:19:18Z</time></trkpt><trkpt lat="43.709574227586764" lon="11.069753498288954"><ele>53.0</ele><time>2026-04-18T11:19:20Z</time></trkpt><trkpt lat="43.709549124237796" lon="11.069880901597795"><ele>54.0</ele><time>2026-04-18T11:19:22Z</time></trkpt><trkpt lat="43.709522242793426" lon="11.070017021509393"><ele>55.400000000000006</ele><time>2026-04-18T11:19:24Z</time></trkpt><trkpt lat="43.709494910758785" lon="11.070155014726957"><ele>56.800000000000004</ele><time>2026-04-18T11:19:26Z</time></trkpt><trkpt lat="43.709474570954065" lon="11.07030378567189"><ele>58.199999999999996</ele><time>2026-04-18T11:19:28Z</time></trkpt><trkpt lat="43.709462033064945" lon="11.070452692416502"><ele>59.599999999999994</ele><time>2026-04-18T11:19:30Z</time></trkpt><trkpt lat="43.70943452698833" lon="11.070586639961597"><ele>61.0</ele><time>2026-04-18T11:19:32Z</time></trkpt><trkpt lat="43.70942315199535" lon="11.070718028066448"><ele>59.4</ele><time>2026-04-18T11:19:34Z</time></trkpt><trkpt lat="43.7094073297983" lon="11.07084352758057"><ele>57.8</ele><time>2026-04-18T11:19:36Z</time></trkpt><trkpt lat="43.70939287024328" lon="11.070983514044158"><ele>56.199999999999996</ele><time>2026-04-18T11:19:38Z</time></trkpt><trkpt lat="43.70935588016309" lon="11.07111091720924"><ele>54.599999999999994</ele><time>2026-04-18T11:19:40Z</time></trkpt><trkpt lat="43.709311929391205" lon="11.071239955024181"><ele>53.0</ele><time>2026-04-18T11:19:42Z</time></trkpt><trkpt lat="43.70926091584374" lon="11.071351010648415"><ele>53.0</ele><time>2026-04-18T11:19:44Z</time></trkpt><trkpt lat="43.70924487502476" lon="11.071490387670668"><ele>53.0</ele><time>2026-04-18T11:19:46Z</time></trkpt><trkpt lat="43.70920319390868" lon="11.071607519666824"><ele>53.0</ele><time>2026-04-18T11:19:48Z</time></trkpt><trkpt lat="43.70918455895171" lon="11.071732675660765"><ele>53.0</ele><time>2026-04-18T11:19:50Z</time></trkpt><trkpt lat="43.70914916809006" lon="11.071841061492181"><ele>53.0</ele><time>2026-04-18T11:19:52Z</time></trkpt><trkpt lat="43.709081379126765" lon="11.071958562493181"><ele>53.4</ele><time>2026-04-18T11:19:54Z</time></trkpt><trkpt lat="43.70901682843539" lon="11.072091759985009"><ele>53.8</ele><time>2026-04-18T11:19:56Z</time></trkpt><trkpt lat="43.70895547677936" lon="11.072206284246397"><ele>54.2</ele><time>2026-04-18T11:19:58Z</time></trkpt><trkpt lat="43.70889329052801" lon="11.072336880856739"><ele>54.6</ele><time>2026-04-18T11:20:00Z</time></trkpt><trkpt lat="43.708856520477575" lon="11.07247722551207"><ele>55.0</ele><time>2026-04-18T11:20:02Z</time></trkpt><trkpt lat="43.708800635968" lon="11.072609244118812"><ele>56.25</ele><time>2026-04-18T11:20:04Z</time></trkpt><trkpt lat="43.7087557112898" lon="11.072757327477786"><ele>57.5</ele><time>2026-04-18T11:20:06Z</time></trkpt><trkpt lat="43.70871004020368" lon="11.072907870845384"><ele>58.75</ele><time>2026-04-18T11:20:08Z</time></trkpt><trkpt lat="43.70866261703453" lon="11.073065356541978"><ele>60.0</ele><time>2026-04-18T11:20:10Z</time></trkpt><trkpt lat="43.70862255004987" lon="11.073198142072181"><ele>58.6</ele><time>2026-04-18T11:20:12Z</time></trkpt><trkpt lat="43.70860891470642" lon="11.073294171481468"><ele>57.2</ele><time>2026-04-18T11:20:13Z</time></trkpt><trkpt lat="43.70855794723209" lon="11.07343677757148"><ele>55.8</ele><time>2026-04-18T11:20:15Z</time></trkpt><trkpt lat="43.70853101735165" lon="11.073521279630945"><ele>54.4</ele><time>2026-04-18T11:20:16Z</time></trkpt><trkpt lat="43.708495610454484" lon="11.073648383480313"><ele>53.0</ele><time>2026-04-18T11:20:18Z</time></trkpt><trkpt lat="43.70846023222339" lon="11.073782395141048"><ele>53.0</ele><time>2026-04-18T11:20:20Z</time></trkpt><trkpt lat="43.70841906685937" lon="11.073904690574949"><ele>53.0</ele><time>2026-04-18T11:20:22Z</time></trkpt><trkpt lat="43.708391061691486" lon="11.074024031097522"><ele>53.0</ele><time>2026-04-18T11:20:24Z</time></trkpt><trkpt lat="43.70834436870923" lon="11.074128355903323"><ele>53.0</ele><time>2026-04-18T11:20:26Z</time></trkpt><trkpt lat="43.70831509688616" lon="11.074231127634004"><ele>53.0</ele><time>2026-04-18T11:20:28Z</time></trkpt><trkpt lat="43.70827700072859" lon="11.074361673006633"><ele>53.8</ele><time>2026-04-18T11:20:30Z</time></trkpt><trkpt lat="43.70825662312266" lon="11.07450058749361"><ele>54.599999999999994</ele><time>2026-04-18T11:20:32Z</time></trkpt><trkpt lat="43.708231262612365" lon="11.074655353876429"><ele>55.400000000000006</ele><time>2026-04-18T11:20:34Z</time></trkpt><trkpt lat="43.708214660575514" lon="11.07480875368139"><ele>56.2</ele><time>2026-04-18T11:20:36Z</time></trkpt><trkpt lat="43.7081903526978" lon="11.07496596086061"><ele>57.0</ele><time>2026-04-18T11:20:38Z</time></trkpt><trkpt lat="43.70817654142073" lon="11.075129438329745"><ele>57.5</ele><time>2026-04-18T11:20:40Z</time></trkpt><trkpt lat="43.7081587525902" lon="11.075289253467052"><ele>58.0</ele><time>2026-04-18T11:20:42Z</time></trkpt><trkpt lat="43.70813748134503" lon="11.075447011542751"><ele>58.5</ele><time>2026-04-18T11:20:44Z</time></trkpt><trkpt lat="43.70810000856616" lon="11.07560083135142"><ele>59.0</ele><time>2026-04-18T11:20:46Z</time></trkpt><trkpt lat="43.70807356557639" lon="11.075756709779302"><ele>59.6</ele><time>2026-04-18T11:20:48Z</time></trkpt><trkpt lat="43.708041417112184" lon="11.075898515680066"><ele>60.2</ele><time>2026-04-18T11:20:50Z</time></trkpt><trkpt lat="43.70801554907351" lon="11.076035240240923"><ele>60.800000000000004</ele><time>2026-04-18T11:20:52Z</time></trkpt><trkpt lat="43.707972668463746" lon="11.076167423158656"><ele>61.400000000000006</ele><time>2026-04-18T11:20:54Z</time></trkpt><trkpt lat="43.70794132346206" lon="11.076296736278321"><ele>62.0</ele><time>2026-04-18T11:20:56Z</time></trkpt><trkpt lat="43.707898705248724" lon="11.07643306999657"><ele>62.0</ele><time>2026-04-18T11:20:58Z</time></trkpt><trkpt lat="43.707851266259766" lon="11.076568392331613"><ele>62.0</ele><time>2026-04-18T11:21:00Z</time></trkpt><trkpt lat="43.7078133541616" lon="11.076722685871273"><ele>62.0</ele><time>2026-04-18T11:21:02Z</time></trkpt><trkpt lat="43.7077560812274" lon="11.076859490797098"><ele>62.0</ele><time>2026-04-18T11:21:04Z</time></trkpt><trkpt lat="43.70769994209794" lon="11.076999419378977"><ele>60.75</ele><time>2026-04-18T11:21:06Z</time></trkpt><trkpt lat="43.70764722113422" lon="11.077143251475503"><ele>59.5</ele><time>2026-04-18T11:21:08Z</time></trkpt><trkpt lat="43.70759700549262" lon="11.077291667655599"><ele>58.25</ele><time>2026-04-18T11:21:10Z</time></trkpt><trkpt lat="43.70755160665657" lon="11.077437298763005"><ele>57.0</ele><time>2026-04-18T11:21:12Z</time></trkpt><trkpt lat="43.707507738614" lon="11.077583532747191"><ele>57.0</ele><time>2026-04-18T11:21:14Z</time></trkpt><trkpt lat="43.70746261546927" lon="11.077723239563992"><ele>57.0</ele><time>2026-04-18T11:21:16Z</time></trkpt><trkpt lat="43.707418349616646" lon="11.077862754861945"><ele>57.0</ele><time>2026-04-18T11:21:18Z</time></trkpt><trkpt lat="43.70737751317487" lon="11.078003298832227"><ele>57.0</ele><time>2026-04-18T11:21:20Z</time></trkpt><trkpt lat="43.707337122750666" lon="11.078139612735683"><ele>57.0</ele><time>2026-04-18T11:21:22Z</time></trkpt><trkpt lat="43.70729702049882" lon="11.078281980046441"><ele>57.6</ele><time>2026-04-18T11:21:24Z</time></trkpt><trkpt lat="43.70725432203937" lon="11.07841978100627"><ele>58.2</ele><time>2026-04-18T11:21:26Z</time></trkpt><trkpt lat="43.70722101511625" lon="11.078566618262174"><ele>58.8</ele><time>2026-04-18T11:21:28Z</time></trkpt><trkpt lat="43.70718902138653" lon="11.078712473120474"><ele>59.4</ele><time>2026-04-18T11:21:30Z</time></trkpt><trkpt lat="43.7071523903535" lon="11.078856919194042"><ele>60.0</ele><time>2026-04-18T11:21:32Z</time></trkpt><trkpt lat="43.70712306469627" lon="11.079003436034405"><ele>60.8</ele><time>2026-04-18T11:21:34Z</time></trkpt><trkpt lat="43.707092943700054" lon="11.079154353080312"><ele>61.6</ele><time>2026-04-18T11:21:36Z</time></trkpt><trkpt lat="43.7070506557304" lon="11.079292037780384"><ele>62.400000000000006</ele><time>2026-04-18T11:21:38Z</time></trkpt><trkpt lat="43.70700748179183" lon="11.079425085278936"><ele>63.2</ele><time>2026-04-18T11:21:40Z</time></trkpt><trkpt lat="43.70696998696197" lon="11.079549419881342"><ele>64.0</ele><time>2026-04-18T11:21:42Z</time></trkpt><trkpt lat="43.70689769551247" lon="11.07963551093906"><ele>62.6</ele><time>2026-04-18T11:21:44Z</time></trkpt><trkpt lat="43.70681511526827" lon="11.079703016579124"><ele>61.2</ele><time>2026-04-18T11:21:46Z</time></trkpt><trkpt lat="43.70672808237291" lon="11.079802007434948"><ele>59.800000000000004</ele><time>2026-04-18T11:21:48Z</time></trkpt><trkpt lat="43.7066503188787" lon="11.079916706651115"><ele>58.400000000000006</ele><time>2026-04-18T11:21:50Z</time></trkpt><trkpt lat="43.706581649755975" lon="11.08004872089431"><ele>57.0</ele><time>2026-04-18T11:21:52Z</time></trkpt><trkpt lat="43.70652607685821" lon="11.080196088797173"><ele>57.0</ele><time>2026-04-18T11:21:54Z</time></trkpt><trkpt lat="43.70649065283035" lon="11.080340499465336"><ele>57.0</ele><time>2026-04-18T11:21:56Z</time></trkpt><trkpt lat="43.70645611571675" lon="11.080496087367091"><ele>57.0</ele><time>2026-04-18T11:21:58Z</time></trkpt><trkpt lat="43.70643249884065" lon="11.08063983160971"><ele>57.0</ele><time>2026-04-18T11:22:00Z</time></trkpt><trkpt lat="43.706403989084805" lon="11.08078380416246"><ele>57.0</ele><time>2026-04-18T11:22:02Z</time></trkpt><trkpt lat="43.706375092497716" lon="11.080912789186087"><ele>58.0</ele><time>2026-04-18T11:22:04Z</time></trkpt><trkpt lat="43.70636312262793" lon="11.08106542494371"><ele>59.0</ele><time>2026-04-18T11:22:06Z</time></trkpt><trkpt lat="43.706339320814166" lon="11.081202092858351"><ele>60.0</ele><time>2026-04-18T11:22:08Z</time></trkpt><trkpt lat="43.706318249161775" lon="11.081346159492584"><ele>61.0</ele><time>2026-04-18T11:22:10Z</time></trkpt><trkpt lat="43.70629139087732" lon="11.081484309589268"><ele>62.0</ele><time>2026-04-18T11:22:12Z</time></trkpt><trkpt lat="43.70626707525582" lon="11.08163027377805"><ele>62.75</ele><time>2026-04-18T11:22:14Z</time></trkpt><trkpt lat="43.7062446798074" lon="11.08178219001245"><ele>63.5</ele><time>2026-04-18T11:22:16Z</time></trkpt><trkpt lat="43.70622546808231" lon="11.081934959814465"><ele>64.25</ele><time>2026-04-18T11:22:18Z</time></trkpt><trkpt lat="43.70619660045316" lon="11.082085053653227"><ele>65.0</ele><time>2026-04-18T11:22:20Z</time></trkpt><trkpt lat="43.706165813138" lon="11.082243036046837"><ele>65.0</ele><time>2026-04-18T11:22:22Z</time></trkpt><trkpt lat="43.70614843181738" lon="11.082327329036513"><ele>65.0</ele><time>2026-04-18T11:22:23Z</time></trkpt><trkpt lat="43.706117551800745" lon="11.082490112524102"><ele>65.0</ele><time>2026-04-18T11:22:25Z</time></trkpt><trkpt lat="43.70609907042079" lon="11.08258142745004"><ele>65.0</ele><time>2026-04-18T11:22:26Z</time></trkpt><trkpt lat="43.706071184272126" lon="11.082735415654517"><ele>65.0</ele><time>2026-04-18T11:22:28Z</time></trkpt><trkpt lat="43.70605868873355" lon="11.082894731690873"><ele>65.0</ele><time>2026-04-18T11:22:30Z</time></trkpt><trkpt lat="43.70606051909532" lon="11.083049292196291"><ele>65.0</ele><time>2026-04-18T11:22:32Z</time></trkpt><trkpt lat="43.7060820061609" lon="11.083210066487068"><ele>65.0</ele><time>2026-04-18T11:22:34Z</time></trkpt><trkpt lat="43.706105347290936" lon="11.083367288532386"><ele>65.0</ele><time>2026-04-18T11:22:36Z</time></trkpt><trkpt lat="43.70612216203314" lon="11.083520908517759"><ele>65.0</ele><time>2026-04-18T11:22:38Z</time></trkpt><trkpt lat="43.70612926999049" lon="11.083673349272303"><ele>65.0</ele><time>2026-04-18T11:22:40Z</time></trkpt><trkpt lat="43.706129624889705" lon="11.083817691109202"><ele>65.0</ele><time>2026-04-18T11:22:42Z</time></trkpt><trkpt lat="43.70612285594188" lon="11.083962249133592"><ele>65.0</ele><time>2026-04-18T11:22:44Z</time></trkpt><trkpt lat="43.70610699225481" lon="11.084099393318333"><ele>65.0</ele><time>2026-04-18T11:22:46Z</time></trkpt><trkpt lat="43.706089081511585" lon="11.084236199387714"><ele>63.0</ele><time>2026-04-18T11:22:48Z</time></trkpt><trkpt lat="43.70607239129227" lon="11.084375692573927"><ele>61.0</ele><time>2026-04-18T11:22:50Z</time></trkpt><trkpt lat="43.7060551407962" lon="11.084516854099368"><ele>59.0</ele><time>2026-04-18T11:22:52Z</time></trkpt><trkpt lat="43.70603517202305" lon="11.084659969946234"><ele>57.0</ele><time>2026-04-18T11:22:54Z</time></trkpt><trkpt lat="43.70602226393012" lon="11.084812438602185"><ele>55.0</ele><time>2026-04-18T11:22:56Z</time></trkpt><trkpt lat="43.706004398212805" lon="11.084957826485747"><ele>55.0</ele><time>2026-04-18T11:22:58Z</time></trkpt><trkpt lat="43.705984348105375" lon="11.085099093033515"><ele>55.0</ele><time>2026-04-18T11:23:00Z</time></trkpt><trkpt lat="43.70596698863564" lon="11.085239253852098"><ele>55.0</ele><time>2026-04-18T11:23:02Z</time></trkpt><trkpt lat="43.705948884379325" lon="11.085374871777752"><ele>55.0</ele><time>2026-04-18T11:23:04Z</time></trkpt><trkpt lat="43.705930211646994" lon="11.085512062292413"><ele>55.0</ele><time>2026-04-18T11:23:06Z</time></trkpt><trkpt lat="43.705911349823445" lon="11.085644974532304"><ele>55.0</ele><time>2026-04-18T11:23:08Z</time></trkpt><trkpt lat="43.70589217693595" lon="11.085777019179964"><ele>55.0</ele><time>2026-04-18T11:23:10Z</time></trkpt><trkpt lat="43.7058753382564" lon="11.085904374251363"><ele>55.0</ele><time>2026-04-18T11:23:12Z</time></trkpt><trkpt lat="43.70585382710717" lon="11.086026351418637"><ele>55.0</ele><time>2026-04-18T11:23:14Z</time></trkpt><trkpt lat="43.705829052875956" lon="11.086147050985025"><ele>55.0</ele><time>2026-04-18T11:23:16Z</time></trkpt><trkpt lat="43.70581105861192" lon="11.086275259409996"><ele>55.0</ele><time>2026-04-18T11:23:18Z</time></trkpt><trkpt lat="43.7057953066394" lon="11.086405296556068"><ele>55.0</ele><time>2026-04-18T11:23:20Z</time></trkpt><trkpt lat="43.70577047165145" lon="11.086529073201422"><ele>55.0</ele><time>2026-04-18T11:23:22Z</time></trkpt><trkpt lat="43.70572755080517" lon="11.086663306219716"><ele>55.0</ele><time>2026-04-18T11:23:24Z</time></trkpt><trkpt lat="43.70566634175347" lon="11.08678329941312"><ele>55.0</ele><time>2026-04-18T11:23:26Z</time></trkpt><trkpt lat="43.70559783170688" lon="11.086896064503499"><ele>54.8</ele><time>2026-04-18T11:23:28Z</time></trkpt><trkpt lat="43.70553216670922" lon="11.0869961721892"><ele>54.6</ele><time>2026-04-18T11:23:30Z</time></trkpt><trkpt lat="43.70545679567318" lon="11.087075538016274"><ele>54.400000000000006</ele><time>2026-04-18T11:23:32Z</time></trkpt><trkpt lat="43.70537739289606" lon="11.087157769503575"><ele>54.2</ele><time>2026-04-18T11:23:34Z</time></trkpt><trkpt lat="43.705302818932125" lon="11.087243666034626"><ele>54.0</ele><time>2026-04-18T11:23:36Z</time></trkpt><trkpt lat="43.705227211594334" lon="11.087325253222405"><ele>54.0</ele><time>2026-04-18T11:23:38Z</time></trkpt><trkpt lat="43.70515614773502" lon="11.087383210484226"><ele>54.0</ele><time>2026-04-18T11:23:40Z</time></trkpt><trkpt lat="43.705080642367314" lon="11.08740402659871"><ele>54.0</ele><time>2026-04-18T11:23:42Z</time></trkpt><trkpt lat="43.70498580188639" lon="11.087409847685722"><ele>54.0</ele><time>2026-04-18T11:23:45Z</time></trkpt><trkpt lat="43.70491578471945" lon="11.087421833612478"><ele>54.0</ele><time>2026-04-18T11:23:47Z</time></trkpt><trkpt lat="43.70485393962587" lon="11.087481406922238"><ele>54.0</ele><time>2026-04-18T11:23:49Z</time></trkpt><trkpt lat="43.70479022355328" lon="11.087502306100522"><ele>64.0</ele><time>2026-04-18T11:23:51Z</time></trkpt><trkpt lat="43.70478644547083" lon="11.088138603809393"><ele>64.0</ele><time>2026-04-18T11:23:53Z</time></trkpt><trkpt lat="43.70474046563354" lon="11.088254099770671"><ele>64.0</ele><time>2026-04-18T11:23:55Z</time></trkpt><trkpt lat="43.704643811194664" lon="11.088271160108565"><ele>64.0</ele><time>2026-04-18T11:23:56Z</time></trkpt><trkpt lat="43.70461380423029" lon="11.088378409300855"><ele>64.0</ele><time>2026-04-18T11:23:58Z</time></trkpt><trkpt lat="43.70456866508724" lon="11.088479095585711"><ele>64.0</ele><time>2026-04-18T11:24:00Z</time></trkpt><trkpt lat="43.704507127716816" lon="11.088584397014325"><ele>64.60000000000001</ele><time>2026-04-18T11:24:02Z</time></trkpt><trkpt lat="43.704432415336946" lon="11.088682318852758"><ele>65.2</ele><time>2026-04-18T11:24:04Z</time></trkpt><trkpt lat="43.70435959232179" lon="11.088787107809408"><ele>65.80000000000001</ele><time>2026-04-18T11:24:06Z</time></trkpt><trkpt lat="43.70428747756716" lon="11.088897050575723"><ele>66.4</ele><time>2026-04-18T11:24:08Z</time></trkpt><trkpt lat="43.704216933510345" lon="11.08900816844449"><ele>67.0</ele><time>2026-04-18T11:24:10Z</time></trkpt><trkpt lat="43.704142794054825" lon="11.089116200649707"><ele>67.0</ele><time>2026-04-18T11:24:12Z</time></trkpt><trkpt lat="43.70407009956542" lon="11.08922454159806"><ele>67.0</ele><time>2026-04-18T11:24:14Z</time></trkpt><trkpt lat="43.70399498653133" lon="11.089333558131296"><ele>67.0</ele><time>2026-04-18T11:24:16Z</time></trkpt><trkpt lat="43.703915327865474" lon="11.08944211507491"><ele>67.0</ele><time>2026-04-18T11:24:18Z</time></trkpt><trkpt lat="43.703831926632446" lon="11.089543466176611"><ele>67.0</ele><time>2026-04-18T11:24:20Z</time></trkpt><trkpt lat="43.70374814655532" lon="11.089644494701128"><ele>67.0</ele><time>2026-04-18T11:24:22Z</time></trkpt><trkpt lat="43.70366510861023" lon="11.089745555423322"><ele>67.0</ele><time>2026-04-18T11:24:24Z</time></trkpt><trkpt lat="43.703579157764146" lon="11.089844147379237"><ele>67.0</ele><time>2026-04-18T11:24:26Z</time></trkpt><trkpt lat="43.70349722438398" lon="11.089942522385867"><ele>67.0</ele><time>2026-04-18T11:24:28Z</time></trkpt><trkpt lat="43.70342323980442" lon="11.090049829998378"><ele>67.0</ele><time>2026-04-18T11:24:30Z</time></trkpt><trkpt lat="43.70334685802683" lon="11.090155536825808"><ele>66.2</ele><time>2026-04-18T11:24:32Z</time></trkpt><trkpt lat="43.70327293114644" lon="11.090267029270164"><ele>65.4</ele><time>2026-04-18T11:24:34Z</time></trkpt><trkpt lat="43.70320245112761" lon="11.090381266437191"><ele>64.6</ele><time>2026-04-18T11:24:36Z</time></trkpt><trkpt lat="43.70313446585807" lon="11.090502409078885"><ele>63.8</ele><time>2026-04-18T11:24:38Z</time></trkpt><trkpt lat="43.703068747121044" lon="11.090628178556772"><ele>63.0</ele><time>2026-04-18T11:24:40Z</time></trkpt><trkpt lat="43.70300544658372" lon="11.090759001428074"><ele>65.0</ele><time>2026-04-18T11:24:42Z</time></trkpt><trkpt lat="43.702947848028266" lon="11.090896627761031"><ele>67.0</ele><time>2026-04-18T11:24:44Z</time></trkpt><trkpt lat="43.70289087760615" lon="11.091040515761845"><ele>69.0</ele><time>2026-04-18T11:24:46Z</time></trkpt><trkpt lat="43.7028385693874" lon="11.091191965302297"><ele>71.0</ele><time>2026-04-18T11:24:48Z</time></trkpt><trkpt lat="43.70278301551979" lon="11.09134731797616"><ele>68.0</ele><time>2026-04-18T11:24:50Z</time></trkpt><trkpt lat="43.70273375433119" lon="11.0914994470955"><ele>65.0</ele><time>2026-04-18T11:24:52Z</time></trkpt><trkpt lat="43.70268302153812" lon="11.091648985892732"><ele>62.0</ele><time>2026-04-18T11:24:54Z</time></trkpt><trkpt lat="43.702638402269045" lon="11.091793276096903"><ele>59.0</ele><time>2026-04-18T11:24:56Z</time></trkpt><trkpt lat="43.70259197386407" lon="11.091925806574597"><ele>59.0</ele><time>2026-04-18T11:24:58Z</time></trkpt><trkpt lat="43.70254696896102" lon="11.092052724752833"><ele>59.00000000000001</ele><time>2026-04-18T11:25:00Z</time></trkpt><trkpt lat="43.70250606034193" lon="11.092187293689246"><ele>59.00000000000001</ele><time>2026-04-18T11:25:02Z</time></trkpt><trkpt lat="43.70245666908728" lon="11.092322958096053"><ele>59.0</ele><time>2026-04-18T11:25:04Z</time></trkpt><trkpt lat="43.70242617274615" lon="11.092465101948692"><ele>59.0</ele><time>2026-04-18T11:25:06Z</time></trkpt><trkpt lat="43.70236099382749" lon="11.09259463455125"><ele>59.400000000000006</ele><time>2026-04-18T11:25:08Z</time></trkpt><trkpt lat="43.70229430923297" lon="11.09271695169489"><ele>59.800000000000004</ele><time>2026-04-18T11:25:10Z</time></trkpt><trkpt lat="43.702228218420984" lon="11.09283396503683"><ele>60.199999999999996</ele><time>2026-04-18T11:25:12Z</time></trkpt><trkpt lat="43.702149417781484" lon="11.092947222347075"><ele>60.599999999999994</ele><time>2026-04-18T11:25:14Z</time></trkpt><trkpt lat="43.70207399744082" lon="11.093053450465872"><ele>61.0</ele><time>2026-04-18T11:25:16Z</time></trkpt><trkpt lat="43.701992708301006" lon="11.09316173381272"><ele>60.599999999999994</ele><time>2026-04-18T11:25:18Z</time></trkpt><trkpt lat="43.70191310868951" lon="11.093267512772524"><ele>60.199999999999996</ele><time>2026-04-18T11:25:20Z</time></trkpt><trkpt lat="43.70183515593069" lon="11.093370249416425"><ele>59.800000000000004</ele><time>2026-04-18T11:25:22Z</time></trkpt><trkpt lat="43.70175432163502" lon="11.09347544880666"><ele>59.400000000000006</ele><time>2026-04-18T11:25:24Z</time></trkpt><trkpt lat="43.70168454500646" lon="11.093594990461705"><ele>59.0</ele><time>2026-04-18T11:25:26Z</time></trkpt><trkpt lat="43.70161229761593" lon="11.093678337111694"><ele>59.0</ele><time>2026-04-18T11:25:28Z</time></trkpt><trkpt lat="43.70153344964737" lon="11.093792397302172"><ele>59.00000000000001</ele><time>2026-04-18T11:25:30Z</time></trkpt><trkpt lat="43.70146017511375" lon="11.093897561349396"><ele>59.00000000000001</ele><time>2026-04-18T11:25:32Z</time></trkpt><trkpt lat="43.70138487340996" lon="11.093997774080037"><ele>59.0</ele><time>2026-04-18T11:25:34Z</time></trkpt><trkpt lat="43.70131457140209" lon="11.094094155092506"><ele>59.0</ele><time>2026-04-18T11:25:36Z</time></trkpt><trkpt lat="43.701242633500534" lon="11.094189834482181"><ele>59.6</ele><time>2026-04-18T11:25:38Z</time></trkpt><trkpt lat="43.70117343014227" lon="11.094280538455136"><ele>60.2</ele><time>2026-04-18T11:25:40Z</time></trkpt><trkpt lat="43.70110903989355" lon="11.094370609349012"><ele>60.800000000000004</ele><time>2026-04-18T11:25:42Z</time></trkpt><trkpt lat="43.70104337424149" lon="11.094453543936131"><ele>61.400000000000006</ele><time>2026-04-18T11:25:44Z</time></trkpt><trkpt lat="43.70098524767442" lon="11.09455000886501"><ele>62.0</ele><time>2026-04-18T11:25:46Z</time></trkpt><trkpt lat="43.70094147961641" lon="11.094653955163475"><ele>62.00000000000001</ele><time>2026-04-18T11:25:48Z</time></trkpt><trkpt lat="43.70089017266988" lon="11.094754980862763"><ele>62.0</ele><time>2026-04-18T11:25:50Z</time></trkpt><trkpt lat="43.700841766237275" lon="11.094879001720242"><ele>62.0</ele><time>2026-04-18T11:25:52Z</time></trkpt><trkpt lat="43.700781682934284" lon="11.094979780297669"><ele>62.0</ele><time>2026-04-18T11:25:54Z</time></trkpt><trkpt lat="43.70076223013769" lon="11.095067388478913"><ele>62.00000000000001</ele><time>2026-04-18T11:25:55Z</time></trkpt><trkpt lat="43.70073959593781" lon="11.095152947286513"><ele>62.0</ele><time>2026-04-18T11:25:56Z</time></trkpt><trkpt lat="43.70070359177261" lon="11.09523308742587"><ele>62.6</ele><time>2026-04-18T11:25:57Z</time></trkpt><trkpt lat="43.70065411356146" lon="11.095297913172349"><ele>63.2</ele><time>2026-04-18T11:25:58Z</time></trkpt><trkpt lat="43.700565028674305" lon="11.09543282288841"><ele>63.8</ele><time>2026-04-18T11:26:00Z</time></trkpt><trkpt lat="43.70048675542725" lon="11.095545919777921"><ele>64.4</ele><time>2026-04-18T11:26:02Z</time></trkpt><trkpt lat="43.700395386550994" lon="11.095659986601294"><ele>65.0</ele><time>2026-04-18T11:26:04Z</time></trkpt><trkpt lat="43.70032396898804" lon="11.095788273720295"><ele>65.0</ele><time>2026-04-18T11:26:06Z</time></trkpt><trkpt lat="43.70030127099297" lon="11.095882517921085"><ele>65.0</ele><time>2026-04-18T11:26:07Z</time></trkpt><trkpt lat="43.70024835694791" lon="11.096020956473476"><ele>65.0</ele><time>2026-04-18T11:26:09Z</time></trkpt><trkpt lat="43.70019202594178" lon="11.0961490870633"><ele>65.0</ele><time>2026-04-18T11:26:11Z</time></trkpt><trkpt lat="43.70015167703801" lon="11.096267622563827"><ele>65.0</ele><time>2026-04-18T11:26:13Z</time></trkpt><trkpt lat="43.700094363247956" lon="11.096397458906264"><ele>65.2</ele><time>2026-04-18T11:26:15Z</time></trkpt><trkpt lat="43.70004481556112" lon="11.096523142552831"><ele>65.4</ele><time>2026-04-18T11:26:17Z</time></trkpt><trkpt lat="43.69999881319686" lon="11.096656394316113"><ele>65.6</ele><time>2026-04-18T11:26:19Z</time></trkpt><trkpt lat="43.699952465853855" lon="11.096764407035405"><ele>65.8</ele><time>2026-04-18T11:26:21Z</time></trkpt><trkpt lat="43.699913447862315" lon="11.096881953219073"><ele>66.0</ele><time>2026-04-18T11:26:23Z</time></trkpt><trkpt lat="43.6998633285203" lon="11.096988852130606"><ele>66.0</ele><time>2026-04-18T11:26:25Z</time></trkpt><trkpt lat="43.69981861521738" lon="11.097090056786953"><ele>66.0</ele><time>2026-04-18T11:26:27Z</time></trkpt><trkpt lat="43.69978426103041" lon="11.097197572007335"><ele>66.0</ele><time>2026-04-18T11:26:29Z</time></trkpt><trkpt lat="43.6997480253347" lon="11.097301577588482"><ele>66.0</ele><time>2026-04-18T11:26:31Z</time></trkpt><trkpt lat="43.69971673498601" lon="11.09739589257876"><ele>66.0</ele><time>2026-04-18T11:26:33Z</time></trkpt><trkpt lat="43.699668100980155" lon="11.097496944921105"><ele>66.0</ele><time>2026-04-18T11:26:35Z</time></trkpt><trkpt lat="43.69962243257367" lon="11.097590504743074"><ele>66.0</ele><time>2026-04-18T11:26:37Z</time></trkpt><trkpt lat="43.699584810663595" lon="11.097696795721175"><ele>66.0</ele><time>2026-04-18T11:26:39Z</time></trkpt><trkpt lat="43.69955069495419" lon="11.097791549206326"><ele>66.0</ele><time>2026-04-18T11:26:41Z</time></trkpt><trkpt lat="43.699509454224625" lon="11.097889102643952"><ele>66.0</ele><time>2026-04-18T11:26:43Z</time></trkpt><trkpt lat="43.699475682437026" lon="11.097985984595399"><ele>66.0</ele><time>2026-04-18T11:26:45Z</time></trkpt><trkpt lat="43.69942991509367" lon="11.098088012470507"><ele>66.0</ele><time>2026-04-18T11:26:47Z</time></trkpt><trkpt lat="43.69940097965851" lon="11.09821255658873"><ele>66.75</ele><time>2026-04-18T11:26:49Z</time></trkpt><trkpt lat="43.699339497896595" lon="11.09833708773063"><ele>67.5</ele><time>2026-04-18T11:26:51Z</time></trkpt><trkpt lat="43.69928336954505" lon="11.098468700257111"><ele>68.25</ele><time>2026-04-18T11:26:53Z</time></trkpt><trkpt lat="43.699227886308464" lon="11.098603733642728"><ele>69.0</ele><time>2026-04-18T11:26:55Z</time></trkpt><trkpt lat="43.69917638728445" lon="11.098757574628161"><ele>69.0</ele><time>2026-04-18T11:26:57Z</time></trkpt><trkpt lat="43.69911030128852" lon="11.09890893587152"><ele>69.0</ele><time>2026-04-18T11:26:59Z</time></trkpt><trkpt lat="43.6990553476178" lon="11.09906587511926"><ele>69.0</ele><time>2026-04-18T11:27:01Z</time></trkpt><trkpt lat="43.69902417105787" lon="11.099153935996679"><ele>69.0</ele><time>2026-04-18T11:27:02Z</time></trkpt><trkpt lat="43.698994270107384" lon="11.099232537959143"><ele>69.0</ele><time>2026-04-18T11:27:03Z</time></trkpt><trkpt lat="43.69895570889256" lon="11.099315651245046"><ele>68.71428571428572</ele><time>2026-04-18T11:27:04Z</time></trkpt><trkpt lat="43.698921312583856" lon="11.099406426648647"><ele>68.42857142857143</ele><time>2026-04-18T11:27:05Z</time></trkpt><trkpt lat="43.69888567182838" lon="11.099487833952352"><ele>68.14285714285714</ele><time>2026-04-18T11:27:06Z</time></trkpt><trkpt lat="43.69885450269612" lon="11.099575471552079"><ele>67.85714285714286</ele><time>2026-04-18T11:27:07Z</time></trkpt><trkpt lat="43.69882023214107" lon="11.09965804385866"><ele>67.57142857142857</ele><time>2026-04-18T11:27:08Z</time></trkpt><trkpt lat="43.69877701124655" lon="11.099735520672047"><ele>67.28571428571429</ele><time>2026-04-18T11:27:09Z</time></trkpt><trkpt lat="43.698734100150375" lon="11.099809534989411"><ele>67.0</ele><time>2026-04-18T11:27:10Z</time></trkpt><trkpt lat="43.69868788203947" lon="11.099878463609937"><ele>66.57142857142857</ele><time>2026-04-18T11:27:11Z</time></trkpt><trkpt lat="43.69863628048126" lon="11.099937443345608"><ele>66.14285714285714</ele><time>2026-04-18T11:27:12Z</time></trkpt><trkpt lat="43.69858583689282" lon="11.099989973371661"><ele>65.71428571428571</ele><time>2026-04-18T11:27:13Z</time></trkpt><trkpt lat="43.69853639333881" lon="11.100046049243037"><ele>65.28571428571428</ele><time>2026-04-18T11:27:14Z</time></trkpt><trkpt lat="43.69847999504844" lon="11.100091369402898"><ele>64.85714285714285</ele><time>2026-04-18T11:27:15Z</time></trkpt><trkpt lat="43.69841884707196" lon="11.10012936673847"><ele>64.42857142857143</ele><time>2026-04-18T11:27:16Z</time></trkpt><trkpt lat="43.69831335056196" lon="11.100182018606976"><ele>64.0</ele><time>2026-04-18T11:27:18Z</time></trkpt><trkpt lat="43.69820506707639" lon="11.100211635257807"><ele>64.0</ele><time>2026-04-18T11:27:20Z</time></trkpt><trkpt lat="43.698102944213275" lon="11.100243548468036"><ele>64.0</ele><time>2026-04-18T11:27:22Z</time></trkpt><trkpt lat="43.69800115337884" lon="11.100269215685588"><ele>64.0</ele><time>2026-04-18T11:27:24Z</time></trkpt><trkpt lat="43.697902440019625" lon="11.100288679160066"><ele>64.0</ele><time>2026-04-18T11:27:26Z</time></trkpt><trkpt lat="43.697800166592174" lon="11.100303330182923"><ele>64.0</ele><time>2026-04-18T11:27:28Z</time></trkpt><trkpt lat="43.69769545193259" lon="11.100323079015105"><ele>64.0</ele><time>2026-04-18T11:27:30Z</time></trkpt><trkpt lat="43.69758661223884" lon="11.100303184113361"><ele>64.0</ele><time>2026-04-18T11:27:32Z</time></trkpt><trkpt lat="43.69748481285731" lon="11.100239883466815"><ele>64.0</ele><time>2026-04-18T11:27:34Z</time></trkpt><trkpt lat="43.69738757968744" lon="11.100168443563026"><ele>64.0</ele><time>2026-04-18T11:27:36Z</time></trkpt><trkpt lat="43.69728874954686" lon="11.100097391138824"><ele>64.0</ele><time>2026-04-18T11:27:38Z</time></trkpt><trkpt lat="43.697211374521" lon="11.099994409313402"><ele>63.6</ele><time>2026-04-18T11:27:40Z</time></trkpt><trkpt lat="43.69717209848994" lon="11.099854220018738"><ele>63.2</ele><time>2026-04-18T11:27:42Z</time></trkpt><trkpt lat="43.697111899180605" lon="11.099727379637393"><ele>62.800000000000004</ele><time>2026-04-18T11:27:44Z</time></trkpt><trkpt lat="43.69701441238207" lon="11.099659497813528"><ele>62.400000000000006</ele><time>2026-04-18T11:27:46Z</time></trkpt><trkpt lat="43.69690326299442" lon="11.099668076643592"><ele>62.0</ele><time>2026-04-18T11:27:48Z</time></trkpt><trkpt lat="43.69681583281666" lon="11.099761964408513"><ele>62.0</ele><time>2026-04-18T11:27:50Z</time></trkpt><trkpt lat="43.69676583701082" lon="11.099900214580869"><ele>62.0</ele><time>2026-04-18T11:27:52Z</time></trkpt><trkpt lat="43.69676353721249" lon="11.100051008987904"><ele>62.0</ele><time>2026-04-18T11:27:54Z</time></trkpt><trkpt lat="43.69680768515834" lon="11.100189400330429"><ele>62.0</ele><time>2026-04-18T11:27:56Z</time></trkpt><trkpt lat="43.6968126252207" lon="11.10033914370136"><ele>62.0</ele><time>2026-04-18T11:27:58Z</time></trkpt><trkpt lat="43.69678188282541" lon="11.100483987728639"><ele>61.8</ele><time>2026-04-18T11:28:00Z</time></trkpt><trkpt lat="43.696750778754335" lon="11.1006308485756"><ele>61.6</ele><time>2026-04-18T11:28:02Z</time></trkpt><trkpt lat="43.69670176326341" lon="11.100768913825322"><ele>61.39999999999999</ele><time>2026-04-18T11:28:04Z</time></trkpt><trkpt lat="43.69664307083473" lon="11.100891488803619"><ele>61.199999999999996</ele><time>2026-04-18T11:28:06Z</time></trkpt><trkpt lat="43.69657494663416" lon="11.101013609147511"><ele>61.0</ele><time>2026-04-18T11:28:08Z</time></trkpt><trkpt lat="43.69650843914912" lon="11.101139011132913"><ele>61.5</ele><time>2026-04-18T11:28:10Z</time></trkpt><trkpt lat="43.696437310506354" lon="11.101259217491496"><ele>62.0</ele><time>2026-04-18T11:28:12Z</time></trkpt><trkpt lat="43.69636235724775" lon="11.10138016243778"><ele>62.5</ele><time>2026-04-18T11:28:14Z</time></trkpt><trkpt lat="43.696291180581106" lon="11.101504718986886"><ele>63.0</ele><time>2026-04-18T11:28:16Z</time></trkpt><trkpt lat="43.6962206390303" lon="11.101632311225499"><ele>63.25</ele><time>2026-04-18T11:28:18Z</time></trkpt><trkpt lat="43.69614642447175" lon="11.101752989872285"><ele>63.5</ele><time>2026-04-18T11:28:20Z</time></trkpt><trkpt lat="43.69607270126164" lon="11.101873485020052"><ele>63.75</ele><time>2026-04-18T11:28:22Z</time></trkpt><trkpt lat="43.695998667503254" lon="11.10198991438816"><ele>64.0</ele><time>2026-04-18T11:28:24Z</time></trkpt><trkpt lat="43.695931169604094" lon="11.102110093093232"><ele>64.0</ele><time>2026-04-18T11:28:26Z</time></trkpt><trkpt lat="43.695865165038285" lon="11.102232623508367"><ele>64.0</ele><time>2026-04-18T11:28:28Z</time></trkpt><trkpt lat="43.69579416960911" lon="11.10234772166171"><ele>64.0</ele><time>2026-04-18T11:28:30Z</time></trkpt><trkpt lat="43.695729728163435" lon="11.102478570232504"><ele>64.0</ele><time>2026-04-18T11:28:32Z</time></trkpt><trkpt lat="43.69567492343064" lon="11.102609858465383"><ele>64.0</ele><time>2026-04-18T11:28:34Z</time></trkpt><trkpt lat="43.695629844186804" lon="11.102744967857234"><ele>64.2</ele><time>2026-04-18T11:28:36Z</time></trkpt><trkpt lat="43.69559000990853" lon="11.10287643674603"><ele>64.4</ele><time>2026-04-18T11:28:38Z</time></trkpt><trkpt lat="43.69555737145648" lon="11.10300160481865"><ele>64.6</ele><time>2026-04-18T11:28:40Z</time></trkpt><trkpt lat="43.69553256957902" lon="11.10312830478689"><ele>64.8</ele><time>2026-04-18T11:28:42Z</time></trkpt><trkpt lat="43.69550590072414" lon="11.103267020844836"><ele>65.0</ele><time>2026-04-18T11:28:44Z</time></trkpt><trkpt lat="43.69547946511074" lon="11.103405925835427"><ele>65.2</ele><time>2026-04-18T11:28:46Z</time></trkpt><trkpt lat="43.69545273733588" lon="11.103547642220526"><ele>65.4</ele><time>2026-04-18T11:28:48Z</time></trkpt><trkpt lat="43.69542481930751" lon="11.10368744448171"><ele>65.6</ele><time>2026-04-18T11:28:50Z</time></trkpt><trkpt lat="43.695394705584384" lon="11.103822369026137"><ele>65.8</ele><time>2026-04-18T11:28:52Z</time></trkpt><trkpt lat="43.69536832607059" lon="11.103954989004862"><ele>66.0</ele><time>2026-04-18T11:28:54Z</time></trkpt><trkpt lat="43.69533903751326" lon="11.104089709476789"><ele>65.8</ele><time>2026-04-18T11:28:56Z</time></trkpt><trkpt lat="43.69530660928945" lon="11.104219315094015"><ele>65.6</ele><time>2026-04-18T11:28:58Z</time></trkpt><trkpt lat="43.695247166392846" lon="11.104320139135652"><ele>65.4</ele><time>2026-04-18T11:29:00Z</time></trkpt><trkpt lat="43.69517300177191" lon="11.10440446016962"><ele>65.2</ele><time>2026-04-18T11:29:02Z</time></trkpt><trkpt lat="43.69512165321616" lon="11.104515105018265"><ele>65.0</ele><time>2026-04-18T11:29:04Z</time></trkpt><trkpt lat="43.69512654096196" lon="11.104658232078306"><ele>65.0</ele><time>2026-04-18T11:29:06Z</time></trkpt><trkpt lat="43.695158197060806" lon="11.10479703489207"><ele>65.0</ele><time>2026-04-18T11:29:08Z</time></trkpt><trkpt lat="43.69516847314697" lon="11.104941668310023"><ele>65.0</ele><time>2026-04-18T11:29:10Z</time></trkpt><trkpt lat="43.69517064413497" lon="11.10508037467905"><ele>65.0</ele><time>2026-04-18T11:29:12Z</time></trkpt><trkpt lat="43.69512885024645" lon="11.105225006564423"><ele>65.0</ele><time>2026-04-18T11:29:14Z</time></trkpt><trkpt lat="43.69510772489321" lon="11.105366539415288"><ele>65.2</ele><time>2026-04-18T11:29:16Z</time></trkpt><trkpt lat="43.69508544830036" lon="11.105506955143625"><ele>65.4</ele><time>2026-04-18T11:29:18Z</time></trkpt><trkpt lat="43.69506130894779" lon="11.10564470557212"><ele>65.6</ele><time>2026-04-18T11:29:20Z</time></trkpt><trkpt lat="43.6950354828586" lon="11.105783292036573"><ele>65.8</ele><time>2026-04-18T11:29:22Z</time></trkpt><trkpt lat="43.695008573187295" lon="11.105920280926952"><ele>66.0</ele><time>2026-04-18T11:29:24Z</time></trkpt><trkpt lat="43.69499086256899" lon="11.106059179889979"><ele>66.2</ele><time>2026-04-18T11:29:26Z</time></trkpt><trkpt lat="43.69497205426072" lon="11.106197541247523"><ele>66.39999999999999</ele><time>2026-04-18T11:29:28Z</time></trkpt><trkpt lat="43.6949445454392" lon="11.106331361161546"><ele>66.6</ele><time>2026-04-18T11:29:30Z</time></trkpt><trkpt lat="43.694920095891895" lon="11.106463467225621"><ele>66.8</ele><time>2026-04-18T11:29:32Z</time></trkpt><trkpt lat="43.69489771319223" lon="11.106599158989487"><ele>67.0</ele><time>2026-04-18T11:29:34Z</time></trkpt><trkpt lat="43.694870913622765" lon="11.106731579410294"><ele>67.2</ele><time>2026-04-18T11:29:36Z</time></trkpt><trkpt lat="43.69484182383857" lon="11.106852974211662"><ele>67.4</ele><time>2026-04-18T11:29:38Z</time></trkpt><trkpt lat="43.694815088569996" lon="11.106976396386816"><ele>67.6</ele><time>2026-04-18T11:29:40Z</time></trkpt><trkpt lat="43.69478781137711" lon="11.107095944038097"><ele>67.8</ele><time>2026-04-18T11:29:42Z</time></trkpt><trkpt lat="43.694761275479095" lon="11.10721064126699"><ele>68.0</ele><time>2026-04-18T11:29:44Z</time></trkpt><trkpt lat="43.694735700527666" lon="11.107326536643281"><ele>68.0</ele><time>2026-04-18T11:29:46Z</time></trkpt><trkpt lat="43.69471211803652" lon="11.107447488840522"><ele>68.0</ele><time>2026-04-18T11:29:48Z</time></trkpt><trkpt lat="43.694686871520155" lon="11.107569755444104"><ele>68.0</ele><time>2026-04-18T11:29:50Z</time></trkpt><trkpt lat="43.69467084421841" lon="11.107694943458695"><ele>68.0</ele><time>2026-04-18T11:29:52Z</time></trkpt><trkpt lat="43.694648819086304" lon="11.107811588802324"><ele>68.0</ele><time>2026-04-18T11:29:54Z</time></trkpt><trkpt lat="43.69462366532073" lon="11.107933283016209"><ele>68.0</ele><time>2026-04-18T11:29:56Z</time></trkpt><trkpt lat="43.6946073684852" lon="11.108058768518536"><ele>68.0</ele><time>2026-04-18T11:29:58Z</time></trkpt><trkpt lat="43.694582354721284" lon="11.108176956595214"><ele>68.0</ele><time>2026-04-18T11:30:00Z</time></trkpt><trkpt lat="43.69455997458989" lon="11.108293823131369"><ele>68.0</ele><time>2026-04-18T11:30:02Z</time></trkpt><trkpt lat="43.69453308757502" lon="11.108411311472764"><ele>68.0</ele><time>2026-04-18T11:30:04Z</time></trkpt><trkpt lat="43.69450477563049" lon="11.108536619472359"><ele>68.0</ele><time>2026-04-18T11:30:06Z</time></trkpt><trkpt lat="43.69446841288634" lon="11.108651522090135"><ele>68.0</ele><time>2026-04-18T11:30:08Z</time></trkpt><trkpt lat="43.69442586344586" lon="11.108764905735685"><ele>68.0</ele><time>2026-04-18T11:30:10Z</time></trkpt><trkpt lat="43.69438075610443" lon="11.10888252756307"><ele>68.0</ele><time>2026-04-18T11:30:12Z</time></trkpt><trkpt lat="43.69433391525094" lon="11.109000458146378"><ele>68.0</ele><time>2026-04-18T11:30:14Z</time></trkpt><trkpt lat="43.694286195726775" lon="11.109112852230442"><ele>68.6</ele><time>2026-04-18T11:30:16Z</time></trkpt><trkpt lat="43.69423831737623" lon="11.10922474545088"><ele>69.19999999999999</ele><time>2026-04-18T11:30:18Z</time></trkpt><trkpt lat="43.694188963085296" lon="11.109341388639045"><ele>69.8</ele><time>2026-04-18T11:30:20Z</time></trkpt><trkpt lat="43.694136447743155" lon="11.109458677212187"><ele>70.39999999999999</ele><time>2026-04-18T11:30:22Z</time></trkpt><trkpt lat="43.694085817430974" lon="11.109577986086697"><ele>71.0</ele><time>2026-04-18T11:30:24Z</time></trkpt><trkpt lat="43.69403693599417" lon="11.109694376038348"><ele>71.0</ele><time>2026-04-18T11:30:26Z</time></trkpt><trkpt lat="43.693988325059784" lon="11.109813237926213"><ele>71.0</ele><time>2026-04-18T11:30:28Z</time></trkpt><trkpt lat="43.6939434654086" lon="11.10993201444776"><ele>71.0</ele><time>2026-04-18T11:30:30Z</time></trkpt><trkpt lat="43.69389705436741" lon="11.11005123007039"><ele>71.0</ele><time>2026-04-18T11:30:32Z</time></trkpt><trkpt lat="43.69385943997138" lon="11.110173087016504"><ele>71.0</ele><time>2026-04-18T11:30:34Z</time></trkpt><trkpt lat="43.69382463007367" lon="11.110292226992323"><ele>71.33333333333334</ele><time>2026-04-18T11:30:36Z</time></trkpt><trkpt lat="43.6937977775125" lon="11.110410193488677"><ele>71.66666666666667</ele><time>2026-04-18T11:30:38Z</time></trkpt><trkpt lat="43.69376935521991" lon="11.1105248349846"><ele>72.0</ele><time>2026-04-18T11:30:40Z</time></trkpt><trkpt lat="43.69374871170321" lon="11.110645271628043"><ele>72.33333333333333</ele><time>2026-04-18T11:30:42Z</time></trkpt><trkpt lat="43.6937293707403" lon="11.1107655784095"><ele>72.66666666666666</ele><time>2026-04-18T11:30:44Z</time></trkpt><trkpt lat="43.693719343735424" lon="11.110886283794581"><ele>73.0</ele><time>2026-04-18T11:30:46Z</time></trkpt><trkpt lat="43.69370538210984" lon="11.111010525355073"><ele>73.4</ele><time>2026-04-18T11:30:48Z</time></trkpt><trkpt lat="43.69369498133099" lon="11.111139869658341"><ele>73.8</ele><time>2026-04-18T11:30:50Z</time></trkpt><trkpt lat="43.69368180564056" lon="11.111268373459092"><ele>74.2</ele><time>2026-04-18T11:30:52Z</time></trkpt><trkpt lat="43.693663227864874" lon="11.111396707857104"><ele>74.6</ele><time>2026-04-18T11:30:54Z</time></trkpt><trkpt lat="43.69363744254769" lon="11.111522404730486"><ele>75.0</ele><time>2026-04-18T11:30:56Z</time></trkpt><trkpt lat="43.69360028965024" lon="11.111644908026442"><ele>74.4</ele><time>2026-04-18T11:30:58Z</time></trkpt><trkpt lat="43.69355011889475" lon="11.11176224132738"><ele>73.8</ele><time>2026-04-18T11:31:00Z</time></trkpt><trkpt lat="43.693488713832345" lon="11.111876663889513"><ele>73.2</ele><time>2026-04-18T11:31:02Z</time></trkpt><trkpt lat="43.69342262339143" lon="11.111999464316177"><ele>72.6</ele><time>2026-04-18T11:31:04Z</time></trkpt><trkpt lat="43.693345568270864" lon="11.112123527546606"><ele>72.0</ele><time>2026-04-18T11:31:06Z</time></trkpt><trkpt lat="43.69330514380129" lon="11.11219847345406"><ele>72.0</ele><time>2026-04-18T11:31:07Z</time></trkpt><trkpt lat="43.693236393634905" lon="11.1123335946885"><ele>72.0</ele><time>2026-04-18T11:31:09Z</time></trkpt><trkpt lat="43.69319233085756" lon="11.11240333017584"><ele>72.0</ele><time>2026-04-18T11:31:10Z</time></trkpt><trkpt lat="43.693148048060344" lon="11.112476553048324"><ele>72.0</ele><time>2026-04-18T11:31:11Z</time></trkpt><trkpt lat="43.69311535374011" lon="11.112556847694137"><ele>72.0</ele><time>2026-04-18T11:31:12Z</time></trkpt><trkpt lat="43.69307217820177" lon="11.112630709127808"><ele>72.0</ele><time>2026-04-18T11:31:13Z</time></trkpt><trkpt lat="43.69302976480412" lon="11.112704130778233"><ele>71.85714285714286</ele><time>2026-04-18T11:31:14Z</time></trkpt><trkpt lat="43.69298940284921" lon="11.11277906081833"><ele>71.71428571428572</ele><time>2026-04-18T11:31:15Z</time></trkpt><trkpt lat="43.69295063225899" lon="11.112854358751116"><ele>71.57142857142857</ele><time>2026-04-18T11:31:16Z</time></trkpt><trkpt lat="43.692907320156024" lon="11.11293047253038"><ele>71.42857142857143</ele><time>2026-04-18T11:31:17Z</time></trkpt><trkpt lat="43.69286244027775" lon="11.113003027541167"><ele>71.28571428571428</ele><time>2026-04-18T11:31:18Z</time></trkpt><trkpt lat="43.69281273512623" lon="11.113070581262296"><ele>71.14285714285714</ele><time>2026-04-18T11:31:19Z</time></trkpt><trkpt lat="43.692762482501756" lon="11.113133281472436"><ele>71.0</ele><time>2026-04-18T11:31:20Z</time></trkpt><trkpt lat="43.692703063383696" lon="11.113193366600088"><ele>71.28571428571428</ele><time>2026-04-18T11:31:21Z</time></trkpt><trkpt lat="43.692646978751874" lon="11.113254739862521"><ele>71.57142857142857</ele><time>2026-04-18T11:31:22Z</time></trkpt><trkpt lat="43.692592924752155" lon="11.113314663578883"><ele>71.85714285714286</ele><time>2026-04-18T11:31:23Z</time></trkpt><trkpt lat="43.69254332399352" lon="11.113379204957694"><ele>72.14285714285714</ele><time>2026-04-18T11:31:24Z</time></trkpt><trkpt lat="43.692493549060124" lon="11.113445155003905"><ele>72.42857142857143</ele><time>2026-04-18T11:31:25Z</time></trkpt><trkpt lat="43.69244790026359" lon="11.113512218098519"><ele>72.71428571428571</ele><time>2026-04-18T11:31:26Z</time></trkpt><trkpt lat="43.692404027900594" lon="11.113580409045088"><ele>73.0</ele><time>2026-04-18T11:31:27Z</time></trkpt><trkpt lat="43.69235999011883" lon="11.113644785137371"><ele>73.0</ele><time>2026-04-18T11:31:28Z</time></trkpt><trkpt lat="43.692269441532964" lon="11.11376205585305"><ele>73.0</ele><time>2026-04-18T11:31:30Z</time></trkpt><trkpt lat="43.692196968892105" lon="11.113878712641332"><ele>73.0</ele><time>2026-04-18T11:31:32Z</time></trkpt><trkpt lat="43.69212160824435" lon="11.113985135991998"><ele>73.0</ele><time>2026-04-18T11:31:34Z</time></trkpt><trkpt lat="43.69203792909768" lon="11.114094816839417"><ele>73.8</ele><time>2026-04-18T11:31:36Z</time></trkpt><trkpt lat="43.69196205106592" lon="11.114217170472411"><ele>74.6</ele><time>2026-04-18T11:31:38Z</time></trkpt><trkpt lat="43.69188174648925" lon="11.114347049902312"><ele>75.4</ele><time>2026-04-18T11:31:40Z</time></trkpt><trkpt lat="43.69180837026027" lon="11.114479538187014"><ele>76.2</ele><time>2026-04-18T11:31:42Z</time></trkpt><trkpt lat="43.69177035424426" lon="11.11455085809218"><ele>77.0</ele><time>2026-04-18T11:31:43Z</time></trkpt><trkpt lat="43.69168079170361" lon="11.114683880502074"><ele>76.0</ele><time>2026-04-18T11:31:45Z</time></trkpt><trkpt lat="43.69164278725596" lon="11.114753509148775"><ele>75.0</ele><time>2026-04-18T11:31:46Z</time></trkpt><trkpt lat="43.691604276399616" lon="11.114825098093062"><ele>74.0</ele><time>2026-04-18T11:31:47Z</time></trkpt><trkpt lat="43.69153717307012" lon="11.114951599238484"><ele>73.0</ele><time>2026-04-18T11:31:49Z</time></trkpt><trkpt lat="43.691502151908075" lon="11.11502648479281"><ele>72.0</ele><time>2026-04-18T11:31:50Z</time></trkpt><trkpt lat="43.691438280125375" lon="11.115166883656284"><ele>71.0</ele><time>2026-04-18T11:31:52Z</time></trkpt><trkpt lat="43.691375860782614" lon="11.115312118666782"><ele>71.0</ele><time>2026-04-18T11:31:54Z</time></trkpt><trkpt lat="43.69131645429654" lon="11.115461359391265"><ele>71.0</ele><time>2026-04-18T11:31:56Z</time></trkpt><trkpt lat="43.691284182668525" lon="11.11553823329786"><ele>71.0</ele><time>2026-04-18T11:31:57Z</time></trkpt><trkpt lat="43.69125191869756" lon="11.11561407058906"><ele>71.0</ele><time>2026-04-18T11:31:58Z</time></trkpt><trkpt lat="43.69122159417481" lon="11.115692107600376"><ele>71.0</ele><time>2026-04-18T11:31:59Z</time></trkpt><trkpt lat="43.691189826895226" lon="11.115769879342066"><ele>71.0</ele><time>2026-04-18T11:32:00Z</time></trkpt><trkpt lat="43.69115548327222" lon="11.11584630565039"><ele>71.0</ele><time>2026-04-18T11:32:01Z</time></trkpt><trkpt lat="43.69109072913365" lon="11.115996589867024"><ele>71.0</ele><time>2026-04-18T11:32:03Z</time></trkpt><trkpt lat="43.6910599339055" lon="11.116073131702173"><ele>71.0</ele><time>2026-04-18T11:32:04Z</time></trkpt><trkpt lat="43.69103024081267" lon="11.116150184511552"><ele>71.0</ele><time>2026-04-18T11:32:05Z</time></trkpt><trkpt lat="43.69098245697356" lon="11.11630311460643"><ele>71.0</ele><time>2026-04-18T11:32:07Z</time></trkpt><trkpt lat="43.690942161245154" lon="11.116458873132753"><ele>71.0</ele><time>2026-04-18T11:32:09Z</time></trkpt><trkpt lat="43.69090027376691" lon="11.11661580365105"><ele>71.0</ele><time>2026-04-18T11:32:11Z</time></trkpt><trkpt lat="43.690858244060045" lon="11.116767831224973"><ele>71.0</ele><time>2026-04-18T11:32:13Z</time></trkpt><trkpt lat="43.690816250852244" lon="11.116916661105458"><ele>71.0</ele><time>2026-04-18T11:32:15Z</time></trkpt><trkpt lat="43.69077379912171" lon="11.117065989078263"><ele>71.0</ele><time>2026-04-18T11:32:17Z</time></trkpt><trkpt lat="43.6907203487925" lon="11.117208684608938"><ele>71.0</ele><time>2026-04-18T11:32:19Z</time></trkpt><trkpt lat="43.69066419050603" lon="11.117347362936263"><ele>71.0</ele><time>2026-04-18T11:32:21Z</time></trkpt><trkpt lat="43.69060250090517" lon="11.117476290202678"><ele>71.0</ele><time>2026-04-18T11:32:23Z</time></trkpt><trkpt lat="43.69053849485636" lon="11.117597781403378"><ele>71.0</ele><time>2026-04-18T11:32:25Z</time></trkpt><trkpt lat="43.69047149569279" lon="11.11771531126283"><ele>71.0</ele><time>2026-04-18T11:32:27Z</time></trkpt><trkpt lat="43.690404707918766" lon="11.117834448935131"><ele>71.0</ele><time>2026-04-18T11:32:29Z</time></trkpt><trkpt lat="43.690335582987544" lon="11.117952402409824"><ele>71.0</ele><time>2026-04-18T11:32:31Z</time></trkpt><trkpt lat="43.690265730585686" lon="11.11807027886254"><ele>71.0</ele><time>2026-04-18T11:32:33Z</time></trkpt><trkpt lat="43.69018821716961" lon="11.118179833653107"><ele>71.0</ele><time>2026-04-18T11:32:35Z</time></trkpt><trkpt lat="43.690101094577294" lon="11.118276028751723"><ele>71.0</ele><time>2026-04-18T11:32:37Z</time></trkpt><trkpt lat="43.69001165964123" lon="11.118366535660972"><ele>71.2</ele><time>2026-04-18T11:32:39Z</time></trkpt><trkpt lat="43.68992320513825" lon="11.118453468634396"><ele>71.39999999999999</ele><time>2026-04-18T11:32:41Z</time></trkpt><trkpt lat="43.68983621557275" lon="11.118536463285967"><ele>71.6</ele><time>2026-04-18T11:32:43Z</time></trkpt><trkpt lat="43.68974353480722" lon="11.118616353967715"><ele>71.8</ele><time>2026-04-18T11:32:45Z</time></trkpt><trkpt lat="43.689651305990964" lon="11.11868768172074"><ele>72.0</ele><time>2026-04-18T11:32:47Z</time></trkpt><trkpt lat="43.68956384982423" lon="11.118765237112042"><ele>72.0</ele><time>2026-04-18T11:32:49Z</time></trkpt><trkpt lat="43.68948319836846" lon="11.118863618209293"><ele>72.0</ele><time>2026-04-18T11:32:51Z</time></trkpt><trkpt lat="43.68941715152596" lon="11.118978948700446"><ele>72.0</ele><time>2026-04-18T11:32:53Z</time></trkpt><trkpt lat="43.68936996048448" lon="11.119112286646601"><ele>72.0</ele><time>2026-04-18T11:32:55Z</time></trkpt><trkpt lat="43.689345614620045" lon="11.119255640957133"><ele>72.0</ele><time>2026-04-18T11:32:57Z</time></trkpt><trkpt lat="43.68930618755303" lon="11.11938873133207"><ele>72.0</ele><time>2026-04-18T11:32:59Z</time></trkpt><trkpt lat="43.689311649891145" lon="11.11955045891175"><ele>72.0</ele><time>2026-04-18T11:33:01Z</time></trkpt><trkpt lat="43.68932205853663" lon="11.119702627129223"><ele>72.0</ele><time>2026-04-18T11:33:03Z</time></trkpt><trkpt lat="43.68933888145447" lon="11.119852856145076"><ele>72.0</ele><time>2026-04-18T11:33:05Z</time></trkpt><trkpt lat="43.6893485814149" lon="11.12000282643455"><ele>72.0</ele><time>2026-04-18T11:33:07Z</time></trkpt><trkpt lat="43.68935750946241" lon="11.120152622261084"><ele>72.0</ele><time>2026-04-18T11:33:09Z</time></trkpt><trkpt lat="43.68935081943502" lon="11.120304086626351"><ele>72.0</ele><time>2026-04-18T11:33:11Z</time></trkpt><trkpt lat="43.689327587853235" lon="11.120448552261184"><ele>72.0</ele><time>2026-04-18T11:33:13Z</time></trkpt><trkpt lat="43.689314246390126" lon="11.120594194329787"><ele>72.0</ele><time>2026-04-18T11:33:15Z</time></trkpt><trkpt lat="43.68927829707589" lon="11.120734689541166"><ele>72.0</ele><time>2026-04-18T11:33:17Z</time></trkpt><trkpt lat="43.68925011638139" lon="11.120880971361466"><ele>72.2</ele><time>2026-04-18T11:33:19Z</time></trkpt><trkpt lat="43.68921559621627" lon="11.121029985123304"><ele>72.4</ele><time>2026-04-18T11:33:21Z</time></trkpt><trkpt lat="43.68918848635005" lon="11.12117500199519"><ele>72.6</ele><time>2026-04-18T11:33:23Z</time></trkpt><trkpt lat="43.689152435522466" lon="11.121312674164903"><ele>72.8</ele><time>2026-04-18T11:33:25Z</time></trkpt><trkpt lat="43.689125040827626" lon="11.121460284759848"><ele>73.0</ele><time>2026-04-18T11:33:27Z</time></trkpt><trkpt lat="43.6890929184213" lon="11.121617290473731"><ele>73.25</ele><time>2026-04-18T11:33:29Z</time></trkpt><trkpt lat="43.68904809135865" lon="11.12176833481637"><ele>73.5</ele><time>2026-04-18T11:33:31Z</time></trkpt><trkpt lat="43.68898989150255" lon="11.121916117197248"><ele>73.75</ele><time>2026-04-18T11:33:33Z</time></trkpt><trkpt lat="43.68891157114305" lon="11.12203891155273"><ele>74.0</ele><time>2026-04-18T11:33:35Z</time></trkpt><trkpt lat="43.68882647082034" lon="11.122145827332599"><ele>74.0</ele><time>2026-04-18T11:33:37Z</time></trkpt><trkpt lat="43.68873986971976" lon="11.122248053063677"><ele>74.0</ele><time>2026-04-18T11:33:39Z</time></trkpt><trkpt lat="43.688650696764164" lon="11.122342079335674"><ele>74.0</ele><time>2026-04-18T11:33:41Z</time></trkpt><trkpt lat="43.688560617137306" lon="11.122433645539283"><ele>74.0</ele><time>2026-04-18T11:33:43Z</time></trkpt><trkpt lat="43.68847311256026" lon="11.122523212498123"><ele>74.0</ele><time>2026-04-18T11:33:45Z</time></trkpt><trkpt lat="43.68838883887815" lon="11.122608466534334"><ele>74.2</ele><time>2026-04-18T11:33:47Z</time></trkpt><trkpt lat="43.688317349" lon="11.122700681210809"><ele>74.4</ele><time>2026-04-18T11:33:49Z</time></trkpt><trkpt lat="43.68825613540667" lon="11.122795868540063"><ele>74.6</ele><time>2026-04-18T11:33:51Z</time></trkpt><trkpt lat="43.68820371132529" lon="11.12290230872852"><ele>74.8</ele><time>2026-04-18T11:33:53Z</time></trkpt><trkpt lat="43.688159257251314" lon="11.12303220545498"><ele>75.0</ele><time>2026-04-18T11:33:55Z</time></trkpt><trkpt lat="43.68808927759379" lon="11.123139711490506"><ele>74.8</ele><time>2026-04-18T11:33:57Z</time></trkpt><trkpt lat="43.68801114989493" lon="11.123236910326263"><ele>74.6</ele><time>2026-04-18T11:33:59Z</time></trkpt><trkpt lat="43.68793204470383" lon="11.123352866444087"><ele>74.4</ele><time>2026-04-18T11:34:01Z</time></trkpt><trkpt lat="43.68785078298327" lon="11.123459040042007"><ele>74.2</ele><time>2026-04-18T11:34:03Z</time></trkpt><trkpt lat="43.68776774632421" lon="11.123565705330304"><ele>74.0</ele><time>2026-04-18T11:34:05Z</time></trkpt><trkpt lat="43.68768579018964" lon="11.123671328512021"><ele>74.0</ele><time>2026-04-18T11:34:07Z</time></trkpt><trkpt lat="43.68760824041657" lon="11.123771325333587"><ele>74.0</ele><time>2026-04-18T11:34:09Z</time></trkpt><trkpt lat="43.68752330370288" lon="11.123876209115474"><ele>74.0</ele><time>2026-04-18T11:34:11Z</time></trkpt><trkpt lat="43.687449247850566" lon="11.123982539969006"><ele>74.0</ele><time>2026-04-18T11:34:13Z</time></trkpt><trkpt lat="43.68736859300441" lon="11.124072939412166"><ele>74.0</ele><time>2026-04-18T11:34:15Z</time></trkpt><trkpt lat="43.68729330823174" lon="11.124173724378569"><ele>73.8</ele><time>2026-04-18T11:34:17Z</time></trkpt><trkpt lat="43.68721276385659" lon="11.124279220931795"><ele>73.60000000000001</ele><time>2026-04-18T11:34:19Z</time></trkpt><trkpt lat="43.687133550403665" lon="11.124386672167741"><ele>73.4</ele><time>2026-04-18T11:34:21Z</time></trkpt><trkpt lat="43.6870658242976" lon="11.124486224004674"><ele>73.2</ele><time>2026-04-18T11:34:23Z</time></trkpt><trkpt lat="43.6869922370582" lon="11.124581592558487"><ele>73.0</ele><time>2026-04-18T11:34:25Z</time></trkpt><trkpt lat="43.68692053022669" lon="11.124679768304262"><ele>73.0</ele><time>2026-04-18T11:34:27Z</time></trkpt><trkpt lat="43.686844657525754" lon="11.124758123223716"><ele>73.0</ele><time>2026-04-18T11:34:29Z</time></trkpt><trkpt lat="43.68676593377363" lon="11.124873373519165"><ele>73.0</ele><time>2026-04-18T11:34:31Z</time></trkpt><trkpt lat="43.68669119822182" lon="11.124975428159125"><ele>73.0</ele><time>2026-04-18T11:34:33Z</time></trkpt><trkpt lat="43.68661794014151" lon="11.125072124303337"><ele>73.0</ele><time>2026-04-18T11:34:35Z</time></trkpt><trkpt lat="43.68654097829756" lon="11.125169625470013"><ele>73.8</ele><time>2026-04-18T11:34:37Z</time></trkpt><trkpt lat="43.686462298408124" lon="11.125265314083805"><ele>74.6</ele><time>2026-04-18T11:34:39Z</time></trkpt><trkpt lat="43.68638448425663" lon="11.125358600862478"><ele>75.4</ele><time>2026-04-18T11:34:41Z</time></trkpt><trkpt lat="43.68630429081212" lon="11.125454951932127"><ele>76.2</ele><time>2026-04-18T11:34:43Z</time></trkpt><trkpt lat="43.686218016420575" lon="11.125544765757557"><ele>77.0</ele><time>2026-04-18T11:34:45Z</time></trkpt><trkpt lat="43.686136778978224" lon="11.12563268655565"><ele>77.2</ele><time>2026-04-18T11:34:47Z</time></trkpt><trkpt lat="43.6860541208655" lon="11.125722055176364"><ele>77.4</ele><time>2026-04-18T11:34:49Z</time></trkpt><trkpt lat="43.68596682777084" lon="11.125806945188213"><ele>77.6</ele><time>2026-04-18T11:34:51Z</time></trkpt><trkpt lat="43.685874553572624" lon="11.125885551336353"><ele>77.8</ele><time>2026-04-18T11:34:53Z</time></trkpt><trkpt lat="43.68578544460916" lon="11.125955763941725"><ele>78.0</ele><time>2026-04-18T11:34:55Z</time></trkpt><trkpt lat="43.68569364185151" lon="11.126040094640915"><ele>78.0</ele><time>2026-04-18T11:34:57Z</time></trkpt><trkpt lat="43.68560737335245" lon="11.126123392384734"><ele>78.0</ele><time>2026-04-18T11:34:59Z</time></trkpt><trkpt lat="43.68552344003212" lon="11.126198730159635"><ele>78.0</ele><time>2026-04-18T11:35:01Z</time></trkpt><trkpt lat="43.68543601165544" lon="11.126287105251917"><ele>78.0</ele><time>2026-04-18T11:35:03Z</time></trkpt><trkpt lat="43.685339458496074" lon="11.12638138837967"><ele>78.0</ele><time>2026-04-18T11:35:05Z</time></trkpt><trkpt lat="43.685246809232396" lon="11.126474997875556"><ele>78.4</ele><time>2026-04-18T11:35:07Z</time></trkpt><trkpt lat="43.68515564534608" lon="11.126562585353767"><ele>78.8</ele><time>2026-04-18T11:35:09Z</time></trkpt><trkpt lat="43.685066336911866" lon="11.126667089764304"><ele>79.2</ele><time>2026-04-18T11:35:11Z</time></trkpt><trkpt lat="43.684977627451616" lon="11.126765858538763"><ele>79.6</ele><time>2026-04-18T11:35:13Z</time></trkpt><trkpt lat="43.68489428035346" lon="11.126849655603854"><ele>80.0</ele><time>2026-04-18T11:35:15Z</time></trkpt><trkpt lat="43.68482118527421" lon="11.126956437409513"><ele>80.0</ele><time>2026-04-18T11:35:17Z</time></trkpt><trkpt lat="43.684740994777485" lon="11.127073072035403"><ele>80.0</ele><time>2026-04-18T11:35:19Z</time></trkpt><trkpt lat="43.68465469593964" lon="11.127175451689473"><ele>80.0</ele><time>2026-04-18T11:35:21Z</time></trkpt><trkpt lat="43.68459988634636" lon="11.12730397042269"><ele>80.0</ele><time>2026-04-18T11:35:23Z</time></trkpt><trkpt lat="43.68452491868891" lon="11.127401064086131"><ele>80.0</ele><time>2026-04-18T11:35:25Z</time></trkpt><trkpt lat="43.68444857670646" lon="11.127489024445111"><ele>80.4</ele><time>2026-04-18T11:35:27Z</time></trkpt><trkpt lat="43.68439966889502" lon="11.127585299166375"><ele>80.8</ele><time>2026-04-18T11:35:29Z</time></trkpt><trkpt lat="43.68434061479272" lon="11.127686768784882"><ele>81.19999999999999</ele><time>2026-04-18T11:35:31Z</time></trkpt><trkpt lat="43.68432967531922" lon="11.12782044091314"><ele>81.6</ele><time>2026-04-18T11:35:33Z</time></trkpt><trkpt lat="43.68436097278342" lon="11.127954064709085"><ele>82.0</ele><time>2026-04-18T11:35:35Z</time></trkpt><trkpt lat="43.684386775762555" lon="11.12807788352909"><ele>82.0</ele><time>2026-04-18T11:35:37Z</time></trkpt><trkpt lat="43.68442472922337" lon="11.12819513089928"><ele>82.0</ele><time>2026-04-18T11:35:39Z</time></trkpt><trkpt lat="43.68448257069844" lon="11.1283011982236"><ele>82.0</ele><time>2026-04-18T11:35:41Z</time></trkpt><trkpt lat="43.68455277181958" lon="11.128404483921688"><ele>82.0</ele><time>2026-04-18T11:35:43Z</time></trkpt><trkpt lat="43.68460736017369" lon="11.128516422822864"><ele>82.0</ele><time>2026-04-18T11:35:45Z</time></trkpt><trkpt lat="43.6846549063124" lon="11.12864028861323"><ele>82.39999999999999</ele><time>2026-04-18T11:35:47Z</time></trkpt><trkpt lat="43.68468084896475" lon="11.128778130309962"><ele>82.8</ele><time>2026-04-18T11:35:49Z</time></trkpt><trkpt lat="43.68471718107639" lon="11.128909923873083"><ele>83.2</ele><time>2026-04-18T11:35:51Z</time></trkpt><trkpt lat="43.6847507350397" lon="11.12903876031873"><ele>83.6</ele><time>2026-04-18T11:35:53Z</time></trkpt><trkpt lat="43.684798320229554" lon="11.129153938840554"><ele>84.0</ele><time>2026-04-18T11:35:55Z</time></trkpt><trkpt lat="43.684836043753585" lon="11.129272798839198"><ele>84.2</ele><time>2026-04-18T11:35:57Z</time></trkpt><trkpt lat="43.68488025865629" lon="11.129386911131265"><ele>84.4</ele><time>2026-04-18T11:35:59Z</time></trkpt><trkpt lat="43.68493044839453" lon="11.129497759596546"><ele>84.6</ele><time>2026-04-18T11:36:01Z</time></trkpt><trkpt lat="43.684984730434024" lon="11.12962441841735"><ele>84.8</ele><time>2026-04-18T11:36:03Z</time></trkpt><trkpt lat="43.68504944473313" lon="11.129701759926538"><ele>85.0</ele><time>2026-04-18T11:36:05Z</time></trkpt><trkpt lat="43.68511921581422" lon="11.129785269850483"><ele>85.0</ele><time>2026-04-18T11:36:07Z</time></trkpt><trkpt lat="43.68518028410628" lon="11.129862346256498"><ele>85.0</ele><time>2026-04-18T11:36:09Z</time></trkpt><trkpt lat="43.68524560824032" lon="11.129935142128966"><ele>85.0</ele><time>2026-04-18T11:36:11Z</time></trkpt><trkpt lat="43.68529790294262" lon="11.13001735822241"><ele>85.0</ele><time>2026-04-18T11:36:13Z</time></trkpt><trkpt lat="43.685361691926346" lon="11.130081902239967"><ele>85.0</ele><time>2026-04-18T11:36:15Z</time></trkpt><trkpt lat="43.6854257921191" lon="11.130148168768574"><ele>85.0</ele><time>2026-04-18T11:36:17Z</time></trkpt><trkpt lat="43.68548966419186" lon="11.130211331527462"><ele>85.83333333333333</ele><time>2026-04-18T11:36:19Z</time></trkpt><trkpt lat="43.68555151382017" lon="11.130279470115843"><ele>86.66666666666666</ele><time>2026-04-18T11:36:21Z</time></trkpt><trkpt lat="43.68561284905796" lon="11.130342899082693"><ele>87.5</ele><time>2026-04-18T11:36:23Z</time></trkpt><trkpt lat="43.685674541959955" lon="11.130407472176426"><ele>88.33333333333333</ele><time>2026-04-18T11:36:25Z</time></trkpt><trkpt lat="43.68573165078125" lon="11.130483103083154"><ele>89.16666666666667</ele><time>2026-04-18T11:36:27Z</time></trkpt><trkpt lat="43.68579251579249" lon="11.130546692070592"><ele>90.0</ele><time>2026-04-18T11:36:29Z</time></trkpt><trkpt lat="43.68585434008983" lon="11.130615469258702"><ele>90.0</ele><time>2026-04-18T11:36:31Z</time></trkpt><trkpt lat="43.68591954990101" lon="11.130681946146007"><ele>90.0</ele><time>2026-04-18T11:36:33Z</time></trkpt><trkpt lat="43.685983580184676" lon="11.130737038383916"><ele>90.0</ele><time>2026-04-18T11:36:35Z</time></trkpt><trkpt lat="43.68604592948816" lon="11.130800457591237"><ele>90.0</ele><time>2026-04-18T11:36:37Z</time></trkpt><trkpt lat="43.68610508014081" lon="11.130865328216995"><ele>90.0</ele><time>2026-04-18T11:36:39Z</time></trkpt><trkpt lat="43.68616656747042" lon="11.130932584054104"><ele>90.0</ele><time>2026-04-18T11:36:41Z</time></trkpt><trkpt lat="43.68623362379764" lon="11.130997877463676"><ele>90.66666666666667</ele><time>2026-04-18T11:36:43Z</time></trkpt><trkpt lat="43.6862966636111" lon="11.131057456205658"><ele>91.33333333333333</ele><time>2026-04-18T11:36:45Z</time></trkpt><trkpt lat="43.686366978262114" lon="11.131112224788367"><ele>92.0</ele><time>2026-04-18T11:36:47Z</time></trkpt><trkpt lat="43.68643355228391" lon="11.131179568830222"><ele>92.66666666666666</ele><time>2026-04-18T11:36:49Z</time></trkpt><trkpt lat="43.686499824944285" lon="11.131243565711271"><ele>93.33333333333333</ele><time>2026-04-18T11:36:51Z</time></trkpt><trkpt lat="43.68656023780044" lon="11.131316938191386"><ele>94.0</ele><time>2026-04-18T11:36:53Z</time></trkpt><trkpt lat="43.68662151516178" lon="11.131388794335898"><ele>94.0</ele><time>2026-04-18T11:36:55Z</time></trkpt><trkpt lat="43.686685696015616" lon="11.13146019756731"><ele>94.0</ele><time>2026-04-18T11:36:57Z</time></trkpt><trkpt lat="43.68673257489756" lon="11.131548943710067"><ele>94.0</ele><time>2026-04-18T11:36:59Z</time></trkpt><trkpt lat="43.6867791551824" lon="11.131640576060072"><ele>94.0</ele><time>2026-04-18T11:37:01Z</time></trkpt><trkpt lat="43.686832961360594" lon="11.131724431658721"><ele>94.0</ele><time>2026-04-18T11:37:03Z</time></trkpt><trkpt lat="43.68688755612942" lon="11.131802367089596"><ele>94.0</ele><time>2026-04-18T11:37:05Z</time></trkpt><trkpt lat="43.686935779366955" lon="11.131890381751315"><ele>94.5</ele><time>2026-04-18T11:37:07Z</time></trkpt><trkpt lat="43.68698461814538" lon="11.131976968704496"><ele>95.0</ele><time>2026-04-18T11:37:09Z</time></trkpt><trkpt lat="43.68703386842883" lon="11.132061460432231"><ele>95.5</ele><time>2026-04-18T11:37:11Z</time></trkpt><trkpt lat="43.6870862344016" lon="11.13214495903294"><ele>96.0</ele><time>2026-04-18T11:37:13Z</time></trkpt><trkpt lat="43.6871391052087" lon="11.132231002148442"><ele>96.50000000000001</ele><time>2026-04-18T11:37:15Z</time></trkpt><trkpt lat="43.68718953405707" lon="11.132318698902175"><ele>97.0</ele><time>2026-04-18T11:37:17Z</time></trkpt><trkpt lat="43.68724907691498" lon="11.132401396090188"><ele>97.50000000000001</ele><time>2026-04-18T11:37:19Z</time></trkpt><trkpt lat="43.687293072008075" lon="11.132488038365793"><ele>98.0</ele><time>2026-04-18T11:37:21Z</time></trkpt><trkpt lat="43.68733814174154" lon="11.132567768208402"><ele>98.5</ele><time>2026-04-18T11:37:23Z</time></trkpt><trkpt lat="43.68738019181485" lon="11.132678564833201"><ele>99.0</ele><time>2026-04-18T11:37:25Z</time></trkpt><trkpt lat="43.687414306023435" lon="11.132760099025655"><ele>99.50000000000001</ele><time>2026-04-18T11:37:27Z</time></trkpt><trkpt lat="43.68743921944682" lon="11.132861932147543"><ele>100.0</ele><time>2026-04-18T11:37:29Z</time></trkpt><trkpt lat="43.68744862933787" lon="11.132970921652133"><ele>100.00000000000001</ele><time>2026-04-18T11:37:31Z</time></trkpt><trkpt lat="43.68746421159157" lon="11.133078876267232"><ele>100.0</ele><time>2026-04-18T11:37:33Z</time></trkpt><trkpt lat="43.68747857956094" lon="11.133185496183343"><ele>100.0</ele><time>2026-04-18T11:37:35Z</time></trkpt><trkpt lat="43.68748661878347" lon="11.133292943262278"><ele>100.0</ele><time>2026-04-18T11:37:37Z</time></trkpt><trkpt lat="43.68749544347755" lon="11.13340793654599"><ele>100.00000000000001</ele><time>2026-04-18T11:37:39Z</time></trkpt><trkpt lat="43.687499416054656" lon="11.133517589039664"><ele>100.0</ele><time>2026-04-18T11:37:41Z</time></trkpt><trkpt lat="43.68751895539226" lon="11.133636596029497"><ele>100.0</ele><time>2026-04-18T11:37:43Z</time></trkpt><trkpt lat="43.68753148573108" lon="11.133759575626229"><ele>100.0</ele><time>2026-04-18T11:37:45Z</time></trkpt><trkpt lat="43.68755227702486" lon="11.133879663254522"><ele>100.0</ele><time>2026-04-18T11:37:47Z</time></trkpt><trkpt lat="43.6875844209267" lon="11.133996874307352"><ele>100.0</ele><time>2026-04-18T11:37:49Z</time></trkpt><trkpt lat="43.68761350212702" lon="11.134119762465044"><ele>100.0</ele><time>2026-04-18T11:37:51Z</time></trkpt><trkpt lat="43.687657051129634" lon="11.134244221672303"><ele>100.0</ele><time>2026-04-18T11:37:53Z</time></trkpt><trkpt lat="43.68769148357081" lon="11.134362984906849"><ele>100.0</ele><time>2026-04-18T11:37:55Z</time></trkpt><trkpt lat="43.687722342928055" lon="11.134503726889777"><ele>100.0</ele><time>2026-04-18T11:37:57Z</time></trkpt><trkpt lat="43.687758266944805" lon="11.134647596948234"><ele>100.0</ele><time>2026-04-18T11:37:59Z</time></trkpt><trkpt lat="43.68778128979106" lon="11.134791053586593"><ele>100.0</ele><time>2026-04-18T11:38:01Z</time></trkpt><trkpt lat="43.68781226211618" lon="11.134928921729252"><ele>99.2</ele><time>2026-04-18T11:38:03Z</time></trkpt><trkpt lat="43.68782096223742" lon="11.135070649472317"><ele>98.4</ele><time>2026-04-18T11:38:05Z</time></trkpt><trkpt lat="43.68780576819375" lon="11.135212132232095"><ele>97.6</ele><time>2026-04-18T11:38:07Z</time></trkpt><trkpt lat="43.68779846964499" lon="11.135344596389714"><ele>96.8</ele><time>2026-04-18T11:38:09Z</time></trkpt><trkpt lat="43.68778024882486" lon="11.135481276508347"><ele>96.0</ele><time>2026-04-18T11:38:11Z</time></trkpt><trkpt lat="43.68775541762005" lon="11.135620872446047"><ele>96.19999999999999</ele><time>2026-04-18T11:38:13Z</time></trkpt><trkpt lat="43.68773848182707" lon="11.135763475995143"><ele>96.39999999999999</ele><time>2026-04-18T11:38:15Z</time></trkpt><trkpt lat="43.68770689747578" lon="11.135900361769265"><ele>96.6</ele><time>2026-04-18T11:38:17Z</time></trkpt><trkpt lat="43.68768196072692" lon="11.136063138868318"><ele>96.8</ele><time>2026-04-18T11:38:19Z</time></trkpt><trkpt lat="43.68763072567882" lon="11.136118244097489"><ele>97.0</ele><time>2026-04-18T11:38:21Z</time></trkpt><trkpt lat="43.687481397154166" lon="11.136158436052842"><ele>97.0</ele><time>2026-04-18T11:38:24Z</time></trkpt><trkpt lat="43.68742338423013" lon="11.136349114115518"><ele>97.0</ele><time>2026-04-18T11:38:28Z</time></trkpt><trkpt lat="43.68743977432561" lon="11.136444940615533"><ele>97.0</ele><time>2026-04-18T11:38:30Z</time></trkpt><trkpt lat="43.68738532443021" lon="11.136544473527712"><ele>97.0</ele><time>2026-04-18T11:38:33Z</time></trkpt><trkpt lat="43.68744200804107" lon="11.13662122329953"><ele>97.0</ele><time>2026-04-18T11:41:29Z</time></trkpt><trkpt lat="43.687538563894016" lon="11.136648096965196"><ele>97.19999999999999</ele><time>2026-04-18T11:41:36Z</time></trkpt><trkpt lat="43.68759391571643" lon="11.136713428555778"><ele>97.4</ele><time>2026-04-18T11:41:38Z</time></trkpt><trkpt lat="43.68759195623269" lon="11.136870846139699"><ele>97.6</ele><time>2026-04-18T11:41:40Z</time></trkpt><trkpt lat="43.68756693855841" lon="11.136998655687124"><ele>97.80000000000001</ele><time>2026-04-18T11:41:42Z</time></trkpt><trkpt lat="43.687549303168716" lon="11.137136488342733"><ele>98.0</ele><time>2026-04-18T11:41:44Z</time></trkpt><trkpt lat="43.68753309748657" lon="11.137276156827586"><ele>98.0</ele><time>2026-04-18T11:41:46Z</time></trkpt><trkpt lat="43.68751748508648" lon="11.137415676462409"><ele>98.0</ele><time>2026-04-18T11:41:48Z</time></trkpt><trkpt lat="43.68749800905254" lon="11.137550500655253"><ele>98.0</ele><time>2026-04-18T11:41:50Z</time></trkpt><trkpt lat="43.68748388461504" lon="11.137691042456252"><ele>98.0</ele><time>2026-04-18T11:41:52Z</time></trkpt><trkpt lat="43.68747858995947" lon="11.13782309447408"><ele>98.0</ele><time>2026-04-18T11:41:54Z</time></trkpt><trkpt lat="43.687471201369405" lon="11.137949752259864"><ele>98.0</ele><time>2026-04-18T11:41:56Z</time></trkpt><trkpt lat="43.68747538220454" lon="11.138077087097926"><ele>98.0</ele><time>2026-04-18T11:41:58Z</time></trkpt><trkpt lat="43.68749125306412" lon="11.138206867381703"><ele>98.0</ele><time>2026-04-18T11:42:00Z</time></trkpt><trkpt lat="43.687499841892794" lon="11.138340607945452"><ele>98.0</ele><time>2026-04-18T11:42:02Z</time></trkpt><trkpt lat="43.68751514950101" lon="11.138470863293154"><ele>98.0</ele><time>2026-04-18T11:42:04Z</time></trkpt><trkpt lat="43.68752801271495" lon="11.138602427002256"><ele>98.2</ele><time>2026-04-18T11:42:06Z</time></trkpt><trkpt lat="43.68753545732015" lon="11.138731386963288"><ele>98.4</ele><time>2026-04-18T11:42:08Z</time></trkpt><trkpt lat="43.687548953525685" lon="11.13885931526314"><ele>98.60000000000001</ele><time>2026-04-18T11:42:10Z</time></trkpt><trkpt lat="43.687559488534674" lon="11.138986838064126"><ele>98.80000000000001</ele><time>2026-04-18T11:42:12Z</time></trkpt><trkpt lat="43.68757322238303" lon="11.139110988485143"><ele>99.0</ele><time>2026-04-18T11:42:14Z</time></trkpt><trkpt lat="43.687583597677495" lon="11.139235591258467"><ele>99.0</ele><time>2026-04-18T11:42:16Z</time></trkpt><trkpt lat="43.68760054785259" lon="11.13936114573483"><ele>99.0</ele><time>2026-04-18T11:42:18Z</time></trkpt><trkpt lat="43.68761642425297" lon="11.13948525221191"><ele>99.0</ele><time>2026-04-18T11:42:20Z</time></trkpt><trkpt lat="43.687633753008306" lon="11.139609307277004"><ele>99.0</ele><time>2026-04-18T11:42:22Z</time></trkpt><trkpt lat="43.687653782869376" lon="11.139732286406257"><ele>99.0</ele><time>2026-04-18T11:42:24Z</time></trkpt><trkpt lat="43.68767315161303" lon="11.13985444973183"><ele>99.0</ele><time>2026-04-18T11:42:26Z</time></trkpt><trkpt lat="43.68769602954228" lon="11.139977078087437"><ele>99.0</ele><time>2026-04-18T11:42:28Z</time></trkpt><trkpt lat="43.687716136837324" lon="11.140098545848584"><ele>99.0</ele><time>2026-04-18T11:42:30Z</time></trkpt><trkpt lat="43.68773907942209" lon="11.14021986358775"><ele>99.0</ele><time>2026-04-18T11:42:32Z</time></trkpt><trkpt lat="43.687768780103255" lon="11.140339674213584"><ele>99.0</ele><time>2026-04-18T11:42:34Z</time></trkpt><trkpt lat="43.6877894648728" lon="11.140459969166505"><ele>100.80000000000001</ele><time>2026-04-18T11:42:36Z</time></trkpt><trkpt lat="43.68781625784516" lon="11.14057867680623"><ele>102.60000000000001</ele><time>2026-04-18T11:42:38Z</time></trkpt><trkpt lat="43.68784676018762" lon="11.140696650101887"><ele>104.4</ele><time>2026-04-18T11:42:40Z</time></trkpt><trkpt lat="43.68787508662018" lon="11.140816243575838"><ele>106.2</ele><time>2026-04-18T11:42:42Z</time></trkpt><trkpt lat="43.68790705604134" lon="11.140933135990585"><ele>108.0</ele><time>2026-04-18T11:42:44Z</time></trkpt><trkpt lat="43.68793058591559" lon="11.14105081646261"><ele>108.0</ele><time>2026-04-18T11:42:46Z</time></trkpt><trkpt lat="43.68795704451493" lon="11.141172535788492"><ele>108.00000000000001</ele><time>2026-04-18T11:42:48Z</time></trkpt><trkpt lat="43.68797384133323" lon="11.14130352363928"><ele>108.00000000000001</ele><time>2026-04-18T11:42:50Z</time></trkpt><trkpt lat="43.68797446642939" lon="11.14143836040494"><ele>108.0</ele><time>2026-04-18T11:42:52Z</time></trkpt><trkpt lat="43.68796193207403" lon="11.141571494453384"><ele>108.0</ele><time>2026-04-18T11:42:54Z</time></trkpt><trkpt lat="43.68793701710882" lon="11.141698567479"><ele>108.0</ele><time>2026-04-18T11:42:56Z</time></trkpt><trkpt lat="43.687894526124424" lon="11.141811140800764"><ele>108.00000000000001</ele><time>2026-04-18T11:42:58Z</time></trkpt><trkpt lat="43.687856478223225" lon="11.14193298442957"><ele>108.00000000000001</ele><time>2026-04-18T11:43:00Z</time></trkpt><trkpt lat="43.68781466820661" lon="11.142045751800001"><ele>108.0</ele><time>2026-04-18T11:43:02Z</time></trkpt><trkpt lat="43.68777190767326" lon="11.142155038329431"><ele>108.0</ele><time>2026-04-18T11:43:04Z</time></trkpt><trkpt lat="43.687723676266565" lon="11.14226125981772"><ele>107.2</ele><time>2026-04-18T11:43:06Z</time></trkpt><trkpt lat="43.687677730368236" lon="11.142371364076766"><ele>106.4</ele><time>2026-04-18T11:43:08Z</time></trkpt><trkpt lat="43.687636814374365" lon="11.142486859014483"><ele>105.60000000000001</ele><time>2026-04-18T11:43:10Z</time></trkpt><trkpt lat="43.68759123648355" lon="11.142598587209685"><ele>104.80000000000001</ele><time>2026-04-18T11:43:12Z</time></trkpt><trkpt lat="43.687547634566144" lon="11.142716780371305"><ele>104.0</ele><time>2026-04-18T11:43:14Z</time></trkpt><trkpt lat="43.68750097925642" lon="11.142832427800876"><ele>104.0</ele><time>2026-04-18T11:43:16Z</time></trkpt><trkpt lat="43.68746342173261" lon="11.142951967211351"><ele>104.0</ele><time>2026-04-18T11:43:18Z</time></trkpt><trkpt lat="43.68743521049161" lon="11.14308191593852"><ele>104.0</ele><time>2026-04-18T11:43:20Z</time></trkpt><trkpt lat="43.68741243757633" lon="11.143210286414584"><ele>104.0</ele><time>2026-04-18T11:43:22Z</time></trkpt><trkpt lat="43.68740404642866" lon="11.143349732023795"><ele>104.0</ele><time>2026-04-18T11:43:24Z</time></trkpt><trkpt lat="43.68740955425949" lon="11.143491664529275"><ele>104.0</ele><time>2026-04-18T11:43:26Z</time></trkpt><trkpt lat="43.68741570482938" lon="11.143637633629417"><ele>104.0</ele><time>2026-04-18T11:43:28Z</time></trkpt><trkpt lat="43.687428509772325" lon="11.143777898955912"><ele>104.0</ele><time>2026-04-18T11:43:30Z</time></trkpt><trkpt lat="43.68744710201198" lon="11.143919589026797"><ele>104.0</ele><time>2026-04-18T11:43:32Z</time></trkpt><trkpt lat="43.687463998783485" lon="11.144057404232951"><ele>104.0</ele><time>2026-04-18T11:43:34Z</time></trkpt><trkpt lat="43.687486137656805" lon="11.144195059520746"><ele>104.0</ele><time>2026-04-18T11:43:36Z</time></trkpt><trkpt lat="43.68752029178149" lon="11.144324853854414"><ele>104.0</ele><time>2026-04-18T11:43:38Z</time></trkpt><trkpt lat="43.687566472646175" lon="11.144452481333094"><ele>104.0</ele><time>2026-04-18T11:43:40Z</time></trkpt><trkpt lat="43.687622480054664" lon="11.144572746090176"><ele>104.0</ele><time>2026-04-18T11:43:42Z</time></trkpt><trkpt lat="43.68768349662524" lon="11.144684905969129"><ele>104.0</ele><time>2026-04-18T11:43:44Z</time></trkpt><trkpt lat="43.687753431369636" lon="11.144798810042817"><ele>106.2</ele><time>2026-04-18T11:43:46Z</time></trkpt><trkpt lat="43.68780946859956" lon="11.144920647736052"><ele>108.4</ele><time>2026-04-18T11:43:48Z</time></trkpt><trkpt lat="43.687858571786634" lon="11.145040425256601"><ele>110.6</ele><time>2026-04-18T11:43:50Z</time></trkpt><trkpt lat="43.68789516673836" lon="11.145165360607832"><ele>112.8</ele><time>2026-04-18T11:43:52Z</time></trkpt><trkpt lat="43.68791510975858" lon="11.145294094797785"><ele>115.0</ele><time>2026-04-18T11:43:54Z</time></trkpt><trkpt lat="43.68792742663076" lon="11.145422434150035"><ele>115.0</ele><time>2026-04-18T11:43:56Z</time></trkpt><trkpt lat="43.68792222634348" lon="11.145550701969348"><ele>115.0</ele><time>2026-04-18T11:43:58Z</time></trkpt><trkpt lat="43.687905920520194" lon="11.145676679770006"><ele>115.0</ele><time>2026-04-18T11:44:00Z</time></trkpt><trkpt lat="43.68787581224095" lon="11.145795876220262"><ele>115.0</ele><time>2026-04-18T11:44:02Z</time></trkpt><trkpt lat="43.68783827750777" lon="11.145908149682379"><ele>115.0</ele><time>2026-04-18T11:44:04Z</time></trkpt><trkpt lat="43.68780107024465" lon="11.146023808766719"><ele>115.00000000000001</ele><time>2026-04-18T11:44:06Z</time></trkpt><trkpt lat="43.68776288368114" lon="11.146137619714208"><ele>115.0</ele><time>2026-04-18T11:44:08Z</time></trkpt><trkpt lat="43.687720019454694" lon="11.146246824185775"><ele>115.0</ele><time>2026-04-18T11:44:10Z</time></trkpt><trkpt lat="43.68767831455011" lon="11.146359061264176"><ele>115.0</ele><time>2026-04-18T11:44:12Z</time></trkpt><trkpt lat="43.68763925231755" lon="11.146469614015858"><ele>115.00000000000001</ele><time>2026-04-18T11:44:14Z</time></trkpt><trkpt lat="43.68759870048996" lon="11.146573356057273"><ele>115.0</ele><time>2026-04-18T11:44:16Z</time></trkpt><trkpt lat="43.68755833332556" lon="11.146680746075313"><ele>113.4</ele><time>2026-04-18T11:44:18Z</time></trkpt><trkpt lat="43.68751687559664" lon="11.146792005678567"><ele>111.8</ele><time>2026-04-18T11:44:20Z</time></trkpt><trkpt lat="43.687474335168055" lon="11.146904799803565"><ele>110.19999999999999</ele><time>2026-04-18T11:44:22Z</time></trkpt><trkpt lat="43.687438665536156" lon="11.147022237562974"><ele>108.6</ele><time>2026-04-18T11:44:24Z</time></trkpt><trkpt lat="43.68741742176314" lon="11.14714264454484"><ele>107.0</ele><time>2026-04-18T11:44:26Z</time></trkpt><trkpt lat="43.68740256907421" lon="11.14727026151482"><ele>108.0</ele><time>2026-04-18T11:44:28Z</time></trkpt><trkpt lat="43.68739809289062" lon="11.14739710493725"><ele>108.99999999999999</ele><time>2026-04-18T11:44:30Z</time></trkpt><trkpt lat="43.68739985859462" lon="11.147527281960503"><ele>109.99999999999999</ele><time>2026-04-18T11:44:32Z</time></trkpt><trkpt lat="43.687417989952145" lon="11.147655226614452"><ele>111.0</ele><time>2026-04-18T11:44:34Z</time></trkpt><trkpt lat="43.687454964185434" lon="11.147779498930754"><ele>112.0</ele><time>2026-04-18T11:44:36Z</time></trkpt><trkpt lat="43.68749670816382" lon="11.147901531904054"><ele>112.0</ele><time>2026-04-18T11:44:38Z</time></trkpt><trkpt lat="43.68753551669051" lon="11.148023639534738"><ele>111.99999999999999</ele><time>2026-04-18T11:44:40Z</time></trkpt><trkpt lat="43.68758166974847" lon="11.148146924876606"><ele>111.99999999999999</ele><time>2026-04-18T11:44:42Z</time></trkpt><trkpt lat="43.68762875820755" lon="11.148268991287148"><ele>112.0</ele><time>2026-04-18T11:44:44Z</time></trkpt><trkpt lat="43.6876679787802" lon="11.14838968949865"><ele>112.0</ele><time>2026-04-18T11:44:46Z</time></trkpt><trkpt lat="43.68770822259986" lon="11.148511001677045"><ele>112.0</ele><time>2026-04-18T11:44:48Z</time></trkpt><trkpt lat="43.68773579274486" lon="11.148637648868256"><ele>111.99999999999999</ele><time>2026-04-18T11:44:50Z</time></trkpt><trkpt lat="43.68774925232756" lon="11.148773692322612"><ele>111.99999999999999</ele><time>2026-04-18T11:44:52Z</time></trkpt><trkpt lat="43.687761759733334" lon="11.148905776758252"><ele>112.0</ele><time>2026-04-18T11:44:54Z</time></trkpt><trkpt lat="43.687758684818256" lon="11.149025540430566"><ele>112.0</ele><time>2026-04-18T11:44:56Z</time></trkpt><trkpt lat="43.68775018216159" lon="11.14915335951449"><ele>112.00000000000001</ele><time>2026-04-18T11:44:58Z</time></trkpt><trkpt lat="43.68774748415596" lon="11.149276040444631"><ele>112.0</ele><time>2026-04-18T11:45:00Z</time></trkpt><trkpt lat="43.68774299836983" lon="11.149401521902213"><ele>112.0</ele><time>2026-04-18T11:45:02Z</time></trkpt><trkpt lat="43.68773985426014" lon="11.149520225669276"><ele>112.0</ele><time>2026-04-18T11:45:04Z</time></trkpt><trkpt lat="43.68772759241296" lon="11.149634505514104"><ele>112.00000000000001</ele><time>2026-04-18T11:45:06Z</time></trkpt><trkpt lat="43.68771350851518" lon="11.149755559603376"><ele>112.0</ele><time>2026-04-18T11:45:08Z</time></trkpt><trkpt lat="43.68770312979376" lon="11.149877696741857"><ele>111.83333333333334</ele><time>2026-04-18T11:45:10Z</time></trkpt><trkpt lat="43.6876941306744" lon="11.150002003120875"><ele>111.66666666666667</ele><time>2026-04-18T11:45:12Z</time></trkpt><trkpt lat="43.687680988263104" lon="11.1501245243633"><ele>111.5</ele><time>2026-04-18T11:45:14Z</time></trkpt><trkpt lat="43.68766512417911" lon="11.150247475833693"><ele>111.33333333333334</ele><time>2026-04-18T11:45:16Z</time></trkpt><trkpt lat="43.68766059765065" lon="11.150369182826745"><ele>111.16666666666667</ele><time>2026-04-18T11:45:18Z</time></trkpt><trkpt lat="43.68765770107126" lon="11.150495179562677"><ele>111.0</ele><time>2026-04-18T11:45:20Z</time></trkpt><trkpt lat="43.68764490120835" lon="11.15061246598247"><ele>111.0</ele><time>2026-04-18T11:45:22Z</time></trkpt><trkpt lat="43.68763337881615" lon="11.15073388781943"><ele>111.0</ele><time>2026-04-18T11:45:24Z</time></trkpt><trkpt lat="43.6876318526092" lon="11.15085648790703"><ele>111.0</ele><time>2026-04-18T11:45:26Z</time></trkpt><trkpt lat="43.687631786337775" lon="11.150978118126309"><ele>111.0</ele><time>2026-04-18T11:45:28Z</time></trkpt><trkpt lat="43.68763316097661" lon="11.151100992896929"><ele>111.0</ele><time>2026-04-18T11:45:30Z</time></trkpt><trkpt lat="43.68764036758442" lon="11.151222616924676"><ele>111.0</ele><time>2026-04-18T11:45:32Z</time></trkpt><trkpt lat="43.687664746937976" lon="11.151353824293022"><ele>111.0</ele><time>2026-04-18T11:45:34Z</time></trkpt><trkpt lat="43.68768221030894" lon="11.151472578653749"><ele>111.0</ele><time>2026-04-18T11:45:36Z</time></trkpt><trkpt lat="43.687696661669875" lon="11.151598285268221"><ele>111.0</ele><time>2026-04-18T11:45:38Z</time></trkpt><trkpt lat="43.687716839470916" lon="11.151723269447182"><ele>111.0</ele><time>2026-04-18T11:45:40Z</time></trkpt><trkpt lat="43.68773850723742" lon="11.151843318339997"><ele>111.0</ele><time>2026-04-18T11:45:42Z</time></trkpt><trkpt lat="43.68774610335322" lon="11.151964128660698"><ele>111.0</ele><time>2026-04-18T11:45:44Z</time></trkpt><trkpt lat="43.68775985074573" lon="11.15208681868366"><ele>112.5</ele><time>2026-04-18T11:45:46Z</time></trkpt><trkpt lat="43.68777718819522" lon="11.152204256907021"><ele>114.0</ele><time>2026-04-18T11:45:48Z</time></trkpt><trkpt lat="43.68779774055412" lon="11.152319980871399"><ele>115.5</ele><time>2026-04-18T11:45:50Z</time></trkpt><trkpt lat="43.68782208285699" lon="11.152434026791111"><ele>117.0</ele><time>2026-04-18T11:45:52Z</time></trkpt><trkpt lat="43.687844430292024" lon="11.152545973381406"><ele>118.5</ele><time>2026-04-18T11:45:54Z</time></trkpt><trkpt lat="43.68788312910186" lon="11.15266059893057"><ele>120.0</ele><time>2026-04-18T11:45:56Z</time></trkpt><trkpt lat="43.68791588877798" lon="11.15276616188888"><ele>120.0</ele><time>2026-04-18T11:45:58Z</time></trkpt><trkpt lat="43.68795991170668" lon="11.152872408241267"><ele>120.0</ele><time>2026-04-18T11:46:00Z</time></trkpt><trkpt lat="43.6880033423129" lon="11.152981755141187"><ele>120.0</ele><time>2026-04-18T11:46:02Z</time></trkpt><trkpt lat="43.68804380715689" lon="11.153096633880809"><ele>120.0</ele><time>2026-04-18T11:46:04Z</time></trkpt><trkpt lat="43.68809158780999" lon="11.153211859040363"><ele>120.0</ele><time>2026-04-18T11:46:06Z</time></trkpt><trkpt lat="43.68813515992995" lon="11.153328236655787"><ele>119.66666666666667</ele><time>2026-04-18T11:46:08Z</time></trkpt><trkpt lat="43.688170790426206" lon="11.15344157847065"><ele>119.33333333333334</ele><time>2026-04-18T11:46:10Z</time></trkpt><trkpt lat="43.68820337712144" lon="11.153559991359879"><ele>119.0</ele><time>2026-04-18T11:46:12Z</time></trkpt><trkpt lat="43.688236313174066" lon="11.153676021905744"><ele>118.66666666666667</ele><time>2026-04-18T11:46:14Z</time></trkpt><trkpt lat="43.688267001951765" lon="11.153793834302618"><ele>118.33333333333334</ele><time>2026-04-18T11:46:16Z</time></trkpt><trkpt lat="43.68829566110257" lon="11.15390822748042"><ele>118.0</ele><time>2026-04-18T11:46:18Z</time></trkpt><trkpt lat="43.68832800590992" lon="11.154021400344696"><ele>117.80000000000001</ele><time>2026-04-18T11:46:20Z</time></trkpt><trkpt lat="43.68836550078907" lon="11.154134391564876"><ele>117.60000000000001</ele><time>2026-04-18T11:46:22Z</time></trkpt><trkpt lat="43.68840953804809" lon="11.154244694447712"><ele>117.39999999999999</ele><time>2026-04-18T11:46:24Z</time></trkpt><trkpt lat="43.68846036604464" lon="11.15434651554079"><ele>117.19999999999999</ele><time>2026-04-18T11:46:26Z</time></trkpt><trkpt lat="43.68851441340854" lon="11.15444249774667"><ele>117.0</ele><time>2026-04-18T11:46:28Z</time></trkpt><trkpt lat="43.68857290667188" lon="11.154540625747599"><ele>118.19999999999999</ele><time>2026-04-18T11:46:30Z</time></trkpt><trkpt lat="43.68863344872077" lon="11.154637666223683"><ele>119.39999999999999</ele><time>2026-04-18T11:46:32Z</time></trkpt><trkpt lat="43.68868356134615" lon="11.154740284758272"><ele>120.60000000000001</ele><time>2026-04-18T11:46:34Z</time></trkpt><trkpt lat="43.68873072548862" lon="11.154846016974291"><ele>121.80000000000001</ele><time>2026-04-18T11:46:36Z</time></trkpt><trkpt lat="43.688761807705454" lon="11.154966481639114"><ele>123.0</ele><time>2026-04-18T11:46:38Z</time></trkpt><trkpt lat="43.68876846921399" lon="11.155092246416192"><ele>123.16666666666667</ele><time>2026-04-18T11:46:40Z</time></trkpt><trkpt lat="43.68875330371664" lon="11.155209356672477"><ele>123.33333333333334</ele><time>2026-04-18T11:46:42Z</time></trkpt><trkpt lat="43.68872341140683" lon="11.155321095453228"><ele>123.5</ele><time>2026-04-18T11:46:44Z</time></trkpt><trkpt lat="43.68869502345076" lon="11.155439544585052"><ele>123.66666666666667</ele><time>2026-04-18T11:46:46Z</time></trkpt><trkpt lat="43.688665599591836" lon="11.155553103151036"><ele>123.83333333333334</ele><time>2026-04-18T11:46:48Z</time></trkpt><trkpt lat="43.68863759873524" lon="11.155664108161007"><ele>124.0</ele><time>2026-04-18T11:46:50Z</time></trkpt><trkpt lat="43.688614521496795" lon="11.155779954640497"><ele>124.50000000000001</ele><time>2026-04-18T11:46:52Z</time></trkpt><trkpt lat="43.68860073887553" lon="11.1558941386648"><ele>125.0</ele><time>2026-04-18T11:46:54Z</time></trkpt><trkpt lat="43.688604047764855" lon="11.156011039327886"><ele>125.5</ele><time>2026-04-18T11:46:56Z</time></trkpt><trkpt lat="43.68864179568463" lon="11.156128525677891"><ele>126.0</ele><time>2026-04-18T11:46:58Z</time></trkpt><trkpt lat="43.688698824097" lon="11.156230492664038"><ele>126.50000000000001</ele><time>2026-04-18T11:47:00Z</time></trkpt><trkpt lat="43.68876002609298" lon="11.15633012215702"><ele>127.0</ele><time>2026-04-18T11:47:02Z</time></trkpt><trkpt lat="43.688815287908064" lon="11.156435137260985"><ele>126.6</ele><time>2026-04-18T11:47:04Z</time></trkpt><trkpt lat="43.68887106436907" lon="11.156538014392948"><ele>126.19999999999999</ele><time>2026-04-18T11:47:06Z</time></trkpt><trkpt lat="43.68891474599231" lon="11.156649609547214"><ele>125.8</ele><time>2026-04-18T11:47:08Z</time></trkpt><trkpt lat="43.688953205177846" lon="11.156764823716436"><ele>125.4</ele><time>2026-04-18T11:47:10Z</time></trkpt><trkpt lat="43.688972045261046" lon="11.156892246558643"><ele>125.0</ele><time>2026-04-18T11:47:12Z</time></trkpt><trkpt lat="43.68897610408535" lon="11.15702132262419"><ele>124.99999999999999</ele><time>2026-04-18T11:47:14Z</time></trkpt><trkpt lat="43.68896560987884" lon="11.157145171082078"><ele>125.0</ele><time>2026-04-18T11:47:16Z</time></trkpt><trkpt lat="43.68894984400466" lon="11.157254940720394"><ele>125.0</ele><time>2026-04-18T11:47:18Z</time></trkpt><trkpt lat="43.68893794258689" lon="11.157383237109121"><ele>125.0</ele><time>2026-04-18T11:47:20Z</time></trkpt><trkpt lat="43.68894086407793" lon="11.157501039451214"><ele>124.99999999999999</ele><time>2026-04-18T11:47:22Z</time></trkpt><trkpt lat="43.688947742034564" lon="11.157619853560275"><ele>125.0</ele><time>2026-04-18T11:47:24Z</time></trkpt><trkpt lat="43.688972610570566" lon="11.157731323275517"><ele>125.16666666666666</ele><time>2026-04-18T11:47:26Z</time></trkpt><trkpt lat="43.689007335666176" lon="11.157846388529775"><ele>125.33333333333333</ele><time>2026-04-18T11:47:28Z</time></trkpt><trkpt lat="43.68904608804378" lon="11.157951476155574"><ele>125.5</ele><time>2026-04-18T11:47:30Z</time></trkpt><trkpt lat="43.689099086554364" lon="11.158043253045209"><ele>125.66666666666666</ele><time>2026-04-18T11:47:32Z</time></trkpt><trkpt lat="43.68915697764585" lon="11.158133741508786"><ele>125.83333333333333</ele><time>2026-04-18T11:47:34Z</time></trkpt><trkpt lat="43.6892255763072" lon="11.158214721976032"><ele>126.0</ele><time>2026-04-18T11:47:36Z</time></trkpt><trkpt lat="43.689283956753954" lon="11.158301419924229"><ele>125.66666666666667</ele><time>2026-04-18T11:47:38Z</time></trkpt><trkpt lat="43.68935109636477" lon="11.158379610647406"><ele>125.33333333333334</ele><time>2026-04-18T11:47:40Z</time></trkpt><trkpt lat="43.68940598249204" lon="11.158475082176764"><ele>125.0</ele><time>2026-04-18T11:47:42Z</time></trkpt><trkpt lat="43.68944726167603" lon="11.158576446998662"><ele>124.66666666666667</ele><time>2026-04-18T11:47:44Z</time></trkpt><trkpt lat="43.68947207383362" lon="11.158694885498047"><ele>124.33333333333334</ele><time>2026-04-18T11:47:46Z</time></trkpt><trkpt lat="43.68948344509473" lon="11.158812952496767"><ele>124.0</ele><time>2026-04-18T11:47:48Z</time></trkpt><trkpt lat="43.689472898579865" lon="11.158935791743612"><ele>124.4</ele><time>2026-04-18T11:47:50Z</time></trkpt><trkpt lat="43.689464598265694" lon="11.159069711681564"><ele>124.80000000000001</ele><time>2026-04-18T11:47:52Z</time></trkpt><trkpt lat="43.6894630904102" lon="11.159199083415354"><ele>125.19999999999999</ele><time>2026-04-18T11:47:54Z</time></trkpt><trkpt lat="43.68946115725264" lon="11.159327920005335"><ele>125.6</ele><time>2026-04-18T11:47:56Z</time></trkpt><trkpt lat="43.689457472882346" lon="11.159458536243624"><ele>126.0</ele><time>2026-04-18T11:47:58Z</time></trkpt><trkpt lat="43.68945027177802" lon="11.159585799047472"><ele>126.0</ele><time>2026-04-18T11:48:00Z</time></trkpt><trkpt lat="43.68944823725511" lon="11.159717442361062"><ele>126.0</ele><time>2026-04-18T11:48:02Z</time></trkpt><trkpt lat="43.68945483944442" lon="11.15983990902748"><ele>126.0</ele><time>2026-04-18T11:48:04Z</time></trkpt><trkpt lat="43.689463183566346" lon="11.159962526869222"><ele>126.0</ele><time>2026-04-18T11:48:06Z</time></trkpt><trkpt lat="43.68947451770227" lon="11.160091402311833"><ele>126.0</ele><time>2026-04-18T11:48:08Z</time></trkpt><trkpt lat="43.68949754256856" lon="11.16021723676594"><ele>125.8</ele><time>2026-04-18T11:48:10Z</time></trkpt><trkpt lat="43.68951112402074" lon="11.160346717976871"><ele>125.6</ele><time>2026-04-18T11:48:12Z</time></trkpt><trkpt lat="43.68953980702699" lon="11.160472814886528"><ele>125.4</ele><time>2026-04-18T11:48:14Z</time></trkpt><trkpt lat="43.689541285032" lon="11.160602006231468"><ele>125.2</ele><time>2026-04-18T11:48:16Z</time></trkpt><trkpt lat="43.68956266874458" lon="11.160726510110631"><ele>125.0</ele><time>2026-04-18T11:48:18Z</time></trkpt><trkpt lat="43.68957606819659" lon="11.160854649667456"><ele>125.0</ele><time>2026-04-18T11:48:20Z</time></trkpt><trkpt lat="43.68959133012247" lon="11.160985767634617"><ele>125.0</ele><time>2026-04-18T11:48:22Z</time></trkpt><trkpt lat="43.689608771748155" lon="11.161110478956974"><ele>125.0</ele><time>2026-04-18T11:48:24Z</time></trkpt><trkpt lat="43.68962818066752" lon="11.161237415004292"><ele>125.0</ele><time>2026-04-18T11:48:26Z</time></trkpt><trkpt lat="43.68963958272479" lon="11.161365417134343"><ele>125.0</ele><time>2026-04-18T11:48:28Z</time></trkpt><trkpt lat="43.68965665033045" lon="11.161493652464145"><ele>125.2</ele><time>2026-04-18T11:48:30Z</time></trkpt><trkpt lat="43.68967742759239" lon="11.161618856738865"><ele>125.4</ele><time>2026-04-18T11:48:32Z</time></trkpt><trkpt lat="43.68970156033631" lon="11.161739991843023"><ele>125.6</ele><time>2026-04-18T11:48:34Z</time></trkpt><trkpt lat="43.68973502243186" lon="11.16185479948502"><ele>125.8</ele><time>2026-04-18T11:48:36Z</time></trkpt><trkpt lat="43.689767257298335" lon="11.161970288480774"><ele>126.0</ele><time>2026-04-18T11:48:38Z</time></trkpt><trkpt lat="43.68982536871276" lon="11.162082323649338"><ele>126.0</ele><time>2026-04-18T11:48:40Z</time></trkpt><trkpt lat="43.68987036989558" lon="11.162190996107892"><ele>126.0</ele><time>2026-04-18T11:48:42Z</time></trkpt><trkpt lat="43.68991898853649" lon="11.162300738079951"><ele>126.0</ele><time>2026-04-18T11:48:44Z</time></trkpt><trkpt lat="43.68997187934575" lon="11.16241308571784"><ele>126.0</ele><time>2026-04-18T11:48:46Z</time></trkpt><trkpt lat="43.69001844133838" lon="11.162523868852913"><ele>126.0</ele><time>2026-04-18T11:48:48Z</time></trkpt><trkpt lat="43.69007600393779" lon="11.16263266725994"><ele>126.4</ele><time>2026-04-18T11:48:50Z</time></trkpt><trkpt lat="43.69012698532896" lon="11.162745370502456"><ele>126.8</ele><time>2026-04-18T11:48:52Z</time></trkpt><trkpt lat="43.69018005228617" lon="11.162859972305702"><ele>127.20000000000002</ele><time>2026-04-18T11:48:54Z</time></trkpt><trkpt lat="43.690240086676695" lon="11.162967998164842"><ele>127.60000000000001</ele><time>2026-04-18T11:48:56Z</time></trkpt><trkpt lat="43.690299279697555" lon="11.163070958722063"><ele>128.0</ele><time>2026-04-18T11:48:58Z</time></trkpt><trkpt lat="43.69036122986651" lon="11.16318153659538"><ele>128.20000000000002</ele><time>2026-04-18T11:49:00Z</time></trkpt><trkpt lat="43.69042280842642" lon="11.163286514443708"><ele>128.4</ele><time>2026-04-18T11:49:02Z</time></trkpt><trkpt lat="43.69048235187498" lon="11.163392017451702"><ele>128.60000000000002</ele><time>2026-04-18T11:49:04Z</time></trkpt><trkpt lat="43.690551368174724" lon="11.163488152529942"><ele>128.8</ele><time>2026-04-18T11:49:06Z</time></trkpt><trkpt lat="43.69061281205155" lon="11.163591832244883"><ele>129.0</ele><time>2026-04-18T11:49:08Z</time></trkpt><trkpt lat="43.690673958002826" lon="11.16368936271494"><ele>129.0</ele><time>2026-04-18T11:49:10Z</time></trkpt><trkpt lat="43.690730659198785" lon="11.163793048480628"><ele>129.0</ele><time>2026-04-18T11:49:12Z</time></trkpt><trkpt lat="43.690791487850205" lon="11.1638917609885"><ele>129.0</ele><time>2026-04-18T11:49:14Z</time></trkpt><trkpt lat="43.69085407884092" lon="11.163984879082363"><ele>129.0</ele><time>2026-04-18T11:49:16Z</time></trkpt><trkpt lat="43.690903175437825" lon="11.164079568774921"><ele>129.0</ele><time>2026-04-18T11:49:18Z</time></trkpt><trkpt lat="43.69096942720686" lon="11.164176143535208"><ele>129.5</ele><time>2026-04-18T11:49:20Z</time></trkpt><trkpt lat="43.69103037262418" lon="11.16427443884646"><ele>130.0</ele><time>2026-04-18T11:49:22Z</time></trkpt><trkpt lat="43.691083951707334" lon="11.164370265890756"><ele>130.5</ele><time>2026-04-18T11:49:24Z</time></trkpt><trkpt lat="43.6911421257653" lon="11.164462446898492"><ele>131.0</ele><time>2026-04-18T11:49:26Z</time></trkpt><trkpt lat="43.691195352132844" lon="11.164555216364745"><ele>131.5</ele><time>2026-04-18T11:49:28Z</time></trkpt><trkpt lat="43.69125278340817" lon="11.164648971924414"><ele>132.0</ele><time>2026-04-18T11:49:30Z</time></trkpt><trkpt lat="43.69130872347514" lon="11.164748784078105"><ele>132.4</ele><time>2026-04-18T11:49:32Z</time></trkpt><trkpt lat="43.691363167861404" lon="11.16484114067992"><ele>132.79999999999998</ele><time>2026-04-18T11:49:34Z</time></trkpt><trkpt lat="43.69142995631293" lon="11.164932990201013"><ele>133.2</ele><time>2026-04-18T11:49:36Z</time></trkpt><trkpt lat="43.691482371145845" lon="11.165037234014022"><ele>133.6</ele><time>2026-04-18T11:49:38Z</time></trkpt><trkpt lat="43.69153658384644" lon="11.165128391524675"><ele>134.0</ele><time>2026-04-18T11:49:40Z</time></trkpt><trkpt lat="43.69159917616339" lon="11.165223739573806"><ele>134.16666666666666</ele><time>2026-04-18T11:49:42Z</time></trkpt><trkpt lat="43.691652085264735" lon="11.165323056268864"><ele>134.33333333333331</ele><time>2026-04-18T11:49:44Z</time></trkpt><trkpt lat="43.69170969122124" lon="11.165409591909086"><ele>134.5</ele><time>2026-04-18T11:49:46Z</time></trkpt><trkpt lat="43.69175374164834" lon="11.165504923174801"><ele>134.66666666666666</ele><time>2026-04-18T11:49:48Z</time></trkpt><trkpt lat="43.691790965134935" lon="11.16559522019361"><ele>134.83333333333334</ele><time>2026-04-18T11:49:50Z</time></trkpt><trkpt lat="43.691817547586304" lon="11.165685542844875"><ele>135.0</ele><time>2026-04-18T11:49:52Z</time></trkpt><trkpt lat="43.69184989915315" lon="11.165780155382707"><ele>135.14285714285714</ele><time>2026-04-18T11:49:54Z</time></trkpt><trkpt lat="43.69187125255236" lon="11.16587130466504"><ele>135.28571428571428</ele><time>2026-04-18T11:49:56Z</time></trkpt><trkpt lat="43.691901050825884" lon="11.165958690032934"><ele>135.42857142857142</ele><time>2026-04-18T11:49:58Z</time></trkpt><trkpt lat="43.691925369189505" lon="11.166041822320242"><ele>135.57142857142856</ele><time>2026-04-18T11:50:00Z</time></trkpt><trkpt lat="43.691966737506384" lon="11.166159657756502"><ele>135.71428571428572</ele><time>2026-04-18T11:50:03Z</time></trkpt><trkpt lat="43.69200178315511" lon="11.166239254674498"><ele>135.85714285714283</ele><time>2026-04-18T11:50:05Z</time></trkpt><trkpt lat="43.692053169850965" lon="11.166326820251435"><ele>136.0</ele><time>2026-04-18T11:50:07Z</time></trkpt><trkpt lat="43.692094752906364" lon="11.16644524350609"><ele>137.16666666666669</ele><time>2026-04-18T11:50:10Z</time></trkpt><trkpt lat="43.69212501518239" lon="11.166527377694774"><ele>138.33333333333334</ele><time>2026-04-18T11:50:12Z</time></trkpt><trkpt lat="43.69216496461224" lon="11.166642632904086"><ele>139.5</ele><time>2026-04-18T11:50:15Z</time></trkpt><trkpt lat="43.69222720619681" lon="11.166743238519132"><ele>140.66666666666666</ele><time>2026-04-18T11:50:18Z</time></trkpt><trkpt lat="43.69226743158818" lon="11.166815723267945"><ele>141.83333333333331</ele><time>2026-04-18T11:50:20Z</time></trkpt><trkpt lat="43.692312880041214" lon="11.166884956149408"><ele>143.0</ele><time>2026-04-18T11:50:22Z</time></trkpt><trkpt lat="43.69236274115299" lon="11.166950554921703"><ele>142.99999999999997</ele><time>2026-04-18T11:50:24Z</time></trkpt><trkpt lat="43.69241934253006" lon="11.167005064647933"><ele>143.0</ele><time>2026-04-18T11:50:26Z</time></trkpt><trkpt lat="43.69247391220006" lon="11.167059628869195"><ele>143.0</ele><time>2026-04-18T11:50:28Z</time></trkpt><trkpt lat="43.69253341001143" lon="11.167114441140495"><ele>143.0</ele><time>2026-04-18T11:50:30Z</time></trkpt><trkpt lat="43.692588130254165" lon="11.167169576182445"><ele>143.0</ele><time>2026-04-18T11:50:32Z</time></trkpt><trkpt lat="43.69264464041101" lon="11.167216676820013"><ele>142.99999999999997</ele><time>2026-04-18T11:50:34Z</time></trkpt><trkpt lat="43.69270333118074" lon="11.167256953391789"><ele>143.0</ele><time>2026-04-18T11:50:36Z</time></trkpt><trkpt lat="43.69275987158502" lon="11.16730724694833"><ele>143.99999999999997</ele><time>2026-04-18T11:50:38Z</time></trkpt><trkpt lat="43.69282282702616" lon="11.16735066627172"><ele>145.0</ele><time>2026-04-18T11:50:40Z</time></trkpt><trkpt lat="43.692881844489136" lon="11.167395731747263"><ele>146.0</ele><time>2026-04-18T11:50:42Z</time></trkpt><trkpt lat="43.69294528653406" lon="11.167438826190219"><ele>147.0</ele><time>2026-04-18T11:50:44Z</time></trkpt><trkpt lat="43.693005094100464" lon="11.16748128430621"><ele>148.0</ele><time>2026-04-18T11:50:46Z</time></trkpt><trkpt lat="43.69306284876385" lon="11.167526309358484"><ele>148.99999999999997</ele><time>2026-04-18T11:50:48Z</time></trkpt><trkpt lat="43.69312442596377" lon="11.167572146512901"><ele>150.0</ele><time>2026-04-18T11:50:50Z</time></trkpt><trkpt lat="43.69318418327704" lon="11.16761880941918"><ele>149.99999999999997</ele><time>2026-04-18T11:50:52Z</time></trkpt><trkpt lat="43.693241928468694" lon="11.16765820552778"><ele>150.0</ele><time>2026-04-18T11:50:54Z</time></trkpt><trkpt lat="43.693300669669135" lon="11.167708938707705"><ele>150.0</ele><time>2026-04-18T11:50:56Z</time></trkpt><trkpt lat="43.69338599295041" lon="11.167763940872861"><ele>150.0</ele><time>2026-04-18T11:50:59Z</time></trkpt><trkpt lat="43.69344740055177" lon="11.167795543668431"><ele>150.0</ele><time>2026-04-18T11:51:01Z</time></trkpt><trkpt lat="43.69351256082752" lon="11.167824317492522"><ele>149.99999999999997</ele><time>2026-04-18T11:51:03Z</time></trkpt><trkpt lat="43.69357595246576" lon="11.167842622538943"><ele>150.0</ele><time>2026-04-18T11:51:05Z</time></trkpt><trkpt lat="43.6936494173533" lon="11.167842560194073"><ele>150.85714285714283</ele><time>2026-04-18T11:51:07Z</time></trkpt><trkpt lat="43.69374403476209" lon="11.16782641114676"><ele>151.71428571428572</ele><time>2026-04-18T11:51:10Z</time></trkpt><trkpt lat="43.69381217614543" lon="11.167805355920859"><ele>152.57142857142856</ele><time>2026-04-18T11:51:12Z</time></trkpt><trkpt lat="43.693875417503186" lon="11.167777236203783"><ele>153.42857142857142</ele><time>2026-04-18T11:51:14Z</time></trkpt><trkpt lat="43.693943333216644" lon="11.167758387258685"><ele>154.28571428571428</ele><time>2026-04-18T11:51:16Z</time></trkpt><trkpt lat="43.694002520141254" lon="11.167725509574455"><ele>155.14285714285714</ele><time>2026-04-18T11:51:18Z</time></trkpt><trkpt lat="43.69406763484633" lon="11.167706655471747"><ele>156.0</ele><time>2026-04-18T11:51:20Z</time></trkpt><trkpt lat="43.69413417837336" lon="11.167678034266624"><ele>156.0</ele><time>2026-04-18T11:51:22Z</time></trkpt><trkpt lat="43.69420069863482" lon="11.167671614980815"><ele>156.0</ele><time>2026-04-18T11:51:24Z</time></trkpt><trkpt lat="43.6942689634514" lon="11.16769452789474"><ele>156.0</ele><time>2026-04-18T11:51:26Z</time></trkpt><trkpt lat="43.69431824874032" lon="11.167750000695637"><ele>156.0</ele><time>2026-04-18T11:51:28Z</time></trkpt><trkpt lat="43.69437645036478" lon="11.167837868789158"><ele>156.0</ele><time>2026-04-18T11:51:31Z</time></trkpt><trkpt lat="43.69440412895814" lon="11.167946480314537"><ele>156.0</ele><time>2026-04-18T11:51:34Z</time></trkpt><trkpt lat="43.694407582134446" lon="11.168057609603402"><ele>156.0</ele><time>2026-04-18T11:51:37Z</time></trkpt><trkpt lat="43.6944021794771" lon="11.168164866177653"><ele>156.0</ele><time>2026-04-18T11:51:40Z</time></trkpt><trkpt lat="43.69437564538037" lon="11.16827470649637"><ele>156.0</ele><time>2026-04-18T11:51:43Z</time></trkpt><trkpt lat="43.69435630953166" lon="11.16837520461574"><ele>156.0</ele><time>2026-04-18T11:51:46Z</time></trkpt><trkpt lat="43.69433527644259" lon="11.16849026077835"><ele>156.0</ele><time>2026-04-18T11:51:49Z</time></trkpt><trkpt lat="43.69430970035363" lon="11.168600611473133"><ele>156.0</ele><time>2026-04-18T11:51:52Z</time></trkpt><trkpt lat="43.69429120344947" lon="11.168714610015027"><ele>156.14285714285714</ele><time>2026-04-18T11:51:55Z</time></trkpt><trkpt lat="43.69426981862071" lon="11.168821916706683"><ele>156.28571428571428</ele><time>2026-04-18T11:51:58Z</time></trkpt><trkpt lat="43.694259658953385" lon="11.168926880854125"><ele>156.42857142857142</ele><time>2026-04-18T11:52:01Z</time></trkpt><trkpt lat="43.694263265184254" lon="11.169021290893928"><ele>156.57142857142856</ele><time>2026-04-18T11:52:03Z</time></trkpt><trkpt lat="43.694248385716676" lon="11.16910701060244"><ele>156.71428571428572</ele><time>2026-04-18T11:52:06Z</time></trkpt><trkpt lat="43.69424694684275" lon="11.169209815633515"><ele>156.85714285714283</ele><time>2026-04-18T11:52:09Z</time></trkpt><trkpt lat="43.69423986760626" lon="11.169326838263832"><ele>157.0</ele><time>2026-04-18T11:52:12Z</time></trkpt><trkpt lat="43.694254469515464" lon="11.16943524487255"><ele>157.0</ele><time>2026-04-18T11:52:15Z</time></trkpt><trkpt lat="43.69428119663832" lon="11.169536869727802"><ele>157.0</ele><time>2026-04-18T11:52:18Z</time></trkpt><trkpt lat="43.69432007739486" lon="11.169648294771083"><ele>157.0</ele><time>2026-04-18T11:52:21Z</time></trkpt><trkpt lat="43.69436746400788" lon="11.169753969923619"><ele>157.0</ele><time>2026-04-18T11:52:24Z</time></trkpt><trkpt lat="43.69440658988755" lon="11.169828467814773"><ele>157.0</ele><time>2026-04-18T11:52:26Z</time></trkpt><trkpt lat="43.69445420268125" lon="11.169933298869857"><ele>157.0</ele><time>2026-04-18T11:52:29Z</time></trkpt><trkpt lat="43.694497939798005" lon="11.170042354956065"><ele>159.7142857142857</ele><time>2026-04-18T11:52:32Z</time></trkpt><trkpt lat="43.69454280879668" lon="11.170151770747623"><ele>162.42857142857142</ele><time>2026-04-18T11:52:35Z</time></trkpt><trkpt lat="43.69459650367619" lon="11.170257302465956"><ele>165.14285714285714</ele><time>2026-04-18T11:52:38Z</time></trkpt><trkpt lat="43.694632454816464" lon="11.170328945368823"><ele>167.85714285714283</ele><time>2026-04-18T11:52:40Z</time></trkpt><trkpt lat="43.69467050621501" lon="11.170405821047867"><ele>170.57142857142856</ele><time>2026-04-18T11:52:42Z</time></trkpt><trkpt lat="43.69470753065048" lon="11.170476823842309"><ele>173.28571428571428</ele><time>2026-04-18T11:52:44Z</time></trkpt><trkpt lat="43.694732768479724" lon="11.170558217568752"><ele>176.0</ele><time>2026-04-18T11:52:46Z</time></trkpt><trkpt lat="43.694740344408146" lon="11.170646436844534"><ele>175.85714285714286</ele><time>2026-04-18T11:52:48Z</time></trkpt><trkpt lat="43.69471501226254" lon="11.170737860201127"><ele>175.71428571428572</ele><time>2026-04-18T11:52:50Z</time></trkpt><trkpt lat="43.69470888916138" lon="11.170824566799597"><ele>175.57142857142856</ele><time>2026-04-18T11:52:52Z</time></trkpt><trkpt lat="43.694696478586245" lon="11.170912679176569"><ele>175.42857142857144</ele><time>2026-04-18T11:52:54Z</time></trkpt><trkpt lat="43.694701791546535" lon="11.171010271104862"><ele>175.28571428571428</ele><time>2026-04-18T11:52:56Z</time></trkpt><trkpt lat="43.694736332930724" lon="11.171095056139112"><ele>175.14285714285714</ele><time>2026-04-18T11:52:58Z</time></trkpt><trkpt lat="43.69478014551678" lon="11.171174122397844"><ele>175.0</ele><time>2026-04-18T11:53:00Z</time></trkpt><trkpt lat="43.69482896179461" lon="11.171287287827973"><ele>175.0</ele><time>2026-04-18T11:53:03Z</time></trkpt><trkpt lat="43.69486788031233" lon="11.171357295084993"><ele>175.0</ele><time>2026-04-18T11:53:05Z</time></trkpt><trkpt lat="43.69492059060618" lon="11.171455276593116"><ele>175.0</ele><time>2026-04-18T11:53:08Z</time></trkpt><trkpt lat="43.69496642528626" lon="11.17152074064431"><ele>175.0</ele><time>2026-04-18T11:53:10Z</time></trkpt><trkpt lat="43.69503044124587" lon="11.171597605751177"><ele>175.0</ele><time>2026-04-18T11:53:13Z</time></trkpt><trkpt lat="43.69508031743557" lon="11.17165997219467"><ele>175.0</ele><time>2026-04-18T11:53:15Z</time></trkpt><trkpt lat="43.69515399393272" lon="11.171737288924172"><ele>176.0</ele><time>2026-04-18T11:53:18Z</time></trkpt><trkpt lat="43.69521355022031" lon="11.17177858330919"><ele>177.0</ele><time>2026-04-18T11:53:20Z</time></trkpt><trkpt lat="43.69526759281235" lon="11.171824808179366"><ele>178.0</ele><time>2026-04-18T11:53:22Z</time></trkpt><trkpt lat="43.69535088208535" lon="11.171875615667169"><ele>179.0</ele><time>2026-04-18T11:53:25Z</time></trkpt><trkpt lat="43.695420049511235" lon="11.171947950875907"><ele>180.0</ele><time>2026-04-18T11:53:28Z</time></trkpt><trkpt lat="43.69548928614015" lon="11.172000400136746"><ele>181.0</ele><time>2026-04-18T11:53:31Z</time></trkpt><trkpt lat="43.69556747848998" lon="11.172049342581637"><ele>181.33333333333334</ele><time>2026-04-18T11:53:34Z</time></trkpt><trkpt lat="43.69562006822342" lon="11.17211863844604"><ele>181.66666666666669</ele><time>2026-04-18T11:53:36Z</time></trkpt><trkpt lat="43.695698754040194" lon="11.172134955964063"><ele>182.0</ele><time>2026-04-18T11:53:38Z</time></trkpt><trkpt lat="43.695794731994496" lon="11.172178887077216"><ele>182.33333333333334</ele><time>2026-04-18T11:53:41Z</time></trkpt><trkpt lat="43.69585394850521" lon="11.172233060788207"><ele>182.66666666666666</ele><time>2026-04-18T11:53:43Z</time></trkpt><trkpt lat="43.69592132952731" lon="11.172299288016942"><ele>183.0</ele><time>2026-04-18T11:53:45Z</time></trkpt><trkpt lat="43.695989428694155" lon="11.172342763979806"><ele>182.83333333333334</ele><time>2026-04-18T11:53:47Z</time></trkpt><trkpt lat="43.69605335179725" lon="11.172411486045725"><ele>182.66666666666666</ele><time>2026-04-18T11:53:49Z</time></trkpt><trkpt lat="43.69612668428026" lon="11.172472825437715"><ele>182.5</ele><time>2026-04-18T11:53:51Z</time></trkpt><trkpt lat="43.69619914864581" lon="11.172539214991561"><ele>182.33333333333331</ele><time>2026-04-18T11:53:53Z</time></trkpt><trkpt lat="43.69624731521683" lon="11.172629640454778"><ele>182.16666666666666</ele><time>2026-04-18T11:53:55Z</time></trkpt><trkpt lat="43.69630429190713" lon="11.172712384519878"><ele>182.0</ele><time>2026-04-18T11:53:57Z</time></trkpt><trkpt lat="43.69636355479933" lon="11.17280690118974"><ele>182.0</ele><time>2026-04-18T11:53:59Z</time></trkpt><trkpt lat="43.696426724474314" lon="11.172903822412804"><ele>182.0</ele><time>2026-04-18T11:54:01Z</time></trkpt><trkpt lat="43.69648345081056" lon="11.173014545233464"><ele>182.0</ele><time>2026-04-18T11:54:03Z</time></trkpt><trkpt lat="43.696547656338495" lon="11.173106733643024"><ele>182.0</ele><time>2026-04-18T11:54:05Z</time></trkpt><trkpt lat="43.69658549279272" lon="11.173212372127391"><ele>182.0</ele><time>2026-04-18T11:54:07Z</time></trkpt><trkpt lat="43.69665750414171" lon="11.173310239937377"><ele>182.0</ele><time>2026-04-18T11:54:09Z</time></trkpt><trkpt lat="43.696713874710696" lon="11.17341192081905"><ele>182.0</ele><time>2026-04-18T11:54:11Z</time></trkpt><trkpt lat="43.69675626746074" lon="11.173520616127057"><ele>182.0</ele><time>2026-04-18T11:54:13Z</time></trkpt><trkpt lat="43.69681721106706" lon="11.173626502155297"><ele>182.0</ele><time>2026-04-18T11:54:15Z</time></trkpt><trkpt lat="43.69687499560593" lon="11.173731372182989"><ele>182.0</ele><time>2026-04-18T11:54:17Z</time></trkpt><trkpt lat="43.69693147323574" lon="11.173833684251179"><ele>180.6</ele><time>2026-04-18T11:54:19Z</time></trkpt><trkpt lat="43.696984597907765" lon="11.173944210611737"><ele>179.2</ele><time>2026-04-18T11:54:21Z</time></trkpt><trkpt lat="43.69704999931024" lon="11.174045133565835"><ele>177.8</ele><time>2026-04-18T11:54:23Z</time></trkpt><trkpt lat="43.69711764579617" lon="11.174141739344897"><ele>176.4</ele><time>2026-04-18T11:54:25Z</time></trkpt><trkpt lat="43.6971877594847" lon="11.1742333446365"><ele>175.0</ele><time>2026-04-18T11:54:27Z</time></trkpt><trkpt lat="43.6972532976515" lon="11.174324288139603"><ele>174.8</ele><time>2026-04-18T11:54:29Z</time></trkpt><trkpt lat="43.697315282028605" lon="11.174421267936317"><ele>174.6</ele><time>2026-04-18T11:54:31Z</time></trkpt><trkpt lat="43.697376596311855" lon="11.174523418075886"><ele>174.39999999999998</ele><time>2026-04-18T11:54:33Z</time></trkpt><trkpt lat="43.69743420537247" lon="11.174636880049013"><ele>174.2</ele><time>2026-04-18T11:54:35Z</time></trkpt><trkpt lat="43.697489916749255" lon="11.17475633153162"><ele>174.0</ele><time>2026-04-18T11:54:37Z</time></trkpt><trkpt lat="43.69753633014588" lon="11.174873719306916"><ele>175.0</ele><time>2026-04-18T11:54:39Z</time></trkpt><trkpt lat="43.69758325350756" lon="11.174995741674591"><ele>176.0</ele><time>2026-04-18T11:54:41Z</time></trkpt><trkpt lat="43.69762115345111" lon="11.175115395976121"><ele>177.0</ele><time>2026-04-18T11:54:43Z</time></trkpt><trkpt lat="43.6976658212403" lon="11.17523121130055"><ele>178.0</ele><time>2026-04-18T11:54:45Z</time></trkpt><trkpt lat="43.69770275866337" lon="11.175350233595452"><ele>179.0</ele><time>2026-04-18T11:54:47Z</time></trkpt><trkpt lat="43.69774490123912" lon="11.175468723029983"><ele>179.0</ele><time>2026-04-18T11:54:49Z</time></trkpt><trkpt lat="43.69778814272027" lon="11.17558353172291"><ele>179.0</ele><time>2026-04-18T11:54:51Z</time></trkpt><trkpt lat="43.6978528686795" lon="11.175686637720105"><ele>179.0</ele><time>2026-04-18T11:54:53Z</time></trkpt><trkpt lat="43.69791124333479" lon="11.175795888238957"><ele>179.0</ele><time>2026-04-18T11:54:55Z</time></trkpt><trkpt lat="43.69796704833957" lon="11.17590183133195"><ele>179.0</ele><time>2026-04-18T11:54:57Z</time></trkpt><trkpt lat="43.698025478762695" lon="11.175993071946753"><ele>178.79999999999998</ele><time>2026-04-18T11:54:59Z</time></trkpt><trkpt lat="43.69807909893853" lon="11.176102278485669"><ele>178.6</ele><time>2026-04-18T11:55:01Z</time></trkpt><trkpt lat="43.6981285835825" lon="11.17621058851888"><ele>178.4</ele><time>2026-04-18T11:55:03Z</time></trkpt><trkpt lat="43.698172774650665" lon="11.176321224942114"><ele>178.2</ele><time>2026-04-18T11:55:05Z</time></trkpt><trkpt lat="43.6982114381919" lon="11.176433344730444"><ele>178.0</ele><time>2026-04-18T11:55:07Z</time></trkpt><trkpt lat="43.69824065288642" lon="11.17654578271897"><ele>178.83333333333334</ele><time>2026-04-18T11:55:09Z</time></trkpt><trkpt lat="43.69826672839308" lon="11.176665023170388"><ele>179.66666666666669</ele><time>2026-04-18T11:55:11Z</time></trkpt><trkpt lat="43.69828416040523" lon="11.176778824484835"><ele>180.5</ele><time>2026-04-18T11:55:13Z</time></trkpt><trkpt lat="43.69832178945563" lon="11.176884468134162"><ele>181.33333333333334</ele><time>2026-04-18T11:55:15Z</time></trkpt><trkpt lat="43.69835913856888" lon="11.176997307738656"><ele>182.16666666666666</ele><time>2026-04-18T11:55:17Z</time></trkpt><trkpt lat="43.69837022176727" lon="11.177102591461816"><ele>183.0</ele><time>2026-04-18T11:55:19Z</time></trkpt><trkpt lat="43.698420130914286" lon="11.177210884926469"><ele>183.0</ele><time>2026-04-18T11:55:21Z</time></trkpt><trkpt lat="43.69847824884319" lon="11.177296062274657"><ele>183.0</ele><time>2026-04-18T11:55:23Z</time></trkpt><trkpt lat="43.69852976345001" lon="11.177372757356684"><ele>183.0</ele><time>2026-04-18T11:55:25Z</time></trkpt><trkpt lat="43.69859583434445" lon="11.177439979039102"><ele>183.0</ele><time>2026-04-18T11:55:27Z</time></trkpt><trkpt lat="43.698672348376014" lon="11.177497693479609"><ele>183.0</ele><time>2026-04-18T11:55:29Z</time></trkpt><trkpt lat="43.69873348509335" lon="11.177548562201778"><ele>183.0</ele><time>2026-04-18T11:55:31Z</time></trkpt><trkpt lat="43.69880479484618" lon="11.177606504800632"><ele>182.66666666666666</ele><time>2026-04-18T11:55:33Z</time></trkpt><trkpt lat="43.69887543928991" lon="11.177645014326647"><ele>182.33333333333334</ele><time>2026-04-18T11:55:35Z</time></trkpt><trkpt lat="43.69894377746828" lon="11.17770243718963"><ele>182.0</ele><time>2026-04-18T11:55:37Z</time></trkpt><trkpt lat="43.69900735349811" lon="11.177756065898956"><ele>181.66666666666669</ele><time>2026-04-18T11:55:39Z</time></trkpt><trkpt lat="43.699075525981165" lon="11.177802043839655"><ele>181.33333333333334</ele><time>2026-04-18T11:55:41Z</time></trkpt><trkpt lat="43.69913393528854" lon="11.177870853788464"><ele>181.0</ele><time>2026-04-18T11:55:43Z</time></trkpt><trkpt lat="43.69919802578785" lon="11.177931939940988"><ele>181.0</ele><time>2026-04-18T11:55:45Z</time></trkpt><trkpt lat="43.69925295929618" lon="11.178003531887361"><ele>181.0</ele><time>2026-04-18T11:55:47Z</time></trkpt><trkpt lat="43.6993108837319" lon="11.178070830354876"><ele>181.0</ele><time>2026-04-18T11:55:49Z</time></trkpt><trkpt lat="43.69935824823191" lon="11.178160067051321"><ele>181.0</ele><time>2026-04-18T11:55:51Z</time></trkpt><trkpt lat="43.699440907203524" lon="11.178230855823454"><ele>181.0</ele><time>2026-04-18T11:55:53Z</time></trkpt><trkpt lat="43.69945246483125" lon="11.178321717888558"><ele>181.0</ele><time>2026-04-18T11:55:55Z</time></trkpt><trkpt lat="43.69948829915577" lon="11.178406873989138"><ele>181.71428571428572</ele><time>2026-04-18T11:55:57Z</time></trkpt><trkpt lat="43.69952996300686" lon="11.178488605219249"><ele>182.42857142857142</ele><time>2026-04-18T11:55:59Z</time></trkpt><trkpt lat="43.699574454056815" lon="11.178573583821374"><ele>183.14285714285717</ele><time>2026-04-18T11:56:01Z</time></trkpt><trkpt lat="43.69962098237167" lon="11.17865393888905"><ele>183.85714285714286</ele><time>2026-04-18T11:56:03Z</time></trkpt><trkpt lat="43.69965527002694" lon="11.178738083578866"><ele>184.57142857142858</ele><time>2026-04-18T11:56:05Z</time></trkpt><trkpt lat="43.69970243292244" lon="11.178816250968922"><ele>185.2857142857143</ele><time>2026-04-18T11:56:07Z</time></trkpt><trkpt lat="43.69974243277896" lon="11.178896296998259"><ele>186.0</ele><time>2026-04-18T11:56:09Z</time></trkpt><trkpt lat="43.69978216394551" lon="11.178974741682232"><ele>187.0</ele><time>2026-04-18T11:56:11Z</time></trkpt><trkpt lat="43.6998377510497" lon="11.179044561583082"><ele>188.0</ele><time>2026-04-18T11:56:13Z</time></trkpt><trkpt lat="43.69988081264022" lon="11.179125187404692"><ele>189.0</ele><time>2026-04-18T11:56:15Z</time></trkpt><trkpt lat="43.699934158155735" lon="11.179186865321775"><ele>190.0</ele><time>2026-04-18T11:56:17Z</time></trkpt><trkpt lat="43.6999990017952" lon="11.179235869584087"><ele>191.0</ele><time>2026-04-18T11:56:19Z</time></trkpt><trkpt lat="43.70007372942895" lon="11.179263388007318"><ele>192.0</ele><time>2026-04-18T11:56:21Z</time></trkpt><trkpt lat="43.700156658233325" lon="11.179256930906437"><ele>192.0</ele><time>2026-04-18T11:56:23Z</time></trkpt><trkpt lat="43.700241137744655" lon="11.179244061643322"><ele>192.0</ele><time>2026-04-18T11:56:25Z</time></trkpt><trkpt lat="43.70032004514036" lon="11.179234060516581"><ele>192.0</ele><time>2026-04-18T11:56:27Z</time></trkpt><trkpt lat="43.7003927475412" lon="11.17922281995024"><ele>192.0</ele><time>2026-04-18T11:56:29Z</time></trkpt><trkpt lat="43.700456735692505" lon="11.179217779769356"><ele>192.0</ele><time>2026-04-18T11:56:31Z</time></trkpt><trkpt lat="43.70053487116501" lon="11.179177065258976"><ele>192.0</ele><time>2026-04-18T11:56:33Z</time></trkpt><trkpt lat="43.70060677188153" lon="11.17916154686515"><ele>191.99999999999997</ele><time>2026-04-18T11:56:35Z</time></trkpt><trkpt lat="43.70067238584384" lon="11.179162947796556"><ele>192.0</ele><time>2026-04-18T11:56:37Z</time></trkpt><trkpt lat="43.70073697578942" lon="11.179145372260615"><ele>192.0</ele><time>2026-04-18T11:56:39Z</time></trkpt><trkpt lat="43.70082616524904" lon="11.179120487674078"><ele>192.0</ele><time>2026-04-18T11:56:42Z</time></trkpt><trkpt lat="43.7009129089057" lon="11.17912790531905"><ele>192.0</ele><time>2026-04-18T11:56:45Z</time></trkpt><trkpt lat="43.70097186096586" lon="11.179083154034434"><ele>191.99999999999997</ele><time>2026-04-18T11:56:47Z</time></trkpt><trkpt lat="43.70103758194632" lon="11.179077005366684"><ele>192.0</ele><time>2026-04-18T11:56:49Z</time></trkpt><trkpt lat="43.70112994391657" lon="11.179038691331993"><ele>193.0</ele><time>2026-04-18T11:56:52Z</time></trkpt><trkpt lat="43.70120004557892" lon="11.179019225314828"><ele>194.0</ele><time>2026-04-18T11:56:55Z</time></trkpt><trkpt lat="43.70126340140578" lon="11.178985809762473"><ele>195.0</ele><time>2026-04-18T11:56:57Z</time></trkpt><trkpt lat="43.701334866604206" lon="11.178940413100921"><ele>196.0</ele><time>2026-04-18T11:57:00Z</time></trkpt><trkpt lat="43.70140158486007" lon="11.178912943411905"><ele>197.0</ele><time>2026-04-18T11:57:02Z</time></trkpt><trkpt lat="43.701473912829115" lon="11.17886990053507"><ele>198.0</ele><time>2026-04-18T11:57:05Z</time></trkpt><trkpt lat="43.70155637922938" lon="11.17882737906623"><ele>198.0</ele><time>2026-04-18T11:57:08Z</time></trkpt><trkpt lat="43.70163247598025" lon="11.178807595463468"><ele>198.0</ele><time>2026-04-18T11:57:10Z</time></trkpt><trkpt lat="43.70170876954484" lon="11.178779119801264"><ele>198.0</ele><time>2026-04-18T11:57:13Z</time></trkpt><trkpt lat="43.701777433430294" lon="11.178797356997684"><ele>198.0</ele><time>2026-04-18T11:57:15Z</time></trkpt><trkpt lat="43.70184275778987" lon="11.178828408836061"><ele>198.0</ele><time>2026-04-18T11:57:17Z</time></trkpt><trkpt lat="43.70189641171311" lon="11.178931788026478"><ele>198.0</ele><time>2026-04-18T11:57:20Z</time></trkpt><trkpt lat="43.70191375567009" lon="11.179019419180786"><ele>198.0</ele><time>2026-04-18T11:57:22Z</time></trkpt><trkpt lat="43.70190997367507" lon="11.179107636323737"><ele>198.0</ele><time>2026-04-18T11:57:24Z</time></trkpt><trkpt lat="43.701900928819285" lon="11.179194314453998"><ele>198.0</ele><time>2026-04-18T11:57:26Z</time></trkpt><trkpt lat="43.701885222814454" lon="11.17932016159439"><ele>198.0</ele><time>2026-04-18T11:57:29Z</time></trkpt><trkpt lat="43.70189170677487" lon="11.179451514568214"><ele>198.0</ele><time>2026-04-18T11:57:32Z</time></trkpt><trkpt lat="43.70190610190655" lon="11.17957574901928"><ele>198.0</ele><time>2026-04-18T11:57:35Z</time></trkpt><trkpt lat="43.701951604672225" lon="11.179692009952527"><ele>200.33333333333334</ele><time>2026-04-18T11:57:38Z</time></trkpt><trkpt lat="43.70199683704096" lon="11.179753251294708"><ele>202.66666666666669</ele><time>2026-04-18T11:57:40Z</time></trkpt><trkpt lat="43.70206970517387" lon="11.179832856413228"><ele>205.0</ele><time>2026-04-18T11:57:43Z</time></trkpt><trkpt lat="43.70212836439036" lon="11.179870988927238"><ele>207.33333333333334</ele><time>2026-04-18T11:57:45Z</time></trkpt><trkpt lat="43.702185222176325" lon="11.179915359014755"><ele>209.66666666666669</ele><time>2026-04-18T11:57:47Z</time></trkpt><trkpt lat="43.70226792752842" lon="11.179985970522997"><ele>212.0</ele><time>2026-04-18T11:57:50Z</time></trkpt><trkpt lat="43.70235008275069" lon="11.18004331894933"><ele>212.00000000000003</ele><time>2026-04-18T11:57:53Z</time></trkpt><trkpt lat="43.7024280178008" lon="11.180103677578193"><ele>212.0</ele><time>2026-04-18T11:57:56Z</time></trkpt><trkpt lat="43.702520236997515" lon="11.180154242617544"><ele>212.0</ele><time>2026-04-18T11:57:59Z</time></trkpt><trkpt lat="43.70259646390014" lon="11.180215307759582"><ele>212.0</ele><time>2026-04-18T11:58:02Z</time></trkpt><trkpt lat="43.702659488855" lon="11.18027150898872"><ele>212.00000000000003</ele><time>2026-04-18T11:58:05Z</time></trkpt><trkpt lat="43.70273229434309" lon="11.180330624261979"><ele>212.0</ele><time>2026-04-18T11:58:08Z</time></trkpt><trkpt lat="43.70280358321348" lon="11.180389971910248"><ele>213.50000000000003</ele><time>2026-04-18T11:58:11Z</time></trkpt><trkpt lat="43.70287262435581" lon="11.18044928218563"><ele>215.0</ele><time>2026-04-18T11:58:14Z</time></trkpt><trkpt lat="43.70293533811061" lon="11.180522778143816"><ele>216.5</ele><time>2026-04-18T11:58:17Z</time></trkpt><trkpt lat="43.702986650798294" lon="11.180617454827441"><ele>218.0</ele><time>2026-04-18T11:58:20Z</time></trkpt><trkpt lat="43.703018464569546" lon="11.180711759709224"><ele>219.50000000000003</ele><time>2026-04-18T11:58:23Z</time></trkpt><trkpt lat="43.70304542812483" lon="11.180803307762275"><ele>221.0</ele><time>2026-04-18T11:58:26Z</time></trkpt><trkpt lat="43.703070874634335" lon="11.18089280093754"><ele>221.00000000000003</ele><time>2026-04-18T11:58:29Z</time></trkpt><trkpt lat="43.70308953890591" lon="11.18098569012926"><ele>221.0</ele><time>2026-04-18T11:58:32Z</time></trkpt><trkpt lat="43.70311157068353" lon="11.181084951922301"><ele>221.0</ele><time>2026-04-18T11:58:35Z</time></trkpt><trkpt lat="43.70314502668198" lon="11.181168823089179"><ele>221.0</ele><time>2026-04-18T11:58:38Z</time></trkpt><trkpt lat="43.70318349740766" lon="11.181249091810031"><ele>221.0</ele><time>2026-04-18T11:58:41Z</time></trkpt><trkpt lat="43.70322454992115" lon="11.181332374795264"><ele>221.00000000000003</ele><time>2026-04-18T11:58:44Z</time></trkpt><trkpt lat="43.70326257815913" lon="11.181419705409414"><ele>221.0</ele><time>2026-04-18T11:58:47Z</time></trkpt><trkpt lat="43.70329901400618" lon="11.181512898464824"><ele>220.16666666666669</ele><time>2026-04-18T11:58:50Z</time></trkpt><trkpt lat="43.703343217266216" lon="11.18159457681645"><ele>219.33333333333334</ele><time>2026-04-18T11:58:53Z</time></trkpt><trkpt lat="43.70338788217185" lon="11.181680327799745"><ele>218.5</ele><time>2026-04-18T11:58:56Z</time></trkpt><trkpt lat="43.70342926029087" lon="11.181768075240422"><ele>217.66666666666669</ele><time>2026-04-18T11:58:59Z</time></trkpt><trkpt lat="43.703467014938745" lon="11.181857818793224"><ele>216.83333333333334</ele><time>2026-04-18T11:59:02Z</time></trkpt><trkpt lat="43.703510402714734" lon="11.181939698385044"><ele>216.0</ele><time>2026-04-18T11:59:05Z</time></trkpt><trkpt lat="43.70354865981353" lon="11.182032033709303"><ele>219.16666666666666</ele><time>2026-04-18T11:59:08Z</time></trkpt><trkpt lat="43.703588099965934" lon="11.182123217415871"><ele>222.33333333333331</ele><time>2026-04-18T11:59:11Z</time></trkpt><trkpt lat="43.703624523669916" lon="11.182220961240112"><ele>225.5</ele><time>2026-04-18T11:59:14Z</time></trkpt><trkpt lat="43.70366918179129" lon="11.182311242122868"><ele>228.66666666666666</ele><time>2026-04-18T11:59:17Z</time></trkpt><trkpt lat="43.70370995925819" lon="11.182402886489198"><ele>231.83333333333331</ele><time>2026-04-18T11:59:20Z</time></trkpt><trkpt lat="43.703732400866436" lon="11.182504171954642"><ele>235.0</ele><time>2026-04-18T11:59:23Z</time></trkpt><trkpt lat="43.70376161867397" lon="11.182607007710612"><ele>234.99999999999997</ele><time>2026-04-18T11:59:26Z</time></trkpt><trkpt lat="43.70378236831604" lon="11.182711316143623"><ele>235.0</ele><time>2026-04-18T11:59:29Z</time></trkpt><trkpt lat="43.703808694841854" lon="11.182814827856994"><ele>235.0</ele><time>2026-04-18T11:59:32Z</time></trkpt><trkpt lat="43.70383139956687" lon="11.182919041377518"><ele>235.0</ele><time>2026-04-18T11:59:35Z</time></trkpt><trkpt lat="43.7038585293813" lon="11.183024114803095"><ele>234.99999999999997</ele><time>2026-04-18T11:59:38Z</time></trkpt><trkpt lat="43.703899391923564" lon="11.183116096333507"><ele>235.0</ele><time>2026-04-18T11:59:41Z</time></trkpt><trkpt lat="43.70394283234725" lon="11.183207233283685"><ele>233.49999999999997</ele><time>2026-04-18T11:59:44Z</time></trkpt><trkpt lat="43.70399233911949" lon="11.183289404872209"><ele>232.0</ele><time>2026-04-18T11:59:47Z</time></trkpt><trkpt lat="43.70404523513522" lon="11.183369274323194"><ele>230.5</ele><time>2026-04-18T11:59:50Z</time></trkpt><trkpt lat="43.70409441411135" lon="11.183456227651137"><ele>229.0</ele><time>2026-04-18T11:59:53Z</time></trkpt><trkpt lat="43.70414136513894" lon="11.183538687747534"><ele>227.49999999999997</ele><time>2026-04-18T11:59:56Z</time></trkpt><trkpt lat="43.70418985074572" lon="11.183633958490995"><ele>226.0</ele><time>2026-04-18T11:59:59Z</time></trkpt><trkpt lat="43.7042261678317" lon="11.183734841021097"><ele>225.99999999999997</ele><time>2026-04-18T12:00:02Z</time></trkpt><trkpt lat="43.7042623253611" lon="11.183834126711993"><ele>226.0</ele><time>2026-04-18T12:00:05Z</time></trkpt><trkpt lat="43.704296869950774" lon="11.183940294605526"><ele>226.0</ele><time>2026-04-18T12:00:08Z</time></trkpt><trkpt lat="43.70432039758627" lon="11.184052727979447"><ele>226.0</ele><time>2026-04-18T12:00:11Z</time></trkpt><trkpt lat="43.70435085705976" lon="11.184156663740342"><ele>225.99999999999997</ele><time>2026-04-18T12:00:14Z</time></trkpt><trkpt lat="43.70438240591192" lon="11.1842681003431"><ele>226.0</ele><time>2026-04-18T12:00:17Z</time></trkpt><trkpt lat="43.704414543781134" lon="11.18437488603976"><ele>226.99999999999997</ele><time>2026-04-18T12:00:20Z</time></trkpt><trkpt lat="43.70444277767859" lon="11.18449121520949"><ele>228.0</ele><time>2026-04-18T12:00:23Z</time></trkpt><trkpt lat="43.704484349408645" lon="11.184589556079631"><ele>229.0</ele><time>2026-04-18T12:00:26Z</time></trkpt><trkpt lat="43.70451191164762" lon="11.184702536780124"><ele>230.0</ele><time>2026-04-18T12:00:29Z</time></trkpt><trkpt lat="43.70455135955583" lon="11.184804621400579"><ele>230.99999999999997</ele><time>2026-04-18T12:00:32Z</time></trkpt><trkpt lat="43.704596234354085" lon="11.184907140251271"><ele>232.0</ele><time>2026-04-18T12:00:35Z</time></trkpt><trkpt lat="43.704625676858726" lon="11.185021445585196"><ele>231.99999999999997</ele><time>2026-04-18T12:00:38Z</time></trkpt><trkpt lat="43.70465994744155" lon="11.185126458142346"><ele>232.0</ele><time>2026-04-18T12:00:41Z</time></trkpt><trkpt lat="43.70469862891226" lon="11.185231707500032"><ele>232.0</ele><time>2026-04-18T12:00:44Z</time></trkpt><trkpt lat="43.704743385004484" lon="11.185334822916023"><ele>232.0</ele><time>2026-04-18T12:00:47Z</time></trkpt><trkpt lat="43.704749865356234" lon="11.1854573863858"><ele>231.99999999999997</ele><time>2026-04-18T12:00:50Z</time></trkpt><trkpt lat="43.70477735035494" lon="11.185562705683244"><ele>232.0</ele><time>2026-04-18T12:00:53Z</time></trkpt><trkpt lat="43.70482471414618" lon="11.18566402058548"><ele>231.99999999999997</ele><time>2026-04-18T12:00:56Z</time></trkpt><trkpt lat="43.70485063714598" lon="11.18577728815168"><ele>232.0</ele><time>2026-04-18T12:00:59Z</time></trkpt><trkpt lat="43.70488723253678" lon="11.185854034654144"><ele>232.0</ele><time>2026-04-18T12:01:01Z</time></trkpt><trkpt lat="43.70492987525435" lon="11.185924973604587"><ele>232.0</ele><time>2026-04-18T12:01:03Z</time></trkpt><trkpt lat="43.70498841471118" lon="11.185994554999704"><ele>231.99999999999997</ele><time>2026-04-18T12:01:05Z</time></trkpt><trkpt lat="43.705056096574474" lon="11.1860403147311"><ele>232.0</ele><time>2026-04-18T12:01:07Z</time></trkpt><trkpt lat="43.70513756023486" lon="11.186093877820184"><ele>232.0</ele><time>2026-04-18T12:01:09Z</time></trkpt><trkpt lat="43.7052342014446" lon="11.186147345295936"><ele>232.0</ele><time>2026-04-18T12:01:11Z</time></trkpt><trkpt lat="43.70533366548192" lon="11.186180977184895"><ele>232.0</ele><time>2026-04-18T12:01:13Z</time></trkpt><trkpt lat="43.70544048475289" lon="11.186232384382933"><ele>232.0</ele><time>2026-04-18T12:01:15Z</time></trkpt><trkpt lat="43.70555106778739" lon="11.186283740854323"><ele>232.0</ele><time>2026-04-18T12:01:17Z</time></trkpt><trkpt lat="43.70565708838932" lon="11.18631986903907"><ele>231.8</ele><time>2026-04-18T12:01:19Z</time></trkpt><trkpt lat="43.70572599411348" lon="11.186318381937184"><ele>231.6</ele><time>2026-04-18T12:01:20Z</time></trkpt><trkpt lat="43.705850031561546" lon="11.18634132912553"><ele>231.40000000000003</ele><time>2026-04-18T12:01:22Z</time></trkpt><trkpt lat="43.705974394303894" lon="11.18635462746398"><ele>231.20000000000002</ele><time>2026-04-18T12:01:24Z</time></trkpt><trkpt lat="43.70603780314526" lon="11.186369468044402"><ele>231.0</ele><time>2026-04-18T12:01:25Z</time></trkpt><trkpt lat="43.706110253749124" lon="11.18638138186607"><ele>231.0</ele><time>2026-04-18T12:01:26Z</time></trkpt><trkpt lat="43.70618225487537" lon="11.186388977612781"><ele>231.0</ele><time>2026-04-18T12:01:27Z</time></trkpt><trkpt lat="43.70625161816756" lon="11.186394960479285"><ele>231.0</ele><time>2026-04-18T12:01:28Z</time></trkpt><trkpt lat="43.7063252996521" lon="11.18641426060521"><ele>231.0</ele><time>2026-04-18T12:01:29Z</time></trkpt><trkpt lat="43.70640508318763" lon="11.186438939155122"><ele>231.0</ele><time>2026-04-18T12:01:30Z</time></trkpt><trkpt lat="43.70648234065806" lon="11.186469808071042"><ele>231.0</ele><time>2026-04-18T12:01:31Z</time></trkpt><trkpt lat="43.70656354419772" lon="11.18651407311371"><ele>230.20000000000002</ele><time>2026-04-18T12:01:32Z</time></trkpt><trkpt lat="43.70664981168876" lon="11.186583340763097"><ele>229.40000000000003</ele><time>2026-04-18T12:01:33Z</time></trkpt><trkpt lat="43.70671926812012" lon="11.186642825052552"><ele>228.6</ele><time>2026-04-18T12:01:34Z</time></trkpt><trkpt lat="43.706797257202574" lon="11.18672125681701"><ele>227.8</ele><time>2026-04-18T12:01:35Z</time></trkpt><trkpt lat="43.70687551785518" lon="11.18679045106363"><ele>227.0</ele><time>2026-04-18T12:01:36Z</time></trkpt><trkpt lat="43.70696002948965" lon="11.186829752055216"><ele>226.2</ele><time>2026-04-18T12:01:37Z</time></trkpt><trkpt lat="43.70705629753522" lon="11.186850942937154"><ele>225.39999999999998</ele><time>2026-04-18T12:01:38Z</time></trkpt><trkpt lat="43.70715775255069" lon="11.186877493463697"><ele>224.60000000000002</ele><time>2026-04-18T12:01:39Z</time></trkpt><trkpt lat="43.70724973564559" lon="11.186903052407608"><ele>223.8</ele><time>2026-04-18T12:01:40Z</time></trkpt><trkpt lat="43.70734598484389" lon="11.186927903387703"><ele>223.0</ele><time>2026-04-18T12:01:41Z</time></trkpt><trkpt lat="43.7074443500686" lon="11.186954769426512"><ele>223.0</ele><time>2026-04-18T12:01:42Z</time></trkpt><trkpt lat="43.70753695051423" lon="11.186974701191138"><ele>223.0</ele><time>2026-04-18T12:01:43Z</time></trkpt><trkpt lat="43.707635507017756" lon="11.186998537169567"><ele>223.0</ele><time>2026-04-18T12:01:44Z</time></trkpt><trkpt lat="43.70773225184888" lon="11.187014464508314"><ele>223.0</ele><time>2026-04-18T12:01:45Z</time></trkpt><trkpt lat="43.707828451325724" lon="11.18703794322129"><ele>223.0</ele><time>2026-04-18T12:01:46Z</time></trkpt><trkpt lat="43.70792420565231" lon="11.18706303126691"><ele>221.8</ele><time>2026-04-18T12:01:47Z</time></trkpt><trkpt lat="43.708012457632606" lon="11.187089275469754"><ele>220.60000000000002</ele><time>2026-04-18T12:01:48Z</time></trkpt><trkpt lat="43.708109331472365" lon="11.187111198508434"><ele>219.39999999999998</ele><time>2026-04-18T12:01:49Z</time></trkpt><trkpt lat="43.708197863106705" lon="11.187136636839112"><ele>218.2</ele><time>2026-04-18T12:01:50Z</time></trkpt><trkpt lat="43.70828835394308" lon="11.187163684091312"><ele>217.0</ele><time>2026-04-18T12:01:51Z</time></trkpt><trkpt lat="43.70837939122183" lon="11.187204430831319"><ele>216.99999999999997</ele><time>2026-04-18T12:01:52Z</time></trkpt><trkpt lat="43.708449553879" lon="11.187271342290302"><ele>217.0</ele><time>2026-04-18T12:01:53Z</time></trkpt><trkpt lat="43.70851612197513" lon="11.187341559105297"><ele>217.0</ele><time>2026-04-18T12:01:54Z</time></trkpt><trkpt lat="43.708588757812905" lon="11.18741288609164"><ele>217.0</ele><time>2026-04-18T12:01:55Z</time></trkpt><trkpt lat="43.708655265495764" lon="11.187478201820653"><ele>216.99999999999997</ele><time>2026-04-18T12:01:56Z</time></trkpt><trkpt lat="43.70872342213204" lon="11.187537988136782"><ele>217.0</ele><time>2026-04-18T12:01:57Z</time></trkpt><trkpt lat="43.70879015145304" lon="11.187599400281496"><ele>216.33333333333331</ele><time>2026-04-18T12:01:58Z</time></trkpt><trkpt lat="43.708850942706306" lon="11.187660940004806"><ele>215.66666666666666</ele><time>2026-04-18T12:01:59Z</time></trkpt><trkpt lat="43.70891405459963" lon="11.187726290606413"><ele>215.0</ele><time>2026-04-18T12:02:00Z</time></trkpt><trkpt lat="43.70897919407504" lon="11.187784838909764"><ele>214.33333333333331</ele><time>2026-04-18T12:02:01Z</time></trkpt><trkpt lat="43.70903624880522" lon="11.187851884869925"><ele>213.66666666666666</ele><time>2026-04-18T12:02:02Z</time></trkpt><trkpt lat="43.70909631620292" lon="11.187910923773744"><ele>213.0</ele><time>2026-04-18T12:02:03Z</time></trkpt><trkpt lat="43.70915972138032" lon="11.187965805938042"><ele>212.99999999999997</ele><time>2026-04-18T12:02:04Z</time></trkpt><trkpt lat="43.7092221522769" lon="11.188024306165916"><ele>213.0</ele><time>2026-04-18T12:02:05Z</time></trkpt><trkpt lat="43.709283331885686" lon="11.188083725647754"><ele>213.0</ele><time>2026-04-18T12:02:06Z</time></trkpt><trkpt lat="43.70934410012222" lon="11.188136387162599"><ele>213.0</ele><time>2026-04-18T12:02:07Z</time></trkpt><trkpt lat="43.70939999460205" lon="11.18819279173593"><ele>213.0</ele><time>2026-04-18T12:02:08Z</time></trkpt><trkpt lat="43.709458580717914" lon="11.188245149868074"><ele>212.99999999999997</ele><time>2026-04-18T12:02:09Z</time></trkpt><trkpt lat="43.709516963351426" lon="11.188295018103295"><ele>213.0</ele><time>2026-04-18T12:02:10Z</time></trkpt><trkpt lat="43.70957395036492" lon="11.188340981350322"><ele>212.99999999999997</ele><time>2026-04-18T12:02:11Z</time></trkpt><trkpt lat="43.70963023267572" lon="11.188390528912596"><ele>213.0</ele><time>2026-04-18T12:02:12Z</time></trkpt><trkpt lat="43.709690453577885" lon="11.188437858914316"><ele>213.0</ele><time>2026-04-18T12:02:13Z</time></trkpt><trkpt lat="43.709750663166425" lon="11.18848376718085"><ele>213.0</ele><time>2026-04-18T12:02:14Z</time></trkpt><trkpt lat="43.70980868734817" lon="11.188522956272372"><ele>213.0</ele><time>2026-04-18T12:02:15Z</time></trkpt><trkpt lat="43.70986408752506" lon="11.188567245993571"><ele>212.99999999999997</ele><time>2026-04-18T12:02:16Z</time></trkpt><trkpt lat="43.70992239575029" lon="11.18861360334465"><ele>213.0</ele><time>2026-04-18T12:02:17Z</time></trkpt><trkpt lat="43.70997974326805" lon="11.188660796422893"><ele>213.0</ele><time>2026-04-18T12:02:18Z</time></trkpt><trkpt lat="43.710094419073535" lon="11.1887413663018"><ele>213.0</ele><time>2026-04-18T12:02:20Z</time></trkpt><trkpt lat="43.7101502933394" lon="11.188784463341738"><ele>213.0</ele><time>2026-04-18T12:02:21Z</time></trkpt><trkpt lat="43.71020640080994" lon="11.188826733863415"><ele>213.0</ele><time>2026-04-18T12:02:22Z</time></trkpt><trkpt lat="43.71031715594942" lon="11.18889834134276"><ele>213.0</ele><time>2026-04-18T12:02:24Z</time></trkpt><trkpt lat="43.71043039261689" lon="11.188952307753897"><ele>213.25</ele><time>2026-04-18T12:02:26Z</time></trkpt><trkpt lat="43.71054841983596" lon="11.18898935890428"><ele>213.5</ele><time>2026-04-18T12:02:28Z</time></trkpt><trkpt lat="43.71066278479916" lon="11.18903108529555"><ele>213.75</ele><time>2026-04-18T12:02:30Z</time></trkpt><trkpt lat="43.71077232880642" lon="11.189073500868544"><ele>214.0</ele><time>2026-04-18T12:02:32Z</time></trkpt><trkpt lat="43.71088711873447" lon="11.189115621157308"><ele>214.0</ele><time>2026-04-18T12:02:34Z</time></trkpt><trkpt lat="43.71095180012871" lon="11.18913308522433"><ele>213.99999999999997</ele><time>2026-04-18T12:02:35Z</time></trkpt><trkpt lat="43.711054890909985" lon="11.189168209991353"><ele>213.99999999999997</ele><time>2026-04-18T12:02:37Z</time></trkpt><trkpt lat="43.71116542250691" lon="11.189201776629503"><ele>214.0</ele><time>2026-04-18T12:02:39Z</time></trkpt><trkpt lat="43.711268930901994" lon="11.189221275555857"><ele>214.0</ele><time>2026-04-18T12:02:41Z</time></trkpt><trkpt lat="43.71137303742756" lon="11.189227620797272"><ele>214.5</ele><time>2026-04-18T12:02:43Z</time></trkpt><trkpt lat="43.71148373889136" lon="11.189225934523606"><ele>215.0</ele><time>2026-04-18T12:02:45Z</time></trkpt><trkpt lat="43.7115914688484" lon="11.189218196475105"><ele>215.5</ele><time>2026-04-18T12:02:47Z</time></trkpt><trkpt lat="43.71171159207199" lon="11.189209128062982"><ele>216.0</ele><time>2026-04-18T12:02:49Z</time></trkpt><trkpt lat="43.71183464561847" lon="11.18919749953427"><ele>216.0</ele><time>2026-04-18T12:02:51Z</time></trkpt><trkpt lat="43.711903913881244" lon="11.189187522823229"><ele>216.0</ele><time>2026-04-18T12:02:52Z</time></trkpt><trkpt lat="43.71196909445139" lon="11.189177042252707"><ele>216.0</ele><time>2026-04-18T12:02:53Z</time></trkpt><trkpt lat="43.712038914704394" lon="11.189170348246806"><ele>216.0</ele><time>2026-04-18T12:02:54Z</time></trkpt><trkpt lat="43.71210470373276" lon="11.18916259803753"><ele>216.0</ele><time>2026-04-18T12:02:55Z</time></trkpt><trkpt lat="43.71217268550561" lon="11.189144769250802"><ele>216.0</ele><time>2026-04-18T12:02:56Z</time></trkpt><trkpt lat="43.71224168035256" lon="11.18912133579462"><ele>216.0</ele><time>2026-04-18T12:02:57Z</time></trkpt><trkpt lat="43.71230166006841" lon="11.189080097267098"><ele>216.28571428571428</ele><time>2026-04-18T12:02:58Z</time></trkpt><trkpt lat="43.71235918218562" lon="11.189025277266738"><ele>216.57142857142856</ele><time>2026-04-18T12:02:59Z</time></trkpt><trkpt lat="43.71241359612891" lon="11.188968057814211"><ele>216.85714285714286</ele><time>2026-04-18T12:03:00Z</time></trkpt><trkpt lat="43.71246255011319" lon="11.188903065042362"><ele>217.14285714285714</ele><time>2026-04-18T12:03:01Z</time></trkpt><trkpt lat="43.712507614182925" lon="11.188832174089832"><ele>217.42857142857144</ele><time>2026-04-18T12:03:02Z</time></trkpt><trkpt lat="43.712545567109416" lon="11.188755637701448"><ele>217.71428571428572</ele><time>2026-04-18T12:03:03Z</time></trkpt><trkpt lat="43.71257844288158" lon="11.188673073329538"><ele>218.0</ele><time>2026-04-18T12:03:04Z</time></trkpt><trkpt lat="43.71260257282511" lon="11.188583587337867"><ele>217.42857142857144</ele><time>2026-04-18T12:03:05Z</time></trkpt><trkpt lat="43.712625016991325" lon="11.188494613040755"><ele>216.85714285714286</ele><time>2026-04-18T12:03:06Z</time></trkpt><trkpt lat="43.71264108724038" lon="11.18840156518655"><ele>216.28571428571428</ele><time>2026-04-18T12:03:07Z</time></trkpt><trkpt lat="43.712661404426754" lon="11.188310058927204"><ele>215.71428571428572</ele><time>2026-04-18T12:03:08Z</time></trkpt><trkpt lat="43.7126838837498" lon="11.188218660532435"><ele>215.14285714285714</ele><time>2026-04-18T12:03:09Z</time></trkpt><trkpt lat="43.71270567226226" lon="11.18812737711321"><ele>214.57142857142858</ele><time>2026-04-18T12:03:10Z</time></trkpt><trkpt lat="43.712746848681014" lon="11.188041708554104"><ele>214.0</ele><time>2026-04-18T12:03:11Z</time></trkpt><trkpt lat="43.71278462434596" lon="11.187958558033477"><ele>213.85714285714286</ele><time>2026-04-18T12:03:12Z</time></trkpt><trkpt lat="43.71282874115051" lon="11.187884874023997"><ele>213.71428571428572</ele><time>2026-04-18T12:03:13Z</time></trkpt><trkpt lat="43.71287699330172" lon="11.187811866108884"><ele>213.57142857142856</ele><time>2026-04-18T12:03:14Z</time></trkpt><trkpt lat="43.71293182334983" lon="11.18774169769861"><ele>213.42857142857144</ele><time>2026-04-18T12:03:15Z</time></trkpt><trkpt lat="43.71299292927241" lon="11.187680148961494"><ele>213.28571428571428</ele><time>2026-04-18T12:03:16Z</time></trkpt><trkpt lat="43.713054345605315" lon="11.187626551082868"><ele>213.14285714285714</ele><time>2026-04-18T12:03:17Z</time></trkpt><trkpt lat="43.713119567152454" lon="11.187582837837699"><ele>213.0</ele><time>2026-04-18T12:03:18Z</time></trkpt><trkpt lat="43.71318977852465" lon="11.18754901144528"><ele>213.0</ele><time>2026-04-18T12:03:19Z</time></trkpt><trkpt lat="43.71326301413914" lon="11.187525597938919"><ele>213.0</ele><time>2026-04-18T12:03:20Z</time></trkpt><trkpt lat="43.71333974952136" lon="11.187497249531958"><ele>213.0</ele><time>2026-04-18T12:03:21Z</time></trkpt><trkpt lat="43.713422954339514" lon="11.187477319426874"><ele>213.0</ele><time>2026-04-18T12:03:22Z</time></trkpt><trkpt lat="43.7135039976918" lon="11.187468377816396"><ele>213.0</ele><time>2026-04-18T12:03:23Z</time></trkpt><trkpt lat="43.71359357952943" lon="11.187435574627871"><ele>213.0</ele><time>2026-04-18T12:03:24Z</time></trkpt><trkpt lat="43.71368427815057" lon="11.18741541682163"><ele>212.2</ele><time>2026-04-18T12:03:25Z</time></trkpt><trkpt lat="43.71377971357781" lon="11.187403612070952"><ele>211.4</ele><time>2026-04-18T12:03:26Z</time></trkpt><trkpt lat="43.713872244773" lon="11.187395775522669"><ele>210.6</ele><time>2026-04-18T12:03:27Z</time></trkpt><trkpt lat="43.71396653099914" lon="11.18738860403299"><ele>209.79999999999998</ele><time>2026-04-18T12:03:28Z</time></trkpt><trkpt lat="43.71406713299412" lon="11.18739690961412"><ele>209.0</ele><time>2026-04-18T12:03:29Z</time></trkpt><trkpt lat="43.714169672397695" lon="11.18738908115662"><ele>209.0</ele><time>2026-04-18T12:03:30Z</time></trkpt><trkpt lat="43.71427451558064" lon="11.187379957848101"><ele>209.0</ele><time>2026-04-18T12:03:31Z</time></trkpt><trkpt lat="43.71438048989882" lon="11.187410449328466"><ele>209.0</ele><time>2026-04-18T12:03:32Z</time></trkpt><trkpt lat="43.71448866769936" lon="11.187458045986261"><ele>209.0</ele><time>2026-04-18T12:03:33Z</time></trkpt><trkpt lat="43.71459659447218" lon="11.187526138519422"><ele>209.0</ele><time>2026-04-18T12:03:34Z</time></trkpt><trkpt lat="43.71469447305761" lon="11.187611739220014"><ele>205.25</ele><time>2026-04-18T12:03:35Z</time></trkpt><trkpt lat="43.714790335971294" lon="11.187702797813614"><ele>201.5</ele><time>2026-04-18T12:03:36Z</time></trkpt><trkpt lat="43.71489930177603" lon="11.187785301179943"><ele>197.75</ele><time>2026-04-18T12:03:37Z</time></trkpt><trkpt lat="43.7149883733096" lon="11.187866252807913"><ele>194.0</ele><time>2026-04-18T12:03:38Z</time></trkpt><trkpt lat="43.715085094236315" lon="11.187950863587217"><ele>194.0</ele><time>2026-04-18T12:03:39Z</time></trkpt><trkpt lat="43.71518682463952" lon="11.188031312927937"><ele>194.0</ele><time>2026-04-18T12:03:40Z</time></trkpt><trkpt lat="43.715287442276995" lon="11.18811427117805"><ele>194.0</ele><time>2026-04-18T12:03:41Z</time></trkpt><trkpt lat="43.71539114542714" lon="11.18819345032733"><ele>194.0</ele><time>2026-04-18T12:03:42Z</time></trkpt><trkpt lat="43.71549730943469" lon="11.18828752961477"><ele>193.25</ele><time>2026-04-18T12:03:43Z</time></trkpt><trkpt lat="43.71560132368139" lon="11.188371176385111"><ele>192.5</ele><time>2026-04-18T12:03:44Z</time></trkpt><trkpt lat="43.71570675680188" lon="11.188470788026532"><ele>191.75</ele><time>2026-04-18T12:03:45Z</time></trkpt><trkpt lat="43.71579807948714" lon="11.188578380644865"><ele>191.0</ele><time>2026-04-18T12:03:46Z</time></trkpt><trkpt lat="43.71588659278346" lon="11.188706653696665"><ele>191.0</ele><time>2026-04-18T12:03:47Z</time></trkpt><trkpt lat="43.71595993090049" lon="11.188845822288435"><ele>191.0</ele><time>2026-04-18T12:03:48Z</time></trkpt><trkpt lat="43.7160421655518" lon="11.188984776541169"><ele>191.0</ele><time>2026-04-18T12:03:49Z</time></trkpt><trkpt lat="43.71613289265147" lon="11.189100169772875"><ele>191.0</ele><time>2026-04-18T12:03:50Z</time></trkpt><trkpt lat="43.716229164881284" lon="11.189211772473756"><ele>188.0</ele><time>2026-04-18T12:03:51Z</time></trkpt><trkpt lat="43.716327120011" lon="11.18933125984638"><ele>185.0</ele><time>2026-04-18T12:03:52Z</time></trkpt><trkpt lat="43.71640316202736" lon="11.189483645174688"><ele>182.0</ele><time>2026-04-18T12:03:53Z</time></trkpt><trkpt lat="43.716436848165856" lon="11.18965658834884"><ele>179.0</ele><time>2026-04-18T12:03:54Z</time></trkpt><trkpt lat="43.71645596452266" lon="11.189836291979942"><ele>179.0</ele><time>2026-04-18T12:03:55Z</time></trkpt><trkpt lat="43.716464923963635" lon="11.190008866510757"><ele>179.0</ele><time>2026-04-18T12:03:56Z</time></trkpt><trkpt lat="43.716475979185226" lon="11.190186348791787"><ele>179.0</ele><time>2026-04-18T12:03:57Z</time></trkpt><trkpt lat="43.716485045052806" lon="11.190362823734425"><ele>179.0</ele><time>2026-04-18T12:03:58Z</time></trkpt><trkpt lat="43.71647810572249" lon="11.190538728803318"><ele>179.0</ele><time>2026-04-18T12:03:59Z</time></trkpt><trkpt lat="43.71646124835042" lon="11.190717568347898"><ele>179.0</ele><time>2026-04-18T12:04:00Z</time></trkpt><trkpt lat="43.71640737443755" lon="11.190876956649701"><ele>179.0</ele><time>2026-04-18T12:04:01Z</time></trkpt><trkpt lat="43.71635448514682" lon="11.191038915311022"><ele>179.0</ele><time>2026-04-18T12:04:02Z</time></trkpt><trkpt lat="43.71631058909339" lon="11.191193284128275"><ele>179.0</ele><time>2026-04-18T12:04:03Z</time></trkpt><trkpt lat="43.71624830475696" lon="11.191334366988837"><ele>179.0</ele><time>2026-04-18T12:04:04Z</time></trkpt><trkpt lat="43.71620023847859" lon="11.191488570116185"><ele>179.0</ele><time>2026-04-18T12:04:05Z</time></trkpt><trkpt lat="43.716173692887516" lon="11.191641412915471"><ele>179.0</ele><time>2026-04-18T12:04:06Z</time></trkpt><trkpt lat="43.71618455694112" lon="11.19178686060054"><ele>179.0</ele><time>2026-04-18T12:04:07Z</time></trkpt><trkpt lat="43.71623355021047" lon="11.191930946160124"><ele>179.0</ele><time>2026-04-18T12:04:08Z</time></trkpt><trkpt lat="43.71630440763461" lon="11.192052008092588"><ele>179.0</ele><time>2026-04-18T12:04:09Z</time></trkpt><trkpt lat="43.7163733914728" lon="11.192174461687763"><ele>179.0</ele><time>2026-04-18T12:04:10Z</time></trkpt><trkpt lat="43.71644184134906" lon="11.192277885774123"><ele>179.0</ele><time>2026-04-18T12:04:11Z</time></trkpt><trkpt lat="43.716499043101315" lon="11.192377826832775"><ele>178.5</ele><time>2026-04-18T12:04:12Z</time></trkpt><trkpt lat="43.71655256353986" lon="11.192484977131253"><ele>178.0</ele><time>2026-04-18T12:04:13Z</time></trkpt><trkpt lat="43.71660482595906" lon="11.19258453895638"><ele>177.5</ele><time>2026-04-18T12:04:14Z</time></trkpt><trkpt lat="43.71666209835052" lon="11.19267478042833"><ele>177.0</ele><time>2026-04-18T12:04:15Z</time></trkpt><trkpt lat="43.71671717956066" lon="11.192760224961686"><ele>176.5</ele><time>2026-04-18T12:04:16Z</time></trkpt><trkpt lat="43.716772119102636" lon="11.192838647094362"><ele>176.0</ele><time>2026-04-18T12:04:17Z</time></trkpt><trkpt lat="43.71682803365238" lon="11.192909431527891"><ele>176.0</ele><time>2026-04-18T12:04:18Z</time></trkpt><trkpt lat="43.71688196927994" lon="11.192976932371518"><ele>176.0</ele><time>2026-04-18T12:04:19Z</time></trkpt><trkpt lat="43.71693003785659" lon="11.19304252765818"><ele>176.0</ele><time>2026-04-18T12:04:20Z</time></trkpt><trkpt lat="43.716979593950526" lon="11.193104989476492"><ele>176.0</ele><time>2026-04-18T12:04:21Z</time></trkpt><trkpt lat="43.71702903358885" lon="11.193159190078843"><ele>176.0</ele><time>2026-04-18T12:04:22Z</time></trkpt><trkpt lat="43.7171174608022" lon="11.193267166239174"><ele>176.0</ele><time>2026-04-18T12:04:24Z</time></trkpt><trkpt lat="43.71721239557916" lon="11.193363025728353"><ele>176.8</ele><time>2026-04-18T12:04:26Z</time></trkpt><trkpt lat="43.717307912340985" lon="11.193439601680657"><ele>177.60000000000002</ele><time>2026-04-18T12:04:28Z</time></trkpt><trkpt lat="43.717402385433715" lon="11.193510977872432"><ele>178.4</ele><time>2026-04-18T12:04:30Z</time></trkpt><trkpt lat="43.71749732692371" lon="11.1935791650765"><ele>179.2</ele><time>2026-04-18T12:04:32Z</time></trkpt><trkpt lat="43.71759205125632" lon="11.193635399340664"><ele>180.0</ele><time>2026-04-18T12:04:34Z</time></trkpt><trkpt lat="43.71769124812999" lon="11.193703146643982"><ele>180.2</ele><time>2026-04-18T12:04:36Z</time></trkpt><trkpt lat="43.717784999343536" lon="11.193772059364962"><ele>180.4</ele><time>2026-04-18T12:04:38Z</time></trkpt><trkpt lat="43.71787442353273" lon="11.19383026984051"><ele>180.60000000000002</ele><time>2026-04-18T12:04:40Z</time></trkpt><trkpt lat="43.717966385123255" lon="11.193895443100818"><ele>180.8</ele><time>2026-04-18T12:04:42Z</time></trkpt><trkpt lat="43.71805728485221" lon="11.193960974519113"><ele>181.0</ele><time>2026-04-18T12:04:44Z</time></trkpt><trkpt lat="43.7181485236469" lon="11.194024603897763"><ele>181.0</ele><time>2026-04-18T12:04:46Z</time></trkpt><trkpt lat="43.71824277169043" lon="11.194090158451528"><ele>181.0</ele><time>2026-04-18T12:04:48Z</time></trkpt><trkpt lat="43.71832912192071" lon="11.194150212091216"><ele>181.0</ele><time>2026-04-18T12:04:50Z</time></trkpt><trkpt lat="43.71842101010426" lon="11.194202360639252"><ele>181.0</ele><time>2026-04-18T12:04:52Z</time></trkpt><trkpt lat="43.718510232114895" lon="11.194198257058499"><ele>181.0</ele><time>2026-04-18T12:04:54Z</time></trkpt><trkpt lat="43.71860171733331" lon="11.194200109866996"><ele>180.8</ele><time>2026-04-18T12:04:56Z</time></trkpt><trkpt lat="43.71865014841479" lon="11.194116614171406"><ele>180.60000000000002</ele><time>2026-04-18T12:04:57Z</time></trkpt><trkpt lat="43.71873543842333" lon="11.194043519567977"><ele>180.4</ele><time>2026-04-18T12:04:59Z</time></trkpt><trkpt lat="43.718823510596465" lon="11.193975928537194"><ele>180.2</ele><time>2026-04-18T12:05:01Z</time></trkpt><trkpt lat="43.71891255486981" lon="11.193909180233108"><ele>180.0</ele><time>2026-04-18T12:05:03Z</time></trkpt><trkpt lat="43.71899081785041" lon="11.193832439753653"><ele>180.0</ele><time>2026-04-18T12:05:05Z</time></trkpt><trkpt lat="43.71907383728585" lon="11.19376230649866"><ele>180.0</ele><time>2026-04-18T12:05:07Z</time></trkpt><trkpt lat="43.7191582017806" lon="11.193697439069874"><ele>180.0</ele><time>2026-04-18T12:05:09Z</time></trkpt><trkpt lat="43.71924260917511" lon="11.193631614429016"><ele>180.0</ele><time>2026-04-18T12:05:11Z</time></trkpt><trkpt lat="43.71932101649368" lon="11.1935633751247"><ele>180.0</ele><time>2026-04-18T12:05:13Z</time></trkpt><trkpt lat="43.71940347495378" lon="11.19349613590104"><ele>181.8</ele><time>2026-04-18T12:05:15Z</time></trkpt><trkpt lat="43.71947576385203" lon="11.193427683623428"><ele>183.6</ele><time>2026-04-18T12:05:17Z</time></trkpt><trkpt lat="43.71956693698112" lon="11.193363795369041"><ele>185.39999999999998</ele><time>2026-04-18T12:05:19Z</time></trkpt><trkpt lat="43.71965060465194" lon="11.19330138757595"><ele>187.2</ele><time>2026-04-18T12:05:21Z</time></trkpt><trkpt lat="43.71973604120457" lon="11.19323843924058"><ele>189.0</ele><time>2026-04-18T12:05:23Z</time></trkpt><trkpt lat="43.719819473999316" lon="11.193172440707563"><ele>186.79999999999998</ele><time>2026-04-18T12:05:25Z</time></trkpt><trkpt lat="43.71990165390512" lon="11.193105617075544"><ele>184.6</ele><time>2026-04-18T12:05:27Z</time></trkpt><trkpt lat="43.71998161352364" lon="11.193034408353846"><ele>182.4</ele><time>2026-04-18T12:05:29Z</time></trkpt><trkpt lat="43.720064246087496" lon="11.192978869211746"><ele>180.2</ele><time>2026-04-18T12:05:31Z</time></trkpt><trkpt lat="43.720144440983496" lon="11.19291442551466"><ele>178.0</ele><time>2026-04-18T12:05:33Z</time></trkpt><trkpt lat="43.72022858422318" lon="11.192857215646816"><ele>179.2</ele><time>2026-04-18T12:05:35Z</time></trkpt><trkpt lat="43.7203154819749" lon="11.19280958272583"><ele>180.4</ele><time>2026-04-18T12:05:37Z</time></trkpt><trkpt lat="43.72041358835893" lon="11.192789382708074"><ele>181.6</ele><time>2026-04-18T12:05:39Z</time></trkpt><trkpt lat="43.72051255277606" lon="11.192802821776478"><ele>182.79999999999998</ele><time>2026-04-18T12:05:41Z</time></trkpt><trkpt lat="43.7206061168237" lon="11.192855183026358"><ele>184.0</ele><time>2026-04-18T12:05:43Z</time></trkpt><trkpt lat="43.72068502344381" lon="11.192955331406717"><ele>184.0</ele><time>2026-04-18T12:05:45Z</time></trkpt><trkpt lat="43.72074306044134" lon="11.193087174328099"><ele>184.0</ele><time>2026-04-18T12:05:47Z</time></trkpt><trkpt lat="43.72076809883742" lon="11.193244411824105"><ele>184.0</ele><time>2026-04-18T12:05:49Z</time></trkpt><trkpt lat="43.720765238535144" lon="11.193401313197697"><ele>184.0</ele><time>2026-04-18T12:05:51Z</time></trkpt><trkpt lat="43.72073757689146" lon="11.193560116922658"><ele>184.0</ele><time>2026-04-18T12:05:53Z</time></trkpt><trkpt lat="43.7206974361361" lon="11.193713479678456"><ele>184.0</ele><time>2026-04-18T12:05:55Z</time></trkpt><trkpt lat="43.72065288834956" lon="11.193862308704075"><ele>184.0</ele><time>2026-04-18T12:05:57Z</time></trkpt><trkpt lat="43.72060131553698" lon="11.194001806660497"><ele>184.0</ele><time>2026-04-18T12:05:59Z</time></trkpt><trkpt lat="43.72055729434071" lon="11.194160332052288"><ele>182.79999999999998</ele><time>2026-04-18T12:06:01Z</time></trkpt><trkpt lat="43.72051456856467" lon="11.194319068149513"><ele>181.6</ele><time>2026-04-18T12:06:03Z</time></trkpt><trkpt lat="43.72047104907028" lon="11.194401106413666"><ele>180.4</ele><time>2026-04-18T12:06:04Z</time></trkpt><trkpt lat="43.72044466149214" lon="11.194566887343873"><ele>179.2</ele><time>2026-04-18T12:06:06Z</time></trkpt><trkpt lat="43.72042983417885" lon="11.194739713083726"><ele>178.0</ele><time>2026-04-18T12:06:08Z</time></trkpt><trkpt lat="43.72044131231698" lon="11.194831670186453"><ele>177.28571428571428</ele><time>2026-04-18T12:06:09Z</time></trkpt><trkpt lat="43.72044829978435" lon="11.194924424269164"><ele>176.57142857142856</ele><time>2026-04-18T12:06:10Z</time></trkpt><trkpt lat="43.72045525284766" lon="11.195013954571941"><ele>175.85714285714283</ele><time>2026-04-18T12:06:11Z</time></trkpt><trkpt lat="43.720469915419294" lon="11.195104586646305"><ele>175.14285714285714</ele><time>2026-04-18T12:06:12Z</time></trkpt><trkpt lat="43.720484712805806" lon="11.195196195200031"><ele>174.42857142857144</ele><time>2026-04-18T12:06:13Z</time></trkpt><trkpt lat="43.72050078305636" lon="11.195287470261487"><ele>173.7142857142857</ele><time>2026-04-18T12:06:14Z</time></trkpt><trkpt lat="43.72052293003418" lon="11.195380065521409"><ele>173.0</ele><time>2026-04-18T12:06:15Z</time></trkpt><trkpt lat="43.720535970549555" lon="11.195472740351743"><ele>173.0</ele><time>2026-04-18T12:06:16Z</time></trkpt><trkpt lat="43.72054883446949" lon="11.195568852309638"><ele>173.0</ele><time>2026-04-18T12:06:17Z</time></trkpt><trkpt lat="43.72056703963509" lon="11.19566319752613"><ele>173.0</ele><time>2026-04-18T12:06:18Z</time></trkpt><trkpt lat="43.72058603509665" lon="11.195757766744158"><ele>173.0</ele><time>2026-04-18T12:06:19Z</time></trkpt><trkpt lat="43.72060927011448" lon="11.195849722860146"><ele>173.0</ele><time>2026-04-18T12:06:20Z</time></trkpt><trkpt lat="43.72063258220713" lon="11.195945326321645"><ele>173.0</ele><time>2026-04-18T12:06:21Z</time></trkpt><trkpt lat="43.72065560011493" lon="11.196039614070191"><ele>173.0</ele><time>2026-04-18T12:06:22Z</time></trkpt><trkpt lat="43.72067792155512" lon="11.196133492000236"><ele>173.28571428571428</ele><time>2026-04-18T12:06:23Z</time></trkpt><trkpt lat="43.72069455309701" lon="11.196231900001774"><ele>173.57142857142858</ele><time>2026-04-18T12:06:24Z</time></trkpt><trkpt lat="43.72071413406431" lon="11.196327061820224"><ele>173.85714285714286</ele><time>2026-04-18T12:06:25Z</time></trkpt><trkpt lat="43.720735044676" lon="11.196423376593767"><ele>174.14285714285714</ele><time>2026-04-18T12:06:26Z</time></trkpt><trkpt lat="43.720754952411546" lon="11.196520132416197"><ele>174.42857142857144</ele><time>2026-04-18T12:06:27Z</time></trkpt><trkpt lat="43.720778897457805" lon="11.196615408817747"><ele>174.71428571428572</ele><time>2026-04-18T12:06:28Z</time></trkpt><trkpt lat="43.72080181751038" lon="11.19671146609531"><ele>175.0</ele><time>2026-04-18T12:06:29Z</time></trkpt><trkpt lat="43.72082119425816" lon="11.196808669986604"><ele>175.42857142857142</ele><time>2026-04-18T12:06:30Z</time></trkpt><trkpt lat="43.72084174238538" lon="11.196905044722792"><ele>175.85714285714286</ele><time>2026-04-18T12:06:31Z</time></trkpt><trkpt lat="43.72086397779238" lon="11.19700388288072"><ele>176.28571428571428</ele><time>2026-04-18T12:06:32Z</time></trkpt><trkpt lat="43.72088543644593" lon="11.19710363031483"><ele>176.71428571428572</ele><time>2026-04-18T12:06:33Z</time></trkpt><trkpt lat="43.720905897004805" lon="11.197201560369834"><ele>177.14285714285714</ele><time>2026-04-18T12:06:34Z</time></trkpt><trkpt lat="43.720926562016025" lon="11.19729893001974"><ele>177.57142857142856</ele><time>2026-04-18T12:06:35Z</time></trkpt><trkpt lat="43.72094775933878" lon="11.19739264865804"><ele>178.0</ele><time>2026-04-18T12:06:36Z</time></trkpt><trkpt lat="43.72097522698325" lon="11.197486644495697"><ele>178.42857142857142</ele><time>2026-04-18T12:06:37Z</time></trkpt><trkpt lat="43.72098479180898" lon="11.197580007808277"><ele>178.85714285714286</ele><time>2026-04-18T12:06:38Z</time></trkpt><trkpt lat="43.721004657867184" lon="11.197678200029134"><ele>179.28571428571428</ele><time>2026-04-18T12:06:39Z</time></trkpt><trkpt lat="43.72102838540239" lon="11.197775199192874"><ele>179.71428571428572</ele><time>2026-04-18T12:06:40Z</time></trkpt><trkpt lat="43.72105281278912" lon="11.197872530436166"><ele>180.14285714285714</ele><time>2026-04-18T12:06:41Z</time></trkpt><trkpt lat="43.721077601067954" lon="11.197970558786178"><ele>180.57142857142856</ele><time>2026-04-18T12:06:42Z</time></trkpt><trkpt lat="43.72110019466629" lon="11.198069565467609"><ele>181.0</ele><time>2026-04-18T12:06:43Z</time></trkpt><trkpt lat="43.721127581410975" lon="11.198167340053088"><ele>179.83333333333334</ele><time>2026-04-18T12:06:44Z</time></trkpt><trkpt lat="43.721155587837096" lon="11.198267083312528"><ele>178.66666666666669</ele><time>2026-04-18T12:06:45Z</time></trkpt><trkpt lat="43.72116253650824" lon="11.198383215278584"><ele>177.5</ele><time>2026-04-18T12:06:46Z</time></trkpt><trkpt lat="43.72117806545352" lon="11.198484608567743"><ele>176.33333333333334</ele><time>2026-04-18T12:06:47Z</time></trkpt><trkpt lat="43.72120374904018" lon="11.198588219770498"><ele>175.16666666666666</ele><time>2026-04-18T12:06:48Z</time></trkpt><trkpt lat="43.72123010489476" lon="11.198690816091798"><ele>174.0</ele><time>2026-04-18T12:06:49Z</time></trkpt><trkpt lat="43.721261019579266" lon="11.19879067421956"><ele>174.0</ele><time>2026-04-18T12:06:50Z</time></trkpt><trkpt lat="43.72129523846233" lon="11.19888796668061"><ele>174.0</ele><time>2026-04-18T12:06:51Z</time></trkpt><trkpt lat="43.72134180601719" lon="11.198977273476219"><ele>174.0</ele><time>2026-04-18T12:06:52Z</time></trkpt><trkpt lat="43.72139559452333" lon="11.199057751645418"><ele>174.0</ele><time>2026-04-18T12:06:53Z</time></trkpt><trkpt lat="43.721457080828785" lon="11.199130179243607"><ele>174.0</ele><time>2026-04-18T12:06:54Z</time></trkpt><trkpt lat="43.72152780656125" lon="11.199180810124384"><ele>174.0</ele><time>2026-04-18T12:06:55Z</time></trkpt><trkpt lat="43.72160055683427" lon="11.199220999582689"><ele>173.71428571428572</ele><time>2026-04-18T12:06:56Z</time></trkpt><trkpt lat="43.721673784753925" lon="11.19925662197036"><ele>173.42857142857144</ele><time>2026-04-18T12:06:57Z</time></trkpt><trkpt lat="43.7217509586366" lon="11.199273490348729"><ele>173.14285714285717</ele><time>2026-04-18T12:06:58Z</time></trkpt><trkpt lat="43.72182553575741" lon="11.199288737324755"><ele>172.85714285714286</ele><time>2026-04-18T12:06:59Z</time></trkpt><trkpt lat="43.72189931148815" lon="11.199300630026404"><ele>172.57142857142858</ele><time>2026-04-18T12:07:00Z</time></trkpt><trkpt lat="43.721971186495125" lon="11.199305983154215"><ele>172.2857142857143</ele><time>2026-04-18T12:07:01Z</time></trkpt><trkpt lat="43.72204091468176" lon="11.199303858086514"><ele>172.0</ele><time>2026-04-18T12:07:02Z</time></trkpt><trkpt lat="43.722110243044234" lon="11.199306445128057"><ele>171.66666666666669</ele><time>2026-04-18T12:07:03Z</time></trkpt><trkpt lat="43.72217768473248" lon="11.199313608772908"><ele>171.33333333333334</ele><time>2026-04-18T12:07:04Z</time></trkpt><trkpt lat="43.72224396929332" lon="11.19931514393439"><ele>171.0</ele><time>2026-04-18T12:07:05Z</time></trkpt><trkpt lat="43.722308630136" lon="11.199314829412666"><ele>170.66666666666666</ele><time>2026-04-18T12:07:06Z</time></trkpt><trkpt lat="43.722372034691695" lon="11.199318544744694"><ele>170.33333333333331</ele><time>2026-04-18T12:07:07Z</time></trkpt><trkpt lat="43.72249382898412" lon="11.19931739068633"><ele>170.0</ele><time>2026-04-18T12:07:09Z</time></trkpt><trkpt lat="43.72261034568965" lon="11.199317526203842"><ele>170.0</ele><time>2026-04-18T12:07:11Z</time></trkpt><trkpt lat="43.72272327169207" lon="11.199303416219497"><ele>170.0</ele><time>2026-04-18T12:07:13Z</time></trkpt><trkpt lat="43.722829705186484" lon="11.199267388832167"><ele>170.0</ele><time>2026-04-18T12:07:15Z</time></trkpt><trkpt lat="43.722934950930544" lon="11.199218155278116"><ele>170.0</ele><time>2026-04-18T12:07:17Z</time></trkpt><trkpt lat="43.723031998110685" lon="11.199165882345318"><ele>170.0</ele><time>2026-04-18T12:07:19Z</time></trkpt><trkpt lat="43.72312638930575" lon="11.199112495513825"><ele>171.0</ele><time>2026-04-18T12:07:21Z</time></trkpt><trkpt lat="43.723216601242264" lon="11.199065585628835"><ele>172.0</ele><time>2026-04-18T12:07:23Z</time></trkpt><trkpt lat="43.72330653584899" lon="11.199026306021098"><ele>173.0</ele><time>2026-04-18T12:07:25Z</time></trkpt><trkpt lat="43.72339511980721" lon="11.198980996423527"><ele>174.0</ele><time>2026-04-18T12:07:27Z</time></trkpt><trkpt lat="43.72347286208104" lon="11.198932718913555"><ele>175.0</ele><time>2026-04-18T12:07:29Z</time></trkpt><trkpt lat="43.72354859135151" lon="11.198883127637075"><ele>176.33333333333334</ele><time>2026-04-18T12:07:31Z</time></trkpt><trkpt lat="43.72363034747947" lon="11.198850022438638"><ele>177.66666666666669</ele><time>2026-04-18T12:07:33Z</time></trkpt><trkpt lat="43.72370626716513" lon="11.198827065468919"><ele>179.0</ele><time>2026-04-18T12:07:35Z</time></trkpt><trkpt lat="43.723784654483175" lon="11.198810163719978"><ele>180.33333333333334</ele><time>2026-04-18T12:07:37Z</time></trkpt><trkpt lat="43.72386525209902" lon="11.19879432580172"><ele>181.66666666666666</ele><time>2026-04-18T12:07:39Z</time></trkpt><trkpt lat="43.72395085326576" lon="11.1987890717035"><ele>183.0</ele><time>2026-04-18T12:07:41Z</time></trkpt><trkpt lat="43.72404532237842" lon="11.19877652919476"><ele>183.0</ele><time>2026-04-18T12:07:43Z</time></trkpt><trkpt lat="43.7241481901886" lon="11.198769991068156"><ele>183.0</ele><time>2026-04-18T12:07:45Z</time></trkpt><trkpt lat="43.72425944920844" lon="11.19876513797285"><ele>183.0</ele><time>2026-04-18T12:07:47Z</time></trkpt><trkpt lat="43.72437442310343" lon="11.19877467132415"><ele>183.0</ele><time>2026-04-18T12:07:49Z</time></trkpt><trkpt lat="43.72449009317383" lon="11.19881686708558"><ele>183.0</ele><time>2026-04-18T12:07:51Z</time></trkpt><trkpt lat="43.72454699699598" lon="11.198855181165868"><ele>183.71428571428572</ele><time>2026-04-18T12:07:52Z</time></trkpt><trkpt lat="43.724600443020684" lon="11.198906243854848"><ele>184.42857142857144</ele><time>2026-04-18T12:07:53Z</time></trkpt><trkpt lat="43.72465061666796" lon="11.198964970549532"><ele>185.14285714285714</ele><time>2026-04-18T12:07:54Z</time></trkpt><trkpt lat="43.724702465537085" lon="11.199027832122537"><ele>185.85714285714286</ele><time>2026-04-18T12:07:55Z</time></trkpt><trkpt lat="43.724751673886274" lon="11.199095314867963"><ele>186.57142857142856</ele><time>2026-04-18T12:07:56Z</time></trkpt><trkpt lat="43.724802252379" lon="11.199161727105013"><ele>187.28571428571428</ele><time>2026-04-18T12:07:57Z</time></trkpt><trkpt lat="43.72485563288483" lon="11.199225171149969"><ele>188.0</ele><time>2026-04-18T12:07:58Z</time></trkpt><trkpt lat="43.724911151423356" lon="11.19928348513044"><ele>187.28571428571428</ele><time>2026-04-18T12:07:59Z</time></trkpt><trkpt lat="43.724967487429424" lon="11.199340632062764"><ele>186.57142857142856</ele><time>2026-04-18T12:08:00Z</time></trkpt><trkpt lat="43.725023300204406" lon="11.199399656262491"><ele>185.85714285714286</ele><time>2026-04-18T12:08:01Z</time></trkpt><trkpt lat="43.725076801021295" lon="11.199460604570584"><ele>185.14285714285714</ele><time>2026-04-18T12:08:02Z</time></trkpt><trkpt lat="43.72513338779336" lon="11.19952058196513"><ele>184.42857142857144</ele><time>2026-04-18T12:08:03Z</time></trkpt><trkpt lat="43.7251910297475" lon="11.199577939920111"><ele>183.71428571428572</ele><time>2026-04-18T12:08:04Z</time></trkpt><trkpt lat="43.72524692069302" lon="11.199634494524952"><ele>183.0</ele><time>2026-04-18T12:08:05Z</time></trkpt><trkpt lat="43.7253011006117" lon="11.199692153508268"><ele>183.0</ele><time>2026-04-18T12:08:06Z</time></trkpt><trkpt lat="43.725353027049586" lon="11.199750562786956"><ele>183.0</ele><time>2026-04-18T12:08:07Z</time></trkpt><trkpt lat="43.72540282675451" lon="11.19980713635977"><ele>183.0</ele><time>2026-04-18T12:08:08Z</time></trkpt><trkpt lat="43.72549726643242" lon="11.199915294595758"><ele>183.0</ele><time>2026-04-18T12:08:10Z</time></trkpt><trkpt lat="43.725589970561785" lon="11.20001363255744"><ele>183.0</ele><time>2026-04-18T12:08:12Z</time></trkpt><trkpt lat="43.725681214368755" lon="11.200109665116827"><ele>182.2</ele><time>2026-04-18T12:08:14Z</time></trkpt><trkpt lat="43.725769519710326" lon="11.200200836313943"><ele>181.4</ele><time>2026-04-18T12:08:16Z</time></trkpt><trkpt lat="43.7258639821967" lon="11.200279308299821"><ele>180.6</ele><time>2026-04-18T12:08:18Z</time></trkpt><trkpt lat="43.725956122947075" lon="11.200363004403064"><ele>179.79999999999998</ele><time>2026-04-18T12:08:20Z</time></trkpt><trkpt lat="43.72605435020506" lon="11.200434822374236"><ele>179.0</ele><time>2026-04-18T12:08:22Z</time></trkpt><trkpt lat="43.72615926928611" lon="11.200506763383286"><ele>179.0</ele><time>2026-04-18T12:08:24Z</time></trkpt><trkpt lat="43.726272312498025" lon="11.200573364647735"><ele>179.0</ele><time>2026-04-18T12:08:26Z</time></trkpt><trkpt lat="43.72633708327103" lon="11.200602165203493"><ele>179.0</ele><time>2026-04-18T12:08:27Z</time></trkpt><trkpt lat="43.72640099763984" lon="11.200633961494226"><ele>179.0</ele><time>2026-04-18T12:08:28Z</time></trkpt><trkpt lat="43.726465561354104" lon="11.20067680150388"><ele>179.0</ele><time>2026-04-18T12:08:29Z</time></trkpt><trkpt lat="43.7265342154358" lon="11.200717111402193"><ele>179.0</ele><time>2026-04-18T12:08:30Z</time></trkpt><trkpt lat="43.7266038846315" lon="11.20076213150257"><ele>179.0</ele><time>2026-04-18T12:08:31Z</time></trkpt><trkpt lat="43.726674965769625" lon="11.200811349632682"><ele>179.0</ele><time>2026-04-18T12:08:32Z</time></trkpt><trkpt lat="43.7267482136653" lon="11.200866690013566"><ele>179.0</ele><time>2026-04-18T12:08:33Z</time></trkpt><trkpt lat="43.726816154429386" lon="11.200928918835041"><ele>179.0</ele><time>2026-04-18T12:08:34Z</time></trkpt><trkpt lat="43.726888757855896" lon="11.2009926986589"><ele>179.0</ele><time>2026-04-18T12:08:35Z</time></trkpt><trkpt lat="43.726959540489865" lon="11.201062985202059"><ele>179.0</ele><time>2026-04-18T12:08:36Z</time></trkpt><trkpt lat="43.72703331478346" lon="11.201132438659217"><ele>179.0</ele><time>2026-04-18T12:08:37Z</time></trkpt><trkpt lat="43.72710337765581" lon="11.201203888385503"><ele>179.0</ele><time>2026-04-18T12:08:38Z</time></trkpt><trkpt lat="43.72717249363886" lon="11.20127939030217"><ele>179.0</ele><time>2026-04-18T12:08:39Z</time></trkpt><trkpt lat="43.72724103074722" lon="11.201354644555416"><ele>179.0</ele><time>2026-04-18T12:08:40Z</time></trkpt><trkpt lat="43.72730399297767" lon="11.201434484980858"><ele>179.0</ele><time>2026-04-18T12:08:41Z</time></trkpt><trkpt lat="43.727367140793966" lon="11.201512996181878"><ele>179.0</ele><time>2026-04-18T12:08:42Z</time></trkpt><trkpt lat="43.7274297129652" lon="11.20158990444342"><ele>176.83333333333331</ele><time>2026-04-18T12:08:43Z</time></trkpt><trkpt lat="43.7274928108232" lon="11.201666124589087"><ele>174.66666666666666</ele><time>2026-04-18T12:08:44Z</time></trkpt><trkpt lat="43.727554048249196" lon="11.201744544004576"><ele>172.5</ele><time>2026-04-18T12:08:45Z</time></trkpt><trkpt lat="43.72761187427961" lon="11.2018233546003"><ele>170.33333333333334</ele><time>2026-04-18T12:08:46Z</time></trkpt><trkpt lat="43.72767279408754" lon="11.201899295374139"><ele>168.16666666666669</ele><time>2026-04-18T12:08:47Z</time></trkpt><trkpt lat="43.72773358512013" lon="11.201974423192437"><ele>166.0</ele><time>2026-04-18T12:08:48Z</time></trkpt><trkpt lat="43.72779225736131" lon="11.202044795800074"><ele>165.33333333333334</ele><time>2026-04-18T12:08:49Z</time></trkpt><trkpt lat="43.727854356229024" lon="11.202116617159067"><ele>164.66666666666669</ele><time>2026-04-18T12:08:50Z</time></trkpt><trkpt lat="43.72791678593068" lon="11.202187014417525"><ele>164.0</ele><time>2026-04-18T12:08:51Z</time></trkpt><trkpt lat="43.727976033110174" lon="11.20225904917931"><ele>163.33333333333334</ele><time>2026-04-18T12:08:52Z</time></trkpt><trkpt lat="43.72803484631829" lon="11.202330474421164"><ele>162.66666666666666</ele><time>2026-04-18T12:08:53Z</time></trkpt><trkpt lat="43.728096522321415" lon="11.20240081607506"><ele>162.0</ele><time>2026-04-18T12:08:54Z</time></trkpt><trkpt lat="43.72815655317954" lon="11.202463177933545"><ele>162.0</ele><time>2026-04-18T12:08:55Z</time></trkpt><trkpt lat="43.7282151010292" lon="11.20252034011096"><ele>162.0</ele><time>2026-04-18T12:08:56Z</time></trkpt><trkpt lat="43.72827487922697" lon="11.20257877426977"><ele>162.0</ele><time>2026-04-18T12:08:57Z</time></trkpt><trkpt lat="43.72833318786084" lon="11.202634373163326"><ele>162.0</ele><time>2026-04-18T12:08:58Z</time></trkpt><trkpt lat="43.728389471678724" lon="11.202688122689402"><ele>162.0</ele><time>2026-04-18T12:08:59Z</time></trkpt><trkpt lat="43.72844380593542" lon="11.202741203198254"><ele>162.0</ele><time>2026-04-18T12:09:00Z</time></trkpt><trkpt lat="43.728496733628255" lon="11.202791401403942"><ele>162.0</ele><time>2026-04-18T12:09:01Z</time></trkpt><trkpt lat="43.72859398608831" lon="11.202893808390318"><ele>161.2</ele><time>2026-04-18T12:09:03Z</time></trkpt><trkpt lat="43.728689025578745" lon="11.20298012601875"><ele>160.39999999999998</ele><time>2026-04-18T12:09:05Z</time></trkpt><trkpt lat="43.728771294795685" lon="11.203076171909137"><ele>159.60000000000002</ele><time>2026-04-18T12:09:07Z</time></trkpt><trkpt lat="43.72884826810521" lon="11.203160842679747"><ele>158.8</ele><time>2026-04-18T12:09:09Z</time></trkpt><trkpt lat="43.72892158909884" lon="11.203250669941369"><ele>158.0</ele><time>2026-04-18T12:09:11Z</time></trkpt><trkpt lat="43.728990383670464" lon="11.203350083557634"><ele>159.8</ele><time>2026-04-18T12:09:13Z</time></trkpt><trkpt lat="43.729054605581794" lon="11.203448586109136"><ele>161.60000000000002</ele><time>2026-04-18T12:09:15Z</time></trkpt><trkpt lat="43.72911703294376" lon="11.203542398784542"><ele>163.39999999999998</ele><time>2026-04-18T12:09:17Z</time></trkpt><trkpt lat="43.7291864944344" lon="11.203634237134635"><ele>165.2</ele><time>2026-04-18T12:09:19Z</time></trkpt><trkpt lat="43.729247496288444" lon="11.203730190200044"><ele>167.0</ele><time>2026-04-18T12:09:21Z</time></trkpt><trkpt lat="43.729310530854725" lon="11.203823940369304"><ele>167.0</ele><time>2026-04-18T12:09:23Z</time></trkpt><trkpt lat="43.7293806347102" lon="11.20389839132852"><ele>167.0</ele><time>2026-04-18T12:09:25Z</time></trkpt><trkpt lat="43.72944749127137" lon="11.203975812729201"><ele>167.0</ele><time>2026-04-18T12:09:27Z</time></trkpt><trkpt lat="43.729507012346815" lon="11.204051504619905"><ele>167.0</ele><time>2026-04-18T12:09:29Z</time></trkpt><trkpt lat="43.72956566790362" lon="11.204109344477015"><ele>167.0</ele><time>2026-04-18T12:09:31Z</time></trkpt><trkpt lat="43.72969017774492" lon="11.204097194169835"><ele>166.0</ele><time>2026-04-18T12:09:33Z</time></trkpt><trkpt lat="43.729778243027305" lon="11.2040427380551"><ele>165.0</ele><time>2026-04-18T12:09:35Z</time></trkpt><trkpt lat="43.72988379451256" lon="11.203992651346576"><ele>164.0</ele><time>2026-04-18T12:09:37Z</time></trkpt><trkpt lat="43.72994280165339" lon="11.203958168993454"><ele>163.0</ele><time>2026-04-18T12:09:38Z</time></trkpt><trkpt lat="43.730062633847474" lon="11.203893701087583"><ele>162.0</ele><time>2026-04-18T12:09:40Z</time></trkpt><trkpt lat="43.73012641902974" lon="11.203862800307455"><ele>162.0</ele><time>2026-04-18T12:09:41Z</time></trkpt><trkpt lat="43.73018880160378" lon="11.203827926416025"><ele>162.0</ele><time>2026-04-18T12:09:42Z</time></trkpt><trkpt lat="43.73025347532631" lon="11.203798980850564"><ele>162.0</ele><time>2026-04-18T12:09:43Z</time></trkpt><trkpt lat="43.73031940714528" lon="11.203770452871353"><ele>162.0</ele><time>2026-04-18T12:09:44Z</time></trkpt><trkpt lat="43.73038534117436" lon="11.203743978847418"><ele>162.0</ele><time>2026-04-18T12:09:45Z</time></trkpt><trkpt lat="43.73045771166393" lon="11.203733589928623"><ele>162.0</ele><time>2026-04-18T12:09:46Z</time></trkpt><trkpt lat="43.730531708511016" lon="11.203729604687245"><ele>162.0</ele><time>2026-04-18T12:09:47Z</time></trkpt><trkpt lat="43.730608184839795" lon="11.203733102926611"><ele>161.66666666666666</ele><time>2026-04-18T12:09:48Z</time></trkpt><trkpt lat="43.730689032493196" lon="11.203739789126402"><ele>161.33333333333334</ele><time>2026-04-18T12:09:49Z</time></trkpt><trkpt lat="43.730776595194584" lon="11.20373532451494"><ele>161.0</ele><time>2026-04-18T12:09:50Z</time></trkpt><trkpt lat="43.73086504076466" lon="11.203742149988683"><ele>160.66666666666669</ele><time>2026-04-18T12:09:51Z</time></trkpt><trkpt lat="43.73095902438591" lon="11.203734269039876"><ele>160.33333333333334</ele><time>2026-04-18T12:09:52Z</time></trkpt><trkpt lat="43.73105286959325" lon="11.203730220520196"><ele>160.0</ele><time>2026-04-18T12:09:53Z</time></trkpt><trkpt lat="43.7311504179139" lon="11.203723073281582"><ele>159.4</ele><time>2026-04-18T12:09:54Z</time></trkpt><trkpt lat="43.731246316199794" lon="11.203711990046063"><ele>158.8</ele><time>2026-04-18T12:09:55Z</time></trkpt><trkpt lat="43.73134931221182" lon="11.20368762631759"><ele>158.2</ele><time>2026-04-18T12:09:56Z</time></trkpt><trkpt lat="43.73144992317568" lon="11.203663639508493"><ele>157.6</ele><time>2026-04-18T12:09:57Z</time></trkpt><trkpt lat="43.73155039377323" lon="11.203647853774157"><ele>157.0</ele><time>2026-04-18T12:09:58Z</time></trkpt><trkpt lat="43.73165548964437" lon="11.203634598366541"><ele>157.0</ele><time>2026-04-18T12:09:59Z</time></trkpt><trkpt lat="43.73176561660597" lon="11.203650876488908"><ele>157.0</ele><time>2026-04-18T12:10:00Z</time></trkpt><trkpt lat="43.73187544231544" lon="11.203655574172709"><ele>157.0</ele><time>2026-04-18T12:10:01Z</time></trkpt><trkpt lat="43.73198011086571" lon="11.20362219438201"><ele>157.0</ele><time>2026-04-18T12:10:02Z</time></trkpt><trkpt lat="43.732066247599555" lon="11.203528161963675"><ele>157.0</ele><time>2026-04-18T12:10:03Z</time></trkpt><trkpt lat="43.732117106958384" lon="11.203387843777675"><ele>157.8</ele><time>2026-04-18T12:10:04Z</time></trkpt><trkpt lat="43.73212726435946" lon="11.203229227432288"><ele>158.6</ele><time>2026-04-18T12:10:05Z</time></trkpt><trkpt lat="43.7321642816456" lon="11.203096729454545"><ele>159.4</ele><time>2026-04-18T12:10:06Z</time></trkpt><trkpt lat="43.73219091283186" lon="11.202968634430151"><ele>160.20000000000002</ele><time>2026-04-18T12:10:07Z</time></trkpt><trkpt lat="43.73221407589039" lon="11.202849439532393"><ele>161.0</ele><time>2026-04-18T12:10:08Z</time></trkpt><trkpt lat="43.732236287187746" lon="11.202735142093616"><ele>161.0</ele><time>2026-04-18T12:10:09Z</time></trkpt><trkpt lat="43.732241418902575" lon="11.202625123591456"><ele>161.0</ele><time>2026-04-18T12:10:10Z</time></trkpt><trkpt lat="43.732271576771275" lon="11.202535023465176"><ele>161.0</ele><time>2026-04-18T12:10:11Z</time></trkpt><trkpt lat="43.73228781804366" lon="11.202444921798147"><ele>161.0</ele><time>2026-04-18T12:10:12Z</time></trkpt><trkpt lat="43.73231622681518" lon="11.202293148973922"><ele>161.0</ele><time>2026-04-18T12:10:14Z</time></trkpt><trkpt lat="43.73234236674503" lon="11.202201975055782"><ele>161.0</ele><time>2026-04-18T12:10:15Z</time></trkpt><trkpt lat="43.73235085090148" lon="11.202083816400592"><ele>160.4</ele><time>2026-04-18T12:10:17Z</time></trkpt><trkpt lat="43.732377061989325" lon="11.20196275685721"><ele>159.8</ele><time>2026-04-18T12:10:19Z</time></trkpt><trkpt lat="43.73240033877583" lon="11.201833422653802"><ele>159.20000000000002</ele><time>2026-04-18T12:10:21Z</time></trkpt><trkpt lat="43.73241728553454" lon="11.20170319904853"><ele>158.60000000000002</ele><time>2026-04-18T12:10:23Z</time></trkpt><trkpt lat="43.732431850195006" lon="11.201572317405633"><ele>158.0</ele><time>2026-04-18T12:10:25Z</time></trkpt><trkpt lat="43.732410850791894" lon="11.201427591568674"><ele>157.20000000000002</ele><time>2026-04-18T12:10:27Z</time></trkpt><trkpt lat="43.73235878500545" lon="11.201260752368398"><ele>156.4</ele><time>2026-04-18T12:10:29Z</time></trkpt><trkpt lat="43.732341995149746" lon="11.201156731851508"><ele>155.60000000000002</ele><time>2026-04-18T12:10:30Z</time></trkpt><trkpt lat="43.73232051041362" lon="11.201044387709704"><ele>154.8</ele><time>2026-04-18T12:10:31Z</time></trkpt><trkpt lat="43.732310223917004" lon="11.200915036247709"><ele>154.0</ele><time>2026-04-18T12:10:32Z</time></trkpt><trkpt lat="43.7322845519007" lon="11.200776314501002"><ele>151.75</ele><time>2026-04-18T12:10:33Z</time></trkpt><trkpt lat="43.7322577114923" lon="11.20062823591923"><ele>149.5</ele><time>2026-04-18T12:10:34Z</time></trkpt><trkpt lat="43.73222879182218" lon="11.200465058168415"><ele>147.25</ele><time>2026-04-18T12:10:35Z</time></trkpt><trkpt lat="43.732196766768666" lon="11.200291062205501"><ele>145.0</ele><time>2026-04-18T12:10:36Z</time></trkpt><trkpt lat="43.732162719874836" lon="11.20010962939695"><ele>145.0</ele><time>2026-04-18T12:10:37Z</time></trkpt><trkpt lat="43.73211991052908" lon="11.199916163593771"><ele>145.0</ele><time>2026-04-18T12:10:38Z</time></trkpt><trkpt lat="43.73208847490457" lon="11.199737240733162"><ele>145.0</ele><time>2026-04-18T12:10:39Z</time></trkpt><trkpt lat="43.732052236651455" lon="11.199555564244061"><ele>145.0</ele><time>2026-04-18T12:10:40Z</time></trkpt><trkpt lat="43.73202288093463" lon="11.19937330331166"><ele>142.75</ele><time>2026-04-18T12:10:41Z</time></trkpt><trkpt lat="43.73201360298757" lon="11.199187414076427"><ele>140.5</ele><time>2026-04-18T12:10:42Z</time></trkpt><trkpt lat="43.73200143551561" lon="11.199017530931558"><ele>138.25</ele><time>2026-04-18T12:10:43Z</time></trkpt><trkpt lat="43.73204653294344" lon="11.198859286331402"><ele>136.0</ele><time>2026-04-18T12:10:44Z</time></trkpt><trkpt lat="43.732095273816675" lon="11.198694438596313"><ele>135.4</ele><time>2026-04-18T12:10:45Z</time></trkpt><trkpt lat="43.732135596406536" lon="11.19853936624598"><ele>134.8</ele><time>2026-04-18T12:10:46Z</time></trkpt><trkpt lat="43.73218335626322" lon="11.198404973134279"><ele>134.20000000000002</ele><time>2026-04-18T12:10:47Z</time></trkpt><trkpt lat="43.73222579035065" lon="11.198270129739358"><ele>133.6</ele><time>2026-04-18T12:10:48Z</time></trkpt><trkpt lat="43.732272858221656" lon="11.198130986201114"><ele>133.0</ele><time>2026-04-18T12:10:49Z</time></trkpt><trkpt lat="43.73232581408566" lon="11.197989902389828"><ele>132.25</ele><time>2026-04-18T12:10:50Z</time></trkpt><trkpt lat="43.732387094484494" lon="11.197856564228761"><ele>131.5</ele><time>2026-04-18T12:10:51Z</time></trkpt><trkpt lat="43.7324621405338" lon="11.197733560526867"><ele>130.75</ele><time>2026-04-18T12:10:52Z</time></trkpt><trkpt lat="43.7325597767083" lon="11.197637783570473"><ele>130.0</ele><time>2026-04-18T12:10:53Z</time></trkpt><trkpt lat="43.73264888654468" lon="11.197535911046678"><ele>129.0</ele><time>2026-04-18T12:10:54Z</time></trkpt><trkpt lat="43.73272632939799" lon="11.19741820940638"><ele>128.0</ele><time>2026-04-18T12:10:55Z</time></trkpt><trkpt lat="43.73282310155191" lon="11.197331223029789"><ele>127.0</ele><time>2026-04-18T12:10:56Z</time></trkpt><trkpt lat="43.7328996327773" lon="11.19722040850935"><ele>126.0</ele><time>2026-04-18T12:10:57Z</time></trkpt><trkpt lat="43.732958848238816" lon="11.19706979723628"><ele>125.0</ele><time>2026-04-18T12:10:58Z</time></trkpt><trkpt lat="43.73299215615746" lon="11.196905492481585"><ele>124.0</ele><time>2026-04-18T12:10:59Z</time></trkpt><trkpt lat="43.732993387283194" lon="11.196741998996982"><ele>123.0</ele><time>2026-04-18T12:11:00Z</time></trkpt><trkpt lat="43.732973670643936" lon="11.196584324137344"><ele>122.0</ele><time>2026-04-18T12:11:01Z</time></trkpt><trkpt lat="43.73295007069323" lon="11.19643785695144"><ele>121.39999999999999</ele><time>2026-04-18T12:11:02Z</time></trkpt><trkpt lat="43.73292492190711" lon="11.19629488942637"><ele>120.79999999999998</ele><time>2026-04-18T12:11:03Z</time></trkpt><trkpt lat="43.73289956061149" lon="11.196151953396203"><ele>120.2</ele><time>2026-04-18T12:11:04Z</time></trkpt><trkpt lat="43.73287573007803" lon="11.196017644643488"><ele>119.6</ele><time>2026-04-18T12:11:05Z</time></trkpt><trkpt lat="43.732851840083725" lon="11.1958830009023"><ele>119.0</ele><time>2026-04-18T12:11:06Z</time></trkpt><trkpt lat="43.73282915052618" lon="11.195753006359471"><ele>119.16666666666666</ele><time>2026-04-18T12:11:07Z</time></trkpt><trkpt lat="43.732801893728855" lon="11.19562895133621"><ele>119.33333333333333</ele><time>2026-04-18T12:11:08Z</time></trkpt><trkpt lat="43.73277685001432" lon="11.195506931854794"><ele>119.5</ele><time>2026-04-18T12:11:09Z</time></trkpt><trkpt lat="43.73278432906779" lon="11.19538097304321"><ele>119.66666666666666</ele><time>2026-04-18T12:11:10Z</time></trkpt><trkpt lat="43.73279014794651" lon="11.19526781034116"><ele>119.83333333333333</ele><time>2026-04-18T12:11:11Z</time></trkpt><trkpt lat="43.73281053019057" lon="11.19516355837493"><ele>120.0</ele><time>2026-04-18T12:11:12Z</time></trkpt><trkpt lat="43.73283827963515" lon="11.195065400864058"><ele>120.0</ele><time>2026-04-18T12:11:13Z</time></trkpt><trkpt lat="43.73287906699509" lon="11.194979226813112"><ele>120.0</ele><time>2026-04-18T12:11:14Z</time></trkpt><trkpt lat="43.73292508948273" lon="11.194901314487796"><ele>120.0</ele><time>2026-04-18T12:11:15Z</time></trkpt><trkpt lat="43.73296937834882" lon="11.194820582192069"><ele>120.0</ele><time>2026-04-18T12:11:16Z</time></trkpt><trkpt lat="43.733029691766006" lon="11.194763143719046"><ele>120.0</ele><time>2026-04-18T12:11:17Z</time></trkpt><trkpt lat="43.73309034280115" lon="11.194708479340903"><ele>120.0</ele><time>2026-04-18T12:11:18Z</time></trkpt><trkpt lat="43.73315178691984" lon="11.194652534306613"><ele>120.0</ele><time>2026-04-18T12:11:19Z</time></trkpt><trkpt lat="43.73321693026298" lon="11.194597254276818"><ele>120.16666666666667</ele><time>2026-04-18T12:11:20Z</time></trkpt><trkpt lat="43.73327997185804" lon="11.1945433599726"><ele>120.33333333333334</ele><time>2026-04-18T12:11:21Z</time></trkpt><trkpt lat="43.73333894623222" lon="11.194483046603777"><ele>120.5</ele><time>2026-04-18T12:11:22Z</time></trkpt><trkpt lat="43.73340566070701" lon="11.19443868105393"><ele>120.66666666666667</ele><time>2026-04-18T12:11:23Z</time></trkpt><trkpt lat="43.733476394081286" lon="11.194381584744153"><ele>120.83333333333334</ele><time>2026-04-18T12:11:24Z</time></trkpt><trkpt lat="43.733546966369985" lon="11.194316217238757"><ele>121.0</ele><time>2026-04-18T12:11:25Z</time></trkpt><trkpt lat="43.733613094365225" lon="11.194261008836715"><ele>121.00000000000001</ele><time>2026-04-18T12:11:26Z</time></trkpt><trkpt lat="43.73368511585102" lon="11.194210139662834"><ele>121.0</ele><time>2026-04-18T12:11:27Z</time></trkpt><trkpt lat="43.73375796399849" lon="11.194149391024684"><ele>121.0</ele><time>2026-04-18T12:11:28Z</time></trkpt><trkpt lat="43.73383215774829" lon="11.19409351649503"><ele>121.0</ele><time>2026-04-18T12:11:29Z</time></trkpt><trkpt lat="43.73390548470046" lon="11.194041935625883"><ele>121.00000000000001</ele><time>2026-04-18T12:11:30Z</time></trkpt><trkpt lat="43.73398093099577" lon="11.193995655720732"><ele>121.0</ele><time>2026-04-18T12:11:31Z</time></trkpt><trkpt lat="43.73405911878388" lon="11.19395664512645"><ele>121.16666666666667</ele><time>2026-04-18T12:11:32Z</time></trkpt><trkpt lat="43.73413102784225" lon="11.193914467865698"><ele>121.33333333333334</ele><time>2026-04-18T12:11:33Z</time></trkpt><trkpt lat="43.73420596083948" lon="11.193884298394165"><ele>121.5</ele><time>2026-04-18T12:11:34Z</time></trkpt><trkpt lat="43.7342839236274" lon="11.193848507177469"><ele>121.66666666666666</ele><time>2026-04-18T12:11:35Z</time></trkpt><trkpt lat="43.73436107726356" lon="11.193821587887781"><ele>121.83333333333333</ele><time>2026-04-18T12:11:36Z</time></trkpt><trkpt lat="43.734441176816496" lon="11.19379848215468"><ele>122.0</ele><time>2026-04-18T12:11:37Z</time></trkpt><trkpt lat="43.73451537649481" lon="11.193770785614275"><ele>121.99999999999999</ele><time>2026-04-18T12:11:38Z</time></trkpt><trkpt lat="43.73459006830298" lon="11.193747343116733"><ele>122.0</ele><time>2026-04-18T12:11:39Z</time></trkpt><trkpt lat="43.73466385940745" lon="11.193722295840738"><ele>122.0</ele><time>2026-04-18T12:11:40Z</time></trkpt><trkpt lat="43.73473583741496" lon="11.193695434641008"><ele>122.0</ele><time>2026-04-18T12:11:41Z</time></trkpt><trkpt lat="43.73480801615504" lon="11.193668656190845"><ele>121.99999999999999</ele><time>2026-04-18T12:11:42Z</time></trkpt><trkpt lat="43.73488139164666" lon="11.193650156558038"><ele>122.0</ele><time>2026-04-18T12:11:43Z</time></trkpt><trkpt lat="43.734954662419526" lon="11.193631323459769"><ele>121.99999999999999</ele><time>2026-04-18T12:11:44Z</time></trkpt><trkpt lat="43.7350248268698" lon="11.193604237168401"><ele>122.0</ele><time>2026-04-18T12:11:45Z</time></trkpt><trkpt lat="43.73509176742295" lon="11.193581787196978"><ele>122.0</ele><time>2026-04-18T12:11:46Z</time></trkpt><trkpt lat="43.73515679436209" lon="11.193566890762732"><ele>122.0</ele><time>2026-04-18T12:11:47Z</time></trkpt><trkpt lat="43.735220623523055" lon="11.193539393264125"><ele>121.99999999999999</ele><time>2026-04-18T12:11:48Z</time></trkpt><trkpt lat="43.73528726698222" lon="11.193507774882756"><ele>122.0</ele><time>2026-04-18T12:11:49Z</time></trkpt><trkpt lat="43.735407596808415" lon="11.193456174803265"><ele>121.25</ele><time>2026-04-18T12:11:51Z</time></trkpt><trkpt lat="43.73551443350497" lon="11.193378724428317"><ele>120.5</ele><time>2026-04-18T12:11:53Z</time></trkpt><trkpt lat="43.7356095100208" lon="11.193262559978816"><ele>119.75</ele><time>2026-04-18T12:11:55Z</time></trkpt><trkpt lat="43.73567572357312" lon="11.193124528445157"><ele>119.0</ele><time>2026-04-18T12:11:57Z</time></trkpt><trkpt lat="43.735721654230815" lon="11.192980790118469"><ele>119.0</ele><time>2026-04-18T12:11:59Z</time></trkpt><trkpt lat="43.735792219350635" lon="11.192848921312851"><ele>119.0</ele><time>2026-04-18T12:12:01Z</time></trkpt><trkpt lat="43.73586367685599" lon="11.192710375435881"><ele>119.0</ele><time>2026-04-18T12:12:03Z</time></trkpt><trkpt lat="43.735926426248355" lon="11.19266281851146"><ele>119.0</ele><time>2026-04-18T12:12:04Z</time></trkpt><trkpt lat="43.735989512421085" lon="11.19261676316694"><ele>119.0</ele><time>2026-04-18T12:12:05Z</time></trkpt><trkpt lat="43.736061296456775" lon="11.192569899291275"><ele>118.16666666666666</ele><time>2026-04-18T12:12:06Z</time></trkpt><trkpt lat="43.736134959172915" lon="11.192525103611143"><ele>117.33333333333333</ele><time>2026-04-18T12:12:07Z</time></trkpt><trkpt lat="43.73621309750139" lon="11.192479020191795"><ele>116.5</ele><time>2026-04-18T12:12:08Z</time></trkpt><trkpt lat="43.73629489062931" lon="11.192431121983171"><ele>115.66666666666666</ele><time>2026-04-18T12:12:09Z</time></trkpt><trkpt lat="43.736381716777316" lon="11.192384661026454"><ele>114.83333333333333</ele><time>2026-04-18T12:12:10Z</time></trkpt><trkpt lat="43.73646685598748" lon="11.19233197938602"><ele>114.0</ele><time>2026-04-18T12:12:11Z</time></trkpt><trkpt lat="43.736555270208115" lon="11.192275167387589"><ele>113.2</ele><time>2026-04-18T12:12:12Z</time></trkpt><trkpt lat="43.7366482886301" lon="11.192219826095034"><ele>112.4</ele><time>2026-04-18T12:12:13Z</time></trkpt><trkpt lat="43.73674211357548" lon="11.192160165997082"><ele>111.6</ele><time>2026-04-18T12:12:14Z</time></trkpt><trkpt lat="43.736840636309125" lon="11.192092587841989"><ele>110.8</ele><time>2026-04-18T12:12:15Z</time></trkpt><trkpt lat="43.73693920137874" lon="11.192027903364028"><ele>110.0</ele><time>2026-04-18T12:12:16Z</time></trkpt><trkpt lat="43.73703857788165" lon="11.191959772863164"><ele>109.0</ele><time>2026-04-18T12:12:17Z</time></trkpt><trkpt lat="43.73713417132212" lon="11.191893176909737"><ele>108.0</ele><time>2026-04-18T12:12:18Z</time></trkpt><trkpt lat="43.737238466788575" lon="11.191823409134113"><ele>107.0</ele><time>2026-04-18T12:12:19Z</time></trkpt><trkpt lat="43.73734035353198" lon="11.191752485785885"><ele>106.0</ele><time>2026-04-18T12:12:20Z</time></trkpt><trkpt lat="43.737447776752404" lon="11.191689465474802"><ele>106.0</ele><time>2026-04-18T12:12:21Z</time></trkpt><trkpt lat="43.73754797642423" lon="11.191611630545053"><ele>106.0</ele><time>2026-04-18T12:12:22Z</time></trkpt><trkpt lat="43.73766106582356" lon="11.19155700711862"><ele>106.0</ele><time>2026-04-18T12:12:23Z</time></trkpt><trkpt lat="43.737760633519684" lon="11.191479609935284"><ele>106.0</ele><time>2026-04-18T12:12:24Z</time></trkpt><trkpt lat="43.73787240924926" lon="11.191398793591198"><ele>104.75</ele><time>2026-04-18T12:12:25Z</time></trkpt><trkpt lat="43.73798417571314" lon="11.191312174965757"><ele>103.5</ele><time>2026-04-18T12:12:26Z</time></trkpt><trkpt lat="43.738090947734385" lon="11.191213815725453"><ele>102.25</ele><time>2026-04-18T12:12:27Z</time></trkpt><trkpt lat="43.738195994223986" lon="11.191104441520926"><ele>101.0</ele><time>2026-04-18T12:12:28Z</time></trkpt><trkpt lat="43.73829025823087" lon="11.190971363243646"><ele>101.0</ele><time>2026-04-18T12:12:29Z</time></trkpt><trkpt lat="43.738380167225976" lon="11.190834562652547"><ele>101.0</ele><time>2026-04-18T12:12:30Z</time></trkpt><trkpt lat="43.738467649191094" lon="11.19069285090398"><ele>101.0</ele><time>2026-04-18T12:12:31Z</time></trkpt><trkpt lat="43.738551507815224" lon="11.190555985213477"><ele>101.0</ele><time>2026-04-18T12:12:32Z</time></trkpt><trkpt lat="43.73863452428352" lon="11.19041711784482"><ele>99.25</ele><time>2026-04-18T12:12:33Z</time></trkpt><trkpt lat="43.738724878726906" lon="11.19028616876114"><ele>97.5</ele><time>2026-04-18T12:12:34Z</time></trkpt><trkpt lat="43.7387921250803" lon="11.1901359021282"><ele>95.75</ele><time>2026-04-18T12:12:35Z</time></trkpt><trkpt lat="43.73887377656591" lon="11.190001443470727"><ele>94.0</ele><time>2026-04-18T12:12:36Z</time></trkpt><trkpt lat="43.7389552501096" lon="11.189867937064333"><ele>93.0</ele><time>2026-04-18T12:12:37Z</time></trkpt><trkpt lat="43.73903677842108" lon="11.18972022931042"><ele>92.0</ele><time>2026-04-18T12:12:38Z</time></trkpt><trkpt lat="43.73911932672587" lon="11.189578750611675"><ele>91.0</ele><time>2026-04-18T12:12:39Z</time></trkpt><trkpt lat="43.73920136755134" lon="11.189447623724803"><ele>90.0</ele><time>2026-04-18T12:12:40Z</time></trkpt><trkpt lat="43.73927887228889" lon="11.189294481662495"><ele>90.0</ele><time>2026-04-18T12:12:41Z</time></trkpt><trkpt lat="43.73933866910427" lon="11.18912883005038"><ele>90.0</ele><time>2026-04-18T12:12:42Z</time></trkpt><trkpt lat="43.739414669809754" lon="11.188977748898026"><ele>90.0</ele><time>2026-04-18T12:12:43Z</time></trkpt><trkpt lat="43.73948038701913" lon="11.188810419660307"><ele>90.0</ele><time>2026-04-18T12:12:44Z</time></trkpt><trkpt lat="43.739556763530054" lon="11.188649460896878"><ele>87.75</ele><time>2026-04-18T12:12:45Z</time></trkpt><trkpt lat="43.73962846639818" lon="11.188484114125776"><ele>85.5</ele><time>2026-04-18T12:12:46Z</time></trkpt><trkpt lat="43.73971039401968" lon="11.18832689862197"><ele>83.25</ele><time>2026-04-18T12:12:47Z</time></trkpt><trkpt lat="43.73977564702918" lon="11.188165753736698"><ele>81.0</ele><time>2026-04-18T12:12:48Z</time></trkpt><trkpt lat="43.73984259983039" lon="11.188020056905613"><ele>81.0</ele><time>2026-04-18T12:12:49Z</time></trkpt><trkpt lat="43.73990455300547" lon="11.187871285010015"><ele>81.0</ele><time>2026-04-18T12:12:50Z</time></trkpt><trkpt lat="43.73998211735828" lon="11.187732882724072"><ele>81.0</ele><time>2026-04-18T12:12:51Z</time></trkpt><trkpt lat="43.740049117727274" lon="11.187581067114639"><ele>81.0</ele><time>2026-04-18T12:12:52Z</time></trkpt><trkpt lat="43.74011561751458" lon="11.187430890731337"><ele>80.5</ele><time>2026-04-18T12:12:53Z</time></trkpt><trkpt lat="43.74017089640696" lon="11.187268068785547"><ele>80.0</ele><time>2026-04-18T12:12:54Z</time></trkpt><trkpt lat="43.74023527314041" lon="11.187119891806205"><ele>79.5</ele><time>2026-04-18T12:12:55Z</time></trkpt><trkpt lat="43.740301877671584" lon="11.186964446845678"><ele>79.0</ele><time>2026-04-18T12:12:56Z</time></trkpt><trkpt lat="43.7403652312344" lon="11.18682249472391"><ele>77.0</ele><time>2026-04-18T12:12:57Z</time></trkpt><trkpt lat="43.74042264160828" lon="11.186669087770811"><ele>75.0</ele><time>2026-04-18T12:12:58Z</time></trkpt><trkpt lat="43.74047591877598" lon="11.186526725567102"><ele>73.0</ele><time>2026-04-18T12:12:59Z</time></trkpt><trkpt lat="43.74052354061074" lon="11.186400272105029"><ele>71.0</ele><time>2026-04-18T12:13:00Z</time></trkpt><trkpt lat="43.740575320554974" lon="11.1862715734937"><ele>70.2</ele><time>2026-04-18T12:13:01Z</time></trkpt><trkpt lat="43.74062519213326" lon="11.186150539141144"><ele>69.39999999999999</ele><time>2026-04-18T12:13:02Z</time></trkpt><trkpt lat="43.7406840741643" lon="11.186020377709147"><ele>68.6</ele><time>2026-04-18T12:13:03Z</time></trkpt><trkpt lat="43.740741311868234" lon="11.185880481185299"><ele>67.8</ele><time>2026-04-18T12:13:04Z</time></trkpt><trkpt lat="43.74082089119255" lon="11.185797462319321"><ele>67.0</ele><time>2026-04-18T12:13:05Z</time></trkpt><trkpt lat="43.74088534155354" lon="11.185701287135197"><ele>65.25</ele><time>2026-04-18T12:13:06Z</time></trkpt><trkpt lat="43.74095854170346" lon="11.185584359136875"><ele>63.5</ele><time>2026-04-18T12:13:07Z</time></trkpt><trkpt lat="43.74102850732634" lon="11.18546268818479"><ele>61.75</ele><time>2026-04-18T12:13:08Z</time></trkpt><trkpt lat="43.741077869324315" lon="11.185321048105013"><ele>60.0</ele><time>2026-04-18T12:13:09Z</time></trkpt><trkpt lat="43.7411261149657" lon="11.185163298333459"><ele>59.25</ele><time>2026-04-18T12:13:10Z</time></trkpt><trkpt lat="43.74115830701419" lon="11.184991960761671"><ele>58.5</ele><time>2026-04-18T12:13:11Z</time></trkpt><trkpt lat="43.741173845903745" lon="11.184829317218293"><ele>57.75</ele><time>2026-04-18T12:13:12Z</time></trkpt><trkpt lat="43.74120992940017" lon="11.184691953211198"><ele>57.0</ele><time>2026-04-18T12:13:13Z</time></trkpt><trkpt lat="43.741231723915035" lon="11.184544263719943"><ele>56.8</ele><time>2026-04-18T12:13:14Z</time></trkpt><trkpt lat="43.741252292089236" lon="11.184396737782086"><ele>56.6</ele><time>2026-04-18T12:13:15Z</time></trkpt><trkpt lat="43.74127124180364" lon="11.184256387729766"><ele>56.39999999999999</ele><time>2026-04-18T12:13:16Z</time></trkpt><trkpt lat="43.74129231420408" lon="11.184138978056088"><ele>56.199999999999996</ele><time>2026-04-18T12:13:17Z</time></trkpt><trkpt lat="43.741323893883724" lon="11.184043751740823"><ele>56.0</ele><time>2026-04-18T12:13:18Z</time></trkpt><trkpt lat="43.741372822381614" lon="11.183960587755385"><ele>55.833333333333336</ele><time>2026-04-18T12:13:19Z</time></trkpt><trkpt lat="43.74144865220337" lon="11.183910454654"><ele>55.66666666666667</ele><time>2026-04-18T12:13:20Z</time></trkpt><trkpt lat="43.74152979150774" lon="11.183872175965433"><ele>55.5</ele><time>2026-04-18T12:13:21Z</time></trkpt><trkpt lat="43.74160538116216" lon="11.183822205022175"><ele>55.33333333333333</ele><time>2026-04-18T12:13:22Z</time></trkpt><trkpt lat="43.74167589346431" lon="11.183769503085964"><ele>55.166666666666664</ele><time>2026-04-18T12:13:23Z</time></trkpt><trkpt lat="43.74174588924458" lon="11.183723164078085"><ele>55.0</ele><time>2026-04-18T12:13:24Z</time></trkpt><trkpt lat="43.74181281771578" lon="11.183669714519363"><ele>54.99999999999999</ele><time>2026-04-18T12:13:25Z</time></trkpt><trkpt lat="43.741879091899676" lon="11.183620400809433"><ele>55.0</ele><time>2026-04-18T12:13:26Z</time></trkpt><trkpt lat="43.74194388991105" lon="11.183579094154396"><ele>55.0</ele><time>2026-04-18T12:13:27Z</time></trkpt><trkpt lat="43.742008904506505" lon="11.183532687216086"><ele>55.0</ele><time>2026-04-18T12:13:28Z</time></trkpt><trkpt lat="43.74206628772884" lon="11.183481277840034"><ele>55.0</ele><time>2026-04-18T12:13:29Z</time></trkpt><trkpt lat="43.742120286841796" lon="11.183430020496461"><ele>54.99999999999999</ele><time>2026-04-18T12:13:30Z</time></trkpt><trkpt lat="43.742175532218525" lon="11.183377101298106"><ele>55.0</ele><time>2026-04-18T12:13:31Z</time></trkpt><trkpt lat="43.74225925130522" lon="11.183252321597413"><ele>54.75</ele><time>2026-04-18T12:13:33Z</time></trkpt><trkpt lat="43.742338720948766" lon="11.18312821745312"><ele>54.5</ele><time>2026-04-18T12:13:35Z</time></trkpt><trkpt lat="43.742409148941675" lon="11.182998125307373"><ele>54.25</ele><time>2026-04-18T12:13:37Z</time></trkpt><trkpt lat="43.74247683139454" lon="11.182878636249011"><ele>54.0</ele><time>2026-04-18T12:13:39Z</time></trkpt><trkpt lat="43.7425535149972" lon="11.182758856044508"><ele>54.0</ele><time>2026-04-18T12:13:41Z</time></trkpt><trkpt lat="43.74262367998771" lon="11.182648201436523"><ele>54.00000000000001</ele><time>2026-04-18T12:13:43Z</time></trkpt><trkpt lat="43.74270860948587" lon="11.182554443225946"><ele>54.00000000000001</ele><time>2026-04-18T12:13:45Z</time></trkpt><trkpt lat="43.742797264321055" lon="11.182453392717989"><ele>54.0</ele><time>2026-04-18T12:13:47Z</time></trkpt><trkpt lat="43.742892775540305" lon="11.182362805673932"><ele>54.0</ele><time>2026-04-18T12:13:49Z</time></trkpt><trkpt lat="43.74299583070624" lon="11.182279356810799"><ele>54.0</ele><time>2026-04-18T12:13:51Z</time></trkpt><trkpt lat="43.743088213931486" lon="11.182183598732845"><ele>54.0</ele><time>2026-04-18T12:13:53Z</time></trkpt><trkpt lat="43.74317442658153" lon="11.182072793423643"><ele>54.0</ele><time>2026-04-18T12:13:55Z</time></trkpt><trkpt lat="43.743255923759584" lon="11.181955165080598"><ele>54.0</ele><time>2026-04-18T12:13:57Z</time></trkpt><trkpt lat="43.74330894953734" lon="11.181814719097089"><ele>54.0</ele><time>2026-04-18T12:13:59Z</time></trkpt><trkpt lat="43.74334421007398" lon="11.181642199526758"><ele>54.0</ele><time>2026-04-18T12:14:01Z</time></trkpt><trkpt lat="43.74341659190602" lon="11.181535413028339"><ele>54.0</ele><time>2026-04-18T12:14:03Z</time></trkpt><trkpt lat="43.74347425694561" lon="11.181451196645847"><ele>54.0</ele><time>2026-04-18T12:14:05Z</time></trkpt><trkpt lat="43.74361341012895" lon="11.18157518081833"><ele>54.0</ele><time>2026-04-18T12:14:06Z</time></trkpt><trkpt lat="43.74367242456434" lon="11.181611167455198"><ele>54.0</ele><time>2026-04-18T12:14:07Z</time></trkpt><trkpt lat="43.74377601941612" lon="11.181699172626644"><ele>54.0</ele><time>2026-04-18T12:14:09Z</time></trkpt><trkpt lat="43.74382713103867" lon="11.181758359931546"><ele>54.0</ele><time>2026-04-18T12:14:10Z</time></trkpt><trkpt lat="43.743938083662485" lon="11.181827737959956"><ele>54.0</ele><time>2026-04-18T12:14:12Z</time></trkpt><trkpt lat="43.74400047417108" lon="11.181853312295873"><ele>54.0</ele><time>2026-04-18T12:14:13Z</time></trkpt><trkpt lat="43.744064664055195" lon="11.18186216408087"><ele>54.0</ele><time>2026-04-18T12:14:14Z</time></trkpt><trkpt lat="43.74412836792078" lon="11.181859378760194"><ele>54.0</ele><time>2026-04-18T12:14:15Z</time></trkpt><trkpt lat="43.744192336400985" lon="11.181845389522238"><ele>54.0</ele><time>2026-04-18T12:14:16Z</time></trkpt><trkpt lat="43.744256647663796" lon="11.181825743872642"><ele>54.0</ele><time>2026-04-18T12:14:17Z</time></trkpt><trkpt lat="43.74431984056264" lon="11.181801057843435"><ele>54.0</ele><time>2026-04-18T12:14:18Z</time></trkpt><trkpt lat="43.744439999773924" lon="11.181746211942594"><ele>54.0</ele><time>2026-04-18T12:14:20Z</time></trkpt><trkpt lat="43.74449885159762" lon="11.181714160548815"><ele>54.0</ele><time>2026-04-18T12:14:21Z</time></trkpt><trkpt lat="43.74455930672167" lon="11.181684742570123"><ele>54.0</ele><time>2026-04-18T12:14:22Z</time></trkpt><trkpt lat="43.74462076365853" lon="11.181656431422242"><ele>54.0</ele><time>2026-04-18T12:14:23Z</time></trkpt><trkpt lat="43.744680458370105" lon="11.181617992386402"><ele>54.0</ele><time>2026-04-18T12:14:24Z</time></trkpt><trkpt lat="43.74474161665072" lon="11.181591757377438"><ele>54.0</ele><time>2026-04-18T12:14:25Z</time></trkpt><trkpt lat="43.74480379167768" lon="11.18156286550703"><ele>54.0</ele><time>2026-04-18T12:14:26Z</time></trkpt><trkpt lat="43.74486435397649" lon="11.181530572964867"><ele>54.0</ele><time>2026-04-18T12:14:27Z</time></trkpt><trkpt lat="43.74492505647707" lon="11.181495397291249"><ele>54.0</ele><time>2026-04-18T12:14:28Z</time></trkpt><trkpt lat="43.74498515501473" lon="11.181463186445685"><ele>54.0</ele><time>2026-04-18T12:14:29Z</time></trkpt><trkpt lat="43.745097855655025" lon="11.181390743762083"><ele>54.0</ele><time>2026-04-18T12:14:31Z</time></trkpt><trkpt lat="43.74516125839721" lon="11.181360675047461"><ele>54.0</ele><time>2026-04-18T12:14:32Z</time></trkpt><trkpt lat="43.74522103786943" lon="11.18132818927339"><ele>54.0</ele><time>2026-04-18T12:14:33Z</time></trkpt><trkpt lat="43.74527941056298" lon="11.181292738984212"><ele>54.0</ele><time>2026-04-18T12:14:34Z</time></trkpt><trkpt lat="43.74539155425641" lon="11.181216701187894"><ele>53.75</ele><time>2026-04-18T12:14:36Z</time></trkpt><trkpt lat="43.745499091977024" lon="11.181139475992882"><ele>53.5</ele><time>2026-04-18T12:14:38Z</time></trkpt><trkpt lat="43.74560216436145" lon="11.181063861085919"><ele>53.25</ele><time>2026-04-18T12:14:40Z</time></trkpt><trkpt lat="43.74570574746256" lon="11.181002853860107"><ele>53.0</ele><time>2026-04-18T12:14:42Z</time></trkpt><trkpt lat="43.74581109351646" lon="11.180936621141107"><ele>53.0</ele><time>2026-04-18T12:14:44Z</time></trkpt><trkpt lat="43.74588807950729" lon="11.180816423330498"><ele>53.0</ele><time>2026-04-18T12:14:46Z</time></trkpt><trkpt lat="43.74597942523982" lon="11.18071909911884"><ele>53.0</ele><time>2026-04-18T12:14:48Z</time></trkpt><trkpt lat="43.746074615848286" lon="11.180628702506937"><ele>53.0</ele><time>2026-04-18T12:14:50Z</time></trkpt><trkpt lat="43.74616561909237" lon="11.180531359670033"><ele>52.5</ele><time>2026-04-18T12:14:52Z</time></trkpt><trkpt lat="43.74626404741687" lon="11.180449323802844"><ele>52.0</ele><time>2026-04-18T12:14:54Z</time></trkpt><trkpt lat="43.74633073738806" lon="11.1803870621796"><ele>51.5</ele><time>2026-04-18T12:14:56Z</time></trkpt><trkpt lat="43.746437763578285" lon="11.180548881136566"><ele>51.0</ele><time>2026-04-18T12:14:57Z</time></trkpt><trkpt lat="43.746517243994745" lon="11.18068199585315"><ele>51.0</ele><time>2026-04-18T12:14:59Z</time></trkpt><trkpt lat="43.74656062171989" lon="11.18075224241048"><ele>51.0</ele><time>2026-04-18T12:15:00Z</time></trkpt><trkpt lat="43.746604488512084" lon="11.18081842250471"><ele>51.0</ele><time>2026-04-18T12:15:01Z</time></trkpt><trkpt lat="43.74664927350809" lon="11.180886656735593"><ele>51.0</ele><time>2026-04-18T12:15:02Z</time></trkpt><trkpt lat="43.746702861898825" lon="11.180950708525966"><ele>51.0</ele><time>2026-04-18T12:15:03Z</time></trkpt><trkpt lat="43.74679373650924" lon="11.181074750733684"><ele>51.0</ele><time>2026-04-18T12:15:05Z</time></trkpt><trkpt lat="43.74684749241181" lon="11.181141254288217"><ele>51.0</ele><time>2026-04-18T12:15:06Z</time></trkpt><trkpt lat="43.746896741535906" lon="11.18119968470798"><ele>51.0</ele><time>2026-04-18T12:15:07Z</time></trkpt><trkpt lat="43.74698460516704" lon="11.181322836864975"><ele>51.0</ele><time>2026-04-18T12:15:09Z</time></trkpt><trkpt lat="43.74703413102853" lon="11.181383244896157"><ele>51.0</ele><time>2026-04-18T12:15:10Z</time></trkpt><trkpt lat="43.74712843173244" lon="11.18150676827184"><ele>51.0</ele><time>2026-04-18T12:15:12Z</time></trkpt><trkpt lat="43.74717913198987" lon="11.181571505128916"><ele>50.85714285714286</ele><time>2026-04-18T12:15:13Z</time></trkpt><trkpt lat="43.74722480658813" lon="11.181632335373886"><ele>50.714285714285715</ele><time>2026-04-18T12:15:14Z</time></trkpt><trkpt lat="43.74726885725789" lon="11.181696005188073"><ele>50.57142857142857</ele><time>2026-04-18T12:15:15Z</time></trkpt><trkpt lat="43.7473154019945" lon="11.181760215059024"><ele>50.42857142857143</ele><time>2026-04-18T12:15:16Z</time></trkpt><trkpt lat="43.7473638437604" lon="11.181818741372318"><ele>50.285714285714285</ele><time>2026-04-18T12:15:17Z</time></trkpt><trkpt lat="43.74741405684744" lon="11.181876723417975"><ele>50.142857142857146</ele><time>2026-04-18T12:15:18Z</time></trkpt><trkpt lat="43.74746529917169" lon="11.181935801987557"><ele>50.0</ele><time>2026-04-18T12:15:19Z</time></trkpt><trkpt lat="43.74751676977929" lon="11.181989853409348"><ele>50.00000000000001</ele><time>2026-04-18T12:15:20Z</time></trkpt><trkpt lat="43.74757471617091" lon="11.182038703877124"><ele>50.0</ele><time>2026-04-18T12:15:21Z</time></trkpt><trkpt lat="43.74763286016521" lon="11.182087832655917"><ele>50.0</ele><time>2026-04-18T12:15:22Z</time></trkpt><trkpt lat="43.7476928477924" lon="11.182136488073573"><ele>50.0</ele><time>2026-04-18T12:15:23Z</time></trkpt><trkpt lat="43.74775285257877" lon="11.182185571269855"><ele>50.0</ele><time>2026-04-18T12:15:24Z</time></trkpt><trkpt lat="43.74780660938808" lon="11.182237724521585"><ele>50.00000000000001</ele><time>2026-04-18T12:15:25Z</time></trkpt><trkpt lat="43.74786679155474" lon="11.182286067536046"><ele>50.0</ele><time>2026-04-18T12:15:26Z</time></trkpt><trkpt lat="43.747967486589225" lon="11.18236181976183"><ele>50.0</ele><time>2026-04-18T12:15:28Z</time></trkpt><trkpt lat="43.748067425597085" lon="11.182446048147938"><ele>50.0</ele><time>2026-04-18T12:15:30Z</time></trkpt><trkpt lat="43.748170710469125" lon="11.182533979696275"><ele>50.0</ele><time>2026-04-18T12:15:32Z</time></trkpt><trkpt lat="43.7482241086683" lon="11.182581242808759"><ele>50.0</ele><time>2026-04-18T12:15:33Z</time></trkpt><trkpt lat="43.748331020318034" lon="11.182662524513999"><ele>50.0</ele><time>2026-04-18T12:15:35Z</time></trkpt><trkpt lat="43.748434756445235" lon="11.182744057380557"><ele>50.0</ele><time>2026-04-18T12:15:37Z</time></trkpt><trkpt lat="43.748539624124625" lon="11.18281868917954"><ele>50.0</ele><time>2026-04-18T12:15:39Z</time></trkpt><trkpt lat="43.74864195450286" lon="11.18290376148209"><ele>50.0</ele><time>2026-04-18T12:15:41Z</time></trkpt><trkpt lat="43.748745703835006" lon="11.182987632903957"><ele>50.0</ele><time>2026-04-18T12:15:43Z</time></trkpt><trkpt lat="43.74883994263378" lon="11.183087286902236"><ele>49.833333333333336</ele><time>2026-04-18T12:15:45Z</time></trkpt><trkpt lat="43.74892494012339" lon="11.183210039840473"><ele>49.66666666666667</ele><time>2026-04-18T12:15:47Z</time></trkpt><trkpt lat="43.74897109772081" lon="11.183269666570881"><ele>49.5</ele><time>2026-04-18T12:15:48Z</time></trkpt><trkpt lat="43.749021592165704" lon="11.18333444764489"><ele>49.33333333333333</ele><time>2026-04-18T12:15:49Z</time></trkpt><trkpt lat="43.74907000852114" lon="11.183396875175028"><ele>49.166666666666664</ele><time>2026-04-18T12:15:50Z</time></trkpt><trkpt lat="43.74911713448782" lon="11.183456018295148"><ele>49.0</ele><time>2026-04-18T12:15:51Z</time></trkpt><trkpt lat="43.74916369860724" lon="11.183521361196634"><ele>49.0</ele><time>2026-04-18T12:15:52Z</time></trkpt><trkpt lat="43.74921288105548" lon="11.183587135723592"><ele>49.0</ele><time>2026-04-18T12:15:53Z</time></trkpt><trkpt lat="43.749259328450655" lon="11.183652515540299"><ele>49.0</ele><time>2026-04-18T12:15:54Z</time></trkpt><trkpt lat="43.749303556759074" lon="11.18371986931122"><ele>49.0</ele><time>2026-04-18T12:15:55Z</time></trkpt><trkpt lat="43.74935040315305" lon="11.183782340901836"><ele>49.0</ele><time>2026-04-18T12:15:56Z</time></trkpt><trkpt lat="43.74939701558658" lon="11.18384575269396"><ele>49.0</ele><time>2026-04-18T12:15:57Z</time></trkpt><trkpt lat="43.749445675874846" lon="11.183910057750904"><ele>49.0</ele><time>2026-04-18T12:15:58Z</time></trkpt><trkpt lat="43.7494951415027" lon="11.183975313676335"><ele>48.99999999999999</ele><time>2026-04-18T12:15:59Z</time></trkpt><trkpt lat="43.74953855526219" lon="11.184045038756267"><ele>49.0</ele><time>2026-04-18T12:16:00Z</time></trkpt><trkpt lat="43.749589281675426" lon="11.184108459120583"><ele>49.0</ele><time>2026-04-18T12:16:01Z</time></trkpt><trkpt lat="43.74967177643623" lon="11.18423293260586"><ele>49.0</ele><time>2026-04-18T12:16:03Z</time></trkpt><trkpt lat="43.74971994442761" lon="11.184292449857354"><ele>48.99999999999999</ele><time>2026-04-18T12:16:04Z</time></trkpt><trkpt lat="43.749794698453016" lon="11.184417331340201"><ele>49.0</ele><time>2026-04-18T12:16:06Z</time></trkpt><trkpt lat="43.74987690922796" lon="11.184536850852972"><ele>48.99999999999999</ele><time>2026-04-18T12:16:08Z</time></trkpt><trkpt lat="43.74992527567973" lon="11.184594664983445"><ele>49.0</ele><time>2026-04-18T12:16:09Z</time></trkpt><trkpt lat="43.75001224705861" lon="11.18471810631624"><ele>49.0</ele><time>2026-04-18T12:16:11Z</time></trkpt><trkpt lat="43.750060461771675" lon="11.184778449235456"><ele>49.0</ele><time>2026-04-18T12:16:12Z</time></trkpt><trkpt lat="43.75009853232379" lon="11.184862681302821"><ele>48.99999999999999</ele><time>2026-04-18T12:16:13Z</time></trkpt><trkpt lat="43.75013847018101" lon="11.184933227006823"><ele>49.0</ele><time>2026-04-18T12:16:14Z</time></trkpt><trkpt lat="43.75021394843692" lon="11.185064110072492"><ele>48.6</ele><time>2026-04-18T12:16:16Z</time></trkpt><trkpt lat="43.750252782448385" lon="11.18513443208159"><ele>48.2</ele><time>2026-04-18T12:16:17Z</time></trkpt><trkpt lat="43.75032663213718" lon="11.185268160870413"><ele>47.800000000000004</ele><time>2026-04-18T12:16:19Z</time></trkpt><trkpt lat="43.75040677677653" lon="11.185416790263956"><ele>47.400000000000006</ele><time>2026-04-18T12:16:21Z</time></trkpt><trkpt lat="43.75049402240382" lon="11.185545461284194"><ele>47.0</ele><time>2026-04-18T12:16:23Z</time></trkpt><trkpt lat="43.75057999631962" lon="11.185658280861091"><ele>47.2</ele><time>2026-04-18T12:16:25Z</time></trkpt><trkpt lat="43.7506279715564" lon="11.185719908566782"><ele>47.400000000000006</ele><time>2026-04-18T12:16:26Z</time></trkpt><trkpt lat="43.75072237580589" lon="11.18584117737748"><ele>47.599999999999994</ele><time>2026-04-18T12:16:28Z</time></trkpt><trkpt lat="43.750807507196626" lon="11.18595053474645"><ele>47.8</ele><time>2026-04-18T12:16:30Z</time></trkpt><trkpt lat="43.7509030370093" lon="11.186047339684563"><ele>48.0</ele><time>2026-04-18T12:16:32Z</time></trkpt><trkpt lat="43.750990151872465" lon="11.186159919345883"><ele>47.8</ele><time>2026-04-18T12:16:34Z</time></trkpt><trkpt lat="43.75107928542921" lon="11.186275320484903"><ele>47.599999999999994</ele><time>2026-04-18T12:16:36Z</time></trkpt><trkpt lat="43.75116582023093" lon="11.186391656158918"><ele>47.400000000000006</ele><time>2026-04-18T12:16:38Z</time></trkpt><trkpt lat="43.75120596061072" lon="11.186460866190183"><ele>47.2</ele><time>2026-04-18T12:16:39Z</time></trkpt><trkpt lat="43.751299402002196" lon="11.18657660196257"><ele>47.0</ele><time>2026-04-18T12:16:41Z</time></trkpt><trkpt lat="43.75138243036217" lon="11.186703890143495"><ele>46.75</ele><time>2026-04-18T12:16:43Z</time></trkpt><trkpt lat="43.75146280060676" lon="11.186819091533426"><ele>46.5</ele><time>2026-04-18T12:16:45Z</time></trkpt><trkpt lat="43.75153667648565" lon="11.186938953460821"><ele>46.25</ele><time>2026-04-18T12:16:47Z</time></trkpt><trkpt lat="43.75161445580367" lon="11.187047832676607"><ele>46.0</ele><time>2026-04-18T12:16:49Z</time></trkpt><trkpt lat="43.751698915083075" lon="11.187161821737883"><ele>46.0</ele><time>2026-04-18T12:16:51Z</time></trkpt><trkpt lat="43.751757313494004" lon="11.187208298088358"><ele>46.0</ele><time>2026-04-18T12:16:52Z</time></trkpt><trkpt lat="43.75182699464394" lon="11.18732953182188"><ele>46.0</ele><time>2026-04-18T12:16:54Z</time></trkpt><trkpt lat="43.75192825008108" lon="11.187430056917904"><ele>46.0</ele><time>2026-04-18T12:16:56Z</time></trkpt><trkpt lat="43.75198318006913" lon="11.187480074085112"><ele>46.0</ele><time>2026-04-18T12:16:57Z</time></trkpt><trkpt lat="43.752038487866024" lon="11.187526304266319"><ele>46.0</ele><time>2026-04-18T12:16:58Z</time></trkpt><trkpt lat="43.75212358093542" lon="11.187639296464642"><ele>46.199999999999996</ele><time>2026-04-18T12:17:00Z</time></trkpt><trkpt lat="43.752204569539025" lon="11.187752478258396"><ele>46.4</ele><time>2026-04-18T12:17:02Z</time></trkpt><trkpt lat="43.7522481435204" lon="11.18782045771255"><ele>46.6</ele><time>2026-04-18T12:17:03Z</time></trkpt><trkpt lat="43.752324196919474" lon="11.187943015299991"><ele>46.8</ele><time>2026-04-18T12:17:05Z</time></trkpt><trkpt lat="43.752400895911734" lon="11.188085246159561"><ele>47.0</ele><time>2026-04-18T12:17:07Z</time></trkpt><trkpt lat="43.75243877413966" lon="11.188159060128427"><ele>47.0</ele><time>2026-04-18T12:17:08Z</time></trkpt><trkpt lat="43.752511397997374" lon="11.188300583449765"><ele>47.0</ele><time>2026-04-18T12:17:10Z</time></trkpt><trkpt lat="43.75257529118139" lon="11.188426079949469"><ele>47.0</ele><time>2026-04-18T12:17:12Z</time></trkpt><trkpt lat="43.752641378735944" lon="11.18855668159464"><ele>47.0</ele><time>2026-04-18T12:17:14Z</time></trkpt><trkpt lat="43.75267765836649" lon="11.18862837690055"><ele>47.0</ele><time>2026-04-18T12:17:15Z</time></trkpt><trkpt lat="43.75274354251712" lon="11.188758454456881"><ele>47.0</ele><time>2026-04-18T12:17:17Z</time></trkpt><trkpt lat="43.75280120685987" lon="11.188870572523355"><ele>47.0</ele><time>2026-04-18T12:17:19Z</time></trkpt><trkpt lat="43.75286919268922" lon="11.189005398246136"><ele>47.0</ele><time>2026-04-18T12:17:21Z</time></trkpt><trkpt lat="43.752908402194784" lon="11.189083130796014"><ele>47.0</ele><time>2026-04-18T12:17:22Z</time></trkpt><trkpt lat="43.752966567570326" lon="11.189198443239848"><ele>47.0</ele><time>2026-04-18T12:17:24Z</time></trkpt><trkpt lat="43.75300421603471" lon="11.189273081144533"><ele>47.33333333333333</ele><time>2026-04-18T12:17:25Z</time></trkpt><trkpt lat="43.7530409910463" lon="11.189345987368824"><ele>47.666666666666664</ele><time>2026-04-18T12:17:26Z</time></trkpt><trkpt lat="43.75309574814805" lon="11.189454543033877"><ele>48.0</ele><time>2026-04-18T12:17:27Z</time></trkpt><trkpt lat="43.75313302445686" lon="11.189528443052819"><ele>48.33333333333333</ele><time>2026-04-18T12:17:28Z</time></trkpt><trkpt lat="43.75318780074465" lon="11.189637036747822"><ele>48.666666666666664</ele><time>2026-04-18T12:17:30Z</time></trkpt><trkpt lat="43.75325232489632" lon="11.189764955512969"><ele>49.0</ele><time>2026-04-18T12:17:32Z</time></trkpt><trkpt lat="43.75328920875342" lon="11.18983807763536"><ele>49.0</ele><time>2026-04-18T12:17:33Z</time></trkpt><trkpt lat="43.753330474948676" lon="11.189919887520993"><ele>49.0</ele><time>2026-04-18T12:17:34Z</time></trkpt><trkpt lat="43.75339919781358" lon="11.190056874946169"><ele>49.0</ele><time>2026-04-18T12:17:36Z</time></trkpt><trkpt lat="43.75344216252661" lon="11.190161657258383"><ele>49.0</ele><time>2026-04-18T12:17:38Z</time></trkpt><trkpt lat="43.75351199434436" lon="11.190281938926242"><ele>49.0</ele><time>2026-04-18T12:17:40Z</time></trkpt><trkpt lat="43.75357625012026" lon="11.190395744711639"><ele>48.800000000000004</ele><time>2026-04-18T12:17:42Z</time></trkpt><trkpt lat="43.75363585029854" lon="11.190509750216256"><ele>48.6</ele><time>2026-04-18T12:17:44Z</time></trkpt><trkpt lat="43.75367720060115" lon="11.19061967676187"><ele>48.4</ele><time>2026-04-18T12:17:46Z</time></trkpt><trkpt lat="43.75373617456215" lon="11.190721853958742"><ele>48.2</ele><time>2026-04-18T12:17:48Z</time></trkpt><trkpt lat="43.753805018668935" lon="11.190848540535697"><ele>48.0</ele><time>2026-04-18T12:17:50Z</time></trkpt><trkpt lat="43.753877368537324" lon="11.190970737495116"><ele>48.0</ele><time>2026-04-18T12:17:52Z</time></trkpt><trkpt lat="43.753918500415146" lon="11.191114557680244"><ele>48.0</ele><time>2026-04-18T12:17:54Z</time></trkpt><trkpt lat="43.7539443626518" lon="11.191237274796709"><ele>48.0</ele><time>2026-04-18T12:17:56Z</time></trkpt><trkpt lat="43.753974426495276" lon="11.191383527097383"><ele>48.0</ele><time>2026-04-18T12:17:58Z</time></trkpt><trkpt lat="43.754004988910985" lon="11.19153904088341"><ele>48.0</ele><time>2026-04-18T12:18:00Z</time></trkpt><trkpt lat="43.75402785928018" lon="11.191685808334167"><ele>48.0</ele><time>2026-04-18T12:18:02Z</time></trkpt><trkpt lat="43.754079848308095" lon="11.191817476858597"><ele>48.0</ele><time>2026-04-18T12:18:04Z</time></trkpt><trkpt lat="43.75412961188993" lon="11.191960899434898"><ele>48.0</ele><time>2026-04-18T12:18:06Z</time></trkpt><trkpt lat="43.754150726805356" lon="11.192110317343275"><ele>48.0</ele><time>2026-04-18T12:18:08Z</time></trkpt><trkpt lat="43.75418557662306" lon="11.192245589218993"><ele>48.0</ele><time>2026-04-18T12:18:10Z</time></trkpt><trkpt lat="43.7542147696794" lon="11.192371329385722"><ele>48.0</ele><time>2026-04-18T12:18:12Z</time></trkpt><trkpt lat="43.75423333188666" lon="11.192519368037942"><ele>48.0</ele><time>2026-04-18T12:18:14Z</time></trkpt><trkpt lat="43.7542773859083" lon="11.19265265882156"><ele>48.0</ele><time>2026-04-18T12:18:16Z</time></trkpt><trkpt lat="43.754344702946895" lon="11.192790313069258"><ele>48.0</ele><time>2026-04-18T12:18:18Z</time></trkpt><trkpt lat="43.75440883407778" lon="11.192910699328568"><ele>48.0</ele><time>2026-04-18T12:18:20Z</time></trkpt><trkpt lat="43.75447012446663" lon="11.193055237374704"><ele>47.0</ele><time>2026-04-18T12:18:22Z</time></trkpt><trkpt lat="43.75452762675449" lon="11.193188687841642"><ele>46.0</ele><time>2026-04-18T12:18:24Z</time></trkpt><trkpt lat="43.75458809730751" lon="11.193326981524816"><ele>45.0</ele><time>2026-04-18T12:18:26Z</time></trkpt><trkpt lat="43.75465144548113" lon="11.19346108315014"><ele>44.0</ele><time>2026-04-18T12:18:28Z</time></trkpt><trkpt lat="43.75471390189538" lon="11.193580564876132"><ele>44.0</ele><time>2026-04-18T12:18:30Z</time></trkpt><trkpt lat="43.75476276989352" lon="11.193711795104411"><ele>44.0</ele><time>2026-04-18T12:18:32Z</time></trkpt><trkpt lat="43.75482635572585" lon="11.193836518527103"><ele>44.0</ele><time>2026-04-18T12:18:34Z</time></trkpt><trkpt lat="43.75489205017914" lon="11.193976881330666"><ele>44.0</ele><time>2026-04-18T12:18:36Z</time></trkpt><trkpt lat="43.75496336545294" lon="11.194109655482423"><ele>44.2</ele><time>2026-04-18T12:18:38Z</time></trkpt><trkpt lat="43.75503033768901" lon="11.194260562432499"><ele>44.400000000000006</ele><time>2026-04-18T12:18:40Z</time></trkpt><trkpt lat="43.75506242271812" lon="11.194342292600643"><ele>44.6</ele><time>2026-04-18T12:18:41Z</time></trkpt><trkpt lat="43.75510993992163" lon="11.194412771285963"><ele>44.8</ele><time>2026-04-18T12:18:42Z</time></trkpt><trkpt lat="43.75518940395012" lon="11.194542024237876"><ele>45.0</ele><time>2026-04-18T12:18:44Z</time></trkpt><trkpt lat="43.75525371349337" lon="11.194654676577969"><ele>45.0</ele><time>2026-04-18T12:18:46Z</time></trkpt><trkpt lat="43.75529943762183" lon="11.194717482422467"><ele>45.0</ele><time>2026-04-18T12:18:47Z</time></trkpt><trkpt lat="43.75537144742222" lon="11.194845396972541"><ele>45.0</ele><time>2026-04-18T12:18:49Z</time></trkpt><trkpt lat="43.755438327848246" lon="11.194966861180173"><ele>45.0</ele><time>2026-04-18T12:18:51Z</time></trkpt><trkpt lat="43.75548914272968" lon="11.195093956081937"><ele>45.0</ele><time>2026-04-18T12:18:53Z</time></trkpt><trkpt lat="43.75554905199647" lon="11.195223391611263"><ele>45.0</ele><time>2026-04-18T12:18:55Z</time></trkpt><trkpt lat="43.7556065392051" lon="11.19535423506696"><ele>45.0</ele><time>2026-04-18T12:18:57Z</time></trkpt><trkpt lat="43.755650090532235" lon="11.195508968117629"><ele>45.0</ele><time>2026-04-18T12:18:59Z</time></trkpt><trkpt lat="43.7556936652524" lon="11.195663972267463"><ele>45.0</ele><time>2026-04-18T12:19:01Z</time></trkpt><trkpt lat="43.75573815370197" lon="11.195809415393354"><ele>45.0</ele><time>2026-04-18T12:19:03Z</time></trkpt><trkpt lat="43.75578290573986" lon="11.195960360308503"><ele>45.0</ele><time>2026-04-18T12:19:05Z</time></trkpt><trkpt lat="43.75582775411925" lon="11.196110789242912"><ele>45.0</ele><time>2026-04-18T12:19:07Z</time></trkpt><trkpt lat="43.75587284171923" lon="11.196256730913111"><ele>45.0</ele><time>2026-04-18T12:19:09Z</time></trkpt><trkpt lat="43.75590961712568" lon="11.196399007261537"><ele>45.0</ele><time>2026-04-18T12:19:11Z</time></trkpt><trkpt lat="43.7559631635359" lon="11.19654222148864"><ele>45.0</ele><time>2026-04-18T12:19:13Z</time></trkpt><trkpt lat="43.756008313633885" lon="11.196686090910633"><ele>45.0</ele><time>2026-04-18T12:19:15Z</time></trkpt><trkpt lat="43.75605193839516" lon="11.19682992481099"><ele>45.0</ele><time>2026-04-18T12:19:17Z</time></trkpt><trkpt lat="43.75611744548821" lon="11.196966765138082"><ele>45.0</ele><time>2026-04-18T12:19:19Z</time></trkpt><trkpt lat="43.75616909113519" lon="11.197114099001814"><ele>45.0</ele><time>2026-04-18T12:19:21Z</time></trkpt><trkpt lat="43.75622481715734" lon="11.197250837980256"><ele>45.0</ele><time>2026-04-18T12:19:23Z</time></trkpt><trkpt lat="43.756296354685645" lon="11.197379366784709"><ele>45.0</ele><time>2026-04-18T12:19:25Z</time></trkpt><trkpt lat="43.756362274898095" lon="11.197508163597494"><ele>46.0</ele><time>2026-04-18T12:19:27Z</time></trkpt><trkpt lat="43.756427209321174" lon="11.197637590428807"><ele>47.0</ele><time>2026-04-18T12:19:29Z</time></trkpt><trkpt lat="43.756501791496106" lon="11.197766733355792"><ele>48.0</ele><time>2026-04-18T12:19:31Z</time></trkpt><trkpt lat="43.75656373200082" lon="11.197909189787023"><ele>49.0</ele><time>2026-04-18T12:19:33Z</time></trkpt><trkpt lat="43.75663731979577" lon="11.198033803456028"><ele>49.0</ele><time>2026-04-18T12:19:35Z</time></trkpt><trkpt lat="43.75670366964592" lon="11.198167142826012"><ele>49.0</ele><time>2026-04-18T12:19:37Z</time></trkpt><trkpt lat="43.75678635118366" lon="11.198294405203965"><ele>49.0</ele><time>2026-04-18T12:19:39Z</time></trkpt><trkpt lat="43.75685475449185" lon="11.198418848707858"><ele>49.0</ele><time>2026-04-18T12:19:41Z</time></trkpt><trkpt lat="43.75693143375866" lon="11.198549290147481"><ele>48.75</ele><time>2026-04-18T12:19:43Z</time></trkpt><trkpt lat="43.75700852328262" lon="11.19868585228232"><ele>48.5</ele><time>2026-04-18T12:19:45Z</time></trkpt><trkpt lat="43.757066362084096" lon="11.198822250747355"><ele>48.25</ele><time>2026-04-18T12:19:47Z</time></trkpt><trkpt lat="43.75712391378508" lon="11.198969186249323"><ele>48.0</ele><time>2026-04-18T12:19:49Z</time></trkpt><trkpt lat="43.757177119447256" lon="11.199104528716113"><ele>47.75</ele><time>2026-04-18T12:19:51Z</time></trkpt><trkpt lat="43.75722784560149" lon="11.199246394910208"><ele>47.5</ele><time>2026-04-18T12:19:53Z</time></trkpt><trkpt lat="43.75729230592016" lon="11.19938629187864"><ele>47.25</ele><time>2026-04-18T12:19:55Z</time></trkpt><trkpt lat="43.7573433273451" lon="11.19952368623706"><ele>47.0</ele><time>2026-04-18T12:19:57Z</time></trkpt><trkpt lat="43.75740170265714" lon="11.19966585596287"><ele>47.0</ele><time>2026-04-18T12:19:59Z</time></trkpt><trkpt lat="43.75746681151224" lon="11.199805289782285"><ele>47.0</ele><time>2026-04-18T12:20:01Z</time></trkpt><trkpt lat="43.7575312095105" lon="11.199941221650187"><ele>47.0</ele><time>2026-04-18T12:20:03Z</time></trkpt><trkpt lat="43.75756683957118" lon="11.20001632612667"><ele>47.0</ele><time>2026-04-18T12:20:04Z</time></trkpt><trkpt lat="43.75760161978192" lon="11.200089531041895"><ele>47.0</ele><time>2026-04-18T12:20:05Z</time></trkpt><trkpt lat="43.75766877443749" lon="11.20022578686264"><ele>46.8</ele><time>2026-04-18T12:20:07Z</time></trkpt><trkpt lat="43.75774006207965" lon="11.200366669531402"><ele>46.6</ele><time>2026-04-18T12:20:09Z</time></trkpt><trkpt lat="43.75778832777962" lon="11.200428023631249"><ele>46.4</ele><time>2026-04-18T12:20:10Z</time></trkpt><trkpt lat="43.757854689531285" lon="11.20056840614394"><ele>46.199999999999996</ele><time>2026-04-18T12:20:12Z</time></trkpt><trkpt lat="43.757918595447265" lon="11.200703593548152"><ele>46.0</ele><time>2026-04-18T12:20:14Z</time></trkpt><trkpt lat="43.757983398301114" lon="11.200840745440866"><ele>46.4</ele><time>2026-04-18T12:20:16Z</time></trkpt><trkpt lat="43.758052142139555" lon="11.20095973640597"><ele>46.8</ele><time>2026-04-18T12:20:18Z</time></trkpt><trkpt lat="43.75809823787369" lon="11.20108879877943"><ele>47.199999999999996</ele><time>2026-04-18T12:20:20Z</time></trkpt><trkpt lat="43.75815254841411" lon="11.20120587863568"><ele>47.599999999999994</ele><time>2026-04-18T12:20:22Z</time></trkpt><trkpt lat="43.75820806600661" lon="11.201339635975517"><ele>48.0</ele><time>2026-04-18T12:20:24Z</time></trkpt><trkpt lat="43.75826815842193" lon="11.201472993821525"><ele>47.75</ele><time>2026-04-18T12:20:26Z</time></trkpt><trkpt lat="43.7583319599149" lon="11.201608204785197"><ele>47.5</ele><time>2026-04-18T12:20:28Z</time></trkpt><trkpt lat="43.758392852591705" lon="11.201745411635462"><ele>47.25</ele><time>2026-04-18T12:20:30Z</time></trkpt><trkpt lat="43.7584534415499" lon="11.201884540999886"><ele>47.0</ele><time>2026-04-18T12:20:32Z</time></trkpt><trkpt lat="43.758516444648876" lon="11.202023675054713"><ele>47.0</ele><time>2026-04-18T12:20:34Z</time></trkpt><trkpt lat="43.758571881269745" lon="11.202161567937974"><ele>47.0</ele><time>2026-04-18T12:20:36Z</time></trkpt><trkpt lat="43.75862982942547" lon="11.202296800094054"><ele>47.0</ele><time>2026-04-18T12:20:38Z</time></trkpt><trkpt lat="43.75869690184433" lon="11.202430714198037"><ele>47.0</ele><time>2026-04-18T12:20:40Z</time></trkpt><trkpt lat="43.75876228771638" lon="11.202561611293685"><ele>47.0</ele><time>2026-04-18T12:20:42Z</time></trkpt><trkpt lat="43.75881966960043" lon="11.202691811788853"><ele>47.0</ele><time>2026-04-18T12:20:44Z</time></trkpt><trkpt lat="43.75887594124742" lon="11.202815815817011"><ele>47.0</ele><time>2026-04-18T12:20:46Z</time></trkpt><trkpt lat="43.75891257604511" lon="11.202949419921707"><ele>47.0</ele><time>2026-04-18T12:20:48Z</time></trkpt><trkpt lat="43.75891880801595" lon="11.203098006757285"><ele>47.0</ele><time>2026-04-18T12:20:50Z</time></trkpt><trkpt lat="43.75896839328111" lon="11.203241424464913"><ele>47.0</ele><time>2026-04-18T12:20:52Z</time></trkpt><trkpt lat="43.75904970845037" lon="11.203345815851314"><ele>47.0</ele><time>2026-04-18T12:20:54Z</time></trkpt><trkpt lat="43.75914045698351" lon="11.203442663294414"><ele>47.0</ele><time>2026-04-18T12:20:56Z</time></trkpt><trkpt lat="43.75923343702271" lon="11.203555952432376"><ele>47.0</ele><time>2026-04-18T12:20:58Z</time></trkpt><trkpt lat="43.75931562465141" lon="11.203692962304226"><ele>46.57142857142857</ele><time>2026-04-18T12:21:00Z</time></trkpt><trkpt lat="43.75937396230947" lon="11.203740178437748"><ele>46.14285714285714</ele><time>2026-04-18T12:21:01Z</time></trkpt><trkpt lat="43.759401580602855" lon="11.203831862039127"><ele>45.714285714285715</ele><time>2026-04-18T12:21:02Z</time></trkpt><trkpt lat="43.759440370679606" lon="11.203901254495715"><ele>45.285714285714285</ele><time>2026-04-18T12:21:03Z</time></trkpt><trkpt lat="43.75948382734746" lon="11.203973080249137"><ele>44.857142857142854</ele><time>2026-04-18T12:21:04Z</time></trkpt><trkpt lat="43.75952524909581" lon="11.20403965846699"><ele>44.42857142857143</ele><time>2026-04-18T12:21:05Z</time></trkpt><trkpt lat="43.759566921407014" lon="11.204105794552913"><ele>44.0</ele><time>2026-04-18T12:21:06Z</time></trkpt><trkpt lat="43.759642625647146" lon="11.20423607732293"><ele>44.0</ele><time>2026-04-18T12:21:08Z</time></trkpt><trkpt lat="43.75971438515406" lon="11.204368637750218"><ele>44.0</ele><time>2026-04-18T12:21:10Z</time></trkpt><trkpt lat="43.759796177539705" lon="11.204500719016306"><ele>44.0</ele><time>2026-04-18T12:21:12Z</time></trkpt><trkpt lat="43.75988163894166" lon="11.204635487733373"><ele>44.0</ele><time>2026-04-18T12:21:14Z</time></trkpt><trkpt lat="43.75992092961321" lon="11.204704429831313"><ele>44.0</ele><time>2026-04-18T12:21:15Z</time></trkpt><trkpt lat="43.760002549532395" lon="11.204826286520374"><ele>44.25</ele><time>2026-04-18T12:21:17Z</time></trkpt><trkpt lat="43.76008289729962" lon="11.204950503305076"><ele>44.5</ele><time>2026-04-18T12:21:19Z</time></trkpt><trkpt lat="43.76016868242702" lon="11.205062844435382"><ele>44.75</ele><time>2026-04-18T12:21:21Z</time></trkpt><trkpt lat="43.76025280203288" lon="11.205183490244037"><ele>45.0</ele><time>2026-04-18T12:21:23Z</time></trkpt><trkpt lat="43.760348671572764" lon="11.205297169010224"><ele>44.6</ele><time>2026-04-18T12:21:25Z</time></trkpt><trkpt lat="43.76043560926631" lon="11.205412632200153"><ele>44.2</ele><time>2026-04-18T12:21:27Z</time></trkpt><trkpt lat="43.7604826298928" lon="11.20547188211973"><ele>43.8</ele><time>2026-04-18T12:21:28Z</time></trkpt><trkpt lat="43.76053059927076" lon="11.205529648366868"><ele>43.4</ele><time>2026-04-18T12:21:29Z</time></trkpt><trkpt lat="43.76062324201356" lon="11.205649079347658"><ele>43.0</ele><time>2026-04-18T12:21:31Z</time></trkpt><trkpt lat="43.760714149477835" lon="11.205764431280695"><ele>43.0</ele><time>2026-04-18T12:21:33Z</time></trkpt><trkpt lat="43.76076115446194" lon="11.205822890285635"><ele>43.0</ele><time>2026-04-18T12:21:34Z</time></trkpt><trkpt lat="43.76085453571727" lon="11.20594087175797"><ele>43.0</ele><time>2026-04-18T12:21:36Z</time></trkpt><trkpt lat="43.76093860984482" lon="11.20606756861801"><ele>43.0</ele><time>2026-04-18T12:21:38Z</time></trkpt><trkpt lat="43.76102343466053" lon="11.206185725440621"><ele>43.0</ele><time>2026-04-18T12:21:40Z</time></trkpt><trkpt lat="43.76111022383953" lon="11.206305182754662"><ele>42.8</ele><time>2026-04-18T12:21:42Z</time></trkpt><trkpt lat="43.76116163313526" lon="11.20636220238158"><ele>42.599999999999994</ele><time>2026-04-18T12:21:43Z</time></trkpt><trkpt lat="43.76124228187814" lon="11.206475391657913"><ele>42.400000000000006</ele><time>2026-04-18T12:21:45Z</time></trkpt><trkpt lat="43.76134821792796" lon="11.206568127542507"><ele>42.2</ele><time>2026-04-18T12:21:47Z</time></trkpt><trkpt lat="43.76140332890482" lon="11.206611898262732"><ele>42.0</ele><time>2026-04-18T12:21:48Z</time></trkpt><trkpt lat="43.76150321173185" lon="11.206684348380628"><ele>42.0</ele><time>2026-04-18T12:21:50Z</time></trkpt><trkpt lat="43.761568980310685" lon="11.206720277220395"><ele>42.0</ele><time>2026-04-18T12:21:51Z</time></trkpt><trkpt lat="43.761682399861925" lon="11.206791872724365"><ele>42.0</ele><time>2026-04-18T12:21:53Z</time></trkpt><trkpt lat="43.76179160830251" lon="11.206864005381277"><ele>42.0</ele><time>2026-04-18T12:21:55Z</time></trkpt><trkpt lat="43.761903883869074" lon="11.206931537315326"><ele>42.0</ele><time>2026-04-18T12:21:57Z</time></trkpt><trkpt lat="43.762016867918504" lon="11.20699782114103"><ele>42.0</ele><time>2026-04-18T12:21:59Z</time></trkpt><trkpt lat="43.76212798944354" lon="11.207071645191494"><ele>42.0</ele><time>2026-04-18T12:22:01Z</time></trkpt><trkpt lat="43.76223457014364" lon="11.20714260187678"><ele>42.0</ele><time>2026-04-18T12:22:03Z</time></trkpt><trkpt lat="43.76234114926217" lon="11.207226137177788"><ele>42.0</ele><time>2026-04-18T12:22:05Z</time></trkpt><trkpt lat="43.762447044849424" lon="11.207319269514423"><ele>42.142857142857146</ele><time>2026-04-18T12:22:07Z</time></trkpt><trkpt lat="43.76255045955266" lon="11.207415138223242"><ele>42.285714285714285</ele><time>2026-04-18T12:22:09Z</time></trkpt><trkpt lat="43.762603288567036" lon="11.207463933409114"><ele>42.42857142857143</ele><time>2026-04-18T12:22:10Z</time></trkpt><trkpt lat="43.762663801863056" lon="11.207503297012295"><ele>42.57142857142857</ele><time>2026-04-18T12:22:11Z</time></trkpt><trkpt lat="43.76272213123263" lon="11.207540858877584"><ele>42.714285714285715</ele><time>2026-04-18T12:22:12Z</time></trkpt><trkpt lat="43.762776813854195" lon="11.207585785264774"><ele>42.85714285714286</ele><time>2026-04-18T12:22:13Z</time></trkpt><trkpt lat="43.76283125944925" lon="11.20762972672591"><ele>43.0</ele><time>2026-04-18T12:22:14Z</time></trkpt><trkpt lat="43.76293811139752" lon="11.207719066624428"><ele>43.0</ele><time>2026-04-18T12:22:16Z</time></trkpt><trkpt lat="43.762992577636524" lon="11.207765287956095"><ele>43.0</ele><time>2026-04-18T12:22:17Z</time></trkpt><trkpt lat="43.76309427265753" lon="11.207856631486411"><ele>43.0</ele><time>2026-04-18T12:22:19Z</time></trkpt><trkpt lat="43.763142941983574" lon="11.207914668435825"><ele>43.0</ele><time>2026-04-18T12:22:20Z</time></trkpt><trkpt lat="43.763246232544816" lon="11.208002462811306"><ele>43.0</ele><time>2026-04-18T12:22:22Z</time></trkpt><trkpt lat="43.76329748479554" lon="11.208057938781563"><ele>43.0</ele><time>2026-04-18T12:22:23Z</time></trkpt><trkpt lat="43.76335241823547" lon="11.208103275769929"><ele>43.0</ele><time>2026-04-18T12:22:24Z</time></trkpt><trkpt lat="43.76345253934636" lon="11.208194641579526"><ele>43.0</ele><time>2026-04-18T12:22:26Z</time></trkpt><trkpt lat="43.763545464659664" lon="11.208304418013707"><ele>43.0</ele><time>2026-04-18T12:22:28Z</time></trkpt><trkpt lat="43.76363123290695" lon="11.208419389198527"><ele>43.0</ele><time>2026-04-18T12:22:30Z</time></trkpt><trkpt lat="43.76371548227686" lon="11.208539630389447"><ele>42.75</ele><time>2026-04-18T12:22:32Z</time></trkpt><trkpt lat="43.76380436846967" lon="11.208651771324426"><ele>42.5</ele><time>2026-04-18T12:22:34Z</time></trkpt><trkpt lat="43.76388849700376" lon="11.208769932534494"><ele>42.25</ele><time>2026-04-18T12:22:36Z</time></trkpt><trkpt lat="43.76396947651778" lon="11.208892440324716"><ele>42.0</ele><time>2026-04-18T12:22:38Z</time></trkpt><trkpt lat="43.764050945404854" lon="11.209011548721053"><ele>42.0</ele><time>2026-04-18T12:22:40Z</time></trkpt><trkpt lat="43.76412956011984" lon="11.209140674470488"><ele>42.0</ele><time>2026-04-18T12:22:42Z</time></trkpt><trkpt lat="43.764206519142796" lon="11.209276471106554"><ele>42.0</ele><time>2026-04-18T12:22:44Z</time></trkpt><trkpt lat="43.76428028822645" lon="11.209413426749823"><ele>42.0</ele><time>2026-04-18T12:22:46Z</time></trkpt><trkpt lat="43.76435795242003" lon="11.209528028236667"><ele>42.0</ele><time>2026-04-18T12:22:48Z</time></trkpt><trkpt lat="43.764412983732655" lon="11.209653377584887"><ele>42.0</ele><time>2026-04-18T12:22:50Z</time></trkpt><trkpt lat="43.764472208030654" lon="11.209757097019375"><ele>42.0</ele><time>2026-04-18T12:22:52Z</time></trkpt><trkpt lat="43.76437318857337" lon="11.209926231228488"><ele>42.0</ele><time>2026-04-18T12:22:55Z</time></trkpt><trkpt lat="43.764330797275534" lon="11.2100184338059"><ele>42.0</ele><time>2026-04-18T12:22:57Z</time></trkpt><trkpt lat="43.76426462503964" lon="11.210126830734664"><ele>42.2</ele><time>2026-04-18T12:22:59Z</time></trkpt><trkpt lat="43.764205110493116" lon="11.210230241411955"><ele>42.400000000000006</ele><time>2026-04-18T12:23:01Z</time></trkpt><trkpt lat="43.764138294041324" lon="11.21034706497315"><ele>42.599999999999994</ele><time>2026-04-18T12:23:03Z</time></trkpt><trkpt lat="43.76407490117276" lon="11.210458080508053"><ele>42.8</ele><time>2026-04-18T12:23:05Z</time></trkpt><trkpt lat="43.764009609147266" lon="11.210569832077697"><ele>43.0</ele><time>2026-04-18T12:23:07Z</time></trkpt><trkpt lat="43.763935464328846" lon="11.210679252227745"><ele>43.0</ele><time>2026-04-18T12:23:09Z</time></trkpt><trkpt lat="43.76387134600636" lon="11.210794612749174"><ele>43.0</ele><time>2026-04-18T12:23:11Z</time></trkpt><trkpt lat="43.763804946972805" lon="11.21090712351308"><ele>43.0</ele><time>2026-04-18T12:23:13Z</time></trkpt><trkpt lat="43.763742080199336" lon="11.211026852592655"><ele>43.0</ele><time>2026-04-18T12:23:15Z</time></trkpt><trkpt lat="43.763674479445264" lon="11.211133201437088"><ele>43.0</ele><time>2026-04-18T12:23:17Z</time></trkpt><trkpt lat="43.76360182110247" lon="11.211233888127346"><ele>43.0</ele><time>2026-04-18T12:23:19Z</time></trkpt><trkpt lat="43.76353276117536" lon="11.211344564517127"><ele>43.0</ele><time>2026-04-18T12:23:21Z</time></trkpt><trkpt lat="43.7634503650624" lon="11.211432821314716"><ele>43.0</ele><time>2026-04-18T12:23:23Z</time></trkpt><trkpt lat="43.76338518916888" lon="11.211559904172107"><ele>43.0</ele><time>2026-04-18T12:23:25Z</time></trkpt><trkpt lat="43.76333644491419" lon="11.211691523033297"><ele>43.0</ele><time>2026-04-18T12:23:27Z</time></trkpt><trkpt lat="43.76332129067848" lon="11.211839899430037"><ele>43.0</ele><time>2026-04-18T12:23:29Z</time></trkpt><trkpt lat="43.76330999585196" lon="11.211991143001125"><ele>43.0</ele><time>2026-04-18T12:23:31Z</time></trkpt><trkpt lat="43.76328934478563" lon="11.21213868493844"><ele>43.0</ele><time>2026-04-18T12:23:33Z</time></trkpt><trkpt lat="43.76326825413041" lon="11.212281186822677"><ele>43.0</ele><time>2026-04-18T12:23:35Z</time></trkpt><trkpt lat="43.76320450638484" lon="11.21239529534908"><ele>43.0</ele><time>2026-04-18T12:23:37Z</time></trkpt><trkpt lat="43.76312134273697" lon="11.212487984231402"><ele>43.0</ele><time>2026-04-18T12:23:39Z</time></trkpt><trkpt lat="43.76302450464864" lon="11.212555993805513"><ele>43.0</ele><time>2026-04-18T12:23:41Z</time></trkpt><trkpt lat="43.762920354619176" lon="11.21259823894294"><ele>43.0</ele><time>2026-04-18T12:23:43Z</time></trkpt><trkpt lat="43.762826568216695" lon="11.212651074038293"><ele>43.0</ele><time>2026-04-18T12:23:45Z</time></trkpt><trkpt lat="43.76274979179697" lon="11.212739506382352"><ele>43.0</ele><time>2026-04-18T12:23:47Z</time></trkpt><trkpt lat="43.76268582945727" lon="11.212839226078167"><ele>43.0</ele><time>2026-04-18T12:23:49Z</time></trkpt><trkpt lat="43.76262196690059" lon="11.212949215131108"><ele>43.0</ele><time>2026-04-18T12:23:51Z</time></trkpt><trkpt lat="43.76255122915652" lon="11.213041314778765"><ele>43.0</ele><time>2026-04-18T12:23:53Z</time></trkpt><trkpt lat="43.76247071964601" lon="11.213153805356349"><ele>43.0</ele><time>2026-04-18T12:23:55Z</time></trkpt><trkpt lat="43.76237650279021" lon="11.213244036546245"><ele>43.0</ele><time>2026-04-18T12:23:57Z</time></trkpt><trkpt lat="43.76230914421904" lon="11.2133563359811"><ele>43.0</ele><time>2026-04-18T12:23:59Z</time></trkpt><trkpt lat="43.762229790907085" lon="11.213455017244971"><ele>43.0</ele><time>2026-04-18T12:24:01Z</time></trkpt><trkpt lat="43.76214687048626" lon="11.213532779054106"><ele>43.0</ele><time>2026-04-18T12:24:03Z</time></trkpt><trkpt lat="43.76206948936606" lon="11.21362542741187"><ele>43.0</ele><time>2026-04-18T12:24:05Z</time></trkpt><trkpt lat="43.76198728798932" lon="11.213721916189039"><ele>43.0</ele><time>2026-04-18T12:24:07Z</time></trkpt><trkpt lat="43.7619360461224" lon="11.213848707092762"><ele>43.0</ele><time>2026-04-18T12:24:09Z</time></trkpt><trkpt lat="43.76190748529682" lon="11.213978356267804"><ele>43.0</ele><time>2026-04-18T12:24:11Z</time></trkpt><trkpt lat="43.76189519651732" lon="11.214121880938263"><ele>43.0</ele><time>2026-04-18T12:24:13Z</time></trkpt><trkpt lat="43.76187875753709" lon="11.214265306447057"><ele>43.0</ele><time>2026-04-18T12:24:15Z</time></trkpt><trkpt lat="43.761874029317056" lon="11.214414771272718"><ele>43.0</ele><time>2026-04-18T12:24:17Z</time></trkpt><trkpt lat="43.76186802497587" lon="11.21455657980146"><ele>44.0</ele><time>2026-04-18T12:24:19Z</time></trkpt><trkpt lat="43.761858536614334" lon="11.214709720089786"><ele>45.0</ele><time>2026-04-18T12:24:21Z</time></trkpt><trkpt lat="43.761824276125786" lon="11.214851936311751"><ele>46.0</ele><time>2026-04-18T12:24:23Z</time></trkpt><trkpt lat="43.76180285324897" lon="11.214988681043312"><ele>47.0</ele><time>2026-04-18T12:24:25Z</time></trkpt><trkpt lat="43.76176456899032" lon="11.215123953041434"><ele>48.0</ele><time>2026-04-18T12:24:27Z</time></trkpt><trkpt lat="43.76171639358314" lon="11.215264060674677"><ele>48.4</ele><time>2026-04-18T12:24:29Z</time></trkpt><trkpt lat="43.761673567037256" lon="11.215387089904102"><ele>48.8</ele><time>2026-04-18T12:24:31Z</time></trkpt><trkpt lat="43.761638566470204" lon="11.215526956782378"><ele>49.2</ele><time>2026-04-18T12:24:33Z</time></trkpt><trkpt lat="43.761596469189094" lon="11.215647628675839"><ele>49.6</ele><time>2026-04-18T12:24:35Z</time></trkpt><trkpt lat="43.76156032422555" lon="11.21577136096831"><ele>50.0</ele><time>2026-04-18T12:24:37Z</time></trkpt><trkpt lat="43.761499416440124" lon="11.215890793994186"><ele>50.16666666666667</ele><time>2026-04-18T12:24:39Z</time></trkpt><trkpt lat="43.76145937196339" lon="11.215996755675938"><ele>50.333333333333336</ele><time>2026-04-18T12:24:41Z</time></trkpt><trkpt lat="43.76142348270721" lon="11.216094695793245"><ele>50.5</ele><time>2026-04-18T12:24:43Z</time></trkpt><trkpt lat="43.76138937060505" lon="11.216200030991766"><ele>50.66666666666667</ele><time>2026-04-18T12:24:46Z</time></trkpt><trkpt lat="43.76135676026645" lon="11.216291479821894"><ele>50.833333333333336</ele><time>2026-04-18T12:24:49Z</time></trkpt><trkpt lat="43.761335964258706" lon="11.216378075429514"><ele>51.0</ele><time>2026-04-18T12:24:52Z</time></trkpt><trkpt lat="43.761419370971915" lon="11.21644970235673"><ele>51.199999999999996</ele><time>2026-04-18T12:24:54Z</time></trkpt><trkpt lat="43.761508258573166" lon="11.216545389494675"><ele>51.4</ele><time>2026-04-18T12:24:56Z</time></trkpt><trkpt lat="43.76159825233031" lon="11.216632535115027"><ele>51.6</ele><time>2026-04-18T12:24:58Z</time></trkpt><trkpt lat="43.76169465028222" lon="11.216697569908746"><ele>51.8</ele><time>2026-04-18T12:25:00Z</time></trkpt><trkpt lat="43.761779014818245" lon="11.216751410947689"><ele>52.0</ele><time>2026-04-18T12:25:02Z</time></trkpt><trkpt lat="43.76186923195792" lon="11.216808885502443"><ele>52.166666666666664</ele><time>2026-04-18T12:25:04Z</time></trkpt><trkpt lat="43.76194947685955" lon="11.216867827009088"><ele>52.33333333333333</ele><time>2026-04-18T12:25:06Z</time></trkpt><trkpt lat="43.762021159255795" lon="11.216912222162652"><ele>52.5</ele><time>2026-04-18T12:25:08Z</time></trkpt><trkpt lat="43.76210213201033" lon="11.216945085217045"><ele>52.66666666666667</ele><time>2026-04-18T12:25:10Z</time></trkpt><trkpt lat="43.76217944288349" lon="11.216981357425544"><ele>52.833333333333336</ele><time>2026-04-18T12:25:12Z</time></trkpt><trkpt lat="43.76226221213793" lon="11.217009878018981"><ele>53.0</ele><time>2026-04-18T12:25:14Z</time></trkpt><trkpt lat="43.76234263888357" lon="11.217047161917856"><ele>53.0</ele><time>2026-04-18T12:25:16Z</time></trkpt><trkpt lat="43.76243662789527" lon="11.217062544749483"><ele>53.0</ele><time>2026-04-18T12:25:18Z</time></trkpt><trkpt lat="43.76252647399743" lon="11.217095640655645"><ele>53.0</ele><time>2026-04-18T12:25:20Z</time></trkpt><trkpt lat="43.762623896784206" lon="11.217122062655806"><ele>53.0</ele><time>2026-04-18T12:25:22Z</time></trkpt><trkpt lat="43.762708972593494" lon="11.217169853434562"><ele>53.0</ele><time>2026-04-18T12:25:24Z</time></trkpt><trkpt lat="43.76280185057311" lon="11.217223184112465"><ele>52.4</ele><time>2026-04-18T12:25:26Z</time></trkpt><trkpt lat="43.76287672750097" lon="11.217311079948129"><ele>51.8</ele><time>2026-04-18T12:25:28Z</time></trkpt><trkpt lat="43.762962956875356" lon="11.217399435630625"><ele>51.2</ele><time>2026-04-18T12:25:30Z</time></trkpt><trkpt lat="43.76304312980038" lon="11.217496237913341"><ele>50.6</ele><time>2026-04-18T12:25:32Z</time></trkpt><trkpt lat="43.76312432615804" lon="11.217601045698188"><ele>50.0</ele><time>2026-04-18T12:25:34Z</time></trkpt><trkpt lat="43.763203589717925" lon="11.217697969814196"><ele>49.6</ele><time>2026-04-18T12:25:36Z</time></trkpt><trkpt lat="43.76327623369534" lon="11.217806435796112"><ele>49.2</ele><time>2026-04-18T12:25:38Z</time></trkpt><trkpt lat="43.76334894795475" lon="11.217912286704768"><ele>48.8</ele><time>2026-04-18T12:25:40Z</time></trkpt><trkpt lat="43.76342060286738" lon="11.218011600144973"><ele>48.4</ele><time>2026-04-18T12:25:42Z</time></trkpt><trkpt lat="43.76349059845644" lon="11.218101480197964"><ele>48.0</ele><time>2026-04-18T12:25:44Z</time></trkpt><trkpt lat="43.7635614151962" lon="11.218180188178623"><ele>48.0</ele><time>2026-04-18T12:25:46Z</time></trkpt><trkpt lat="43.76363651135772" lon="11.21825872896734"><ele>48.0</ele><time>2026-04-18T12:25:48Z</time></trkpt><trkpt lat="43.76370096792747" lon="11.21833720624417"><ele>48.0</ele><time>2026-04-18T12:25:50Z</time></trkpt><trkpt lat="43.76375257503742" lon="11.218425692820476"><ele>48.0</ele><time>2026-04-18T12:25:52Z</time></trkpt><trkpt lat="43.763831218718444" lon="11.218487853300989"><ele>48.0</ele><time>2026-04-18T12:25:54Z</time></trkpt><trkpt lat="43.763895785340175" lon="11.218575413716044"><ele>48.0</ele><time>2026-04-18T12:25:56Z</time></trkpt><trkpt lat="43.763966714886806" lon="11.218648824755133"><ele>48.0</ele><time>2026-04-18T12:25:58Z</time></trkpt><trkpt lat="43.76405552462825" lon="11.21872062690846"><ele>48.0</ele><time>2026-04-18T12:26:00Z</time></trkpt><trkpt lat="43.764145901308204" lon="11.218828167147013"><ele>48.0</ele><time>2026-04-18T12:26:02Z</time></trkpt><trkpt lat="43.764242002108524" lon="11.218933117199773"><ele>48.0</ele><time>2026-04-18T12:26:04Z</time></trkpt><trkpt lat="43.764342040520084" lon="11.21902539695302"><ele>48.25</ele><time>2026-04-18T12:26:06Z</time></trkpt><trkpt lat="43.76445432016234" lon="11.21911192091231"><ele>48.5</ele><time>2026-04-18T12:26:08Z</time></trkpt><trkpt lat="43.76455326709603" lon="11.219210448165013"><ele>48.75</ele><time>2026-04-18T12:26:10Z</time></trkpt><trkpt lat="43.76464847186378" lon="11.21930292837184"><ele>49.0</ele><time>2026-04-18T12:26:12Z</time></trkpt><trkpt lat="43.764748556003816" lon="11.219424626779249"><ele>49.0</ele><time>2026-04-18T12:26:14Z</time></trkpt><trkpt lat="43.76486967478442" lon="11.219509842075468"><ele>49.0</ele><time>2026-04-18T12:26:16Z</time></trkpt><trkpt lat="43.76498189978631" lon="11.21957532336368"><ele>49.0</ele><time>2026-04-18T12:26:18Z</time></trkpt><trkpt lat="43.765100390107094" lon="11.21962569453291"><ele>49.0</ele><time>2026-04-18T12:26:20Z</time></trkpt><trkpt lat="43.76516432401042" lon="11.219621735053561"><ele>49.0</ele><time>2026-04-18T12:26:21Z</time></trkpt><trkpt lat="43.765270985638494" lon="11.219510595849213"><ele>48.800000000000004</ele><time>2026-04-18T12:26:23Z</time></trkpt><trkpt lat="43.76531480413576" lon="11.219368642698837"><ele>48.6</ele><time>2026-04-18T12:26:25Z</time></trkpt><trkpt lat="43.76536238089459" lon="11.219243631266341"><ele>48.4</ele><time>2026-04-18T12:26:27Z</time></trkpt><trkpt lat="43.76540725879856" lon="11.219115214540672"><ele>48.2</ele><time>2026-04-18T12:26:29Z</time></trkpt><trkpt lat="43.76544640070877" lon="11.219002233702028"><ele>48.0</ele><time>2026-04-18T12:26:31Z</time></trkpt><trkpt lat="43.76548528436047" lon="11.218891268864379"><ele>47.8</ele><time>2026-04-18T12:26:33Z</time></trkpt><trkpt lat="43.76552105697734" lon="11.218782188687637"><ele>47.599999999999994</ele><time>2026-04-18T12:26:35Z</time></trkpt><trkpt lat="43.76555265747502" lon="11.218665591583218"><ele>47.400000000000006</ele><time>2026-04-18T12:26:37Z</time></trkpt><trkpt lat="43.76559520703025" lon="11.218555937843059"><ele>47.2</ele><time>2026-04-18T12:26:39Z</time></trkpt><trkpt lat="43.765636090472135" lon="11.218436622397611"><ele>47.0</ele><time>2026-04-18T12:26:41Z</time></trkpt><trkpt lat="43.765683919866966" lon="11.218322226053788"><ele>47.0</ele><time>2026-04-18T12:26:43Z</time></trkpt><trkpt lat="43.76573231993157" lon="11.218202592523518"><ele>47.0</ele><time>2026-04-18T12:26:45Z</time></trkpt><trkpt lat="43.76576796191864" lon="11.218072971154463"><ele>47.0</ele><time>2026-04-18T12:26:47Z</time></trkpt><trkpt lat="43.7658103711996" lon="11.217945556949132"><ele>47.0</ele><time>2026-04-18T12:26:49Z</time></trkpt><trkpt lat="43.76585885662949" lon="11.217829304149085"><ele>47.0</ele><time>2026-04-18T12:26:51Z</time></trkpt><trkpt lat="43.76590271668197" lon="11.217713917749629"><ele>47.0</ele><time>2026-04-18T12:26:53Z</time></trkpt><trkpt lat="43.76594107149605" lon="11.217604142293492"><ele>47.0</ele><time>2026-04-18T12:26:55Z</time></trkpt><trkpt lat="43.76599890092016" lon="11.217506834103428"><ele>47.0</ele><time>2026-04-18T12:26:57Z</time></trkpt><trkpt lat="43.766020684712515" lon="11.217416695782081"><ele>47.0</ele><time>2026-04-18T12:26:59Z</time></trkpt><trkpt lat="43.766204714575125" lon="11.217474078453295"><ele>47.0</ele><time>2026-04-18T12:27:02Z</time></trkpt><trkpt lat="43.76627752102394" lon="11.21753400998342"><ele>47.0</ele><time>2026-04-18T12:27:04Z</time></trkpt><trkpt lat="43.76633475945424" lon="11.217605226587347"><ele>47.0</ele><time>2026-04-18T12:27:06Z</time></trkpt><trkpt lat="43.76642302558561" lon="11.217495804188808"><ele>47.0</ele><time>2026-04-18T12:27:08Z</time></trkpt><trkpt lat="43.766469042496375" lon="11.217371098659823"><ele>47.0</ele><time>2026-04-18T12:27:10Z</time></trkpt><trkpt lat="43.76652262875811" lon="11.217253218752608"><ele>47.0</ele><time>2026-04-18T12:27:12Z</time></trkpt><trkpt lat="43.76657975821343" lon="11.217126892063357"><ele>47.0</ele><time>2026-04-18T12:27:14Z</time></trkpt><trkpt lat="43.766629416739214" lon="11.217013689399295"><ele>47.0</ele><time>2026-04-18T12:27:16Z</time></trkpt><trkpt lat="43.766673665653954" lon="11.216903726722547"><ele>47.0</ele><time>2026-04-18T12:27:18Z</time></trkpt><trkpt lat="43.76669607951047" lon="11.216817919660755"><ele>47.0</ele><time>2026-04-18T12:27:20Z</time></trkpt></trkseg></trk></gpx>